<?xml version="1.0" encoding="UTF-8" standalone="no" ?>
<gpx xmlns="http://www.topografix.com/GPX/1/1" xmlns:xsi="http://www.w3.org/2001/XMLSchema-instance" xsi:schemaLocation="http://www.topografix.com/GPX/1/1 http://www.topografix.com/GPX/1/1/gpx.xsd" version="1.1" creator="VisuGPX - https://www.visugpx.com">
  <metadata>
    <name>Vienne-Châtonnay : La Route des Mulets ®</name>
    <desc><![CDATA[Grand itinéraire EquiLiberté : du Poitou/charentte à l'Italie]]></desc>
  </metadata>
  <trk>
    <name><![CDATA[Chatonnay-Vienne]]></name>
    <trkseg>
      <trkpt lat="45.48965" lon="5.20133">
        <ele>415.43</ele>
        <time>2016-05-02T13:32:17Z</time>
      </trkpt>
      <trkpt lat="45.48953" lon="5.20156">
        <ele>413.98</ele>
        <time>2016-05-02T13:32:41Z</time>
      </trkpt>
      <trkpt lat="45.48919" lon="5.20177">
        <ele>413.5</ele>
        <time>2016-05-02T13:33:10Z</time>
      </trkpt>
      <trkpt lat="45.4891" lon="5.20182">
        <ele>417.83</ele>
        <time>2016-05-02T13:33:18Z</time>
      </trkpt>
      <trkpt lat="45.48906" lon="5.20184">
        <ele>422.16</ele>
        <time>2016-05-02T13:33:21Z</time>
      </trkpt>
      <trkpt lat="45.48904" lon="5.20185">
        <ele>425.04</ele>
        <time>2016-05-02T13:33:23Z</time>
      </trkpt>
      <trkpt lat="45.48901" lon="5.20187">
        <ele>429.37</ele>
        <time>2016-05-02T13:33:26Z</time>
      </trkpt>
      <trkpt lat="45.48898" lon="5.20189">
        <ele>432.25</ele>
        <time>2016-05-02T13:33:29Z</time>
      </trkpt>
      <trkpt lat="45.48894" lon="5.2019">
        <ele>435.61</ele>
        <time>2016-05-02T13:33:32Z</time>
      </trkpt>
      <trkpt lat="45.48891" lon="5.20192">
        <ele>438.5</ele>
        <time>2016-05-02T13:33:35Z</time>
      </trkpt>
      <trkpt lat="45.48887" lon="5.20194">
        <ele>441.38</ele>
        <time>2016-05-02T13:33:39Z</time>
      </trkpt>
      <trkpt lat="45.48881" lon="5.20197">
        <ele>444.27</ele>
        <time>2016-05-02T13:33:44Z</time>
      </trkpt>
      <trkpt lat="45.48879" lon="5.20197">
        <ele>445.71</ele>
        <time>2016-05-02T13:33:46Z</time>
      </trkpt>
      <trkpt lat="45.4887" lon="5.20203">
        <ele>449.55</ele>
        <time>2016-05-02T13:33:55Z</time>
      </trkpt>
      <trkpt lat="45.4886" lon="5.20212">
        <ele>452.44</ele>
        <time>2016-05-02T13:34:06Z</time>
      </trkpt>
      <trkpt lat="45.48837" lon="5.20234">
        <ele>454.36</ele>
        <time>2016-05-02T13:34:30Z</time>
      </trkpt>
      <trkpt lat="45.48821" lon="5.20252">
        <ele>453.88</ele>
        <time>2016-05-02T13:34:44Z</time>
      </trkpt>
      <trkpt lat="45.48819" lon="5.20258">
        <ele>454.36</ele>
        <time>2016-05-02T13:34:49Z</time>
      </trkpt>
      <trkpt lat="45.48814" lon="5.20262">
        <ele>454.36</ele>
        <time>2016-05-02T13:34:54Z</time>
      </trkpt>
      <trkpt lat="45.48803" lon="5.20272">
        <ele>454.84</ele>
        <time>2016-05-02T13:35:08Z</time>
      </trkpt>
      <trkpt lat="45.48787" lon="5.20282">
        <ele>454.36</ele>
        <time>2016-05-02T13:35:19Z</time>
      </trkpt>
      <trkpt lat="45.4878" lon="5.2029">
        <ele>452.92</ele>
        <time>2016-05-02T13:35:24Z</time>
      </trkpt>
      <trkpt lat="45.48764" lon="5.20303">
        <ele>453.88</ele>
        <time>2016-05-02T13:35:36Z</time>
      </trkpt>
      <trkpt lat="45.48757" lon="5.20313">
        <ele>454.36</ele>
        <time>2016-05-02T13:35:44Z</time>
      </trkpt>
      <trkpt lat="45.48742" lon="5.20336">
        <ele>454.36</ele>
        <time>2016-05-02T13:36:00Z</time>
      </trkpt>
      <trkpt lat="45.48733" lon="5.20341">
        <ele>453.4</ele>
        <time>2016-05-02T13:36:12Z</time>
      </trkpt>
      <trkpt lat="45.48731" lon="5.20339">
        <ele>455.32</ele>
        <time>2016-05-02T13:36:14Z</time>
      </trkpt>
      <trkpt lat="45.4873" lon="5.20342">
        <ele>455.32</ele>
        <time>2016-05-02T13:36:18Z</time>
      </trkpt>
      <trkpt lat="45.48725" lon="5.20355">
        <ele>454.84</ele>
        <time>2016-05-02T13:36:28Z</time>
      </trkpt>
      <trkpt lat="45.48724" lon="5.20355">
        <ele>455.32</ele>
        <time>2016-05-02T13:36:32Z</time>
      </trkpt>
      <trkpt lat="45.48718" lon="5.20368">
        <ele>455.8</ele>
        <time>2016-05-02T13:36:40Z</time>
      </trkpt>
      <trkpt lat="45.48715" lon="5.20376">
        <ele>455.8</ele>
        <time>2016-05-02T13:36:46Z</time>
      </trkpt>
      <trkpt lat="45.48708" lon="5.20396">
        <ele>456.76</ele>
        <time>2016-05-02T13:36:55Z</time>
      </trkpt>
      <trkpt lat="45.48707" lon="5.20399">
        <ele>456.28</ele>
        <time>2016-05-02T13:36:57Z</time>
      </trkpt>
      <trkpt lat="45.48689" lon="5.20428">
        <ele>457.24</ele>
        <time>2016-05-02T13:37:16Z</time>
      </trkpt>
      <trkpt lat="45.4868" lon="5.20456">
        <ele>457.72</ele>
        <time>2016-05-02T13:37:31Z</time>
      </trkpt>
      <trkpt lat="45.48676" lon="5.20457">
        <ele>458.69</ele>
        <time>2016-05-02T13:37:34Z</time>
      </trkpt>
      <trkpt lat="45.48664" lon="5.2045">
        <ele>457.72</ele>
        <time>2016-05-02T13:37:44Z</time>
      </trkpt>
      <trkpt lat="45.48658" lon="5.20447">
        <ele>457.72</ele>
        <time>2016-05-02T13:37:49Z</time>
      </trkpt>
      <trkpt lat="45.48654" lon="5.20446">
        <ele>457.24</ele>
        <time>2016-05-02T13:37:52Z</time>
      </trkpt>
      <trkpt lat="45.48647" lon="5.20442">
        <ele>457.72</ele>
        <time>2016-05-02T13:37:56Z</time>
      </trkpt>
      <trkpt lat="45.48626" lon="5.20437">
        <ele>456.76</ele>
        <time>2016-05-02T13:38:09Z</time>
      </trkpt>
      <trkpt lat="45.48618" lon="5.20434">
        <ele>458.69</ele>
        <time>2016-05-02T13:38:16Z</time>
      </trkpt>
      <trkpt lat="45.48615" lon="5.20427">
        <ele>456.76</ele>
        <time>2016-05-02T13:38:20Z</time>
      </trkpt>
      <trkpt lat="45.48612" lon="5.20424">
        <ele>455.8</ele>
        <time>2016-05-02T13:38:25Z</time>
      </trkpt>
      <trkpt lat="45.48606" lon="5.20423">
        <ele>455.32</ele>
        <time>2016-05-02T13:38:30Z</time>
      </trkpt>
      <trkpt lat="45.486" lon="5.20422">
        <ele>455.32</ele>
        <time>2016-05-02T13:38:33Z</time>
      </trkpt>
      <trkpt lat="45.48588" lon="5.2041">
        <ele>456.28</ele>
        <time>2016-05-02T13:38:46Z</time>
      </trkpt>
      <trkpt lat="45.48583" lon="5.20407">
        <ele>456.28</ele>
        <time>2016-05-02T13:38:51Z</time>
      </trkpt>
      <trkpt lat="45.48581" lon="5.20403">
        <ele>455.32</ele>
        <time>2016-05-02T13:38:53Z</time>
      </trkpt>
      <trkpt lat="45.48578" lon="5.20399">
        <ele>456.28</ele>
        <time>2016-05-02T13:38:57Z</time>
      </trkpt>
      <trkpt lat="45.48575" lon="5.20396">
        <ele>455.32</ele>
        <time>2016-05-02T13:39:01Z</time>
      </trkpt>
      <trkpt lat="45.48571" lon="5.2039">
        <ele>454.84</ele>
        <time>2016-05-02T13:39:06Z</time>
      </trkpt>
      <trkpt lat="45.4857" lon="5.20387">
        <ele>454.84</ele>
        <time>2016-05-02T13:39:09Z</time>
      </trkpt>
      <trkpt lat="45.48564" lon="5.20381">
        <ele>454.84</ele>
        <time>2016-05-02T13:39:13Z</time>
      </trkpt>
      <trkpt lat="45.48561" lon="5.20378">
        <ele>454.36</ele>
        <time>2016-05-02T13:39:15Z</time>
      </trkpt>
      <trkpt lat="45.48553" lon="5.20371">
        <ele>455.32</ele>
        <time>2016-05-02T13:39:21Z</time>
      </trkpt>
      <trkpt lat="45.4855" lon="5.20368">
        <ele>456.28</ele>
        <time>2016-05-02T13:39:26Z</time>
      </trkpt>
      <trkpt lat="45.48547" lon="5.2036">
        <ele>456.28</ele>
        <time>2016-05-02T13:39:29Z</time>
      </trkpt>
      <trkpt lat="45.48542" lon="5.20356">
        <ele>456.76</ele>
        <time>2016-05-02T13:39:51Z</time>
      </trkpt>
      <trkpt lat="45.4854" lon="5.20355">
        <ele>457.72</ele>
        <time>2016-05-02T13:40:00Z</time>
      </trkpt>
      <trkpt lat="45.48538" lon="5.20356">
        <ele>457.72</ele>
        <time>2016-05-02T13:40:10Z</time>
      </trkpt>
      <trkpt lat="45.48532" lon="5.20341">
        <ele>457.72</ele>
        <time>2016-05-02T13:40:39Z</time>
      </trkpt>
      <trkpt lat="45.48529" lon="5.20335">
        <ele>459.17</ele>
        <time>2016-05-02T13:40:44Z</time>
      </trkpt>
      <trkpt lat="45.48528" lon="5.20332">
        <ele>458.69</ele>
        <time>2016-05-02T13:40:46Z</time>
      </trkpt>
      <trkpt lat="45.48517" lon="5.20323">
        <ele>459.17</ele>
        <time>2016-05-02T13:41:00Z</time>
      </trkpt>
      <trkpt lat="45.48516" lon="5.20322">
        <ele>460.61</ele>
        <time>2016-05-02T13:41:03Z</time>
      </trkpt>
      <trkpt lat="45.48513" lon="5.2032">
        <ele>460.13</ele>
        <time>2016-05-02T13:41:20Z</time>
      </trkpt>
      <trkpt lat="45.48511" lon="5.20314">
        <ele>460.61</ele>
        <time>2016-05-02T13:41:27Z</time>
      </trkpt>
      <trkpt lat="45.48512" lon="5.20311">
        <ele>461.09</ele>
        <time>2016-05-02T13:41:41Z</time>
      </trkpt>
      <trkpt lat="45.48509" lon="5.20311">
        <ele>460.61</ele>
        <time>2016-05-02T13:42:06Z</time>
      </trkpt>
      <trkpt lat="45.48508" lon="5.20308">
        <ele>460.13</ele>
        <time>2016-05-02T13:42:09Z</time>
      </trkpt>
      <trkpt lat="45.48502" lon="5.20297">
        <ele>462.05</ele>
        <time>2016-05-02T13:42:20Z</time>
      </trkpt>
      <trkpt lat="45.48499" lon="5.20288">
        <ele>463.01</ele>
        <time>2016-05-02T13:42:29Z</time>
      </trkpt>
      <trkpt lat="45.48497" lon="5.20269">
        <ele>466.38</ele>
        <time>2016-05-02T13:42:42Z</time>
      </trkpt>
      <trkpt lat="45.48497" lon="5.20265">
        <ele>467.34</ele>
        <time>2016-05-02T13:42:44Z</time>
      </trkpt>
      <trkpt lat="45.485" lon="5.20241">
        <ele>468.78</ele>
        <time>2016-05-02T13:43:04Z</time>
      </trkpt>
      <trkpt lat="45.48505" lon="5.20218">
        <ele>472.14</ele>
        <time>2016-05-02T13:43:27Z</time>
      </trkpt>
      <trkpt lat="45.48505" lon="5.20204">
        <ele>473.11</ele>
        <time>2016-05-02T13:43:40Z</time>
      </trkpt>
      <trkpt lat="45.48501" lon="5.20177">
        <ele>475.03</ele>
        <time>2016-05-02T13:44:01Z</time>
      </trkpt>
      <trkpt lat="45.48497" lon="5.20162">
        <ele>478.39</ele>
        <time>2016-05-02T13:44:15Z</time>
      </trkpt>
      <trkpt lat="45.48495" lon="5.20154">
        <ele>479.35</ele>
        <time>2016-05-02T13:44:21Z</time>
      </trkpt>
      <trkpt lat="45.48484" lon="5.20144">
        <ele>482.72</ele>
        <time>2016-05-02T13:44:37Z</time>
      </trkpt>
      <trkpt lat="45.48476" lon="5.20142">
        <ele>486.08</ele>
        <time>2016-05-02T13:45:10Z</time>
      </trkpt>
      <trkpt lat="45.48474" lon="5.20163">
        <ele>487.53</ele>
        <time>2016-05-02T13:45:30Z</time>
      </trkpt>
      <trkpt lat="45.48465" lon="5.20177">
        <ele>490.41</ele>
        <time>2016-05-02T13:45:48Z</time>
      </trkpt>
      <trkpt lat="45.48468" lon="5.20182">
        <ele>490.89</ele>
        <time>2016-05-02T13:46:03Z</time>
      </trkpt>
      <trkpt lat="45.48461" lon="5.20186">
        <ele>490.89</ele>
        <time>2016-05-02T13:46:10Z</time>
      </trkpt>
      <trkpt lat="45.48453" lon="5.20185">
        <ele>492.81</ele>
        <time>2016-05-02T13:46:20Z</time>
      </trkpt>
      <trkpt lat="45.48438" lon="5.20184">
        <ele>496.18</ele>
        <time>2016-05-02T13:46:39Z</time>
      </trkpt>
      <trkpt lat="45.48429" lon="5.20185">
        <ele>498.1</ele>
        <time>2016-05-02T13:46:55Z</time>
      </trkpt>
      <trkpt lat="45.4841" lon="5.20184">
        <ele>501.46</ele>
        <time>2016-05-02T13:47:25Z</time>
      </trkpt>
      <trkpt lat="45.48384" lon="5.20187">
        <ele>504.83</ele>
        <time>2016-05-02T13:47:56Z</time>
      </trkpt>
      <trkpt lat="45.48375" lon="5.20191">
        <ele>505.31</ele>
        <time>2016-05-02T13:48:06Z</time>
      </trkpt>
      <trkpt lat="45.4836" lon="5.20203">
        <ele>506.27</ele>
        <time>2016-05-02T13:48:31Z</time>
      </trkpt>
      <trkpt lat="45.4836" lon="5.20204">
        <ele>505.79</ele>
        <time>2016-05-02T13:49:00Z</time>
      </trkpt>
      <trkpt lat="45.48361" lon="5.20208">
        <ele>506.75</ele>
        <time>2016-05-02T13:49:44Z</time>
      </trkpt>
      <trkpt lat="45.48362" lon="5.20209">
        <ele>506.75</ele>
        <time>2016-05-02T13:50:18Z</time>
      </trkpt>
      <trkpt lat="45.48364" lon="5.20205">
        <ele>507.71</ele>
        <time>2016-05-02T13:51:13Z</time>
      </trkpt>
      <trkpt lat="45.48363" lon="5.20206">
        <ele>507.71</ele>
        <time>2016-05-02T13:52:32Z</time>
      </trkpt>
      <trkpt lat="45.48346" lon="5.20224">
        <ele>508.67</ele>
        <time>2016-05-02T13:52:54Z</time>
      </trkpt>
      <trkpt lat="45.48338" lon="5.20237">
        <ele>511.56</ele>
        <time>2016-05-02T13:53:09Z</time>
      </trkpt>
      <trkpt lat="45.48324" lon="5.20251">
        <ele>514.44</ele>
        <time>2016-05-02T13:53:26Z</time>
      </trkpt>
      <trkpt lat="45.48312" lon="5.20265">
        <ele>516.85</ele>
        <time>2016-05-02T13:53:39Z</time>
      </trkpt>
      <trkpt lat="45.48286" lon="5.20284">
        <ele>519.25</ele>
        <time>2016-05-02T13:54:04Z</time>
      </trkpt>
      <trkpt lat="45.48274" lon="5.20295">
        <ele>520.69</ele>
        <time>2016-05-02T13:54:12Z</time>
      </trkpt>
      <trkpt lat="45.4827" lon="5.203">
        <ele>520.21</ele>
        <time>2016-05-02T13:54:16Z</time>
      </trkpt>
      <trkpt lat="45.48255" lon="5.20317">
        <ele>519.25</ele>
        <time>2016-05-02T13:54:35Z</time>
      </trkpt>
      <trkpt lat="45.48253" lon="5.20319">
        <ele>519.25</ele>
        <time>2016-05-02T13:54:37Z</time>
      </trkpt>
      <trkpt lat="45.4825" lon="5.20328">
        <ele>518.77</ele>
        <time>2016-05-02T13:54:43Z</time>
      </trkpt>
      <trkpt lat="45.48229" lon="5.2036">
        <ele>518.29</ele>
        <time>2016-05-02T13:55:08Z</time>
      </trkpt>
      <trkpt lat="45.48218" lon="5.20369">
        <ele>518.29</ele>
        <time>2016-05-02T13:55:20Z</time>
      </trkpt>
      <trkpt lat="45.48212" lon="5.20369">
        <ele>518.29</ele>
        <time>2016-05-02T13:55:25Z</time>
      </trkpt>
      <trkpt lat="45.48194" lon="5.20361">
        <ele>518.29</ele>
        <time>2016-05-02T13:55:36Z</time>
      </trkpt>
      <trkpt lat="45.48189" lon="5.20351">
        <ele>518.29</ele>
        <time>2016-05-02T13:55:45Z</time>
      </trkpt>
      <trkpt lat="45.48185" lon="5.2035">
        <ele>518.77</ele>
        <time>2016-05-02T13:55:50Z</time>
      </trkpt>
      <trkpt lat="45.48183" lon="5.20342">
        <ele>518.29</ele>
        <time>2016-05-02T13:55:57Z</time>
      </trkpt>
      <trkpt lat="45.48167" lon="5.20315">
        <ele>519.25</ele>
        <time>2016-05-02T13:56:20Z</time>
      </trkpt>
      <trkpt lat="45.48156" lon="5.20301">
        <ele>521.17</ele>
        <time>2016-05-02T13:56:35Z</time>
      </trkpt>
      <trkpt lat="45.48144" lon="5.20289">
        <ele>521.65</ele>
        <time>2016-05-02T13:56:51Z</time>
      </trkpt>
      <trkpt lat="45.48142" lon="5.20288">
        <ele>521.65</ele>
        <time>2016-05-02T13:56:53Z</time>
      </trkpt>
      <trkpt lat="45.48117" lon="5.20274">
        <ele>521.65</ele>
        <time>2016-05-02T13:57:15Z</time>
      </trkpt>
      <trkpt lat="45.48088" lon="5.20262">
        <ele>522.13</ele>
        <time>2016-05-02T13:57:40Z</time>
      </trkpt>
      <trkpt lat="45.48063" lon="5.20251">
        <ele>522.61</ele>
        <time>2016-05-02T13:58:00Z</time>
      </trkpt>
      <trkpt lat="45.48055" lon="5.2025">
        <ele>522.61</ele>
        <time>2016-05-02T13:58:06Z</time>
      </trkpt>
      <trkpt lat="45.48036" lon="5.20243">
        <ele>523.09</ele>
        <time>2016-05-02T13:58:23Z</time>
      </trkpt>
      <trkpt lat="45.48033" lon="5.20242">
        <ele>522.61</ele>
        <time>2016-05-02T13:58:28Z</time>
      </trkpt>
      <trkpt lat="45.48013" lon="5.20238">
        <ele>522.13</ele>
        <time>2016-05-02T13:58:44Z</time>
      </trkpt>
      <trkpt lat="45.4799" lon="5.20238">
        <ele>522.61</ele>
        <time>2016-05-02T13:59:04Z</time>
      </trkpt>
      <trkpt lat="45.47984" lon="5.20239">
        <ele>523.09</ele>
        <time>2016-05-02T13:59:12Z</time>
      </trkpt>
      <trkpt lat="45.47968" lon="5.20239">
        <ele>522.13</ele>
        <time>2016-05-02T13:59:30Z</time>
      </trkpt>
      <trkpt lat="45.47945" lon="5.20241">
        <ele>522.13</ele>
        <time>2016-05-02T13:59:48Z</time>
      </trkpt>
      <trkpt lat="45.4794" lon="5.20241">
        <ele>521.65</ele>
        <time>2016-05-02T14:00:13Z</time>
      </trkpt>
      <trkpt lat="45.47937" lon="5.20242">
        <ele>521.65</ele>
        <time>2016-05-02T14:00:16Z</time>
      </trkpt>
      <trkpt lat="45.47917" lon="5.20235">
        <ele>522.61</ele>
        <time>2016-05-02T14:00:35Z</time>
      </trkpt>
      <trkpt lat="45.47895" lon="5.20221">
        <ele>522.61</ele>
        <time>2016-05-02T14:00:56Z</time>
      </trkpt>
      <trkpt lat="45.4789" lon="5.20216">
        <ele>522.61</ele>
        <time>2016-05-02T14:01:01Z</time>
      </trkpt>
      <trkpt lat="45.47879" lon="5.20205">
        <ele>524.54</ele>
        <time>2016-05-02T14:01:12Z</time>
      </trkpt>
      <trkpt lat="45.47875" lon="5.20201">
        <ele>524.06</ele>
        <time>2016-05-02T14:01:16Z</time>
      </trkpt>
      <trkpt lat="45.47872" lon="5.20197">
        <ele>523.58</ele>
        <time>2016-05-02T14:01:19Z</time>
      </trkpt>
      <trkpt lat="45.47872" lon="5.2019">
        <ele>523.09</ele>
        <time>2016-05-02T14:01:23Z</time>
      </trkpt>
      <trkpt lat="45.4787" lon="5.20184">
        <ele>523.58</ele>
        <time>2016-05-02T14:01:27Z</time>
      </trkpt>
      <trkpt lat="45.47868" lon="5.20166">
        <ele>524.06</ele>
        <time>2016-05-02T14:01:41Z</time>
      </trkpt>
      <trkpt lat="45.47867" lon="5.20157">
        <ele>523.09</ele>
        <time>2016-05-02T14:01:46Z</time>
      </trkpt>
      <trkpt lat="45.47867" lon="5.20147">
        <ele>523.09</ele>
        <time>2016-05-02T14:01:51Z</time>
      </trkpt>
      <trkpt lat="45.47872" lon="5.20132">
        <ele>522.13</ele>
        <time>2016-05-02T14:02:03Z</time>
      </trkpt>
      <trkpt lat="45.47873" lon="5.20108">
        <ele>523.09</ele>
        <time>2016-05-02T14:02:13Z</time>
      </trkpt>
      <trkpt lat="45.47874" lon="5.20103">
        <ele>523.09</ele>
        <time>2016-05-02T14:02:15Z</time>
      </trkpt>
      <trkpt lat="45.47875" lon="5.20098">
        <ele>522.13</ele>
        <time>2016-05-02T14:02:17Z</time>
      </trkpt>
      <trkpt lat="45.47876" lon="5.20096">
        <ele>522.61</ele>
        <time>2016-05-02T14:02:19Z</time>
      </trkpt>
      <trkpt lat="45.47876" lon="5.2009">
        <ele>521.65</ele>
        <time>2016-05-02T14:02:23Z</time>
      </trkpt>
      <trkpt lat="45.4788" lon="5.20073">
        <ele>519.25</ele>
        <time>2016-05-02T14:02:39Z</time>
      </trkpt>
      <trkpt lat="45.47881" lon="5.20071">
        <ele>520.69</ele>
        <time>2016-05-02T14:02:40Z</time>
      </trkpt>
      <trkpt lat="45.47885" lon="5.20063">
        <ele>522.61</ele>
        <time>2016-05-02T14:02:45Z</time>
      </trkpt>
      <trkpt lat="45.47886" lon="5.20058">
        <ele>523.09</ele>
        <time>2016-05-02T14:02:48Z</time>
      </trkpt>
      <trkpt lat="45.47892" lon="5.20041">
        <ele>523.09</ele>
        <time>2016-05-02T14:02:59Z</time>
      </trkpt>
      <trkpt lat="45.47893" lon="5.20037">
        <ele>522.61</ele>
        <time>2016-05-02T14:03:01Z</time>
      </trkpt>
      <trkpt lat="45.47897" lon="5.20027">
        <ele>522.61</ele>
        <time>2016-05-02T14:03:07Z</time>
      </trkpt>
      <trkpt lat="45.479" lon="5.20022">
        <ele>522.61</ele>
        <time>2016-05-02T14:03:10Z</time>
      </trkpt>
      <trkpt lat="45.47904" lon="5.20012">
        <ele>522.61</ele>
        <time>2016-05-02T14:03:18Z</time>
      </trkpt>
      <trkpt lat="45.47905" lon="5.20004">
        <ele>522.61</ele>
        <time>2016-05-02T14:03:23Z</time>
      </trkpt>
      <trkpt lat="45.47918" lon="5.19984">
        <ele>523.09</ele>
        <time>2016-05-02T14:03:39Z</time>
      </trkpt>
      <trkpt lat="45.47918" lon="5.19981">
        <ele>523.09</ele>
        <time>2016-05-02T14:03:58Z</time>
      </trkpt>
      <trkpt lat="45.47917" lon="5.19981">
        <ele>522.61</ele>
        <time>2016-05-02T14:04:02Z</time>
      </trkpt>
      <trkpt lat="45.47916" lon="5.19978">
        <ele>522.61</ele>
        <time>2016-05-02T14:04:04Z</time>
      </trkpt>
      <trkpt lat="45.47919" lon="5.19962">
        <ele>522.61</ele>
        <time>2016-05-02T14:04:13Z</time>
      </trkpt>
      <trkpt lat="45.47921" lon="5.19956">
        <ele>522.13</ele>
        <time>2016-05-02T14:04:16Z</time>
      </trkpt>
      <trkpt lat="45.47923" lon="5.19942">
        <ele>522.13</ele>
        <time>2016-05-02T14:04:26Z</time>
      </trkpt>
      <trkpt lat="45.47925" lon="5.19931">
        <ele>522.13</ele>
        <time>2016-05-02T14:04:31Z</time>
      </trkpt>
      <trkpt lat="45.47928" lon="5.19923">
        <ele>522.13</ele>
        <time>2016-05-02T14:04:35Z</time>
      </trkpt>
      <trkpt lat="45.47931" lon="5.19914">
        <ele>521.65</ele>
        <time>2016-05-02T14:04:44Z</time>
      </trkpt>
      <trkpt lat="45.4793" lon="5.19905">
        <ele>522.13</ele>
        <time>2016-05-02T14:04:48Z</time>
      </trkpt>
      <trkpt lat="45.47936" lon="5.19889">
        <ele>521.17</ele>
        <time>2016-05-02T14:04:55Z</time>
      </trkpt>
      <trkpt lat="45.47938" lon="5.19887">
        <ele>520.69</ele>
        <time>2016-05-02T14:04:57Z</time>
      </trkpt>
      <trkpt lat="45.47948" lon="5.19864">
        <ele>519.25</ele>
        <time>2016-05-02T14:05:12Z</time>
      </trkpt>
      <trkpt lat="45.47955" lon="5.19827">
        <ele>517.33</ele>
        <time>2016-05-02T14:05:35Z</time>
      </trkpt>
      <trkpt lat="45.47953" lon="5.19784">
        <ele>515.4</ele>
        <time>2016-05-02T14:06:00Z</time>
      </trkpt>
      <trkpt lat="45.47942" lon="5.19753">
        <ele>515.88</ele>
        <time>2016-05-02T14:06:18Z</time>
      </trkpt>
      <trkpt lat="45.47934" lon="5.19712">
        <ele>515.4</ele>
        <time>2016-05-02T14:06:43Z</time>
      </trkpt>
      <trkpt lat="45.47933" lon="5.19703">
        <ele>516.85</ele>
        <time>2016-05-02T14:06:48Z</time>
      </trkpt>
      <trkpt lat="45.47927" lon="5.19656">
        <ele>515.4</ele>
        <time>2016-05-02T14:07:17Z</time>
      </trkpt>
      <trkpt lat="45.47929" lon="5.1963">
        <ele>516.37</ele>
        <time>2016-05-02T14:07:30Z</time>
      </trkpt>
      <trkpt lat="45.47929" lon="5.19629">
        <ele>515.88</ele>
        <time>2016-05-02T14:07:31Z</time>
      </trkpt>
      <trkpt lat="45.47932" lon="5.19621">
        <ele>514.44</ele>
        <time>2016-05-02T14:07:35Z</time>
      </trkpt>
      <trkpt lat="45.47934" lon="5.19619">
        <ele>514.44</ele>
        <time>2016-05-02T14:07:37Z</time>
      </trkpt>
      <trkpt lat="45.4794" lon="5.19603">
        <ele>514.44</ele>
        <time>2016-05-02T14:07:50Z</time>
      </trkpt>
      <trkpt lat="45.47944" lon="5.19592">
        <ele>515.4</ele>
        <time>2016-05-02T14:07:55Z</time>
      </trkpt>
      <trkpt lat="45.47958" lon="5.19569">
        <ele>515.88</ele>
        <time>2016-05-02T14:08:15Z</time>
      </trkpt>
      <trkpt lat="45.47969" lon="5.19537">
        <ele>515.88</ele>
        <time>2016-05-02T14:08:36Z</time>
      </trkpt>
      <trkpt lat="45.47971" lon="5.19527">
        <ele>514.92</ele>
        <time>2016-05-02T14:08:43Z</time>
      </trkpt>
      <trkpt lat="45.47976" lon="5.19518">
        <ele>515.4</ele>
        <time>2016-05-02T14:08:49Z</time>
      </trkpt>
      <trkpt lat="45.47977" lon="5.19505">
        <ele>515.4</ele>
        <time>2016-05-02T14:08:56Z</time>
      </trkpt>
      <trkpt lat="45.47981" lon="5.19476">
        <ele>515.88</ele>
        <time>2016-05-02T14:09:11Z</time>
      </trkpt>
      <trkpt lat="45.4798" lon="5.19469">
        <ele>515.88</ele>
        <time>2016-05-02T14:09:16Z</time>
      </trkpt>
      <trkpt lat="45.47981" lon="5.1945">
        <ele>515.4</ele>
        <time>2016-05-02T14:09:24Z</time>
      </trkpt>
      <trkpt lat="45.47986" lon="5.19433">
        <ele>515.4</ele>
        <time>2016-05-02T14:09:33Z</time>
      </trkpt>
      <trkpt lat="45.47987" lon="5.19431">
        <ele>515.4</ele>
        <time>2016-05-02T14:09:35Z</time>
      </trkpt>
      <trkpt lat="45.47991" lon="5.1941">
        <ele>515.4</ele>
        <time>2016-05-02T14:09:49Z</time>
      </trkpt>
      <trkpt lat="45.48011" lon="5.19362">
        <ele>514.92</ele>
        <time>2016-05-02T14:10:22Z</time>
      </trkpt>
      <trkpt lat="45.4801" lon="5.19362">
        <ele>513.96</ele>
        <time>2016-05-02T14:10:56Z</time>
      </trkpt>
      <trkpt lat="45.48011" lon="5.19362">
        <ele>514.44</ele>
        <time>2016-05-02T14:11:30Z</time>
      </trkpt>
      <trkpt lat="45.48012" lon="5.19361">
        <ele>514.44</ele>
        <time>2016-05-02T14:11:51Z</time>
      </trkpt>
      <trkpt lat="45.48017" lon="5.19359">
        <ele>513.48</ele>
        <time>2016-05-02T14:12:11Z</time>
      </trkpt>
      <trkpt lat="45.48019" lon="5.19355">
        <ele>514.44</ele>
        <time>2016-05-02T14:12:45Z</time>
      </trkpt>
      <trkpt lat="45.48019" lon="5.19351">
        <ele>513.96</ele>
        <time>2016-05-02T14:12:48Z</time>
      </trkpt>
      <trkpt lat="45.48026" lon="5.19324">
        <ele>514.92</ele>
        <time>2016-05-02T14:13:05Z</time>
      </trkpt>
      <trkpt lat="45.4803" lon="5.19293">
        <ele>515.88</ele>
        <time>2016-05-02T14:13:19Z</time>
      </trkpt>
      <trkpt lat="45.48029" lon="5.19274">
        <ele>520.69</ele>
        <time>2016-05-02T14:13:29Z</time>
      </trkpt>
      <trkpt lat="45.48029" lon="5.19273">
        <ele>519.25</ele>
        <time>2016-05-02T14:13:30Z</time>
      </trkpt>
      <trkpt lat="45.48029" lon="5.19269">
        <ele>518.29</ele>
        <time>2016-05-02T14:13:32Z</time>
      </trkpt>
      <trkpt lat="45.48027" lon="5.19265">
        <ele>515.88</ele>
        <time>2016-05-02T14:13:34Z</time>
      </trkpt>
      <trkpt lat="45.48028" lon="5.19258">
        <ele>515.4</ele>
        <time>2016-05-02T14:13:38Z</time>
      </trkpt>
      <trkpt lat="45.48018" lon="5.19235">
        <ele>516.37</ele>
        <time>2016-05-02T14:13:54Z</time>
      </trkpt>
      <trkpt lat="45.48013" lon="5.19229">
        <ele>515.4</ele>
        <time>2016-05-02T14:14:00Z</time>
      </trkpt>
      <trkpt lat="45.48009" lon="5.19223">
        <ele>515.88</ele>
        <time>2016-05-02T14:14:04Z</time>
      </trkpt>
      <trkpt lat="45.48006" lon="5.1922">
        <ele>516.37</ele>
        <time>2016-05-02T14:14:09Z</time>
      </trkpt>
      <trkpt lat="45.48001" lon="5.19216">
        <ele>516.37</ele>
        <time>2016-05-02T14:14:12Z</time>
      </trkpt>
      <trkpt lat="45.47988" lon="5.19209">
        <ele>515.88</ele>
        <time>2016-05-02T14:14:24Z</time>
      </trkpt>
      <trkpt lat="45.47969" lon="5.19202">
        <ele>516.85</ele>
        <time>2016-05-02T14:14:42Z</time>
      </trkpt>
      <trkpt lat="45.47962" lon="5.1919">
        <ele>516.85</ele>
        <time>2016-05-02T14:14:48Z</time>
      </trkpt>
      <trkpt lat="45.47957" lon="5.1918">
        <ele>516.37</ele>
        <time>2016-05-02T14:15:03Z</time>
      </trkpt>
      <trkpt lat="45.47955" lon="5.19156">
        <ele>514.44</ele>
        <time>2016-05-02T14:15:16Z</time>
      </trkpt>
      <trkpt lat="45.47952" lon="5.19136">
        <ele>512.52</ele>
        <time>2016-05-02T14:15:28Z</time>
      </trkpt>
      <trkpt lat="45.47952" lon="5.1913">
        <ele>515.4</ele>
        <time>2016-05-02T14:15:31Z</time>
      </trkpt>
      <trkpt lat="45.47947" lon="5.19072">
        <ele>513</ele>
        <time>2016-05-02T14:16:08Z</time>
      </trkpt>
      <trkpt lat="45.47933" lon="5.19066">
        <ele>513.48</ele>
        <time>2016-05-02T14:16:18Z</time>
      </trkpt>
      <trkpt lat="45.47931" lon="5.19066">
        <ele>513</ele>
        <time>2016-05-02T14:16:20Z</time>
      </trkpt>
      <trkpt lat="45.47919" lon="5.19071">
        <ele>512.04</ele>
        <time>2016-05-02T14:16:28Z</time>
      </trkpt>
      <trkpt lat="45.47916" lon="5.19071">
        <ele>512.52</ele>
        <time>2016-05-02T14:16:30Z</time>
      </trkpt>
      <trkpt lat="45.47913" lon="5.19072">
        <ele>513.48</ele>
        <time>2016-05-02T14:16:32Z</time>
      </trkpt>
      <trkpt lat="45.47911" lon="5.19071">
        <ele>512.52</ele>
        <time>2016-05-02T14:16:33Z</time>
      </trkpt>
      <trkpt lat="45.47891" lon="5.19062">
        <ele>509.64</ele>
        <time>2016-05-02T14:16:45Z</time>
      </trkpt>
      <trkpt lat="45.47889" lon="5.19056">
        <ele>511.08</ele>
        <time>2016-05-02T14:16:48Z</time>
      </trkpt>
      <trkpt lat="45.47887" lon="5.19047">
        <ele>510.12</ele>
        <time>2016-05-02T14:16:56Z</time>
      </trkpt>
      <trkpt lat="45.47885" lon="5.19039">
        <ele>509.16</ele>
        <time>2016-05-02T14:17:04Z</time>
      </trkpt>
      <trkpt lat="45.47883" lon="5.1903">
        <ele>509.16</ele>
        <time>2016-05-02T14:17:08Z</time>
      </trkpt>
      <trkpt lat="45.47871" lon="5.19011">
        <ele>508.19</ele>
        <time>2016-05-02T14:17:24Z</time>
      </trkpt>
      <trkpt lat="45.47867" lon="5.19006">
        <ele>508.67</ele>
        <time>2016-05-02T14:17:38Z</time>
      </trkpt>
      <trkpt lat="45.47867" lon="5.19005">
        <ele>509.16</ele>
        <time>2016-05-02T14:18:00Z</time>
      </trkpt>
      <trkpt lat="45.47867" lon="5.19007">
        <ele>508.19</ele>
        <time>2016-05-02T14:18:26Z</time>
      </trkpt>
      <trkpt lat="45.47867" lon="5.19007">
        <ele>508.19</ele>
        <time>2016-05-02T14:18:27Z</time>
      </trkpt>
      <trkpt lat="45.47867" lon="5.19007">
        <ele>508.19</ele>
        <time>2016-05-02T14:18:32Z</time>
      </trkpt>
      <trkpt lat="45.47869" lon="5.1901">
        <ele>508.67</ele>
        <time>2016-05-02T14:19:02Z</time>
      </trkpt>
      <trkpt lat="45.47866" lon="5.19007">
        <ele>508.19</ele>
        <time>2016-05-02T14:19:32Z</time>
      </trkpt>
      <trkpt lat="45.47864" lon="5.19015">
        <ele>508.67</ele>
        <time>2016-05-02T14:19:55Z</time>
      </trkpt>
      <trkpt lat="45.47859" lon="5.19017">
        <ele>507.23</ele>
        <time>2016-05-02T14:20:20Z</time>
      </trkpt>
      <trkpt lat="45.47862" lon="5.19014">
        <ele>507.71</ele>
        <time>2016-05-02T14:20:41Z</time>
      </trkpt>
      <trkpt lat="45.47863" lon="5.19016">
        <ele>507.23</ele>
        <time>2016-05-02T14:21:34Z</time>
      </trkpt>
      <trkpt lat="45.47866" lon="5.19006">
        <ele>507.23</ele>
        <time>2016-05-02T14:21:59Z</time>
      </trkpt>
      <trkpt lat="45.47868" lon="5.19003">
        <ele>506.75</ele>
        <time>2016-05-02T14:22:57Z</time>
      </trkpt>
      <trkpt lat="45.47868" lon="5.19003">
        <ele>503.87</ele>
        <time>2016-05-02T14:23:11Z</time>
      </trkpt>
      <trkpt lat="45.47868" lon="5.19003">
        <ele>505.79</ele>
        <time>2016-05-02T14:23:13Z</time>
      </trkpt>
      <trkpt lat="45.47869" lon="5.19006">
        <ele>506.27</ele>
        <time>2016-05-02T14:24:56Z</time>
      </trkpt>
      <trkpt lat="45.47868" lon="5.19005">
        <ele>506.75</ele>
        <time>2016-05-02T14:25:47Z</time>
      </trkpt>
      <trkpt lat="45.47866" lon="5.19002">
        <ele>506.27</ele>
        <time>2016-05-02T14:28:23Z</time>
      </trkpt>
      <trkpt lat="45.47867" lon="5.19">
        <ele>507.23</ele>
        <time>2016-05-02T14:28:45Z</time>
      </trkpt>
      <trkpt lat="45.4786" lon="5.18987">
        <ele>507.71</ele>
        <time>2016-05-02T14:28:55Z</time>
      </trkpt>
      <trkpt lat="45.47857" lon="5.18984">
        <ele>506.75</ele>
        <time>2016-05-02T14:28:59Z</time>
      </trkpt>
      <trkpt lat="45.47848" lon="5.18977">
        <ele>507.23</ele>
        <time>2016-05-02T14:29:07Z</time>
      </trkpt>
      <trkpt lat="45.47837" lon="5.18969">
        <ele>506.75</ele>
        <time>2016-05-02T14:29:19Z</time>
      </trkpt>
      <trkpt lat="45.47833" lon="5.18967">
        <ele>506.75</ele>
        <time>2016-05-02T14:29:22Z</time>
      </trkpt>
      <trkpt lat="45.47823" lon="5.18956">
        <ele>507.23</ele>
        <time>2016-05-02T14:29:33Z</time>
      </trkpt>
      <trkpt lat="45.47819" lon="5.18951">
        <ele>506.27</ele>
        <time>2016-05-02T14:29:39Z</time>
      </trkpt>
      <trkpt lat="45.47815" lon="5.18947">
        <ele>506.75</ele>
        <time>2016-05-02T14:29:43Z</time>
      </trkpt>
      <trkpt lat="45.47811" lon="5.18943">
        <ele>506.27</ele>
        <time>2016-05-02T14:29:45Z</time>
      </trkpt>
      <trkpt lat="45.47805" lon="5.18937">
        <ele>507.23</ele>
        <time>2016-05-02T14:29:53Z</time>
      </trkpt>
      <trkpt lat="45.47801" lon="5.18933">
        <ele>506.75</ele>
        <time>2016-05-02T14:29:57Z</time>
      </trkpt>
      <trkpt lat="45.47796" lon="5.18926">
        <ele>507.23</ele>
        <time>2016-05-02T14:30:03Z</time>
      </trkpt>
      <trkpt lat="45.47793" lon="5.18922">
        <ele>507.71</ele>
        <time>2016-05-02T14:30:20Z</time>
      </trkpt>
      <trkpt lat="45.47791" lon="5.18917">
        <ele>508.19</ele>
        <time>2016-05-02T14:30:25Z</time>
      </trkpt>
      <trkpt lat="45.47788" lon="5.18913">
        <ele>507.71</ele>
        <time>2016-05-02T14:30:28Z</time>
      </trkpt>
      <trkpt lat="45.47785" lon="5.18909">
        <ele>507.71</ele>
        <time>2016-05-02T14:30:32Z</time>
      </trkpt>
      <trkpt lat="45.47781" lon="5.18903">
        <ele>506.75</ele>
        <time>2016-05-02T14:30:36Z</time>
      </trkpt>
      <trkpt lat="45.47774" lon="5.18896">
        <ele>508.19</ele>
        <time>2016-05-02T14:30:45Z</time>
      </trkpt>
      <trkpt lat="45.47762" lon="5.18891">
        <ele>508.67</ele>
        <time>2016-05-02T14:30:53Z</time>
      </trkpt>
      <trkpt lat="45.47757" lon="5.18894">
        <ele>509.16</ele>
        <time>2016-05-02T14:30:58Z</time>
      </trkpt>
      <trkpt lat="45.47748" lon="5.18899">
        <ele>510.12</ele>
        <time>2016-05-02T14:31:07Z</time>
      </trkpt>
      <trkpt lat="45.47744" lon="5.189">
        <ele>510.6</ele>
        <time>2016-05-02T14:31:11Z</time>
      </trkpt>
      <trkpt lat="45.47732" lon="5.18905">
        <ele>512.04</ele>
        <time>2016-05-02T14:31:28Z</time>
      </trkpt>
      <trkpt lat="45.47725" lon="5.18908">
        <ele>511.56</ele>
        <time>2016-05-02T14:31:51Z</time>
      </trkpt>
      <trkpt lat="45.47706" lon="5.18914">
        <ele>511.56</ele>
        <time>2016-05-02T14:32:05Z</time>
      </trkpt>
      <trkpt lat="45.47696" lon="5.18915">
        <ele>512.52</ele>
        <time>2016-05-02T14:32:13Z</time>
      </trkpt>
      <trkpt lat="45.47691" lon="5.18919">
        <ele>512.52</ele>
        <time>2016-05-02T14:32:19Z</time>
      </trkpt>
      <trkpt lat="45.47678" lon="5.18927">
        <ele>512.52</ele>
        <time>2016-05-02T14:32:29Z</time>
      </trkpt>
      <trkpt lat="45.47674" lon="5.18926">
        <ele>512.04</ele>
        <time>2016-05-02T14:32:32Z</time>
      </trkpt>
      <trkpt lat="45.47671" lon="5.18922">
        <ele>513</ele>
        <time>2016-05-02T14:32:36Z</time>
      </trkpt>
      <trkpt lat="45.47669" lon="5.18914">
        <ele>512.52</ele>
        <time>2016-05-02T14:32:47Z</time>
      </trkpt>
      <trkpt lat="45.4766" lon="5.18884">
        <ele>513.48</ele>
        <time>2016-05-02T14:33:07Z</time>
      </trkpt>
      <trkpt lat="45.47657" lon="5.18878">
        <ele>513.96</ele>
        <time>2016-05-02T14:33:11Z</time>
      </trkpt>
      <trkpt lat="45.47638" lon="5.18873">
        <ele>513.48</ele>
        <time>2016-05-02T14:33:29Z</time>
      </trkpt>
      <trkpt lat="45.47637" lon="5.18873">
        <ele>513.48</ele>
        <time>2016-05-02T14:33:31Z</time>
      </trkpt>
      <trkpt lat="45.47624" lon="5.18876">
        <ele>513.48</ele>
        <time>2016-05-02T14:33:40Z</time>
      </trkpt>
      <trkpt lat="45.47593" lon="5.18876">
        <ele>510.12</ele>
        <time>2016-05-02T14:34:02Z</time>
      </trkpt>
      <trkpt lat="45.47569" lon="5.18871">
        <ele>508.19</ele>
        <time>2016-05-02T14:34:18Z</time>
      </trkpt>
      <trkpt lat="45.47569" lon="5.18869">
        <ele>507.71</ele>
        <time>2016-05-02T14:34:30Z</time>
      </trkpt>
      <trkpt lat="45.47567" lon="5.1887">
        <ele>506.27</ele>
        <time>2016-05-02T14:34:47Z</time>
      </trkpt>
      <trkpt lat="45.47568" lon="5.18866">
        <ele>507.71</ele>
        <time>2016-05-02T14:35:14Z</time>
      </trkpt>
      <trkpt lat="45.47567" lon="5.18867">
        <ele>507.23</ele>
        <time>2016-05-02T14:35:30Z</time>
      </trkpt>
      <trkpt lat="45.47569" lon="5.18869">
        <ele>508.19</ele>
        <time>2016-05-02T14:35:56Z</time>
      </trkpt>
      <trkpt lat="45.47569" lon="5.18869">
        <ele>508.67</ele>
        <time>2016-05-02T14:36:33Z</time>
      </trkpt>
      <trkpt lat="45.47569" lon="5.18869">
        <ele>506.27</ele>
        <time>2016-05-02T14:36:45Z</time>
      </trkpt>
      <trkpt lat="45.47568" lon="5.18869">
        <ele>507.23</ele>
        <time>2016-05-02T14:37:19Z</time>
      </trkpt>
      <trkpt lat="45.47565" lon="5.18865">
        <ele>507.23</ele>
        <time>2016-05-02T14:37:27Z</time>
      </trkpt>
      <trkpt lat="45.47562" lon="5.18863">
        <ele>506.75</ele>
        <time>2016-05-02T14:37:29Z</time>
      </trkpt>
      <trkpt lat="45.47559" lon="5.18864">
        <ele>507.23</ele>
        <time>2016-05-02T14:37:39Z</time>
      </trkpt>
      <trkpt lat="45.47554" lon="5.18861">
        <ele>506.27</ele>
        <time>2016-05-02T14:37:43Z</time>
      </trkpt>
      <trkpt lat="45.47549" lon="5.18859">
        <ele>505.79</ele>
        <time>2016-05-02T14:37:46Z</time>
      </trkpt>
      <trkpt lat="45.47531" lon="5.18837">
        <ele>503.87</ele>
        <time>2016-05-02T14:38:03Z</time>
      </trkpt>
      <trkpt lat="45.47515" lon="5.18828">
        <ele>503.39</ele>
        <time>2016-05-02T14:38:18Z</time>
      </trkpt>
      <trkpt lat="45.47493" lon="5.18809">
        <ele>504.35</ele>
        <time>2016-05-02T14:38:37Z</time>
      </trkpt>
      <trkpt lat="45.47491" lon="5.1881">
        <ele>503.87</ele>
        <time>2016-05-02T14:38:41Z</time>
      </trkpt>
      <trkpt lat="45.47484" lon="5.18806">
        <ele>503.87</ele>
        <time>2016-05-02T14:38:48Z</time>
      </trkpt>
      <trkpt lat="45.47476" lon="5.18799">
        <ele>504.35</ele>
        <time>2016-05-02T14:38:55Z</time>
      </trkpt>
      <trkpt lat="45.47469" lon="5.18789">
        <ele>504.35</ele>
        <time>2016-05-02T14:39:09Z</time>
      </trkpt>
      <trkpt lat="45.47465" lon="5.18786">
        <ele>504.35</ele>
        <time>2016-05-02T14:39:14Z</time>
      </trkpt>
      <trkpt lat="45.47462" lon="5.18785">
        <ele>504.83</ele>
        <time>2016-05-02T14:39:16Z</time>
      </trkpt>
      <trkpt lat="45.47458" lon="5.18784">
        <ele>505.31</ele>
        <time>2016-05-02T14:39:18Z</time>
      </trkpt>
      <trkpt lat="45.47444" lon="5.18774">
        <ele>503.87</ele>
        <time>2016-05-02T14:39:32Z</time>
      </trkpt>
      <trkpt lat="45.47441" lon="5.18771">
        <ele>504.35</ele>
        <time>2016-05-02T14:39:34Z</time>
      </trkpt>
      <trkpt lat="45.47422" lon="5.18757">
        <ele>502.91</ele>
        <time>2016-05-02T14:39:50Z</time>
      </trkpt>
      <trkpt lat="45.47413" lon="5.18747">
        <ele>504.35</ele>
        <time>2016-05-02T14:40:02Z</time>
      </trkpt>
      <trkpt lat="45.47413" lon="5.18742">
        <ele>503.87</ele>
        <time>2016-05-02T14:40:04Z</time>
      </trkpt>
      <trkpt lat="45.47398" lon="5.1873">
        <ele>504.83</ele>
        <time>2016-05-02T14:40:19Z</time>
      </trkpt>
      <trkpt lat="45.47386" lon="5.18717">
        <ele>505.79</ele>
        <time>2016-05-02T14:40:35Z</time>
      </trkpt>
      <trkpt lat="45.47373" lon="5.18708">
        <ele>506.75</ele>
        <time>2016-05-02T14:40:49Z</time>
      </trkpt>
      <trkpt lat="45.47363" lon="5.187">
        <ele>507.71</ele>
        <time>2016-05-02T14:41:03Z</time>
      </trkpt>
      <trkpt lat="45.47361" lon="5.18698">
        <ele>507.71</ele>
        <time>2016-05-02T14:41:05Z</time>
      </trkpt>
      <trkpt lat="45.47349" lon="5.1869">
        <ele>509.16</ele>
        <time>2016-05-02T14:41:19Z</time>
      </trkpt>
      <trkpt lat="45.47338" lon="5.18686">
        <ele>511.08</ele>
        <time>2016-05-02T14:41:36Z</time>
      </trkpt>
      <trkpt lat="45.47331" lon="5.18676">
        <ele>512.52</ele>
        <time>2016-05-02T14:41:48Z</time>
      </trkpt>
      <trkpt lat="45.47328" lon="5.18674">
        <ele>512.52</ele>
        <time>2016-05-02T14:41:51Z</time>
      </trkpt>
      <trkpt lat="45.4731" lon="5.18661">
        <ele>515.4</ele>
        <time>2016-05-02T14:42:10Z</time>
      </trkpt>
      <trkpt lat="45.47309" lon="5.1866">
        <ele>515.88</ele>
        <time>2016-05-02T14:42:12Z</time>
      </trkpt>
      <trkpt lat="45.47307" lon="5.18659">
        <ele>515.4</ele>
        <time>2016-05-02T14:42:19Z</time>
      </trkpt>
      <trkpt lat="45.47293" lon="5.18646">
        <ele>516.85</ele>
        <time>2016-05-02T14:42:33Z</time>
      </trkpt>
      <trkpt lat="45.47287" lon="5.1864">
        <ele>516.85</ele>
        <time>2016-05-02T14:42:38Z</time>
      </trkpt>
      <trkpt lat="45.47274" lon="5.18626">
        <ele>517.33</ele>
        <time>2016-05-02T14:42:54Z</time>
      </trkpt>
      <trkpt lat="45.47273" lon="5.18625">
        <ele>516.37</ele>
        <time>2016-05-02T14:42:56Z</time>
      </trkpt>
      <trkpt lat="45.47268" lon="5.18614">
        <ele>518.77</ele>
        <time>2016-05-02T14:43:10Z</time>
      </trkpt>
      <trkpt lat="45.47269" lon="5.18606">
        <ele>517.81</ele>
        <time>2016-05-02T14:43:13Z</time>
      </trkpt>
      <trkpt lat="45.47274" lon="5.18592">
        <ele>517.33</ele>
        <time>2016-05-02T14:43:27Z</time>
      </trkpt>
      <trkpt lat="45.47283" lon="5.1858">
        <ele>516.37</ele>
        <time>2016-05-02T14:43:40Z</time>
      </trkpt>
      <trkpt lat="45.47291" lon="5.18571">
        <ele>516.37</ele>
        <time>2016-05-02T14:43:46Z</time>
      </trkpt>
      <trkpt lat="45.47299" lon="5.18556">
        <ele>515.4</ele>
        <time>2016-05-02T14:44:05Z</time>
      </trkpt>
      <trkpt lat="45.473" lon="5.18556">
        <ele>516.85</ele>
        <time>2016-05-02T14:44:51Z</time>
      </trkpt>
      <trkpt lat="45.47309" lon="5.18543">
        <ele>516.37</ele>
        <time>2016-05-02T14:45:30Z</time>
      </trkpt>
      <trkpt lat="45.47315" lon="5.18536">
        <ele>516.85</ele>
        <time>2016-05-02T14:45:34Z</time>
      </trkpt>
      <trkpt lat="45.47319" lon="5.18522">
        <ele>516.37</ele>
        <time>2016-05-02T14:45:44Z</time>
      </trkpt>
      <trkpt lat="45.4732" lon="5.1852">
        <ele>515.88</ele>
        <time>2016-05-02T14:45:46Z</time>
      </trkpt>
      <trkpt lat="45.47325" lon="5.18504">
        <ele>516.85</ele>
        <time>2016-05-02T14:45:59Z</time>
      </trkpt>
      <trkpt lat="45.47325" lon="5.18503">
        <ele>515.88</ele>
        <time>2016-05-02T14:46:00Z</time>
      </trkpt>
      <trkpt lat="45.47328" lon="5.18498">
        <ele>513.96</ele>
        <time>2016-05-02T14:46:03Z</time>
      </trkpt>
      <trkpt lat="45.4733" lon="5.18484">
        <ele>516.85</ele>
        <time>2016-05-02T14:46:11Z</time>
      </trkpt>
      <trkpt lat="45.47328" lon="5.18442">
        <ele>516.85</ele>
        <time>2016-05-02T14:46:33Z</time>
      </trkpt>
      <trkpt lat="45.47329" lon="5.18435">
        <ele>515.88</ele>
        <time>2016-05-02T14:46:37Z</time>
      </trkpt>
      <trkpt lat="45.4733" lon="5.18427">
        <ele>516.37</ele>
        <time>2016-05-02T14:46:41Z</time>
      </trkpt>
      <trkpt lat="45.47331" lon="5.18402">
        <ele>515.88</ele>
        <time>2016-05-02T14:46:56Z</time>
      </trkpt>
      <trkpt lat="45.47329" lon="5.18385">
        <ele>516.85</ele>
        <time>2016-05-02T14:47:05Z</time>
      </trkpt>
      <trkpt lat="45.47324" lon="5.18363">
        <ele>516.85</ele>
        <time>2016-05-02T14:47:22Z</time>
      </trkpt>
      <trkpt lat="45.47322" lon="5.18359">
        <ele>516.37</ele>
        <time>2016-05-02T14:47:25Z</time>
      </trkpt>
      <trkpt lat="45.47312" lon="5.18301">
        <ele>519.73</ele>
        <time>2016-05-02T14:47:59Z</time>
      </trkpt>
      <trkpt lat="45.47315" lon="5.18283">
        <ele>519.73</ele>
        <time>2016-05-02T14:48:10Z</time>
      </trkpt>
      <trkpt lat="45.47317" lon="5.18273">
        <ele>518.77</ele>
        <time>2016-05-02T14:48:16Z</time>
      </trkpt>
      <trkpt lat="45.47321" lon="5.18267">
        <ele>518.77</ele>
        <time>2016-05-02T14:48:20Z</time>
      </trkpt>
      <trkpt lat="45.47321" lon="5.1826">
        <ele>517.81</ele>
        <time>2016-05-02T14:48:24Z</time>
      </trkpt>
      <trkpt lat="45.47322" lon="5.18257">
        <ele>518.29</ele>
        <time>2016-05-02T14:48:26Z</time>
      </trkpt>
      <trkpt lat="45.47323" lon="5.18247">
        <ele>517.33</ele>
        <time>2016-05-02T14:48:32Z</time>
      </trkpt>
      <trkpt lat="45.47324" lon="5.18244">
        <ele>517.81</ele>
        <time>2016-05-02T14:48:34Z</time>
      </trkpt>
      <trkpt lat="45.47326" lon="5.18237">
        <ele>517.33</ele>
        <time>2016-05-02T14:48:38Z</time>
      </trkpt>
      <trkpt lat="45.47326" lon="5.1823">
        <ele>517.33</ele>
        <time>2016-05-02T14:48:42Z</time>
      </trkpt>
      <trkpt lat="45.4733" lon="5.18203">
        <ele>516.85</ele>
        <time>2016-05-02T14:48:58Z</time>
      </trkpt>
      <trkpt lat="45.47333" lon="5.1819">
        <ele>514.92</ele>
        <time>2016-05-02T14:49:07Z</time>
      </trkpt>
      <trkpt lat="45.47334" lon="5.18182">
        <ele>514.44</ele>
        <time>2016-05-02T14:49:12Z</time>
      </trkpt>
      <trkpt lat="45.47334" lon="5.18179">
        <ele>514.92</ele>
        <time>2016-05-02T14:49:14Z</time>
      </trkpt>
      <trkpt lat="45.47338" lon="5.18164">
        <ele>514.44</ele>
        <time>2016-05-02T14:49:26Z</time>
      </trkpt>
      <trkpt lat="45.4734" lon="5.18161">
        <ele>514.44</ele>
        <time>2016-05-02T14:49:28Z</time>
      </trkpt>
      <trkpt lat="45.47344" lon="5.18151">
        <ele>513.48</ele>
        <time>2016-05-02T14:49:34Z</time>
      </trkpt>
      <trkpt lat="45.47349" lon="5.18134">
        <ele>512.52</ele>
        <time>2016-05-02T14:49:47Z</time>
      </trkpt>
      <trkpt lat="45.47355" lon="5.18115">
        <ele>510.12</ele>
        <time>2016-05-02T14:50:01Z</time>
      </trkpt>
      <trkpt lat="45.47372" lon="5.18077">
        <ele>506.75</ele>
        <time>2016-05-02T14:50:26Z</time>
      </trkpt>
      <trkpt lat="45.47382" lon="5.18065">
        <ele>503.87</ele>
        <time>2016-05-02T14:50:39Z</time>
      </trkpt>
      <trkpt lat="45.47385" lon="5.18053">
        <ele>501.95</ele>
        <time>2016-05-02T14:50:49Z</time>
      </trkpt>
      <trkpt lat="45.4739" lon="5.18049">
        <ele>501.95</ele>
        <time>2016-05-02T14:50:51Z</time>
      </trkpt>
      <trkpt lat="45.47395" lon="5.18043">
        <ele>500.98</ele>
        <time>2016-05-02T14:50:55Z</time>
      </trkpt>
      <trkpt lat="45.47394" lon="5.18034">
        <ele>501.46</ele>
        <time>2016-05-02T14:51:02Z</time>
      </trkpt>
      <trkpt lat="45.47378" lon="5.18026">
        <ele>501.46</ele>
        <time>2016-05-02T14:51:15Z</time>
      </trkpt>
      <trkpt lat="45.47362" lon="5.18015">
        <ele>504.35</ele>
        <time>2016-05-02T14:51:41Z</time>
      </trkpt>
      <trkpt lat="45.47346" lon="5.18006">
        <ele>505.31</ele>
        <time>2016-05-02T14:51:55Z</time>
      </trkpt>
      <trkpt lat="45.4733" lon="5.18001">
        <ele>508.19</ele>
        <time>2016-05-02T14:52:27Z</time>
      </trkpt>
      <trkpt lat="45.47305" lon="5.17972">
        <ele>509.64</ele>
        <time>2016-05-02T14:52:58Z</time>
      </trkpt>
      <trkpt lat="45.47305" lon="5.17971">
        <ele>509.16</ele>
        <time>2016-05-02T14:53:00Z</time>
      </trkpt>
      <trkpt lat="45.47285" lon="5.17957">
        <ele>509.16</ele>
        <time>2016-05-02T14:53:17Z</time>
      </trkpt>
      <trkpt lat="45.47266" lon="5.17937">
        <ele>509.64</ele>
        <time>2016-05-02T14:53:36Z</time>
      </trkpt>
      <trkpt lat="45.47259" lon="5.17928">
        <ele>509.16</ele>
        <time>2016-05-02T14:53:44Z</time>
      </trkpt>
      <trkpt lat="45.47228" lon="5.17916">
        <ele>508.19</ele>
        <time>2016-05-02T14:54:04Z</time>
      </trkpt>
      <trkpt lat="45.47221" lon="5.17917">
        <ele>508.67</ele>
        <time>2016-05-02T14:54:13Z</time>
      </trkpt>
      <trkpt lat="45.47199" lon="5.17915">
        <ele>506.75</ele>
        <time>2016-05-02T14:54:30Z</time>
      </trkpt>
      <trkpt lat="45.47185" lon="5.17912">
        <ele>506.27</ele>
        <time>2016-05-02T14:54:46Z</time>
      </trkpt>
      <trkpt lat="45.47181" lon="5.17912">
        <ele>506.27</ele>
        <time>2016-05-02T14:54:50Z</time>
      </trkpt>
      <trkpt lat="45.47173" lon="5.1791">
        <ele>505.79</ele>
        <time>2016-05-02T14:54:56Z</time>
      </trkpt>
      <trkpt lat="45.47145" lon="5.17898">
        <ele>503.39</ele>
        <time>2016-05-02T14:55:17Z</time>
      </trkpt>
      <trkpt lat="45.47137" lon="5.17896">
        <ele>502.91</ele>
        <time>2016-05-02T14:55:26Z</time>
      </trkpt>
      <trkpt lat="45.4713" lon="5.17897">
        <ele>501.95</ele>
        <time>2016-05-02T14:55:30Z</time>
      </trkpt>
      <trkpt lat="45.47127" lon="5.17894">
        <ele>501.95</ele>
        <time>2016-05-02T14:55:34Z</time>
      </trkpt>
      <trkpt lat="45.47112" lon="5.17892">
        <ele>500.5</ele>
        <time>2016-05-02T14:55:49Z</time>
      </trkpt>
      <trkpt lat="45.47112" lon="5.17892">
        <ele>500.5</ele>
        <time>2016-05-02T14:55:57Z</time>
      </trkpt>
      <trkpt lat="45.47111" lon="5.17894">
        <ele>500.5</ele>
        <time>2016-05-02T14:56:13Z</time>
      </trkpt>
      <trkpt lat="45.4711" lon="5.17894">
        <ele>500.5</ele>
        <time>2016-05-02T14:56:23Z</time>
      </trkpt>
      <trkpt lat="45.47102" lon="5.17869">
        <ele>499.06</ele>
        <time>2016-05-02T14:56:45Z</time>
      </trkpt>
      <trkpt lat="45.471" lon="5.17866">
        <ele>499.54</ele>
        <time>2016-05-02T14:56:48Z</time>
      </trkpt>
      <trkpt lat="45.47097" lon="5.17864">
        <ele>499.54</ele>
        <time>2016-05-02T14:56:50Z</time>
      </trkpt>
      <trkpt lat="45.47095" lon="5.17863">
        <ele>499.06</ele>
        <time>2016-05-02T14:56:52Z</time>
      </trkpt>
      <trkpt lat="45.47089" lon="5.17856">
        <ele>499.54</ele>
        <time>2016-05-02T14:56:57Z</time>
      </trkpt>
      <trkpt lat="45.47087" lon="5.17853">
        <ele>499.06</ele>
        <time>2016-05-02T14:56:59Z</time>
      </trkpt>
      <trkpt lat="45.47077" lon="5.17836">
        <ele>500.02</ele>
        <time>2016-05-02T14:57:13Z</time>
      </trkpt>
      <trkpt lat="45.47071" lon="5.17829">
        <ele>499.54</ele>
        <time>2016-05-02T14:57:19Z</time>
      </trkpt>
      <trkpt lat="45.47059" lon="5.17813">
        <ele>500.98</ele>
        <time>2016-05-02T14:57:33Z</time>
      </trkpt>
      <trkpt lat="45.47055" lon="5.17807">
        <ele>500.98</ele>
        <time>2016-05-02T14:57:50Z</time>
      </trkpt>
      <trkpt lat="45.47051" lon="5.17805">
        <ele>499.54</ele>
        <time>2016-05-02T14:58:03Z</time>
      </trkpt>
      <trkpt lat="45.47027" lon="5.17781">
        <ele>499.06</ele>
        <time>2016-05-02T14:58:26Z</time>
      </trkpt>
      <trkpt lat="45.47027" lon="5.1778">
        <ele>499.06</ele>
        <time>2016-05-02T14:58:28Z</time>
      </trkpt>
      <trkpt lat="45.47024" lon="5.17778">
        <ele>499.06</ele>
        <time>2016-05-02T14:58:31Z</time>
      </trkpt>
      <trkpt lat="45.47015" lon="5.17766">
        <ele>497.14</ele>
        <time>2016-05-02T14:58:41Z</time>
      </trkpt>
      <trkpt lat="45.46994" lon="5.17746">
        <ele>494.74</ele>
        <time>2016-05-02T14:58:59Z</time>
      </trkpt>
      <trkpt lat="45.46988" lon="5.17737">
        <ele>494.74</ele>
        <time>2016-05-02T14:59:07Z</time>
      </trkpt>
      <trkpt lat="45.46985" lon="5.17733">
        <ele>494.26</ele>
        <time>2016-05-02T14:59:11Z</time>
      </trkpt>
      <trkpt lat="45.46977" lon="5.17727">
        <ele>493.77</ele>
        <time>2016-05-02T14:59:16Z</time>
      </trkpt>
      <trkpt lat="45.46975" lon="5.17725">
        <ele>493.29</ele>
        <time>2016-05-02T14:59:18Z</time>
      </trkpt>
      <trkpt lat="45.46973" lon="5.17722">
        <ele>492.81</ele>
        <time>2016-05-02T14:59:21Z</time>
      </trkpt>
      <trkpt lat="45.46971" lon="5.17717">
        <ele>493.29</ele>
        <time>2016-05-02T14:59:25Z</time>
      </trkpt>
      <trkpt lat="45.46969" lon="5.17713">
        <ele>492.81</ele>
        <time>2016-05-02T14:59:30Z</time>
      </trkpt>
      <trkpt lat="45.46952" lon="5.17694">
        <ele>491.85</ele>
        <time>2016-05-02T14:59:47Z</time>
      </trkpt>
      <trkpt lat="45.46951" lon="5.17694">
        <ele>491.85</ele>
        <time>2016-05-02T14:59:48Z</time>
      </trkpt>
      <trkpt lat="45.46942" lon="5.17681">
        <ele>491.37</ele>
        <time>2016-05-02T14:59:58Z</time>
      </trkpt>
      <trkpt lat="45.46923" lon="5.17661">
        <ele>491.37</ele>
        <time>2016-05-02T15:00:14Z</time>
      </trkpt>
      <trkpt lat="45.46914" lon="5.17648">
        <ele>489.45</ele>
        <time>2016-05-02T15:00:26Z</time>
      </trkpt>
      <trkpt lat="45.46905" lon="5.17637">
        <ele>489.45</ele>
        <time>2016-05-02T15:00:38Z</time>
      </trkpt>
      <trkpt lat="45.46887" lon="5.17624">
        <ele>488.49</ele>
        <time>2016-05-02T15:00:54Z</time>
      </trkpt>
      <trkpt lat="45.46883" lon="5.17621">
        <ele>488.49</ele>
        <time>2016-05-02T15:00:58Z</time>
      </trkpt>
      <trkpt lat="45.46878" lon="5.17617">
        <ele>487.05</ele>
        <time>2016-05-02T15:01:02Z</time>
      </trkpt>
      <trkpt lat="45.46861" lon="5.17606">
        <ele>486.56</ele>
        <time>2016-05-02T15:01:19Z</time>
      </trkpt>
      <trkpt lat="45.46857" lon="5.17602">
        <ele>485.6</ele>
        <time>2016-05-02T15:01:24Z</time>
      </trkpt>
      <trkpt lat="45.46851" lon="5.17594">
        <ele>486.08</ele>
        <time>2016-05-02T15:01:30Z</time>
      </trkpt>
      <trkpt lat="45.46848" lon="5.17591">
        <ele>484.64</ele>
        <time>2016-05-02T15:01:33Z</time>
      </trkpt>
      <trkpt lat="45.46833" lon="5.1757">
        <ele>483.68</ele>
        <time>2016-05-02T15:01:50Z</time>
      </trkpt>
      <trkpt lat="45.46832" lon="5.17566">
        <ele>483.68</ele>
        <time>2016-05-02T15:01:53Z</time>
      </trkpt>
      <trkpt lat="45.4682" lon="5.1755">
        <ele>482.72</ele>
        <time>2016-05-02T15:02:06Z</time>
      </trkpt>
      <trkpt lat="45.46818" lon="5.17546">
        <ele>484.16</ele>
        <time>2016-05-02T15:02:09Z</time>
      </trkpt>
      <trkpt lat="45.46817" lon="5.17544">
        <ele>484.16</ele>
        <time>2016-05-02T15:02:10Z</time>
      </trkpt>
      <trkpt lat="45.46814" lon="5.17536">
        <ele>483.68</ele>
        <time>2016-05-02T15:02:14Z</time>
      </trkpt>
      <trkpt lat="45.46811" lon="5.1753">
        <ele>482.72</ele>
        <time>2016-05-02T15:02:18Z</time>
      </trkpt>
      <trkpt lat="45.46807" lon="5.17526">
        <ele>482.72</ele>
        <time>2016-05-02T15:02:23Z</time>
      </trkpt>
      <trkpt lat="45.46805" lon="5.17521">
        <ele>483.2</ele>
        <time>2016-05-02T15:02:26Z</time>
      </trkpt>
      <trkpt lat="45.46802" lon="5.17514">
        <ele>485.12</ele>
        <time>2016-05-02T15:02:37Z</time>
      </trkpt>
      <trkpt lat="45.468" lon="5.17513">
        <ele>483.2</ele>
        <time>2016-05-02T15:02:40Z</time>
      </trkpt>
      <trkpt lat="45.46799" lon="5.17507">
        <ele>482.24</ele>
        <time>2016-05-02T15:03:01Z</time>
      </trkpt>
      <trkpt lat="45.46796" lon="5.17505">
        <ele>483.68</ele>
        <time>2016-05-02T15:03:12Z</time>
      </trkpt>
      <trkpt lat="45.46792" lon="5.17499">
        <ele>482.24</ele>
        <time>2016-05-02T15:03:16Z</time>
      </trkpt>
      <trkpt lat="45.46792" lon="5.17496">
        <ele>482.24</ele>
        <time>2016-05-02T15:03:18Z</time>
      </trkpt>
      <trkpt lat="45.46771" lon="5.17472">
        <ele>481.76</ele>
        <time>2016-05-02T15:03:39Z</time>
      </trkpt>
      <trkpt lat="45.4676" lon="5.17463">
        <ele>480.32</ele>
        <time>2016-05-02T15:03:49Z</time>
      </trkpt>
      <trkpt lat="45.46755" lon="5.17458">
        <ele>480.32</ele>
        <time>2016-05-02T15:03:55Z</time>
      </trkpt>
      <trkpt lat="45.46739" lon="5.17434">
        <ele>479.84</ele>
        <time>2016-05-02T15:04:13Z</time>
      </trkpt>
      <trkpt lat="45.46739" lon="5.17431">
        <ele>480.32</ele>
        <time>2016-05-02T15:04:15Z</time>
      </trkpt>
      <trkpt lat="45.46734" lon="5.17426">
        <ele>479.84</ele>
        <time>2016-05-02T15:04:19Z</time>
      </trkpt>
      <trkpt lat="45.4673" lon="5.1742">
        <ele>479.84</ele>
        <time>2016-05-02T15:04:23Z</time>
      </trkpt>
      <trkpt lat="45.46724" lon="5.17403">
        <ele>479.84</ele>
        <time>2016-05-02T15:04:33Z</time>
      </trkpt>
      <trkpt lat="45.46712" lon="5.17379">
        <ele>481.28</ele>
        <time>2016-05-02T15:04:50Z</time>
      </trkpt>
      <trkpt lat="45.46708" lon="5.17374">
        <ele>481.28</ele>
        <time>2016-05-02T15:04:55Z</time>
      </trkpt>
      <trkpt lat="45.46705" lon="5.17371">
        <ele>480.8</ele>
        <time>2016-05-02T15:04:57Z</time>
      </trkpt>
      <trkpt lat="45.46698" lon="5.17365">
        <ele>480.32</ele>
        <time>2016-05-02T15:05:05Z</time>
      </trkpt>
      <trkpt lat="45.4669" lon="5.17349">
        <ele>479.84</ele>
        <time>2016-05-02T15:05:17Z</time>
      </trkpt>
      <trkpt lat="45.4669" lon="5.17349">
        <ele>479.84</ele>
        <time>2016-05-02T15:05:18Z</time>
      </trkpt>
      <trkpt lat="45.46688" lon="5.17348">
        <ele>479.84</ele>
        <time>2016-05-02T15:05:34Z</time>
      </trkpt>
      <trkpt lat="45.4669" lon="5.1734">
        <ele>480.8</ele>
        <time>2016-05-02T15:05:52Z</time>
      </trkpt>
      <trkpt lat="45.4669" lon="5.17331">
        <ele>480.8</ele>
        <time>2016-05-02T15:06:16Z</time>
      </trkpt>
      <trkpt lat="45.46686" lon="5.17326">
        <ele>480.32</ele>
        <time>2016-05-02T15:06:21Z</time>
      </trkpt>
      <trkpt lat="45.46682" lon="5.17317">
        <ele>480.8</ele>
        <time>2016-05-02T15:06:27Z</time>
      </trkpt>
      <trkpt lat="45.46682" lon="5.1731">
        <ele>481.28</ele>
        <time>2016-05-02T15:06:30Z</time>
      </trkpt>
      <trkpt lat="45.46681" lon="5.17301">
        <ele>480.8</ele>
        <time>2016-05-02T15:06:36Z</time>
      </trkpt>
      <trkpt lat="45.46679" lon="5.17293">
        <ele>480.8</ele>
        <time>2016-05-02T15:06:41Z</time>
      </trkpt>
      <trkpt lat="45.46679" lon="5.17276">
        <ele>481.28</ele>
        <time>2016-05-02T15:06:53Z</time>
      </trkpt>
      <trkpt lat="45.46676" lon="5.17261">
        <ele>481.28</ele>
        <time>2016-05-02T15:07:00Z</time>
      </trkpt>
      <trkpt lat="45.46675" lon="5.17257">
        <ele>481.28</ele>
        <time>2016-05-02T15:07:02Z</time>
      </trkpt>
      <trkpt lat="45.46672" lon="5.17246">
        <ele>481.28</ele>
        <time>2016-05-02T15:07:07Z</time>
      </trkpt>
      <trkpt lat="45.46672" lon="5.17238">
        <ele>481.76</ele>
        <time>2016-05-02T15:07:14Z</time>
      </trkpt>
      <trkpt lat="45.46668" lon="5.1723">
        <ele>481.76</ele>
        <time>2016-05-02T15:07:18Z</time>
      </trkpt>
      <trkpt lat="45.46665" lon="5.17221">
        <ele>481.28</ele>
        <time>2016-05-02T15:07:23Z</time>
      </trkpt>
      <trkpt lat="45.46657" lon="5.17198">
        <ele>481.76</ele>
        <time>2016-05-02T15:07:38Z</time>
      </trkpt>
      <trkpt lat="45.46658" lon="5.17192">
        <ele>481.28</ele>
        <time>2016-05-02T15:07:42Z</time>
      </trkpt>
      <trkpt lat="45.46652" lon="5.17163">
        <ele>481.28</ele>
        <time>2016-05-02T15:08:00Z</time>
      </trkpt>
      <trkpt lat="45.46651" lon="5.17155">
        <ele>481.76</ele>
        <time>2016-05-02T15:08:05Z</time>
      </trkpt>
      <trkpt lat="45.4665" lon="5.17145">
        <ele>481.28</ele>
        <time>2016-05-02T15:08:10Z</time>
      </trkpt>
      <trkpt lat="45.46649" lon="5.1714">
        <ele>481.28</ele>
        <time>2016-05-02T15:08:24Z</time>
      </trkpt>
      <trkpt lat="45.46646" lon="5.17124">
        <ele>480.8</ele>
        <time>2016-05-02T15:08:33Z</time>
      </trkpt>
      <trkpt lat="45.46644" lon="5.17121">
        <ele>480.32</ele>
        <time>2016-05-02T15:08:35Z</time>
      </trkpt>
      <trkpt lat="45.46642" lon="5.1711">
        <ele>479.84</ele>
        <time>2016-05-02T15:08:39Z</time>
      </trkpt>
      <trkpt lat="45.46638" lon="5.17104">
        <ele>480.32</ele>
        <time>2016-05-02T15:08:44Z</time>
      </trkpt>
      <trkpt lat="45.46636" lon="5.17096">
        <ele>480.32</ele>
        <time>2016-05-02T15:08:49Z</time>
      </trkpt>
      <trkpt lat="45.46631" lon="5.17076">
        <ele>479.84</ele>
        <time>2016-05-02T15:09:04Z</time>
      </trkpt>
      <trkpt lat="45.46631" lon="5.17075">
        <ele>479.84</ele>
        <time>2016-05-02T15:09:05Z</time>
      </trkpt>
      <trkpt lat="45.46626" lon="5.17061">
        <ele>478.39</ele>
        <time>2016-05-02T15:09:15Z</time>
      </trkpt>
      <trkpt lat="45.46624" lon="5.17033">
        <ele>477.91</ele>
        <time>2016-05-02T15:09:31Z</time>
      </trkpt>
      <trkpt lat="45.46614" lon="5.17009">
        <ele>478.39</ele>
        <time>2016-05-02T15:09:50Z</time>
      </trkpt>
      <trkpt lat="45.46613" lon="5.17006">
        <ele>477.91</ele>
        <time>2016-05-02T15:09:53Z</time>
      </trkpt>
      <trkpt lat="45.46609" lon="5.16998">
        <ele>477.43</ele>
        <time>2016-05-02T15:09:58Z</time>
      </trkpt>
      <trkpt lat="45.46607" lon="5.1699">
        <ele>477.91</ele>
        <time>2016-05-02T15:10:03Z</time>
      </trkpt>
      <trkpt lat="45.46605" lon="5.16984">
        <ele>478.39</ele>
        <time>2016-05-02T15:10:06Z</time>
      </trkpt>
      <trkpt lat="45.46605" lon="5.16982">
        <ele>478.39</ele>
        <time>2016-05-02T15:10:08Z</time>
      </trkpt>
      <trkpt lat="45.46604" lon="5.16979">
        <ele>478.39</ele>
        <time>2016-05-02T15:10:10Z</time>
      </trkpt>
      <trkpt lat="45.46593" lon="5.16959">
        <ele>477.91</ele>
        <time>2016-05-02T15:10:27Z</time>
      </trkpt>
      <trkpt lat="45.4659" lon="5.16948">
        <ele>477.43</ele>
        <time>2016-05-02T15:10:33Z</time>
      </trkpt>
      <trkpt lat="45.4659" lon="5.16944">
        <ele>477.91</ele>
        <time>2016-05-02T15:10:35Z</time>
      </trkpt>
      <trkpt lat="45.46589" lon="5.1694">
        <ele>477.91</ele>
        <time>2016-05-02T15:10:38Z</time>
      </trkpt>
      <trkpt lat="45.46581" lon="5.16925">
        <ele>477.43</ele>
        <time>2016-05-02T15:10:49Z</time>
      </trkpt>
      <trkpt lat="45.46572" lon="5.16902">
        <ele>476.47</ele>
        <time>2016-05-02T15:11:05Z</time>
      </trkpt>
      <trkpt lat="45.46571" lon="5.16896">
        <ele>476.47</ele>
        <time>2016-05-02T15:11:08Z</time>
      </trkpt>
      <trkpt lat="45.46568" lon="5.16878">
        <ele>475.99</ele>
        <time>2016-05-02T15:11:18Z</time>
      </trkpt>
      <trkpt lat="45.46571" lon="5.16873">
        <ele>475.99</ele>
        <time>2016-05-02T15:11:20Z</time>
      </trkpt>
      <trkpt lat="45.46569" lon="5.16871">
        <ele>475.51</ele>
        <time>2016-05-02T15:11:25Z</time>
      </trkpt>
      <trkpt lat="45.46568" lon="5.16867">
        <ele>475.99</ele>
        <time>2016-05-02T15:11:27Z</time>
      </trkpt>
      <trkpt lat="45.46567" lon="5.16862">
        <ele>475.99</ele>
        <time>2016-05-02T15:11:29Z</time>
      </trkpt>
      <trkpt lat="45.46566" lon="5.16857">
        <ele>476.47</ele>
        <time>2016-05-02T15:11:34Z</time>
      </trkpt>
      <trkpt lat="45.46571" lon="5.16849">
        <ele>476.47</ele>
        <time>2016-05-02T15:11:39Z</time>
      </trkpt>
      <trkpt lat="45.46575" lon="5.16839">
        <ele>476.47</ele>
        <time>2016-05-02T15:11:44Z</time>
      </trkpt>
      <trkpt lat="45.46574" lon="5.16812">
        <ele>477.91</ele>
        <time>2016-05-02T15:12:03Z</time>
      </trkpt>
      <trkpt lat="45.46567" lon="5.16796">
        <ele>478.39</ele>
        <time>2016-05-02T15:12:11Z</time>
      </trkpt>
      <trkpt lat="45.46566" lon="5.16794">
        <ele>477.91</ele>
        <time>2016-05-02T15:12:13Z</time>
      </trkpt>
      <trkpt lat="45.46562" lon="5.16778">
        <ele>477.91</ele>
        <time>2016-05-02T15:12:23Z</time>
      </trkpt>
      <trkpt lat="45.46556" lon="5.16768">
        <ele>477.43</ele>
        <time>2016-05-02T15:12:29Z</time>
      </trkpt>
      <trkpt lat="45.46554" lon="5.16755">
        <ele>476.95</ele>
        <time>2016-05-02T15:12:38Z</time>
      </trkpt>
      <trkpt lat="45.46556" lon="5.16733">
        <ele>476.95</ele>
        <time>2016-05-02T15:12:51Z</time>
      </trkpt>
      <trkpt lat="45.46556" lon="5.16723">
        <ele>475.99</ele>
        <time>2016-05-02T15:12:59Z</time>
      </trkpt>
      <trkpt lat="45.46558" lon="5.16715">
        <ele>475.99</ele>
        <time>2016-05-02T15:13:03Z</time>
      </trkpt>
      <trkpt lat="45.46563" lon="5.16705">
        <ele>475.99</ele>
        <time>2016-05-02T15:13:08Z</time>
      </trkpt>
      <trkpt lat="45.46572" lon="5.1668">
        <ele>474.07</ele>
        <time>2016-05-02T15:13:24Z</time>
      </trkpt>
      <trkpt lat="45.46572" lon="5.16667">
        <ele>474.07</ele>
        <time>2016-05-02T15:13:34Z</time>
      </trkpt>
      <trkpt lat="45.46571" lon="5.1666">
        <ele>474.55</ele>
        <time>2016-05-02T15:13:40Z</time>
      </trkpt>
      <trkpt lat="45.46578" lon="5.16649">
        <ele>475.03</ele>
        <time>2016-05-02T15:13:47Z</time>
      </trkpt>
      <trkpt lat="45.46579" lon="5.16642">
        <ele>475.03</ele>
        <time>2016-05-02T15:13:50Z</time>
      </trkpt>
      <trkpt lat="45.46581" lon="5.16634">
        <ele>475.03</ele>
        <time>2016-05-02T15:13:54Z</time>
      </trkpt>
      <trkpt lat="45.46582" lon="5.16627">
        <ele>475.03</ele>
        <time>2016-05-02T15:14:00Z</time>
      </trkpt>
      <trkpt lat="45.46583" lon="5.16618">
        <ele>474.55</ele>
        <time>2016-05-02T15:14:05Z</time>
      </trkpt>
      <trkpt lat="45.46585" lon="5.16602">
        <ele>474.55</ele>
        <time>2016-05-02T15:14:14Z</time>
      </trkpt>
      <trkpt lat="45.46584" lon="5.16594">
        <ele>473.59</ele>
        <time>2016-05-02T15:14:18Z</time>
      </trkpt>
      <trkpt lat="45.46585" lon="5.16589">
        <ele>474.07</ele>
        <time>2016-05-02T15:14:22Z</time>
      </trkpt>
      <trkpt lat="45.46581" lon="5.16581">
        <ele>474.07</ele>
        <time>2016-05-02T15:14:28Z</time>
      </trkpt>
      <trkpt lat="45.46579" lon="5.16578">
        <ele>473.59</ele>
        <time>2016-05-02T15:14:35Z</time>
      </trkpt>
      <trkpt lat="45.46565" lon="5.1658">
        <ele>472.14</ele>
        <time>2016-05-02T15:14:47Z</time>
      </trkpt>
      <trkpt lat="45.46561" lon="5.16581">
        <ele>471.66</ele>
        <time>2016-05-02T15:14:51Z</time>
      </trkpt>
      <trkpt lat="45.46538" lon="5.16588">
        <ele>469.26</ele>
        <time>2016-05-02T15:15:10Z</time>
      </trkpt>
      <trkpt lat="45.46535" lon="5.16589">
        <ele>469.26</ele>
        <time>2016-05-02T15:15:12Z</time>
      </trkpt>
      <trkpt lat="45.46524" lon="5.16592">
        <ele>468.78</ele>
        <time>2016-05-02T15:15:27Z</time>
      </trkpt>
      <trkpt lat="45.46519" lon="5.16589">
        <ele>468.3</ele>
        <time>2016-05-02T15:15:34Z</time>
      </trkpt>
      <trkpt lat="45.46514" lon="5.16591">
        <ele>468.78</ele>
        <time>2016-05-02T15:15:38Z</time>
      </trkpt>
      <trkpt lat="45.465" lon="5.16585">
        <ele>467.82</ele>
        <time>2016-05-02T15:15:50Z</time>
      </trkpt>
      <trkpt lat="45.46495" lon="5.16586">
        <ele>467.34</ele>
        <time>2016-05-02T15:15:54Z</time>
      </trkpt>
      <trkpt lat="45.46491" lon="5.16588">
        <ele>466.86</ele>
        <time>2016-05-02T15:15:58Z</time>
      </trkpt>
      <trkpt lat="45.46488" lon="5.16591">
        <ele>466.38</ele>
        <time>2016-05-02T15:16:01Z</time>
      </trkpt>
      <trkpt lat="45.4647" lon="5.16594">
        <ele>465.42</ele>
        <time>2016-05-02T15:16:15Z</time>
      </trkpt>
      <trkpt lat="45.46468" lon="5.16588">
        <ele>464.93</ele>
        <time>2016-05-02T15:16:20Z</time>
      </trkpt>
      <trkpt lat="45.4646" lon="5.16575">
        <ele>464.93</ele>
        <time>2016-05-02T15:16:29Z</time>
      </trkpt>
      <trkpt lat="45.46445" lon="5.16557">
        <ele>462.05</ele>
        <time>2016-05-02T15:16:46Z</time>
      </trkpt>
      <trkpt lat="45.46443" lon="5.16556">
        <ele>460.61</ele>
        <time>2016-05-02T15:16:53Z</time>
      </trkpt>
      <trkpt lat="45.46437" lon="5.16554">
        <ele>461.09</ele>
        <time>2016-05-02T15:16:58Z</time>
      </trkpt>
      <trkpt lat="45.4642" lon="5.16546">
        <ele>459.17</ele>
        <time>2016-05-02T15:17:13Z</time>
      </trkpt>
      <trkpt lat="45.46412" lon="5.16535">
        <ele>460.13</ele>
        <time>2016-05-02T15:17:26Z</time>
      </trkpt>
      <trkpt lat="45.46404" lon="5.16517">
        <ele>459.17</ele>
        <time>2016-05-02T15:17:41Z</time>
      </trkpt>
      <trkpt lat="45.46394" lon="5.1648">
        <ele>458.69</ele>
        <time>2016-05-02T15:18:04Z</time>
      </trkpt>
      <trkpt lat="45.46391" lon="5.16469">
        <ele>458.21</ele>
        <time>2016-05-02T15:18:11Z</time>
      </trkpt>
      <trkpt lat="45.46388" lon="5.16449">
        <ele>458.69</ele>
        <time>2016-05-02T15:18:24Z</time>
      </trkpt>
      <trkpt lat="45.46381" lon="5.16425">
        <ele>458.21</ele>
        <time>2016-05-02T15:18:46Z</time>
      </trkpt>
      <trkpt lat="45.46374" lon="5.16408">
        <ele>456.76</ele>
        <time>2016-05-02T15:19:03Z</time>
      </trkpt>
      <trkpt lat="45.46363" lon="5.16385">
        <ele>456.76</ele>
        <time>2016-05-02T15:19:22Z</time>
      </trkpt>
      <trkpt lat="45.46361" lon="5.16375">
        <ele>456.76</ele>
        <time>2016-05-02T15:19:29Z</time>
      </trkpt>
      <trkpt lat="45.46355" lon="5.16357">
        <ele>456.76</ele>
        <time>2016-05-02T15:19:39Z</time>
      </trkpt>
      <trkpt lat="45.46344" lon="5.1634">
        <ele>456.28</ele>
        <time>2016-05-02T15:19:53Z</time>
      </trkpt>
      <trkpt lat="45.4634" lon="5.1633">
        <ele>456.76</ele>
        <time>2016-05-02T15:19:59Z</time>
      </trkpt>
      <trkpt lat="45.46331" lon="5.16306">
        <ele>455.32</ele>
        <time>2016-05-02T15:20:20Z</time>
      </trkpt>
      <trkpt lat="45.46328" lon="5.16287">
        <ele>454.84</ele>
        <time>2016-05-02T15:20:34Z</time>
      </trkpt>
      <trkpt lat="45.46331" lon="5.16239">
        <ele>454.84</ele>
        <time>2016-05-02T15:21:02Z</time>
      </trkpt>
      <trkpt lat="45.46332" lon="5.16235">
        <ele>454.36</ele>
        <time>2016-05-02T15:21:04Z</time>
      </trkpt>
      <trkpt lat="45.46334" lon="5.16226">
        <ele>454.84</ele>
        <time>2016-05-02T15:21:10Z</time>
      </trkpt>
      <trkpt lat="45.46345" lon="5.16208">
        <ele>453.88</ele>
        <time>2016-05-02T15:21:26Z</time>
      </trkpt>
      <trkpt lat="45.46348" lon="5.16186">
        <ele>453.4</ele>
        <time>2016-05-02T15:22:00Z</time>
      </trkpt>
      <trkpt lat="45.46342" lon="5.16172">
        <ele>451.96</ele>
        <time>2016-05-02T15:22:21Z</time>
      </trkpt>
      <trkpt lat="45.46326" lon="5.16142">
        <ele>449.55</ele>
        <time>2016-05-02T15:22:44Z</time>
      </trkpt>
      <trkpt lat="45.46305" lon="5.16126">
        <ele>448.59</ele>
        <time>2016-05-02T15:23:04Z</time>
      </trkpt>
      <trkpt lat="45.46291" lon="5.16103">
        <ele>449.55</ele>
        <time>2016-05-02T15:23:21Z</time>
      </trkpt>
      <trkpt lat="45.46293" lon="5.16095">
        <ele>449.55</ele>
        <time>2016-05-02T15:23:25Z</time>
      </trkpt>
      <trkpt lat="45.46292" lon="5.16088">
        <ele>449.55</ele>
        <time>2016-05-02T15:23:30Z</time>
      </trkpt>
      <trkpt lat="45.46291" lon="5.16082">
        <ele>449.55</ele>
        <time>2016-05-02T15:23:34Z</time>
      </trkpt>
      <trkpt lat="45.4629" lon="5.16077">
        <ele>449.55</ele>
        <time>2016-05-02T15:23:37Z</time>
      </trkpt>
      <trkpt lat="45.46289" lon="5.16075">
        <ele>449.55</ele>
        <time>2016-05-02T15:23:39Z</time>
      </trkpt>
      <trkpt lat="45.46267" lon="5.16036">
        <ele>451</ele>
        <time>2016-05-02T15:24:06Z</time>
      </trkpt>
      <trkpt lat="45.46263" lon="5.16026">
        <ele>451</ele>
        <time>2016-05-02T15:24:13Z</time>
      </trkpt>
      <trkpt lat="45.46253" lon="5.16">
        <ele>451.96</ele>
        <time>2016-05-02T15:24:32Z</time>
      </trkpt>
      <trkpt lat="45.46227" lon="5.15988">
        <ele>452.44</ele>
        <time>2016-05-02T15:24:53Z</time>
      </trkpt>
      <trkpt lat="45.46223" lon="5.15982">
        <ele>451.96</ele>
        <time>2016-05-02T15:25:20Z</time>
      </trkpt>
      <trkpt lat="45.4621" lon="5.15962">
        <ele>452.44</ele>
        <time>2016-05-02T15:25:45Z</time>
      </trkpt>
      <trkpt lat="45.46196" lon="5.15926">
        <ele>450.52</ele>
        <time>2016-05-02T15:26:20Z</time>
      </trkpt>
      <trkpt lat="45.46172" lon="5.1587">
        <ele>447.15</ele>
        <time>2016-05-02T15:26:58Z</time>
      </trkpt>
      <trkpt lat="45.46163" lon="5.15842">
        <ele>446.19</ele>
        <time>2016-05-02T15:27:15Z</time>
      </trkpt>
      <trkpt lat="45.46154" lon="5.15817">
        <ele>446.19</ele>
        <time>2016-05-02T15:27:31Z</time>
      </trkpt>
      <trkpt lat="45.46152" lon="5.15811">
        <ele>444.75</ele>
        <time>2016-05-02T15:27:35Z</time>
      </trkpt>
      <trkpt lat="45.46151" lon="5.15806">
        <ele>444.27</ele>
        <time>2016-05-02T15:27:37Z</time>
      </trkpt>
      <trkpt lat="45.46142" lon="5.15779">
        <ele>443.79</ele>
        <time>2016-05-02T15:27:52Z</time>
      </trkpt>
      <trkpt lat="45.46137" lon="5.15758">
        <ele>442.34</ele>
        <time>2016-05-02T15:28:06Z</time>
      </trkpt>
      <trkpt lat="45.46133" lon="5.15729">
        <ele>440.9</ele>
        <time>2016-05-02T15:28:23Z</time>
      </trkpt>
      <trkpt lat="45.46131" lon="5.15723">
        <ele>440.42</ele>
        <time>2016-05-02T15:28:28Z</time>
      </trkpt>
      <trkpt lat="45.46129" lon="5.15718">
        <ele>440.42</ele>
        <time>2016-05-02T15:28:32Z</time>
      </trkpt>
      <trkpt lat="45.46118" lon="5.15669">
        <ele>437.54</ele>
        <time>2016-05-02T15:29:00Z</time>
      </trkpt>
      <trkpt lat="45.46108" lon="5.1563">
        <ele>436.1</ele>
        <time>2016-05-02T15:29:23Z</time>
      </trkpt>
      <trkpt lat="45.46103" lon="5.15623">
        <ele>435.61</ele>
        <time>2016-05-02T15:29:29Z</time>
      </trkpt>
      <trkpt lat="45.46101" lon="5.15628">
        <ele>434.65</ele>
        <time>2016-05-02T15:29:35Z</time>
      </trkpt>
      <trkpt lat="45.46107" lon="5.15644">
        <ele>433.69</ele>
        <time>2016-05-02T15:29:46Z</time>
      </trkpt>
      <trkpt lat="45.46113" lon="5.15658">
        <ele>433.21</ele>
        <time>2016-05-02T15:29:54Z</time>
      </trkpt>
      <trkpt lat="45.46119" lon="5.15694">
        <ele>432.73</ele>
        <time>2016-05-02T15:30:15Z</time>
      </trkpt>
      <trkpt lat="45.46125" lon="5.15732">
        <ele>433.21</ele>
        <time>2016-05-02T15:30:41Z</time>
      </trkpt>
      <trkpt lat="45.46123" lon="5.15774">
        <ele>432.25</ele>
        <time>2016-05-02T15:31:04Z</time>
      </trkpt>
      <trkpt lat="45.46117" lon="5.15812">
        <ele>431.77</ele>
        <time>2016-05-02T15:31:46Z</time>
      </trkpt>
      <trkpt lat="45.46106" lon="5.15811">
        <ele>431.29</ele>
        <time>2016-05-02T15:32:40Z</time>
      </trkpt>
      <trkpt lat="45.46107" lon="5.15839">
        <ele>430.81</ele>
        <time>2016-05-02T15:34:24Z</time>
      </trkpt>
      <trkpt lat="45.461" lon="5.15847">
        <ele>430.81</ele>
        <time>2016-05-02T15:34:55Z</time>
      </trkpt>
      <trkpt lat="45.46091" lon="5.15845">
        <ele>432.25</ele>
        <time>2016-05-02T15:35:08Z</time>
      </trkpt>
      <trkpt lat="45.46068" lon="5.15848">
        <ele>431.29</ele>
        <time>2016-05-02T15:35:24Z</time>
      </trkpt>
      <trkpt lat="45.46065" lon="5.1585">
        <ele>432.73</ele>
        <time>2016-05-02T15:35:26Z</time>
      </trkpt>
      <trkpt lat="45.4604" lon="5.15853">
        <ele>433.21</ele>
        <time>2016-05-02T15:35:44Z</time>
      </trkpt>
      <trkpt lat="45.46018" lon="5.15859">
        <ele>435.13</ele>
        <time>2016-05-02T15:36:11Z</time>
      </trkpt>
      <trkpt lat="45.46011" lon="5.15863">
        <ele>435.13</ele>
        <time>2016-05-02T15:36:26Z</time>
      </trkpt>
      <trkpt lat="45.46002" lon="5.15862">
        <ele>435.13</ele>
        <time>2016-05-02T15:37:02Z</time>
      </trkpt>
      <trkpt lat="45.45998" lon="5.15858">
        <ele>438.5</ele>
        <time>2016-05-02T15:37:29Z</time>
      </trkpt>
      <trkpt lat="45.45994" lon="5.15854">
        <ele>438.02</ele>
        <time>2016-05-02T15:37:37Z</time>
      </trkpt>
      <trkpt lat="45.4599" lon="5.15846">
        <ele>439.46</ele>
        <time>2016-05-02T15:37:44Z</time>
      </trkpt>
      <trkpt lat="45.45985" lon="5.15837">
        <ele>441.38</ele>
        <time>2016-05-02T15:38:04Z</time>
      </trkpt>
      <trkpt lat="45.45972" lon="5.15826">
        <ele>444.27</ele>
        <time>2016-05-02T15:38:25Z</time>
      </trkpt>
      <trkpt lat="45.45968" lon="5.15815">
        <ele>447.63</ele>
        <time>2016-05-02T15:38:42Z</time>
      </trkpt>
      <trkpt lat="45.45962" lon="5.15803">
        <ele>448.11</ele>
        <time>2016-05-02T15:38:58Z</time>
      </trkpt>
      <trkpt lat="45.45956" lon="5.15788">
        <ele>450.03</ele>
        <time>2016-05-02T15:39:12Z</time>
      </trkpt>
      <trkpt lat="45.45955" lon="5.15786">
        <ele>450.52</ele>
        <time>2016-05-02T15:39:14Z</time>
      </trkpt>
      <trkpt lat="45.45938" lon="5.15776">
        <ele>453.4</ele>
        <time>2016-05-02T15:39:31Z</time>
      </trkpt>
      <trkpt lat="45.45917" lon="5.15771">
        <ele>455.8</ele>
        <time>2016-05-02T15:39:52Z</time>
      </trkpt>
      <trkpt lat="45.45902" lon="5.15759">
        <ele>458.21</ele>
        <time>2016-05-02T15:40:16Z</time>
      </trkpt>
      <trkpt lat="45.45888" lon="5.1572">
        <ele>461.09</ele>
        <time>2016-05-02T15:40:42Z</time>
      </trkpt>
      <trkpt lat="45.45861" lon="5.15702">
        <ele>464.45</ele>
        <time>2016-05-02T15:41:09Z</time>
      </trkpt>
      <trkpt lat="45.45848" lon="5.15693">
        <ele>465.9</ele>
        <time>2016-05-02T15:41:22Z</time>
      </trkpt>
      <trkpt lat="45.4583" lon="5.15681">
        <ele>466.86</ele>
        <time>2016-05-02T15:41:41Z</time>
      </trkpt>
      <trkpt lat="45.45813" lon="5.15666">
        <ele>467.34</ele>
        <time>2016-05-02T15:41:59Z</time>
      </trkpt>
      <trkpt lat="45.45799" lon="5.15655">
        <ele>467.34</ele>
        <time>2016-05-02T15:42:14Z</time>
      </trkpt>
      <trkpt lat="45.45781" lon="5.15642">
        <ele>468.3</ele>
        <time>2016-05-02T15:42:32Z</time>
      </trkpt>
      <trkpt lat="45.45778" lon="5.15639">
        <ele>468.3</ele>
        <time>2016-05-02T15:42:35Z</time>
      </trkpt>
      <trkpt lat="45.45755" lon="5.15628">
        <ele>469.26</ele>
        <time>2016-05-02T15:42:58Z</time>
      </trkpt>
      <trkpt lat="45.45735" lon="5.15615">
        <ele>470.7</ele>
        <time>2016-05-02T15:43:18Z</time>
      </trkpt>
      <trkpt lat="45.45708" lon="5.156">
        <ele>471.18</ele>
        <time>2016-05-02T15:43:41Z</time>
      </trkpt>
      <trkpt lat="45.45689" lon="5.15592">
        <ele>472.63</ele>
        <time>2016-05-02T15:44:00Z</time>
      </trkpt>
      <trkpt lat="45.45661" lon="5.15571">
        <ele>473.59</ele>
        <time>2016-05-02T15:44:28Z</time>
      </trkpt>
      <trkpt lat="45.45657" lon="5.15566">
        <ele>473.11</ele>
        <time>2016-05-02T15:44:46Z</time>
      </trkpt>
      <trkpt lat="45.45658" lon="5.15569">
        <ele>473.59</ele>
        <time>2016-05-02T15:44:48Z</time>
      </trkpt>
      <trkpt lat="45.45659" lon="5.15574">
        <ele>474.07</ele>
        <time>2016-05-02T15:44:51Z</time>
      </trkpt>
      <trkpt lat="45.45657" lon="5.15577">
        <ele>473.59</ele>
        <time>2016-05-02T15:44:53Z</time>
      </trkpt>
      <trkpt lat="45.45649" lon="5.15578">
        <ele>474.07</ele>
        <time>2016-05-02T15:44:58Z</time>
      </trkpt>
      <trkpt lat="45.45633" lon="5.15578">
        <ele>473.59</ele>
        <time>2016-05-02T15:45:14Z</time>
      </trkpt>
      <trkpt lat="45.45622" lon="5.15582">
        <ele>473.59</ele>
        <time>2016-05-02T15:45:19Z</time>
      </trkpt>
      <trkpt lat="45.45621" lon="5.15581">
        <ele>473.59</ele>
        <time>2016-05-02T15:45:21Z</time>
      </trkpt>
      <trkpt lat="45.45602" lon="5.15568">
        <ele>473.11</ele>
        <time>2016-05-02T15:45:41Z</time>
      </trkpt>
      <trkpt lat="45.45576" lon="5.15569">
        <ele>471.66</ele>
        <time>2016-05-02T15:46:01Z</time>
      </trkpt>
      <trkpt lat="45.45552" lon="5.15572">
        <ele>469.26</ele>
        <time>2016-05-02T15:46:24Z</time>
      </trkpt>
      <trkpt lat="45.45543" lon="5.15572">
        <ele>469.74</ele>
        <time>2016-05-02T15:46:30Z</time>
      </trkpt>
      <trkpt lat="45.45539" lon="5.15573">
        <ele>468.78</ele>
        <time>2016-05-02T15:46:35Z</time>
      </trkpt>
      <trkpt lat="45.45526" lon="5.15588">
        <ele>467.34</ele>
        <time>2016-05-02T15:46:56Z</time>
      </trkpt>
      <trkpt lat="45.45505" lon="5.15617">
        <ele>466.86</ele>
        <time>2016-05-02T15:47:23Z</time>
      </trkpt>
      <trkpt lat="45.45497" lon="5.15636">
        <ele>466.86</ele>
        <time>2016-05-02T15:47:43Z</time>
      </trkpt>
      <trkpt lat="45.45487" lon="5.15664">
        <ele>467.82</ele>
        <time>2016-05-02T15:48:05Z</time>
      </trkpt>
      <trkpt lat="45.45459" lon="5.15703">
        <ele>468.78</ele>
        <time>2016-05-02T15:48:35Z</time>
      </trkpt>
      <trkpt lat="45.45446" lon="5.15715">
        <ele>468.3</ele>
        <time>2016-05-02T15:48:46Z</time>
      </trkpt>
      <trkpt lat="45.45425" lon="5.15741">
        <ele>468.78</ele>
        <time>2016-05-02T15:49:14Z</time>
      </trkpt>
      <trkpt lat="45.45418" lon="5.15748">
        <ele>468.3</ele>
        <time>2016-05-02T15:49:22Z</time>
      </trkpt>
      <trkpt lat="45.45414" lon="5.15754">
        <ele>467.82</ele>
        <time>2016-05-02T15:49:26Z</time>
      </trkpt>
      <trkpt lat="45.45405" lon="5.15793">
        <ele>465.9</ele>
        <time>2016-05-02T15:49:50Z</time>
      </trkpt>
      <trkpt lat="45.45406" lon="5.15808">
        <ele>466.38</ele>
        <time>2016-05-02T15:49:58Z</time>
      </trkpt>
      <trkpt lat="45.45394" lon="5.1582">
        <ele>466.86</ele>
        <time>2016-05-02T15:50:27Z</time>
      </trkpt>
      <trkpt lat="45.45399" lon="5.15797">
        <ele>465.9</ele>
        <time>2016-05-02T15:50:58Z</time>
      </trkpt>
      <trkpt lat="45.45404" lon="5.15787">
        <ele>465.9</ele>
        <time>2016-05-02T15:51:11Z</time>
      </trkpt>
      <trkpt lat="45.4542" lon="5.15751">
        <ele>467.82</ele>
        <time>2016-05-02T15:51:39Z</time>
      </trkpt>
      <trkpt lat="45.45437" lon="5.15729">
        <ele>468.78</ele>
        <time>2016-05-02T15:51:59Z</time>
      </trkpt>
      <trkpt lat="45.45439" lon="5.15727">
        <ele>469.26</ele>
        <time>2016-05-02T15:52:01Z</time>
      </trkpt>
      <trkpt lat="45.45462" lon="5.15703">
        <ele>469.26</ele>
        <time>2016-05-02T15:52:25Z</time>
      </trkpt>
      <trkpt lat="45.45475" lon="5.15686">
        <ele>468.78</ele>
        <time>2016-05-02T15:52:41Z</time>
      </trkpt>
      <trkpt lat="45.45487" lon="5.15649">
        <ele>467.82</ele>
        <time>2016-05-02T15:53:07Z</time>
      </trkpt>
      <trkpt lat="45.45485" lon="5.15638">
        <ele>468.3</ele>
        <time>2016-05-02T15:53:15Z</time>
      </trkpt>
      <trkpt lat="45.45488" lon="5.15632">
        <ele>467.82</ele>
        <time>2016-05-02T15:53:19Z</time>
      </trkpt>
      <trkpt lat="45.45492" lon="5.1563">
        <ele>467.34</ele>
        <time>2016-05-02T15:53:21Z</time>
      </trkpt>
      <trkpt lat="45.45501" lon="5.15617">
        <ele>466.86</ele>
        <time>2016-05-02T15:53:30Z</time>
      </trkpt>
      <trkpt lat="45.45509" lon="5.156">
        <ele>466.86</ele>
        <time>2016-05-02T15:53:40Z</time>
      </trkpt>
      <trkpt lat="45.45517" lon="5.15596">
        <ele>467.34</ele>
        <time>2016-05-02T15:53:49Z</time>
      </trkpt>
      <trkpt lat="45.45521" lon="5.15588">
        <ele>466.86</ele>
        <time>2016-05-02T15:54:04Z</time>
      </trkpt>
      <trkpt lat="45.45507" lon="5.15591">
        <ele>463.49</ele>
        <time>2016-05-02T15:54:21Z</time>
      </trkpt>
      <trkpt lat="45.45491" lon="5.156">
        <ele>460.61</ele>
        <time>2016-05-02T15:54:38Z</time>
      </trkpt>
      <trkpt lat="45.45481" lon="5.15606">
        <ele>457.24</ele>
        <time>2016-05-02T15:54:49Z</time>
      </trkpt>
      <trkpt lat="45.45456" lon="5.15615">
        <ele>454.36</ele>
        <time>2016-05-02T15:55:07Z</time>
      </trkpt>
      <trkpt lat="45.45438" lon="5.15619">
        <ele>451</ele>
        <time>2016-05-02T15:55:26Z</time>
      </trkpt>
      <trkpt lat="45.45411" lon="5.15625">
        <ele>447.63</ele>
        <time>2016-05-02T15:55:48Z</time>
      </trkpt>
      <trkpt lat="45.45398" lon="5.15629">
        <ele>444.75</ele>
        <time>2016-05-02T15:56:03Z</time>
      </trkpt>
      <trkpt lat="45.45377" lon="5.15629">
        <ele>442.34</ele>
        <time>2016-05-02T15:56:25Z</time>
      </trkpt>
      <trkpt lat="45.45375" lon="5.15623">
        <ele>441.38</ele>
        <time>2016-05-02T15:56:41Z</time>
      </trkpt>
      <trkpt lat="45.45377" lon="5.15609">
        <ele>441.86</ele>
        <time>2016-05-02T15:56:58Z</time>
      </trkpt>
      <trkpt lat="45.45376" lon="5.15611">
        <ele>441.86</ele>
        <time>2016-05-02T15:57:19Z</time>
      </trkpt>
      <trkpt lat="45.45374" lon="5.15608">
        <ele>442.34</ele>
        <time>2016-05-02T15:57:43Z</time>
      </trkpt>
      <trkpt lat="45.45375" lon="5.15607">
        <ele>442.82</ele>
        <time>2016-05-02T15:58:12Z</time>
      </trkpt>
      <trkpt lat="45.45376" lon="5.15609">
        <ele>442.82</ele>
        <time>2016-05-02T15:58:43Z</time>
      </trkpt>
      <trkpt lat="45.45376" lon="5.15614">
        <ele>442.34</ele>
        <time>2016-05-02T15:58:46Z</time>
      </trkpt>
      <trkpt lat="45.45378" lon="5.15627">
        <ele>442.34</ele>
        <time>2016-05-02T15:58:54Z</time>
      </trkpt>
      <trkpt lat="45.45378" lon="5.15642">
        <ele>443.79</ele>
        <time>2016-05-02T15:59:14Z</time>
      </trkpt>
      <trkpt lat="45.45373" lon="5.15633">
        <ele>444.27</ele>
        <time>2016-05-02T16:00:36Z</time>
      </trkpt>
      <trkpt lat="45.45365" lon="5.15632">
        <ele>444.75</ele>
        <time>2016-05-02T16:01:18Z</time>
      </trkpt>
      <trkpt lat="45.45382" lon="5.15633">
        <ele>447.63</ele>
        <time>2016-05-02T16:05:18Z</time>
      </trkpt>
      <trkpt lat="45.45389" lon="5.15615">
        <ele>446.67</ele>
        <time>2016-05-02T16:08:22Z</time>
      </trkpt>
      <trkpt lat="45.45371" lon="5.15627">
        <ele>447.15</ele>
        <time>2016-05-02T16:09:14Z</time>
      </trkpt>
      <trkpt lat="45.45362" lon="5.15633">
        <ele>447.15</ele>
        <time>2016-05-02T16:10:11Z</time>
      </trkpt>
      <trkpt lat="45.4535" lon="5.1562">
        <ele>448.11</ele>
        <time>2016-05-02T16:11:19Z</time>
      </trkpt>
      <trkpt lat="45.45364" lon="5.15614">
        <ele>450.03</ele>
        <time>2016-05-02T16:16:28Z</time>
      </trkpt>
      <trkpt lat="45.45355" lon="5.15618">
        <ele>452.44</ele>
        <time>2016-05-02T16:20:09Z</time>
      </trkpt>
      <trkpt lat="45.45364" lon="5.15594">
        <ele>452.44</ele>
        <time>2016-05-02T16:20:57Z</time>
      </trkpt>
      <trkpt lat="45.45376" lon="5.15568">
        <ele>452.92</ele>
        <time>2016-05-02T16:23:13Z</time>
      </trkpt>
      <trkpt lat="45.45374" lon="5.15572">
        <ele>455.32</ele>
        <time>2016-05-02T16:25:46Z</time>
      </trkpt>
      <trkpt lat="45.45374" lon="5.15572">
        <ele>458.69</ele>
        <time>2016-05-02T16:28:42Z</time>
      </trkpt>
      <trkpt lat="45.45374" lon="5.15572">
        <ele>458.21</ele>
        <time>2016-05-02T16:30:25Z</time>
      </trkpt>
      <trkpt lat="45.45361" lon="5.15613">
        <ele>458.69</ele>
        <time>2016-05-02T16:31:05Z</time>
      </trkpt>
      <trkpt lat="45.45362" lon="5.15614">
        <ele>458.21</ele>
        <time>2016-05-02T16:31:30Z</time>
      </trkpt>
      <trkpt lat="45.45371" lon="5.15616">
        <ele>459.65</ele>
        <time>2016-05-02T16:32:29Z</time>
      </trkpt>
      <trkpt lat="45.45379" lon="5.15622">
        <ele>459.17</ele>
        <time>2016-05-02T16:32:59Z</time>
      </trkpt>
      <trkpt lat="45.45369" lon="5.15621">
        <ele>459.65</ele>
        <time>2016-05-02T16:33:52Z</time>
      </trkpt>
      <trkpt lat="45.45361" lon="5.15632">
        <ele>460.13</ele>
        <time>2016-05-02T16:34:35Z</time>
      </trkpt>
      <trkpt lat="45.45353" lon="5.1563">
        <ele>459.65</ele>
        <time>2016-05-02T16:35:26Z</time>
      </trkpt>
      <trkpt lat="45.45358" lon="5.15632">
        <ele>460.13</ele>
        <time>2016-05-02T16:36:14Z</time>
      </trkpt>
      <trkpt lat="45.45373" lon="5.15633">
        <ele>461.09</ele>
        <time>2016-05-02T16:36:40Z</time>
      </trkpt>
      <trkpt lat="45.45374" lon="5.15618">
        <ele>460.61</ele>
        <time>2016-05-02T16:36:49Z</time>
      </trkpt>
      <trkpt lat="45.45373" lon="5.15594">
        <ele>459.65</ele>
        <time>2016-05-02T16:37:16Z</time>
      </trkpt>
      <trkpt lat="45.45391" lon="5.15593">
        <ele>457.24</ele>
        <time>2016-05-02T16:37:45Z</time>
      </trkpt>
      <trkpt lat="45.45393" lon="5.1558">
        <ele>457.24</ele>
        <time>2016-05-02T16:38:13Z</time>
      </trkpt>
      <trkpt lat="45.45392" lon="5.15604">
        <ele>457.72</ele>
        <time>2016-05-02T16:38:38Z</time>
      </trkpt>
      <trkpt lat="45.45394" lon="5.15599">
        <ele>457.24</ele>
        <time>2016-05-02T16:39:05Z</time>
      </trkpt>
      <trkpt lat="45.45384" lon="5.15588">
        <ele>458.21</ele>
        <time>2016-05-02T16:39:55Z</time>
      </trkpt>
      <trkpt lat="45.45399" lon="5.15589">
        <ele>460.61</ele>
        <time>2016-05-02T16:41:24Z</time>
      </trkpt>
      <trkpt lat="45.45407" lon="5.15586">
        <ele>460.61</ele>
        <time>2016-05-02T16:41:32Z</time>
      </trkpt>
      <trkpt lat="45.45397" lon="5.15584">
        <ele>461.09</ele>
        <time>2016-05-02T16:42:14Z</time>
      </trkpt>
      <trkpt lat="45.45399" lon="5.15584">
        <ele>460.61</ele>
        <time>2016-05-02T16:42:56Z</time>
      </trkpt>
      <trkpt lat="45.45408" lon="5.15577">
        <ele>460.61</ele>
        <time>2016-05-02T16:43:22Z</time>
      </trkpt>
      <trkpt lat="45.45406" lon="5.15561">
        <ele>461.09</ele>
        <time>2016-05-02T16:44:03Z</time>
      </trkpt>
      <trkpt lat="45.45415" lon="5.15548">
        <ele>461.57</ele>
        <time>2016-05-02T16:45:01Z</time>
      </trkpt>
      <trkpt lat="45.45406" lon="5.15546">
        <ele>462.05</ele>
        <time>2016-05-02T16:46:03Z</time>
      </trkpt>
      <trkpt lat="45.45421" lon="5.1551">
        <ele>462.53</ele>
        <time>2016-05-02T16:46:58Z</time>
      </trkpt>
      <trkpt lat="45.45428" lon="5.15494">
        <ele>463.01</ele>
        <time>2016-05-02T16:47:10Z</time>
      </trkpt>
      <trkpt lat="45.45426" lon="5.15486">
        <ele>463.01</ele>
        <time>2016-05-02T16:47:15Z</time>
      </trkpt>
      <trkpt lat="45.45427" lon="5.15478">
        <ele>463.49</ele>
        <time>2016-05-02T16:47:21Z</time>
      </trkpt>
      <trkpt lat="45.45429" lon="5.15469">
        <ele>464.45</ele>
        <time>2016-05-02T16:47:26Z</time>
      </trkpt>
      <trkpt lat="45.45431" lon="5.15451">
        <ele>464.45</ele>
        <time>2016-05-02T16:47:41Z</time>
      </trkpt>
      <trkpt lat="45.45414" lon="5.15407">
        <ele>467.82</ele>
        <time>2016-05-02T16:48:12Z</time>
      </trkpt>
      <trkpt lat="45.45403" lon="5.15364">
        <ele>470.7</ele>
        <time>2016-05-02T16:48:44Z</time>
      </trkpt>
      <trkpt lat="45.4537" lon="5.15318">
        <ele>472.63</ele>
        <time>2016-05-02T16:49:28Z</time>
      </trkpt>
      <trkpt lat="45.45336" lon="5.1529">
        <ele>474.07</ele>
        <time>2016-05-02T16:50:00Z</time>
      </trkpt>
      <trkpt lat="45.45328" lon="5.15285">
        <ele>474.55</ele>
        <time>2016-05-02T16:50:04Z</time>
      </trkpt>
      <trkpt lat="45.45317" lon="5.1527">
        <ele>475.03</ele>
        <time>2016-05-02T16:50:20Z</time>
      </trkpt>
      <trkpt lat="45.45299" lon="5.15253">
        <ele>476.95</ele>
        <time>2016-05-02T16:50:38Z</time>
      </trkpt>
      <trkpt lat="45.45292" lon="5.15238">
        <ele>478.39</ele>
        <time>2016-05-02T16:50:54Z</time>
      </trkpt>
      <trkpt lat="45.4528" lon="5.15206">
        <ele>478.39</ele>
        <time>2016-05-02T16:51:24Z</time>
      </trkpt>
      <trkpt lat="45.45275" lon="5.15196">
        <ele>479.35</ele>
        <time>2016-05-02T16:51:31Z</time>
      </trkpt>
      <trkpt lat="45.4527" lon="5.15181">
        <ele>479.84</ele>
        <time>2016-05-02T16:51:44Z</time>
      </trkpt>
      <trkpt lat="45.45277" lon="5.15169">
        <ele>479.84</ele>
        <time>2016-05-02T16:51:48Z</time>
      </trkpt>
      <trkpt lat="45.45278" lon="5.15164">
        <ele>479.84</ele>
        <time>2016-05-02T16:51:50Z</time>
      </trkpt>
      <trkpt lat="45.45271" lon="5.15154">
        <ele>479.84</ele>
        <time>2016-05-02T16:51:56Z</time>
      </trkpt>
      <trkpt lat="45.45268" lon="5.15132">
        <ele>480.32</ele>
        <time>2016-05-02T16:52:12Z</time>
      </trkpt>
      <trkpt lat="45.45287" lon="5.15096">
        <ele>480.8</ele>
        <time>2016-05-02T16:52:39Z</time>
      </trkpt>
      <trkpt lat="45.45301" lon="5.15068">
        <ele>481.28</ele>
        <time>2016-05-02T16:52:57Z</time>
      </trkpt>
      <trkpt lat="45.45304" lon="5.15061">
        <ele>480.8</ele>
        <time>2016-05-02T16:53:01Z</time>
      </trkpt>
      <trkpt lat="45.45302" lon="5.15055">
        <ele>481.28</ele>
        <time>2016-05-02T16:53:05Z</time>
      </trkpt>
      <trkpt lat="45.45299" lon="5.15048">
        <ele>481.28</ele>
        <time>2016-05-02T16:53:11Z</time>
      </trkpt>
      <trkpt lat="45.45299" lon="5.15038">
        <ele>480.8</ele>
        <time>2016-05-02T16:53:18Z</time>
      </trkpt>
      <trkpt lat="45.45298" lon="5.15035">
        <ele>480.8</ele>
        <time>2016-05-02T16:53:20Z</time>
      </trkpt>
      <trkpt lat="45.45297" lon="5.15027">
        <ele>481.28</ele>
        <time>2016-05-02T16:53:24Z</time>
      </trkpt>
      <trkpt lat="45.45288" lon="5.15017">
        <ele>480.8</ele>
        <time>2016-05-02T16:53:45Z</time>
      </trkpt>
      <trkpt lat="45.4529" lon="5.15016">
        <ele>481.28</ele>
        <time>2016-05-02T16:54:32Z</time>
      </trkpt>
      <trkpt lat="45.45285" lon="5.14993">
        <ele>480.32</ele>
        <time>2016-05-02T16:54:51Z</time>
      </trkpt>
      <trkpt lat="45.45284" lon="5.14986">
        <ele>480.8</ele>
        <time>2016-05-02T16:54:55Z</time>
      </trkpt>
      <trkpt lat="45.45279" lon="5.14953">
        <ele>480.8</ele>
        <time>2016-05-02T16:55:17Z</time>
      </trkpt>
      <trkpt lat="45.45278" lon="5.14947">
        <ele>479.84</ele>
        <time>2016-05-02T16:55:20Z</time>
      </trkpt>
      <trkpt lat="45.45277" lon="5.14938">
        <ele>479.84</ele>
        <time>2016-05-02T16:55:26Z</time>
      </trkpt>
      <trkpt lat="45.45273" lon="5.1492">
        <ele>480.8</ele>
        <time>2016-05-02T16:55:38Z</time>
      </trkpt>
      <trkpt lat="45.4527" lon="5.14907">
        <ele>481.76</ele>
        <time>2016-05-02T16:55:47Z</time>
      </trkpt>
      <trkpt lat="45.45266" lon="5.14867">
        <ele>482.72</ele>
        <time>2016-05-02T16:56:12Z</time>
      </trkpt>
      <trkpt lat="45.45265" lon="5.14845">
        <ele>484.16</ele>
        <time>2016-05-02T16:56:34Z</time>
      </trkpt>
      <trkpt lat="45.45264" lon="5.14839">
        <ele>483.68</ele>
        <time>2016-05-02T16:57:27Z</time>
      </trkpt>
      <trkpt lat="45.45261" lon="5.14815">
        <ele>482.24</ele>
        <time>2016-05-02T16:57:41Z</time>
      </trkpt>
      <trkpt lat="45.45255" lon="5.14795">
        <ele>482.24</ele>
        <time>2016-05-02T16:57:54Z</time>
      </trkpt>
      <trkpt lat="45.45253" lon="5.14794">
        <ele>482.72</ele>
        <time>2016-05-02T16:57:56Z</time>
      </trkpt>
      <trkpt lat="45.45235" lon="5.1477">
        <ele>484.16</ele>
        <time>2016-05-02T16:58:19Z</time>
      </trkpt>
      <trkpt lat="45.4522" lon="5.14757">
        <ele>483.68</ele>
        <time>2016-05-02T16:58:37Z</time>
      </trkpt>
      <trkpt lat="45.45211" lon="5.14741">
        <ele>483.68</ele>
        <time>2016-05-02T16:58:58Z</time>
      </trkpt>
      <trkpt lat="45.45191" lon="5.14711">
        <ele>486.56</ele>
        <time>2016-05-02T16:59:29Z</time>
      </trkpt>
      <trkpt lat="45.45192" lon="5.14697">
        <ele>487.53</ele>
        <time>2016-05-02T16:59:50Z</time>
      </trkpt>
      <trkpt lat="45.45167" lon="5.14667">
        <ele>490.41</ele>
        <time>2016-05-02T17:00:29Z</time>
      </trkpt>
      <trkpt lat="45.4514" lon="5.14632">
        <ele>490.41</ele>
        <time>2016-05-02T17:01:08Z</time>
      </trkpt>
      <trkpt lat="45.45114" lon="5.14627">
        <ele>490.41</ele>
        <time>2016-05-02T17:01:55Z</time>
      </trkpt>
      <trkpt lat="45.451" lon="5.14609">
        <ele>490.41</ele>
        <time>2016-05-02T17:02:21Z</time>
      </trkpt>
      <trkpt lat="45.45123" lon="5.14616">
        <ele>490.41</ele>
        <time>2016-05-02T17:02:49Z</time>
      </trkpt>
      <trkpt lat="45.45126" lon="5.14617">
        <ele>546.17</ele>
        <time>2016-05-02T17:03:26Z</time>
      </trkpt>
      <trkpt lat="45.4513" lon="5.14541">
        <ele>484.16</ele>
        <time>2016-05-02T17:03:37Z</time>
      </trkpt>
      <trkpt lat="45.45133" lon="5.14613">
        <ele>488.01</ele>
        <time>2016-05-02T17:04:50Z</time>
      </trkpt>
      <trkpt lat="45.45136" lon="5.14608">
        <ele>490.89</ele>
        <time>2016-05-02T17:04:53Z</time>
      </trkpt>
      <trkpt lat="45.45136" lon="5.146">
        <ele>495.7</ele>
        <time>2016-05-02T17:04:58Z</time>
      </trkpt>
      <trkpt lat="45.45137" lon="5.14598">
        <ele>498.58</ele>
        <time>2016-05-02T17:05:01Z</time>
      </trkpt>
      <trkpt lat="45.45138" lon="5.14596">
        <ele>501.95</ele>
        <time>2016-05-02T17:05:05Z</time>
      </trkpt>
      <trkpt lat="45.45139" lon="5.14589">
        <ele>505.31</ele>
        <time>2016-05-02T17:05:13Z</time>
      </trkpt>
      <trkpt lat="45.45144" lon="5.14576">
        <ele>508.67</ele>
        <time>2016-05-02T17:05:23Z</time>
      </trkpt>
      <trkpt lat="45.45144" lon="5.14558">
        <ele>510.12</ele>
        <time>2016-05-02T17:05:39Z</time>
      </trkpt>
      <trkpt lat="45.45143" lon="5.14556">
        <ele>510.6</ele>
        <time>2016-05-02T17:05:41Z</time>
      </trkpt>
      <trkpt lat="45.45153" lon="5.14531">
        <ele>513</ele>
        <time>2016-05-02T17:06:00Z</time>
      </trkpt>
      <trkpt lat="45.45155" lon="5.14523">
        <ele>514.44</ele>
        <time>2016-05-02T17:06:15Z</time>
      </trkpt>
      <trkpt lat="45.45165" lon="5.14505">
        <ele>515.88</ele>
        <time>2016-05-02T17:06:28Z</time>
      </trkpt>
      <trkpt lat="45.45169" lon="5.14497">
        <ele>516.85</ele>
        <time>2016-05-02T17:06:37Z</time>
      </trkpt>
      <trkpt lat="45.45168" lon="5.14478">
        <ele>517.81</ele>
        <time>2016-05-02T17:06:49Z</time>
      </trkpt>
      <trkpt lat="45.45169" lon="5.14477">
        <ele>517.81</ele>
        <time>2016-05-02T17:06:50Z</time>
      </trkpt>
      <trkpt lat="45.45167" lon="5.1446">
        <ele>516.37</ele>
        <time>2016-05-02T17:07:03Z</time>
      </trkpt>
      <trkpt lat="45.45167" lon="5.14454">
        <ele>515.88</ele>
        <time>2016-05-02T17:07:07Z</time>
      </trkpt>
      <trkpt lat="45.45169" lon="5.14448">
        <ele>515.4</ele>
        <time>2016-05-02T17:07:12Z</time>
      </trkpt>
      <trkpt lat="45.4516" lon="5.14439">
        <ele>517.33</ele>
        <time>2016-05-02T17:07:25Z</time>
      </trkpt>
      <trkpt lat="45.45134" lon="5.14444">
        <ele>518.29</ele>
        <time>2016-05-02T17:07:54Z</time>
      </trkpt>
      <trkpt lat="45.45127" lon="5.14448">
        <ele>518.77</ele>
        <time>2016-05-02T17:08:01Z</time>
      </trkpt>
      <trkpt lat="45.45108" lon="5.14448">
        <ele>518.77</ele>
        <time>2016-05-02T17:08:22Z</time>
      </trkpt>
      <trkpt lat="45.4508" lon="5.14451">
        <ele>520.21</ele>
        <time>2016-05-02T17:08:44Z</time>
      </trkpt>
      <trkpt lat="45.45052" lon="5.14454">
        <ele>522.61</ele>
        <time>2016-05-02T17:09:09Z</time>
      </trkpt>
      <trkpt lat="45.45048" lon="5.14462">
        <ele>523.09</ele>
        <time>2016-05-02T17:09:28Z</time>
      </trkpt>
      <trkpt lat="45.45035" lon="5.1447">
        <ele>524.54</ele>
        <time>2016-05-02T17:09:48Z</time>
      </trkpt>
      <trkpt lat="45.45026" lon="5.14465">
        <ele>524.54</ele>
        <time>2016-05-02T17:10:05Z</time>
      </trkpt>
      <trkpt lat="45.45022" lon="5.14463">
        <ele>525.02</ele>
        <time>2016-05-02T17:10:25Z</time>
      </trkpt>
      <trkpt lat="45.45014" lon="5.14447">
        <ele>523.58</ele>
        <time>2016-05-02T17:10:42Z</time>
      </trkpt>
      <trkpt lat="45.45004" lon="5.14446">
        <ele>523.58</ele>
        <time>2016-05-02T17:10:52Z</time>
      </trkpt>
      <trkpt lat="45.44974" lon="5.14434">
        <ele>526.94</ele>
        <time>2016-05-02T17:11:20Z</time>
      </trkpt>
      <trkpt lat="45.44948" lon="5.14421">
        <ele>528.38</ele>
        <time>2016-05-02T17:11:47Z</time>
      </trkpt>
      <trkpt lat="45.44927" lon="5.14409">
        <ele>528.38</ele>
        <time>2016-05-02T17:12:10Z</time>
      </trkpt>
      <trkpt lat="45.44914" lon="5.14414">
        <ele>528.86</ele>
        <time>2016-05-02T17:12:33Z</time>
      </trkpt>
      <trkpt lat="45.44903" lon="5.14405">
        <ele>529.34</ele>
        <time>2016-05-02T17:12:57Z</time>
      </trkpt>
      <trkpt lat="45.44881" lon="5.14389">
        <ele>529.82</ele>
        <time>2016-05-02T17:13:19Z</time>
      </trkpt>
      <trkpt lat="45.44857" lon="5.14369">
        <ele>530.79</ele>
        <time>2016-05-02T17:13:48Z</time>
      </trkpt>
      <trkpt lat="45.44842" lon="5.14366">
        <ele>531.27</ele>
        <time>2016-05-02T17:14:00Z</time>
      </trkpt>
      <trkpt lat="45.44839" lon="5.14363">
        <ele>531.75</ele>
        <time>2016-05-02T17:14:03Z</time>
      </trkpt>
      <trkpt lat="45.44822" lon="5.14364">
        <ele>530.79</ele>
        <time>2016-05-02T17:14:16Z</time>
      </trkpt>
      <trkpt lat="45.44811" lon="5.14361">
        <ele>530.79</ele>
        <time>2016-05-02T17:14:28Z</time>
      </trkpt>
      <trkpt lat="45.44809" lon="5.14361">
        <ele>530.3</ele>
        <time>2016-05-02T17:14:30Z</time>
      </trkpt>
      <trkpt lat="45.44785" lon="5.14367">
        <ele>527.9</ele>
        <time>2016-05-02T17:14:54Z</time>
      </trkpt>
      <trkpt lat="45.44769" lon="5.14372">
        <ele>527.42</ele>
        <time>2016-05-02T17:15:11Z</time>
      </trkpt>
      <trkpt lat="45.44761" lon="5.14375">
        <ele>527.42</ele>
        <time>2016-05-02T17:15:20Z</time>
      </trkpt>
      <trkpt lat="45.44745" lon="5.14382">
        <ele>525.5</ele>
        <time>2016-05-02T17:15:41Z</time>
      </trkpt>
      <trkpt lat="45.4473" lon="5.14384">
        <ele>525.5</ele>
        <time>2016-05-02T17:15:52Z</time>
      </trkpt>
      <trkpt lat="45.44719" lon="5.14389">
        <ele>525.02</ele>
        <time>2016-05-02T17:16:02Z</time>
      </trkpt>
      <trkpt lat="45.44715" lon="5.14391">
        <ele>524.54</ele>
        <time>2016-05-02T17:16:05Z</time>
      </trkpt>
      <trkpt lat="45.44698" lon="5.14405">
        <ele>523.09</ele>
        <time>2016-05-02T17:16:21Z</time>
      </trkpt>
      <trkpt lat="45.44685" lon="5.14413">
        <ele>522.61</ele>
        <time>2016-05-02T17:16:40Z</time>
      </trkpt>
      <trkpt lat="45.44661" lon="5.14419">
        <ele>521.17</ele>
        <time>2016-05-02T17:17:00Z</time>
      </trkpt>
      <trkpt lat="45.44653" lon="5.14424">
        <ele>520.21</ele>
        <time>2016-05-02T17:17:10Z</time>
      </trkpt>
      <trkpt lat="45.44622" lon="5.14444">
        <ele>518.29</ele>
        <time>2016-05-02T17:17:41Z</time>
      </trkpt>
      <trkpt lat="45.44601" lon="5.14461">
        <ele>515.88</ele>
        <time>2016-05-02T17:18:05Z</time>
      </trkpt>
      <trkpt lat="45.44575" lon="5.14479">
        <ele>513</ele>
        <time>2016-05-02T17:18:32Z</time>
      </trkpt>
      <trkpt lat="45.44554" lon="5.14495">
        <ele>510.6</ele>
        <time>2016-05-02T17:18:56Z</time>
      </trkpt>
      <trkpt lat="45.44525" lon="5.14516">
        <ele>507.71</ele>
        <time>2016-05-02T17:19:23Z</time>
      </trkpt>
      <trkpt lat="45.44507" lon="5.14549">
        <ele>504.83</ele>
        <time>2016-05-02T17:19:51Z</time>
      </trkpt>
      <trkpt lat="45.44491" lon="5.14575">
        <ele>502.43</ele>
        <time>2016-05-02T17:20:13Z</time>
      </trkpt>
      <trkpt lat="45.44486" lon="5.14594">
        <ele>501.46</ele>
        <time>2016-05-02T17:20:27Z</time>
      </trkpt>
      <trkpt lat="45.4447" lon="5.14624">
        <ele>499.06</ele>
        <time>2016-05-02T17:20:50Z</time>
      </trkpt>
      <trkpt lat="45.44461" lon="5.14656">
        <ele>497.62</ele>
        <time>2016-05-02T17:21:14Z</time>
      </trkpt>
      <trkpt lat="45.4446" lon="5.14658">
        <ele>497.14</ele>
        <time>2016-05-02T17:21:15Z</time>
      </trkpt>
      <trkpt lat="45.44448" lon="5.14697">
        <ele>494.74</ele>
        <time>2016-05-02T17:21:39Z</time>
      </trkpt>
      <trkpt lat="45.44432" lon="5.14716">
        <ele>492.33</ele>
        <time>2016-05-02T17:22:02Z</time>
      </trkpt>
      <trkpt lat="45.44426" lon="5.14723">
        <ele>493.29</ele>
        <time>2016-05-02T17:22:12Z</time>
      </trkpt>
      <trkpt lat="45.44413" lon="5.1473">
        <ele>494.74</ele>
        <time>2016-05-02T17:22:21Z</time>
      </trkpt>
      <trkpt lat="45.44396" lon="5.14737">
        <ele>496.66</ele>
        <time>2016-05-02T17:22:39Z</time>
      </trkpt>
      <trkpt lat="45.44388" lon="5.14726">
        <ele>500.02</ele>
        <time>2016-05-02T17:22:58Z</time>
      </trkpt>
      <trkpt lat="45.44374" lon="5.14719">
        <ele>502.91</ele>
        <time>2016-05-02T17:23:26Z</time>
      </trkpt>
      <trkpt lat="45.44358" lon="5.14708">
        <ele>506.27</ele>
        <time>2016-05-02T17:23:49Z</time>
      </trkpt>
      <trkpt lat="45.44346" lon="5.14697">
        <ele>508.19</ele>
        <time>2016-05-02T17:24:06Z</time>
      </trkpt>
      <trkpt lat="45.44343" lon="5.14693">
        <ele>511.08</ele>
        <time>2016-05-02T17:24:31Z</time>
      </trkpt>
      <trkpt lat="45.44325" lon="5.14689">
        <ele>513.48</ele>
        <time>2016-05-02T17:24:49Z</time>
      </trkpt>
      <trkpt lat="45.44309" lon="5.14686">
        <ele>515.4</ele>
        <time>2016-05-02T17:25:13Z</time>
      </trkpt>
      <trkpt lat="45.44293" lon="5.14687">
        <ele>517.33</ele>
        <time>2016-05-02T17:25:32Z</time>
      </trkpt>
      <trkpt lat="45.44276" lon="5.14687">
        <ele>520.69</ele>
        <time>2016-05-02T17:25:55Z</time>
      </trkpt>
      <trkpt lat="45.44259" lon="5.14692">
        <ele>521.65</ele>
        <time>2016-05-02T17:26:20Z</time>
      </trkpt>
      <trkpt lat="45.44254" lon="5.14694">
        <ele>522.13</ele>
        <time>2016-05-02T17:26:25Z</time>
      </trkpt>
      <trkpt lat="45.4424" lon="5.14701">
        <ele>524.06</ele>
        <time>2016-05-02T17:26:42Z</time>
      </trkpt>
      <trkpt lat="45.44223" lon="5.14712">
        <ele>525.5</ele>
        <time>2016-05-02T17:26:59Z</time>
      </trkpt>
      <trkpt lat="45.44214" lon="5.14718">
        <ele>525.5</ele>
        <time>2016-05-02T17:27:07Z</time>
      </trkpt>
      <trkpt lat="45.44208" lon="5.14718">
        <ele>525.98</ele>
        <time>2016-05-02T17:27:12Z</time>
      </trkpt>
      <trkpt lat="45.44194" lon="5.14723">
        <ele>525.98</ele>
        <time>2016-05-02T17:27:31Z</time>
      </trkpt>
      <trkpt lat="45.44179" lon="5.14721">
        <ele>526.46</ele>
        <time>2016-05-02T17:27:45Z</time>
      </trkpt>
      <trkpt lat="45.44162" lon="5.14718">
        <ele>527.42</ele>
        <time>2016-05-02T17:27:59Z</time>
      </trkpt>
      <trkpt lat="45.44141" lon="5.14721">
        <ele>527.9</ele>
        <time>2016-05-02T17:28:17Z</time>
      </trkpt>
      <trkpt lat="45.44128" lon="5.14724">
        <ele>528.86</ele>
        <time>2016-05-02T17:28:30Z</time>
      </trkpt>
      <trkpt lat="45.44104" lon="5.14731">
        <ele>529.82</ele>
        <time>2016-05-02T17:28:51Z</time>
      </trkpt>
      <trkpt lat="45.44092" lon="5.14736">
        <ele>531.27</ele>
        <time>2016-05-02T17:29:09Z</time>
      </trkpt>
      <trkpt lat="45.44088" lon="5.14736">
        <ele>531.27</ele>
        <time>2016-05-02T17:29:11Z</time>
      </trkpt>
      <trkpt lat="45.44082" lon="5.14734">
        <ele>530.79</ele>
        <time>2016-05-02T17:29:15Z</time>
      </trkpt>
      <trkpt lat="45.44073" lon="5.14736">
        <ele>531.27</ele>
        <time>2016-05-02T17:29:30Z</time>
      </trkpt>
      <trkpt lat="45.44062" lon="5.14739">
        <ele>531.27</ele>
        <time>2016-05-02T17:29:43Z</time>
      </trkpt>
      <trkpt lat="45.4405" lon="5.14743">
        <ele>532.23</ele>
        <time>2016-05-02T17:29:53Z</time>
      </trkpt>
      <trkpt lat="45.44048" lon="5.14744">
        <ele>531.75</ele>
        <time>2016-05-02T17:29:57Z</time>
      </trkpt>
      <trkpt lat="45.44042" lon="5.14744">
        <ele>531.75</ele>
        <time>2016-05-02T17:30:01Z</time>
      </trkpt>
      <trkpt lat="45.44037" lon="5.14745">
        <ele>532.23</ele>
        <time>2016-05-02T17:30:05Z</time>
      </trkpt>
      <trkpt lat="45.44035" lon="5.14747">
        <ele>531.75</ele>
        <time>2016-05-02T17:30:07Z</time>
      </trkpt>
      <trkpt lat="45.44022" lon="5.14751">
        <ele>532.23</ele>
        <time>2016-05-02T17:30:19Z</time>
      </trkpt>
      <trkpt lat="45.44007" lon="5.14755">
        <ele>531.75</ele>
        <time>2016-05-02T17:30:32Z</time>
      </trkpt>
      <trkpt lat="45.43982" lon="5.14766">
        <ele>531.27</ele>
        <time>2016-05-02T17:30:51Z</time>
      </trkpt>
      <trkpt lat="45.43972" lon="5.14769">
        <ele>531.27</ele>
        <time>2016-05-02T17:31:01Z</time>
      </trkpt>
      <trkpt lat="45.43955" lon="5.14773">
        <ele>529.82</ele>
        <time>2016-05-02T17:31:20Z</time>
      </trkpt>
      <trkpt lat="45.43954" lon="5.14774">
        <ele>529.82</ele>
        <time>2016-05-02T17:31:21Z</time>
      </trkpt>
      <trkpt lat="45.43938" lon="5.14785">
        <ele>529.34</ele>
        <time>2016-05-02T17:31:36Z</time>
      </trkpt>
      <trkpt lat="45.4392" lon="5.14677">
        <ele>518.461243</ele>
        <time>2016-05-02T17:32:02Z</time>
      </trkpt>
      <trkpt lat="45.43916" lon="5.14613">
        <ele>518.51355</ele>
        <time>2016-05-02T17:32:22Z</time>
      </trkpt>
      <trkpt lat="45.43912" lon="5.14544">
        <ele>518.63855</ele>
        <time>2016-05-02T17:32:32Z</time>
      </trkpt>
      <trkpt lat="45.43925" lon="5.14461">
        <ele>518.433777</ele>
        <time>2016-05-02T17:32:48Z</time>
      </trkpt>
      <trkpt lat="45.4396" lon="5.14356">
        <ele>518.584473</ele>
        <time>2016-05-02T17:33:18Z</time>
      </trkpt>
      <trkpt lat="45.4399" lon="5.14289">
        <ele>517.315369</ele>
        <time>2016-05-02T17:33:30Z</time>
      </trkpt>
      <trkpt lat="45.4401" lon="5.1425">
        <ele>517.42395</ele>
        <time>2016-05-02T17:33:38Z</time>
      </trkpt>
      <trkpt lat="45.44014" lon="5.14125">
        <ele>517.855469</ele>
        <time>2016-05-02T17:33:44Z</time>
      </trkpt>
      <trkpt lat="45.43998" lon="5.1404">
        <ele>516.625122</ele>
        <time>2016-05-02T17:33:58Z</time>
      </trkpt>
      <trkpt lat="45.43994" lon="5.13924">
        <ele>514.664612</ele>
        <time>2016-05-02T17:34:02Z</time>
      </trkpt>
      <trkpt lat="45.44" lon="5.13838">
        <ele>513.164429</ele>
        <time>2016-05-02T17:34:15Z</time>
      </trkpt>
      <trkpt lat="45.43993" lon="5.13776">
        <ele>511.569244</ele>
        <time>2016-05-02T17:34:26Z</time>
      </trkpt>
      <trkpt lat="45.4398" lon="5.137">
        <ele>511.000641</ele>
        <time>2016-05-02T17:34:30Z</time>
      </trkpt>
      <trkpt lat="45.43963" lon="5.13605">
        <ele>509.526062</ele>
        <time>2016-05-02T17:34:39Z</time>
      </trkpt>
      <trkpt lat="45.43952" lon="5.13535">
        <ele>508.278931</ele>
        <time>2016-05-02T17:34:56Z</time>
      </trkpt>
      <trkpt lat="45.43944" lon="5.1343">
        <ele>506.67395</ele>
        <time>2016-05-02T17:35:01Z</time>
      </trkpt>
      <trkpt lat="45.43916" lon="5.13532">
        <ele>507.673401</ele>
        <time>2016-05-02T17:35:07Z</time>
      </trkpt>
      <trkpt lat="45.43888" lon="5.1363">
        <ele>509.959564</ele>
        <time>2016-05-02T17:35:26Z</time>
      </trkpt>
      <trkpt lat="45.43849" lon="5.13748">
        <ele>512.415771</ele>
        <time>2016-05-02T17:35:48Z</time>
      </trkpt>
      <trkpt lat="45.43832" lon="5.13836">
        <ele>513.907166</ele>
        <time>2016-05-02T17:36:07Z</time>
      </trkpt>
      <trkpt lat="45.43803" lon="5.13886">
        <ele>514.467224</ele>
        <time>2016-05-02T17:36:27Z</time>
      </trkpt>
      <trkpt lat="45.43775" lon="5.13904">
        <ele>515.025024</ele>
        <time>2016-05-02T17:36:50Z</time>
      </trkpt>
      <trkpt lat="45.43702" lon="5.13922">
        <ele>515.962463</ele>
        <time>2016-05-02T17:37:00Z</time>
      </trkpt>
      <trkpt lat="45.4364" lon="5.1395">
        <ele>516.837463</ele>
        <time>2016-05-02T17:37:17Z</time>
      </trkpt>
      <trkpt lat="45.43588" lon="5.13979">
        <ele>517.434509</ele>
        <time>2016-05-02T17:37:28Z</time>
      </trkpt>
      <trkpt lat="45.4353" lon="5.13992">
        <ele>520.69</ele>
        <time>2016-05-03T08:37:32Z</time>
      </trkpt>
      <trkpt lat="45.43517" lon="5.13991">
        <ele>520.69</ele>
        <time>2016-05-03T08:37:50Z</time>
      </trkpt>
      <trkpt lat="45.43513" lon="5.13989">
        <ele>520.69</ele>
        <time>2016-05-03T08:37:53Z</time>
      </trkpt>
      <trkpt lat="45.43496" lon="5.13975">
        <ele>520.69</ele>
        <time>2016-05-03T08:38:07Z</time>
      </trkpt>
      <trkpt lat="45.43488" lon="5.1397">
        <ele>521.17</ele>
        <time>2016-05-03T08:38:16Z</time>
      </trkpt>
      <trkpt lat="45.43476" lon="5.13962">
        <ele>521.65</ele>
        <time>2016-05-03T08:38:31Z</time>
      </trkpt>
      <trkpt lat="45.4347" lon="5.13956">
        <ele>521.65</ele>
        <time>2016-05-03T08:38:39Z</time>
      </trkpt>
      <trkpt lat="45.43465" lon="5.1395">
        <ele>521.65</ele>
        <time>2016-05-03T08:38:45Z</time>
      </trkpt>
      <trkpt lat="45.43459" lon="5.13942">
        <ele>521.65</ele>
        <time>2016-05-03T08:38:52Z</time>
      </trkpt>
      <trkpt lat="45.43455" lon="5.13933">
        <ele>522.13</ele>
        <time>2016-05-03T08:38:59Z</time>
      </trkpt>
      <trkpt lat="45.43446" lon="5.13918">
        <ele>522.13</ele>
        <time>2016-05-03T08:39:14Z</time>
      </trkpt>
      <trkpt lat="45.43438" lon="5.13909">
        <ele>522.13</ele>
        <time>2016-05-03T08:39:30Z</time>
      </trkpt>
      <trkpt lat="45.43436" lon="5.13908">
        <ele>522.13</ele>
        <time>2016-05-03T08:39:32Z</time>
      </trkpt>
      <trkpt lat="45.43429" lon="5.13901">
        <ele>522.13</ele>
        <time>2016-05-03T08:39:41Z</time>
      </trkpt>
      <trkpt lat="45.43426" lon="5.13896">
        <ele>522.13</ele>
        <time>2016-05-03T08:39:46Z</time>
      </trkpt>
      <trkpt lat="45.43422" lon="5.13893">
        <ele>521.65</ele>
        <time>2016-05-03T08:39:51Z</time>
      </trkpt>
      <trkpt lat="45.43407" lon="5.13878">
        <ele>521.65</ele>
        <time>2016-05-03T08:40:10Z</time>
      </trkpt>
      <trkpt lat="45.43394" lon="5.13868">
        <ele>520.69</ele>
        <time>2016-05-03T08:40:24Z</time>
      </trkpt>
      <trkpt lat="45.43383" lon="5.13858">
        <ele>521.65</ele>
        <time>2016-05-03T08:40:39Z</time>
      </trkpt>
      <trkpt lat="45.43371" lon="5.13845">
        <ele>521.65</ele>
        <time>2016-05-03T08:40:57Z</time>
      </trkpt>
      <trkpt lat="45.43358" lon="5.1383">
        <ele>522.61</ele>
        <time>2016-05-03T08:41:15Z</time>
      </trkpt>
      <trkpt lat="45.43354" lon="5.13826">
        <ele>522.61</ele>
        <time>2016-05-03T08:41:19Z</time>
      </trkpt>
      <trkpt lat="45.43342" lon="5.13815">
        <ele>522.13</ele>
        <time>2016-05-03T08:41:30Z</time>
      </trkpt>
      <trkpt lat="45.43333" lon="5.13801">
        <ele>523.09</ele>
        <time>2016-05-03T08:41:48Z</time>
      </trkpt>
      <trkpt lat="45.43315" lon="5.13788">
        <ele>524.06</ele>
        <time>2016-05-03T08:42:08Z</time>
      </trkpt>
      <trkpt lat="45.43286" lon="5.13781">
        <ele>524.06</ele>
        <time>2016-05-03T08:42:31Z</time>
      </trkpt>
      <trkpt lat="45.43259" lon="5.13768">
        <ele>523.09</ele>
        <time>2016-05-03T08:42:58Z</time>
      </trkpt>
      <trkpt lat="45.43233" lon="5.13741">
        <ele>521.17</ele>
        <time>2016-05-03T08:43:26Z</time>
      </trkpt>
      <trkpt lat="45.43221" lon="5.13727">
        <ele>519.73</ele>
        <time>2016-05-03T08:43:44Z</time>
      </trkpt>
      <trkpt lat="45.43193" lon="5.13714">
        <ele>518.29</ele>
        <time>2016-05-03T08:44:10Z</time>
      </trkpt>
      <trkpt lat="45.43174" lon="5.13688">
        <ele>518.29</ele>
        <time>2016-05-03T08:44:36Z</time>
      </trkpt>
      <trkpt lat="45.43165" lon="5.13651">
        <ele>519.73</ele>
        <time>2016-05-03T08:45:05Z</time>
      </trkpt>
      <trkpt lat="45.43141" lon="5.13611">
        <ele>521.17</ele>
        <time>2016-05-03T08:45:36Z</time>
      </trkpt>
      <trkpt lat="45.43116" lon="5.13609">
        <ele>520.21</ele>
        <time>2016-05-03T08:46:01Z</time>
      </trkpt>
      <trkpt lat="45.43104" lon="5.13603">
        <ele>519.73</ele>
        <time>2016-05-03T08:46:14Z</time>
      </trkpt>
      <trkpt lat="45.43091" lon="5.13596">
        <ele>519.25</ele>
        <time>2016-05-03T08:46:30Z</time>
      </trkpt>
      <trkpt lat="45.43081" lon="5.13592">
        <ele>520.21</ele>
        <time>2016-05-03T08:46:49Z</time>
      </trkpt>
      <trkpt lat="45.43081" lon="5.13584">
        <ele>519.73</ele>
        <time>2016-05-03T08:47:19Z</time>
      </trkpt>
      <trkpt lat="45.43072" lon="5.1357">
        <ele>520.21</ele>
        <time>2016-05-03T08:47:47Z</time>
      </trkpt>
      <trkpt lat="45.43074" lon="5.13582">
        <ele>520.21</ele>
        <time>2016-05-03T08:48:32Z</time>
      </trkpt>
      <trkpt lat="45.43064" lon="5.13579">
        <ele>520.21</ele>
        <time>2016-05-03T08:48:58Z</time>
      </trkpt>
      <trkpt lat="45.4306" lon="5.1357">
        <ele>520.69</ele>
        <time>2016-05-03T08:49:34Z</time>
      </trkpt>
      <trkpt lat="45.43061" lon="5.13574">
        <ele>520.21</ele>
        <time>2016-05-03T08:50:20Z</time>
      </trkpt>
      <trkpt lat="45.43066" lon="5.13586">
        <ele>520.21</ele>
        <time>2016-05-03T08:50:47Z</time>
      </trkpt>
      <trkpt lat="45.43066" lon="5.13586">
        <ele>521.17</ele>
        <time>2016-05-03T08:51:19Z</time>
      </trkpt>
      <trkpt lat="45.4307" lon="5.13581">
        <ele>521.17</ele>
        <time>2016-05-03T08:52:08Z</time>
      </trkpt>
      <trkpt lat="45.43076" lon="5.13581">
        <ele>521.17</ele>
        <time>2016-05-03T08:54:49Z</time>
      </trkpt>
      <trkpt lat="45.4308" lon="5.13578">
        <ele>520.69</ele>
        <time>2016-05-03T08:55:08Z</time>
      </trkpt>
      <trkpt lat="45.43078" lon="5.13581">
        <ele>521.65</ele>
        <time>2016-05-03T08:55:13Z</time>
      </trkpt>
      <trkpt lat="45.43062" lon="5.13582">
        <ele>520.69</ele>
        <time>2016-05-03T08:55:27Z</time>
      </trkpt>
      <trkpt lat="45.43047" lon="5.13577">
        <ele>521.17</ele>
        <time>2016-05-03T08:55:42Z</time>
      </trkpt>
      <trkpt lat="45.4302" lon="5.13577">
        <ele>521.17</ele>
        <time>2016-05-03T08:56:02Z</time>
      </trkpt>
      <trkpt lat="45.43007" lon="5.13575">
        <ele>520.69</ele>
        <time>2016-05-03T08:56:14Z</time>
      </trkpt>
      <trkpt lat="45.42997" lon="5.13577">
        <ele>520.69</ele>
        <time>2016-05-03T08:56:20Z</time>
      </trkpt>
      <trkpt lat="45.42993" lon="5.13577">
        <ele>520.69</ele>
        <time>2016-05-03T08:56:22Z</time>
      </trkpt>
      <trkpt lat="45.42981" lon="5.13571">
        <ele>520.69</ele>
        <time>2016-05-03T08:56:36Z</time>
      </trkpt>
      <trkpt lat="45.42975" lon="5.13572">
        <ele>521.17</ele>
        <time>2016-05-03T08:56:42Z</time>
      </trkpt>
      <trkpt lat="45.42957" lon="5.13565">
        <ele>520.69</ele>
        <time>2016-05-03T08:56:56Z</time>
      </trkpt>
      <trkpt lat="45.42945" lon="5.13561">
        <ele>520.21</ele>
        <time>2016-05-03T08:57:03Z</time>
      </trkpt>
      <trkpt lat="45.42936" lon="5.13566">
        <ele>519.73</ele>
        <time>2016-05-03T08:57:12Z</time>
      </trkpt>
      <trkpt lat="45.42929" lon="5.13568">
        <ele>519.73</ele>
        <time>2016-05-03T08:57:19Z</time>
      </trkpt>
      <trkpt lat="45.42917" lon="5.13575">
        <ele>519.73</ele>
        <time>2016-05-03T08:57:27Z</time>
      </trkpt>
      <trkpt lat="45.42912" lon="5.13576">
        <ele>519.73</ele>
        <time>2016-05-03T08:57:31Z</time>
      </trkpt>
      <trkpt lat="45.42905" lon="5.13579">
        <ele>520.21</ele>
        <time>2016-05-03T08:57:56Z</time>
      </trkpt>
      <trkpt lat="45.42904" lon="5.13581">
        <ele>520.21</ele>
        <time>2016-05-03T08:58:02Z</time>
      </trkpt>
      <trkpt lat="45.42888" lon="5.13594">
        <ele>519.25</ele>
        <time>2016-05-03T08:58:16Z</time>
      </trkpt>
      <trkpt lat="45.42861" lon="5.13616">
        <ele>518.77</ele>
        <time>2016-05-03T08:58:48Z</time>
      </trkpt>
      <trkpt lat="45.42831" lon="5.13638">
        <ele>518.77</ele>
        <time>2016-05-03T08:59:11Z</time>
      </trkpt>
      <trkpt lat="45.42821" lon="5.13649">
        <ele>518.29</ele>
        <time>2016-05-03T08:59:24Z</time>
      </trkpt>
      <trkpt lat="45.42813" lon="5.13659">
        <ele>518.29</ele>
        <time>2016-05-03T08:59:31Z</time>
      </trkpt>
      <trkpt lat="45.42807" lon="5.13661">
        <ele>517.33</ele>
        <time>2016-05-03T08:59:35Z</time>
      </trkpt>
      <trkpt lat="45.42803" lon="5.13675">
        <ele>517.33</ele>
        <time>2016-05-03T08:59:44Z</time>
      </trkpt>
      <trkpt lat="45.42803" lon="5.13679">
        <ele>517.33</ele>
        <time>2016-05-03T08:59:46Z</time>
      </trkpt>
      <trkpt lat="45.42789" lon="5.137">
        <ele>516.37</ele>
        <time>2016-05-03T09:00:04Z</time>
      </trkpt>
      <trkpt lat="45.42781" lon="5.13712">
        <ele>515.88</ele>
        <time>2016-05-03T09:00:14Z</time>
      </trkpt>
      <trkpt lat="45.42761" lon="5.13741">
        <ele>514.92</ele>
        <time>2016-05-03T09:00:36Z</time>
      </trkpt>
      <trkpt lat="45.42747" lon="5.1376">
        <ele>514.44</ele>
        <time>2016-05-03T09:00:52Z</time>
      </trkpt>
      <trkpt lat="45.42733" lon="5.1378">
        <ele>514.44</ele>
        <time>2016-05-03T09:01:08Z</time>
      </trkpt>
      <trkpt lat="45.42726" lon="5.13774">
        <ele>513.48</ele>
        <time>2016-05-03T09:01:24Z</time>
      </trkpt>
      <trkpt lat="45.42726" lon="5.13768">
        <ele>513.48</ele>
        <time>2016-05-03T09:01:27Z</time>
      </trkpt>
      <trkpt lat="45.42732" lon="5.13735">
        <ele>513.96</ele>
        <time>2016-05-03T09:01:48Z</time>
      </trkpt>
      <trkpt lat="45.42741" lon="5.13715">
        <ele>513.48</ele>
        <time>2016-05-03T09:02:06Z</time>
      </trkpt>
      <trkpt lat="45.42737" lon="5.13686">
        <ele>513</ele>
        <time>2016-05-03T09:02:21Z</time>
      </trkpt>
      <trkpt lat="45.42734" lon="5.13667">
        <ele>513</ele>
        <time>2016-05-03T09:02:30Z</time>
      </trkpt>
      <trkpt lat="45.42738" lon="5.13651">
        <ele>513</ele>
        <time>2016-05-03T09:02:41Z</time>
      </trkpt>
      <trkpt lat="45.42739" lon="5.13624">
        <ele>512.04</ele>
        <time>2016-05-03T09:03:01Z</time>
      </trkpt>
      <trkpt lat="45.42744" lon="5.13583">
        <ele>511.56</ele>
        <time>2016-05-03T09:03:24Z</time>
      </trkpt>
      <trkpt lat="45.42747" lon="5.13568">
        <ele>511.56</ele>
        <time>2016-05-03T09:03:33Z</time>
      </trkpt>
      <trkpt lat="45.42756" lon="5.13546">
        <ele>511.56</ele>
        <time>2016-05-03T09:03:46Z</time>
      </trkpt>
      <trkpt lat="45.42763" lon="5.13524">
        <ele>511.08</ele>
        <time>2016-05-03T09:04:01Z</time>
      </trkpt>
      <trkpt lat="45.42772" lon="5.13512">
        <ele>510.6</ele>
        <time>2016-05-03T09:04:09Z</time>
      </trkpt>
      <trkpt lat="45.42781" lon="5.13491">
        <ele>510.6</ele>
        <time>2016-05-03T09:04:26Z</time>
      </trkpt>
      <trkpt lat="45.4279" lon="5.13474">
        <ele>511.08</ele>
        <time>2016-05-03T09:04:37Z</time>
      </trkpt>
      <trkpt lat="45.42805" lon="5.13445">
        <ele>511.56</ele>
        <time>2016-05-03T09:05:00Z</time>
      </trkpt>
      <trkpt lat="45.42814" lon="5.13442">
        <ele>512.04</ele>
        <time>2016-05-03T09:05:56Z</time>
      </trkpt>
      <trkpt lat="45.42816" lon="5.13443">
        <ele>512.04</ele>
        <time>2016-05-03T09:05:57Z</time>
      </trkpt>
      <trkpt lat="45.42813" lon="5.13444">
        <ele>511.56</ele>
        <time>2016-05-03T09:06:23Z</time>
      </trkpt>
      <trkpt lat="45.42807" lon="5.13446">
        <ele>511.56</ele>
        <time>2016-05-03T09:07:06Z</time>
      </trkpt>
      <trkpt lat="45.42796" lon="5.13447">
        <ele>511.56</ele>
        <time>2016-05-03T09:07:32Z</time>
      </trkpt>
      <trkpt lat="45.42806" lon="5.13447">
        <ele>511.56</ele>
        <time>2016-05-03T09:07:55Z</time>
      </trkpt>
      <trkpt lat="45.42816" lon="5.13443">
        <ele>512.04</ele>
        <time>2016-05-03T09:08:20Z</time>
      </trkpt>
      <trkpt lat="45.42812" lon="5.1345">
        <ele>512.04</ele>
        <time>2016-05-03T09:08:51Z</time>
      </trkpt>
      <trkpt lat="45.42817" lon="5.13445">
        <ele>512.52</ele>
        <time>2016-05-03T09:09:32Z</time>
      </trkpt>
      <trkpt lat="45.42825" lon="5.13442">
        <ele>512.52</ele>
        <time>2016-05-03T09:09:46Z</time>
      </trkpt>
      <trkpt lat="45.42823" lon="5.1344">
        <ele>512.52</ele>
        <time>2016-05-03T09:09:50Z</time>
      </trkpt>
      <trkpt lat="45.42826" lon="5.13432">
        <ele>512.52</ele>
        <time>2016-05-03T09:10:01Z</time>
      </trkpt>
      <trkpt lat="45.42833" lon="5.1343">
        <ele>512.52</ele>
        <time>2016-05-03T09:10:06Z</time>
      </trkpt>
      <trkpt lat="45.42835" lon="5.13426">
        <ele>512.04</ele>
        <time>2016-05-03T09:10:10Z</time>
      </trkpt>
      <trkpt lat="45.42837" lon="5.13419">
        <ele>511.56</ele>
        <time>2016-05-03T09:10:17Z</time>
      </trkpt>
      <trkpt lat="45.42843" lon="5.13401">
        <ele>511.08</ele>
        <time>2016-05-03T09:10:30Z</time>
      </trkpt>
      <trkpt lat="45.4285" lon="5.13382">
        <ele>510.12</ele>
        <time>2016-05-03T09:10:44Z</time>
      </trkpt>
      <trkpt lat="45.42848" lon="5.13355">
        <ele>509.16</ele>
        <time>2016-05-03T09:10:59Z</time>
      </trkpt>
      <trkpt lat="45.42847" lon="5.1335">
        <ele>508.67</ele>
        <time>2016-05-03T09:11:03Z</time>
      </trkpt>
      <trkpt lat="45.42853" lon="5.13319">
        <ele>508.19</ele>
        <time>2016-05-03T09:11:16Z</time>
      </trkpt>
      <trkpt lat="45.42859" lon="5.13311">
        <ele>508.19</ele>
        <time>2016-05-03T09:11:22Z</time>
      </trkpt>
      <trkpt lat="45.42859" lon="5.13299">
        <ele>508.19</ele>
        <time>2016-05-03T09:11:31Z</time>
      </trkpt>
      <trkpt lat="45.4286" lon="5.13286">
        <ele>507.71</ele>
        <time>2016-05-03T09:11:36Z</time>
      </trkpt>
      <trkpt lat="45.42863" lon="5.13281">
        <ele>507.71</ele>
        <time>2016-05-03T09:11:40Z</time>
      </trkpt>
      <trkpt lat="45.42865" lon="5.13267">
        <ele>508.19</ele>
        <time>2016-05-03T09:11:48Z</time>
      </trkpt>
      <trkpt lat="45.42871" lon="5.13248">
        <ele>507.71</ele>
        <time>2016-05-03T09:11:58Z</time>
      </trkpt>
      <trkpt lat="45.42877" lon="5.13231">
        <ele>507.71</ele>
        <time>2016-05-03T09:12:11Z</time>
      </trkpt>
      <trkpt lat="45.42878" lon="5.13221">
        <ele>507.23</ele>
        <time>2016-05-03T09:12:20Z</time>
      </trkpt>
      <trkpt lat="45.42883" lon="5.13215">
        <ele>506.75</ele>
        <time>2016-05-03T09:12:24Z</time>
      </trkpt>
      <trkpt lat="45.4289" lon="5.13193">
        <ele>507.23</ele>
        <time>2016-05-03T09:12:36Z</time>
      </trkpt>
      <trkpt lat="45.42899" lon="5.13171">
        <ele>507.23</ele>
        <time>2016-05-03T09:12:50Z</time>
      </trkpt>
      <trkpt lat="45.42907" lon="5.13158">
        <ele>507.23</ele>
        <time>2016-05-03T09:13:04Z</time>
      </trkpt>
      <trkpt lat="45.4292" lon="5.13156">
        <ele>507.71</ele>
        <time>2016-05-03T09:13:16Z</time>
      </trkpt>
      <trkpt lat="45.4293" lon="5.13152">
        <ele>507.23</ele>
        <time>2016-05-03T09:13:23Z</time>
      </trkpt>
      <trkpt lat="45.42935" lon="5.13148">
        <ele>507.23</ele>
        <time>2016-05-03T09:13:27Z</time>
      </trkpt>
      <trkpt lat="45.42939" lon="5.13139">
        <ele>507.23</ele>
        <time>2016-05-03T09:13:35Z</time>
      </trkpt>
      <trkpt lat="45.42948" lon="5.13119">
        <ele>507.71</ele>
        <time>2016-05-03T09:13:49Z</time>
      </trkpt>
      <trkpt lat="45.42954" lon="5.1311">
        <ele>507.71</ele>
        <time>2016-05-03T09:13:55Z</time>
      </trkpt>
      <trkpt lat="45.42973" lon="5.13082">
        <ele>507.23</ele>
        <time>2016-05-03T09:14:13Z</time>
      </trkpt>
      <trkpt lat="45.42978" lon="5.13081">
        <ele>506.75</ele>
        <time>2016-05-03T09:14:17Z</time>
      </trkpt>
      <trkpt lat="45.4298" lon="5.13079">
        <ele>506.75</ele>
        <time>2016-05-03T09:14:21Z</time>
      </trkpt>
      <trkpt lat="45.42988" lon="5.13069">
        <ele>506.27</ele>
        <time>2016-05-03T09:14:29Z</time>
      </trkpt>
      <trkpt lat="45.42996" lon="5.13057">
        <ele>506.75</ele>
        <time>2016-05-03T09:14:38Z</time>
      </trkpt>
      <trkpt lat="45.43002" lon="5.13051">
        <ele>506.27</ele>
        <time>2016-05-03T09:14:49Z</time>
      </trkpt>
      <trkpt lat="45.43014" lon="5.13017">
        <ele>506.75</ele>
        <time>2016-05-03T09:15:09Z</time>
      </trkpt>
      <trkpt lat="45.43014" lon="5.13016">
        <ele>506.75</ele>
        <time>2016-05-03T09:15:10Z</time>
      </trkpt>
      <trkpt lat="45.43015" lon="5.13013">
        <ele>506.75</ele>
        <time>2016-05-03T09:15:12Z</time>
      </trkpt>
      <trkpt lat="45.4303" lon="5.12994">
        <ele>507.23</ele>
        <time>2016-05-03T09:15:27Z</time>
      </trkpt>
      <trkpt lat="45.43026" lon="5.12982">
        <ele>507.23</ele>
        <time>2016-05-03T09:15:34Z</time>
      </trkpt>
      <trkpt lat="45.43045" lon="5.12949">
        <ele>508.19</ele>
        <time>2016-05-03T09:16:00Z</time>
      </trkpt>
      <trkpt lat="45.43049" lon="5.12927">
        <ele>507.71</ele>
        <time>2016-05-03T09:16:10Z</time>
      </trkpt>
      <trkpt lat="45.43057" lon="5.12915">
        <ele>508.19</ele>
        <time>2016-05-03T09:16:18Z</time>
      </trkpt>
      <trkpt lat="45.43063" lon="5.12891">
        <ele>508.19</ele>
        <time>2016-05-03T09:16:36Z</time>
      </trkpt>
      <trkpt lat="45.43072" lon="5.12881">
        <ele>508.67</ele>
        <time>2016-05-03T09:17:13Z</time>
      </trkpt>
      <trkpt lat="45.43078" lon="5.12883">
        <ele>509.16</ele>
        <time>2016-05-03T09:17:52Z</time>
      </trkpt>
      <trkpt lat="45.43096" lon="5.12869">
        <ele>510.12</ele>
        <time>2016-05-03T09:18:16Z</time>
      </trkpt>
      <trkpt lat="45.43114" lon="5.12855">
        <ele>511.56</ele>
        <time>2016-05-03T09:18:28Z</time>
      </trkpt>
      <trkpt lat="45.43124" lon="5.12832">
        <ele>511.56</ele>
        <time>2016-05-03T09:18:49Z</time>
      </trkpt>
      <trkpt lat="45.43127" lon="5.12812">
        <ele>511.08</ele>
        <time>2016-05-03T09:19:01Z</time>
      </trkpt>
      <trkpt lat="45.43135" lon="5.12776">
        <ele>510.12</ele>
        <time>2016-05-03T09:19:25Z</time>
      </trkpt>
      <trkpt lat="45.43148" lon="5.12728">
        <ele>509.16</ele>
        <time>2016-05-03T09:19:50Z</time>
      </trkpt>
      <trkpt lat="45.43153" lon="5.12699">
        <ele>509.16</ele>
        <time>2016-05-03T09:20:13Z</time>
      </trkpt>
      <trkpt lat="45.43168" lon="5.12652">
        <ele>509.16</ele>
        <time>2016-05-03T09:20:44Z</time>
      </trkpt>
      <trkpt lat="45.4318" lon="5.12625">
        <ele>509.64</ele>
        <time>2016-05-03T09:21:06Z</time>
      </trkpt>
      <trkpt lat="45.43192" lon="5.12583">
        <ele>510.6</ele>
        <time>2016-05-03T09:21:35Z</time>
      </trkpt>
      <trkpt lat="45.43209" lon="5.12537">
        <ele>510.6</ele>
        <time>2016-05-03T09:22:04Z</time>
      </trkpt>
      <trkpt lat="45.43202" lon="5.12513">
        <ele>511.56</ele>
        <time>2016-05-03T09:22:26Z</time>
      </trkpt>
      <trkpt lat="45.43204" lon="5.12502">
        <ele>512.04</ele>
        <time>2016-05-03T09:22:32Z</time>
      </trkpt>
      <trkpt lat="45.4321" lon="5.1248">
        <ele>512.04</ele>
        <time>2016-05-03T09:22:44Z</time>
      </trkpt>
      <trkpt lat="45.43209" lon="5.12467">
        <ele>512.04</ele>
        <time>2016-05-03T09:22:51Z</time>
      </trkpt>
      <trkpt lat="45.43213" lon="5.12436">
        <ele>511.08</ele>
        <time>2016-05-03T09:23:08Z</time>
      </trkpt>
      <trkpt lat="45.4322" lon="5.12422">
        <ele>510.6</ele>
        <time>2016-05-03T09:23:16Z</time>
      </trkpt>
      <trkpt lat="45.4323" lon="5.12415">
        <ele>510.12</ele>
        <time>2016-05-03T09:23:24Z</time>
      </trkpt>
      <trkpt lat="45.43236" lon="5.12409">
        <ele>510.6</ele>
        <time>2016-05-03T09:23:30Z</time>
      </trkpt>
      <trkpt lat="45.43246" lon="5.12394">
        <ele>510.12</ele>
        <time>2016-05-03T09:23:47Z</time>
      </trkpt>
      <trkpt lat="45.43249" lon="5.1239">
        <ele>510.6</ele>
        <time>2016-05-03T09:23:50Z</time>
      </trkpt>
      <trkpt lat="45.43256" lon="5.12379">
        <ele>510.12</ele>
        <time>2016-05-03T09:23:57Z</time>
      </trkpt>
      <trkpt lat="45.4327" lon="5.12366">
        <ele>510.12</ele>
        <time>2016-05-03T09:24:10Z</time>
      </trkpt>
      <trkpt lat="45.43272" lon="5.12362">
        <ele>509.64</ele>
        <time>2016-05-03T09:24:14Z</time>
      </trkpt>
      <trkpt lat="45.43277" lon="5.12358">
        <ele>509.64</ele>
        <time>2016-05-03T09:24:22Z</time>
      </trkpt>
      <trkpt lat="45.43294" lon="5.12349">
        <ele>508.67</ele>
        <time>2016-05-03T09:24:40Z</time>
      </trkpt>
      <trkpt lat="45.43304" lon="5.1234">
        <ele>509.16</ele>
        <time>2016-05-03T09:24:44Z</time>
      </trkpt>
      <trkpt lat="45.43319" lon="5.12341">
        <ele>508.67</ele>
        <time>2016-05-03T09:25:00Z</time>
      </trkpt>
      <trkpt lat="45.43355" lon="5.12334">
        <ele>508.19</ele>
        <time>2016-05-03T09:25:32Z</time>
      </trkpt>
      <trkpt lat="45.43362" lon="5.12333">
        <ele>508.19</ele>
        <time>2016-05-03T09:25:40Z</time>
      </trkpt>
      <trkpt lat="45.43371" lon="5.12333">
        <ele>507.23</ele>
        <time>2016-05-03T09:25:48Z</time>
      </trkpt>
      <trkpt lat="45.43395" lon="5.12331">
        <ele>507.23</ele>
        <time>2016-05-03T09:26:06Z</time>
      </trkpt>
      <trkpt lat="45.43399" lon="5.1233">
        <ele>506.75</ele>
        <time>2016-05-03T09:26:09Z</time>
      </trkpt>
      <trkpt lat="45.43418" lon="5.12321">
        <ele>507.71</ele>
        <time>2016-05-03T09:26:25Z</time>
      </trkpt>
      <trkpt lat="45.43422" lon="5.12312">
        <ele>508.19</ele>
        <time>2016-05-03T09:27:17Z</time>
      </trkpt>
      <trkpt lat="45.43422" lon="5.1231">
        <ele>508.19</ele>
        <time>2016-05-03T09:27:33Z</time>
      </trkpt>
      <trkpt lat="45.43437" lon="5.123">
        <ele>508.67</ele>
        <time>2016-05-03T09:28:34Z</time>
      </trkpt>
      <trkpt lat="45.4345" lon="5.12278">
        <ele>510.6</ele>
        <time>2016-05-03T09:29:00Z</time>
      </trkpt>
      <trkpt lat="45.43466" lon="5.12251">
        <ele>511.56</ele>
        <time>2016-05-03T09:29:21Z</time>
      </trkpt>
      <trkpt lat="45.43472" lon="5.12242">
        <ele>512.04</ele>
        <time>2016-05-03T09:29:27Z</time>
      </trkpt>
      <trkpt lat="45.43486" lon="5.12217">
        <ele>513</ele>
        <time>2016-05-03T09:29:50Z</time>
      </trkpt>
      <trkpt lat="45.43488" lon="5.12189">
        <ele>513.48</ele>
        <time>2016-05-03T09:30:14Z</time>
      </trkpt>
      <trkpt lat="45.43507" lon="5.12162">
        <ele>514.44</ele>
        <time>2016-05-03T09:30:38Z</time>
      </trkpt>
      <trkpt lat="45.43538" lon="5.12138">
        <ele>515.4</ele>
        <time>2016-05-03T09:31:03Z</time>
      </trkpt>
      <trkpt lat="45.43556" lon="5.12116">
        <ele>515.88</ele>
        <time>2016-05-03T09:31:29Z</time>
      </trkpt>
      <trkpt lat="45.43578" lon="5.12085">
        <ele>516.85</ele>
        <time>2016-05-03T09:31:57Z</time>
      </trkpt>
      <trkpt lat="45.43582" lon="5.1208">
        <ele>515.88</ele>
        <time>2016-05-03T09:32:01Z</time>
      </trkpt>
      <trkpt lat="45.43599" lon="5.1204">
        <ele>514.92</ele>
        <time>2016-05-03T09:32:29Z</time>
      </trkpt>
      <trkpt lat="45.43615" lon="5.1201">
        <ele>513.96</ele>
        <time>2016-05-03T09:32:48Z</time>
      </trkpt>
      <trkpt lat="45.43614" lon="5.11974">
        <ele>512.04</ele>
        <time>2016-05-03T09:33:13Z</time>
      </trkpt>
      <trkpt lat="45.43615" lon="5.1197">
        <ele>512.04</ele>
        <time>2016-05-03T09:33:15Z</time>
      </trkpt>
      <trkpt lat="45.43609" lon="5.11932">
        <ele>511.56</ele>
        <time>2016-05-03T09:33:40Z</time>
      </trkpt>
      <trkpt lat="45.43609" lon="5.11911">
        <ele>511.08</ele>
        <time>2016-05-03T09:33:52Z</time>
      </trkpt>
      <trkpt lat="45.43616" lon="5.11907">
        <ele>511.56</ele>
        <time>2016-05-03T09:33:56Z</time>
      </trkpt>
      <trkpt lat="45.43619" lon="5.11903">
        <ele>511.08</ele>
        <time>2016-05-03T09:33:59Z</time>
      </trkpt>
      <trkpt lat="45.43613" lon="5.11886">
        <ele>511.56</ele>
        <time>2016-05-03T09:34:14Z</time>
      </trkpt>
      <trkpt lat="45.43614" lon="5.11847">
        <ele>512.52</ele>
        <time>2016-05-03T09:34:41Z</time>
      </trkpt>
      <trkpt lat="45.43616" lon="5.11838">
        <ele>513</ele>
        <time>2016-05-03T09:35:01Z</time>
      </trkpt>
      <trkpt lat="45.43619" lon="5.11834">
        <ele>512.52</ele>
        <time>2016-05-03T09:35:20Z</time>
      </trkpt>
      <trkpt lat="45.43619" lon="5.1183">
        <ele>512.52</ele>
        <time>2016-05-03T09:35:23Z</time>
      </trkpt>
      <trkpt lat="45.4363" lon="5.11807">
        <ele>513.48</ele>
        <time>2016-05-03T09:35:37Z</time>
      </trkpt>
      <trkpt lat="45.43629" lon="5.11805">
        <ele>513</ele>
        <time>2016-05-03T09:35:47Z</time>
      </trkpt>
      <trkpt lat="45.43631" lon="5.11802">
        <ele>513</ele>
        <time>2016-05-03T09:35:49Z</time>
      </trkpt>
      <trkpt lat="45.43637" lon="5.11799">
        <ele>513</ele>
        <time>2016-05-03T09:35:53Z</time>
      </trkpt>
      <trkpt lat="45.43649" lon="5.11792">
        <ele>513.48</ele>
        <time>2016-05-03T09:36:06Z</time>
      </trkpt>
      <trkpt lat="45.43653" lon="5.11789">
        <ele>513.96</ele>
        <time>2016-05-03T09:36:14Z</time>
      </trkpt>
      <trkpt lat="45.43664" lon="5.11774">
        <ele>513.96</ele>
        <time>2016-05-03T09:36:26Z</time>
      </trkpt>
      <trkpt lat="45.43669" lon="5.11766">
        <ele>513.48</ele>
        <time>2016-05-03T09:36:34Z</time>
      </trkpt>
      <trkpt lat="45.43686" lon="5.11753">
        <ele>513.48</ele>
        <time>2016-05-03T09:36:52Z</time>
      </trkpt>
      <trkpt lat="45.43692" lon="5.11745">
        <ele>513</ele>
        <time>2016-05-03T09:36:56Z</time>
      </trkpt>
      <trkpt lat="45.43696" lon="5.11716">
        <ele>513.48</ele>
        <time>2016-05-03T09:37:19Z</time>
      </trkpt>
      <trkpt lat="45.43708" lon="5.11693">
        <ele>513</ele>
        <time>2016-05-03T09:37:39Z</time>
      </trkpt>
      <trkpt lat="45.4372" lon="5.11684">
        <ele>512.52</ele>
        <time>2016-05-03T09:37:50Z</time>
      </trkpt>
      <trkpt lat="45.43728" lon="5.11672">
        <ele>512.52</ele>
        <time>2016-05-03T09:38:02Z</time>
      </trkpt>
      <trkpt lat="45.43735" lon="5.11669">
        <ele>513</ele>
        <time>2016-05-03T09:38:10Z</time>
      </trkpt>
      <trkpt lat="45.43739" lon="5.11663">
        <ele>512.52</ele>
        <time>2016-05-03T09:38:14Z</time>
      </trkpt>
      <trkpt lat="45.4374" lon="5.11655">
        <ele>512.52</ele>
        <time>2016-05-03T09:38:33Z</time>
      </trkpt>
      <trkpt lat="45.43767" lon="5.11639">
        <ele>512.04</ele>
        <time>2016-05-03T09:38:58Z</time>
      </trkpt>
      <trkpt lat="45.43769" lon="5.11633">
        <ele>511.56</ele>
        <time>2016-05-03T09:39:04Z</time>
      </trkpt>
      <trkpt lat="45.43776" lon="5.1162">
        <ele>511.08</ele>
        <time>2016-05-03T09:39:12Z</time>
      </trkpt>
      <trkpt lat="45.43784" lon="5.11584">
        <ele>511.56</ele>
        <time>2016-05-03T09:39:43Z</time>
      </trkpt>
      <trkpt lat="45.43779" lon="5.11541">
        <ele>510.6</ele>
        <time>2016-05-03T09:40:11Z</time>
      </trkpt>
      <trkpt lat="45.43787" lon="5.11508">
        <ele>510.12</ele>
        <time>2016-05-03T09:40:35Z</time>
      </trkpt>
      <trkpt lat="45.43802" lon="5.11486">
        <ele>509.64</ele>
        <time>2016-05-03T09:40:58Z</time>
      </trkpt>
      <trkpt lat="45.43813" lon="5.11448">
        <ele>508.67</ele>
        <time>2016-05-03T09:41:23Z</time>
      </trkpt>
      <trkpt lat="45.4381" lon="5.11431">
        <ele>508.19</ele>
        <time>2016-05-03T09:41:36Z</time>
      </trkpt>
      <trkpt lat="45.43813" lon="5.11401">
        <ele>508.19</ele>
        <time>2016-05-03T09:41:56Z</time>
      </trkpt>
      <trkpt lat="45.43807" lon="5.11385">
        <ele>508.19</ele>
        <time>2016-05-03T09:42:08Z</time>
      </trkpt>
      <trkpt lat="45.43796" lon="5.11365">
        <ele>508.19</ele>
        <time>2016-05-03T09:42:30Z</time>
      </trkpt>
      <trkpt lat="45.43795" lon="5.11332">
        <ele>508.19</ele>
        <time>2016-05-03T09:42:54Z</time>
      </trkpt>
      <trkpt lat="45.43798" lon="5.11307">
        <ele>508.67</ele>
        <time>2016-05-03T09:43:19Z</time>
      </trkpt>
      <trkpt lat="45.43801" lon="5.11303">
        <ele>508.67</ele>
        <time>2016-05-03T09:43:45Z</time>
      </trkpt>
      <trkpt lat="45.43797" lon="5.11264">
        <ele>508.19</ele>
        <time>2016-05-03T09:44:13Z</time>
      </trkpt>
      <trkpt lat="45.43796" lon="5.11229">
        <ele>508.19</ele>
        <time>2016-05-03T09:44:39Z</time>
      </trkpt>
      <trkpt lat="45.438" lon="5.11221">
        <ele>508.19</ele>
        <time>2016-05-03T09:44:46Z</time>
      </trkpt>
      <trkpt lat="45.43798" lon="5.11209">
        <ele>508.19</ele>
        <time>2016-05-03T09:44:54Z</time>
      </trkpt>
      <trkpt lat="45.43784" lon="5.11197">
        <ele>507.71</ele>
        <time>2016-05-03T09:45:07Z</time>
      </trkpt>
      <trkpt lat="45.43773" lon="5.11178">
        <ele>507.71</ele>
        <time>2016-05-03T09:45:25Z</time>
      </trkpt>
      <trkpt lat="45.43769" lon="5.11176">
        <ele>507.71</ele>
        <time>2016-05-03T09:45:28Z</time>
      </trkpt>
      <trkpt lat="45.43761" lon="5.1117">
        <ele>507.23</ele>
        <time>2016-05-03T09:45:39Z</time>
      </trkpt>
      <trkpt lat="45.43747" lon="5.11156">
        <ele>506.27</ele>
        <time>2016-05-03T09:45:55Z</time>
      </trkpt>
      <trkpt lat="45.43741" lon="5.11146">
        <ele>506.27</ele>
        <time>2016-05-03T09:46:14Z</time>
      </trkpt>
      <trkpt lat="45.4374" lon="5.11127">
        <ele>505.79</ele>
        <time>2016-05-03T09:46:35Z</time>
      </trkpt>
      <trkpt lat="45.43723" lon="5.11108">
        <ele>503.87</ele>
        <time>2016-05-03T09:46:59Z</time>
      </trkpt>
      <trkpt lat="45.43704" lon="5.11092">
        <ele>502.43</ele>
        <time>2016-05-03T09:47:26Z</time>
      </trkpt>
      <trkpt lat="45.43696" lon="5.11085">
        <ele>501.95</ele>
        <time>2016-05-03T09:47:33Z</time>
      </trkpt>
      <trkpt lat="45.43669" lon="5.11067">
        <ele>498.58</ele>
        <time>2016-05-03T09:47:58Z</time>
      </trkpt>
      <trkpt lat="45.43647" lon="5.11043">
        <ele>495.7</ele>
        <time>2016-05-03T09:48:22Z</time>
      </trkpt>
      <trkpt lat="45.4363" lon="5.11027">
        <ele>492.81</ele>
        <time>2016-05-03T09:48:42Z</time>
      </trkpt>
      <trkpt lat="45.43614" lon="5.11007">
        <ele>489.93</ele>
        <time>2016-05-03T09:48:59Z</time>
      </trkpt>
      <trkpt lat="45.43604" lon="5.10987">
        <ele>486.56</ele>
        <time>2016-05-03T09:49:15Z</time>
      </trkpt>
      <trkpt lat="45.43603" lon="5.10977">
        <ele>486.08</ele>
        <time>2016-05-03T09:49:19Z</time>
      </trkpt>
      <trkpt lat="45.43577" lon="5.10946">
        <ele>482.72</ele>
        <time>2016-05-03T09:49:45Z</time>
      </trkpt>
      <trkpt lat="45.43566" lon="5.10941">
        <ele>481.76</ele>
        <time>2016-05-03T09:49:53Z</time>
      </trkpt>
      <trkpt lat="45.43547" lon="5.10934">
        <ele>478.39</ele>
        <time>2016-05-03T09:50:11Z</time>
      </trkpt>
      <trkpt lat="45.43527" lon="5.10924">
        <ele>475.51</ele>
        <time>2016-05-03T09:50:31Z</time>
      </trkpt>
      <trkpt lat="45.4352" lon="5.10892">
        <ele>474.07</ele>
        <time>2016-05-03T09:50:54Z</time>
      </trkpt>
      <trkpt lat="45.43518" lon="5.10888">
        <ele>473.59</ele>
        <time>2016-05-03T09:50:57Z</time>
      </trkpt>
      <trkpt lat="45.43523" lon="5.10859">
        <ele>471.66</ele>
        <time>2016-05-03T09:51:12Z</time>
      </trkpt>
      <trkpt lat="45.4352" lon="5.10848">
        <ele>471.66</ele>
        <time>2016-05-03T09:51:17Z</time>
      </trkpt>
      <trkpt lat="45.4352" lon="5.10847">
        <ele>471.18</ele>
        <time>2016-05-03T09:51:19Z</time>
      </trkpt>
      <trkpt lat="45.43517" lon="5.10831">
        <ele>469.74</ele>
        <time>2016-05-03T09:51:27Z</time>
      </trkpt>
      <trkpt lat="45.43513" lon="5.10823">
        <ele>468.78</ele>
        <time>2016-05-03T09:51:31Z</time>
      </trkpt>
      <trkpt lat="45.43509" lon="5.10807">
        <ele>467.34</ele>
        <time>2016-05-03T09:51:38Z</time>
      </trkpt>
      <trkpt lat="45.43507" lon="5.108">
        <ele>465.42</ele>
        <time>2016-05-03T09:51:44Z</time>
      </trkpt>
      <trkpt lat="45.435" lon="5.10785">
        <ele>463.49</ele>
        <time>2016-05-03T09:51:54Z</time>
      </trkpt>
      <trkpt lat="45.435" lon="5.10778">
        <ele>463.01</ele>
        <time>2016-05-03T09:52:06Z</time>
      </trkpt>
      <trkpt lat="45.435" lon="5.10765">
        <ele>462.53</ele>
        <time>2016-05-03T09:52:26Z</time>
      </trkpt>
      <trkpt lat="45.43493" lon="5.10755">
        <ele>461.57</ele>
        <time>2016-05-03T09:52:35Z</time>
      </trkpt>
      <trkpt lat="45.43495" lon="5.10745">
        <ele>461.09</ele>
        <time>2016-05-03T09:52:52Z</time>
      </trkpt>
      <trkpt lat="45.43501" lon="5.10728">
        <ele>461.09</ele>
        <time>2016-05-03T09:53:05Z</time>
      </trkpt>
      <trkpt lat="45.4351" lon="5.10714">
        <ele>460.61</ele>
        <time>2016-05-03T09:53:16Z</time>
      </trkpt>
      <trkpt lat="45.43528" lon="5.1069">
        <ele>461.09</ele>
        <time>2016-05-03T09:53:38Z</time>
      </trkpt>
      <trkpt lat="45.43545" lon="5.10682">
        <ele>460.13</ele>
        <time>2016-05-03T09:54:04Z</time>
      </trkpt>
      <trkpt lat="45.43546" lon="5.10679">
        <ele>460.61</ele>
        <time>2016-05-03T09:54:06Z</time>
      </trkpt>
      <trkpt lat="45.43547" lon="5.10676">
        <ele>460.61</ele>
        <time>2016-05-03T09:54:30Z</time>
      </trkpt>
      <trkpt lat="45.4355" lon="5.10674">
        <ele>460.13</ele>
        <time>2016-05-03T09:54:33Z</time>
      </trkpt>
      <trkpt lat="45.43561" lon="5.10669">
        <ele>460.13</ele>
        <time>2016-05-03T09:54:47Z</time>
      </trkpt>
      <trkpt lat="45.43565" lon="5.10658">
        <ele>460.13</ele>
        <time>2016-05-03T09:54:59Z</time>
      </trkpt>
      <trkpt lat="45.43567" lon="5.10658">
        <ele>459.65</ele>
        <time>2016-05-03T09:55:19Z</time>
      </trkpt>
      <trkpt lat="45.43567" lon="5.10659">
        <ele>459.65</ele>
        <time>2016-05-03T09:56:14Z</time>
      </trkpt>
      <trkpt lat="45.43557" lon="5.10649">
        <ele>458.69</ele>
        <time>2016-05-03T09:56:39Z</time>
      </trkpt>
      <trkpt lat="45.43555" lon="5.10651">
        <ele>459.17</ele>
        <time>2016-05-03T09:57:29Z</time>
      </trkpt>
      <trkpt lat="45.43552" lon="5.10652">
        <ele>459.65</ele>
        <time>2016-05-03T09:57:52Z</time>
      </trkpt>
      <trkpt lat="45.43552" lon="5.10652">
        <ele>459.65</ele>
        <time>2016-05-03T09:58:17Z</time>
      </trkpt>
      <trkpt lat="45.43553" lon="5.10654">
        <ele>460.13</ele>
        <time>2016-05-03T09:58:28Z</time>
      </trkpt>
      <trkpt lat="45.43544" lon="5.10645">
        <ele>461.57</ele>
        <time>2016-05-03T09:58:47Z</time>
      </trkpt>
      <trkpt lat="45.4354" lon="5.10634">
        <ele>461.57</ele>
        <time>2016-05-03T09:59:00Z</time>
      </trkpt>
      <trkpt lat="45.43538" lon="5.1062">
        <ele>463.01</ele>
        <time>2016-05-03T09:59:10Z</time>
      </trkpt>
      <trkpt lat="45.43538" lon="5.10615">
        <ele>463.01</ele>
        <time>2016-05-03T09:59:12Z</time>
      </trkpt>
      <trkpt lat="45.43534" lon="5.10596">
        <ele>464.45</ele>
        <time>2016-05-03T09:59:32Z</time>
      </trkpt>
      <trkpt lat="45.43533" lon="5.10589">
        <ele>464.93</ele>
        <time>2016-05-03T09:59:39Z</time>
      </trkpt>
      <trkpt lat="45.43528" lon="5.1058">
        <ele>465.9</ele>
        <time>2016-05-03T09:59:52Z</time>
      </trkpt>
      <trkpt lat="45.43531" lon="5.10575">
        <ele>465.9</ele>
        <time>2016-05-03T09:59:57Z</time>
      </trkpt>
      <trkpt lat="45.4353" lon="5.10568">
        <ele>466.38</ele>
        <time>2016-05-03T10:00:06Z</time>
      </trkpt>
      <trkpt lat="45.43528" lon="5.10563">
        <ele>466.38</ele>
        <time>2016-05-03T10:00:10Z</time>
      </trkpt>
      <trkpt lat="45.43527" lon="5.10524">
        <ele>466.86</ele>
        <time>2016-05-03T10:00:32Z</time>
      </trkpt>
      <trkpt lat="45.43526" lon="5.10509">
        <ele>466.86</ele>
        <time>2016-05-03T10:00:53Z</time>
      </trkpt>
      <trkpt lat="45.43528" lon="5.105">
        <ele>468.3</ele>
        <time>2016-05-03T10:01:24Z</time>
      </trkpt>
      <trkpt lat="45.43529" lon="5.10499">
        <ele>468.3</ele>
        <time>2016-05-03T10:01:26Z</time>
      </trkpt>
      <trkpt lat="45.43528" lon="5.10495">
        <ele>467.34</ele>
        <time>2016-05-03T10:01:44Z</time>
      </trkpt>
      <trkpt lat="45.43528" lon="5.10492">
        <ele>467.34</ele>
        <time>2016-05-03T10:02:07Z</time>
      </trkpt>
      <trkpt lat="45.43529" lon="5.10483">
        <ele>468.3</ele>
        <time>2016-05-03T10:02:50Z</time>
      </trkpt>
      <trkpt lat="45.43538" lon="5.1046">
        <ele>469.26</ele>
        <time>2016-05-03T10:03:15Z</time>
      </trkpt>
      <trkpt lat="45.43552" lon="5.10437">
        <ele>471.66</ele>
        <time>2016-05-03T10:03:38Z</time>
      </trkpt>
      <trkpt lat="45.43559" lon="5.10426">
        <ele>473.59</ele>
        <time>2016-05-03T10:03:49Z</time>
      </trkpt>
      <trkpt lat="45.43564" lon="5.10404">
        <ele>474.55</ele>
        <time>2016-05-03T10:04:10Z</time>
      </trkpt>
      <trkpt lat="45.43565" lon="5.10383">
        <ele>475.99</ele>
        <time>2016-05-03T10:04:27Z</time>
      </trkpt>
      <trkpt lat="45.43565" lon="5.10375">
        <ele>476.95</ele>
        <time>2016-05-03T10:04:32Z</time>
      </trkpt>
      <trkpt lat="45.43566" lon="5.10369">
        <ele>477.43</ele>
        <time>2016-05-03T10:04:36Z</time>
      </trkpt>
      <trkpt lat="45.43566" lon="5.10364">
        <ele>477.91</ele>
        <time>2016-05-03T10:04:40Z</time>
      </trkpt>
      <trkpt lat="45.43565" lon="5.10353">
        <ele>478.87</ele>
        <time>2016-05-03T10:04:48Z</time>
      </trkpt>
      <trkpt lat="45.43563" lon="5.10349">
        <ele>478.39</ele>
        <time>2016-05-03T10:04:51Z</time>
      </trkpt>
      <trkpt lat="45.43562" lon="5.10337">
        <ele>480.32</ele>
        <time>2016-05-03T10:04:59Z</time>
      </trkpt>
      <trkpt lat="45.43558" lon="5.10305">
        <ele>482.72</ele>
        <time>2016-05-03T10:05:24Z</time>
      </trkpt>
      <trkpt lat="45.43558" lon="5.10296">
        <ele>484.16</ele>
        <time>2016-05-03T10:05:31Z</time>
      </trkpt>
      <trkpt lat="45.43555" lon="5.10266">
        <ele>487.53</ele>
        <time>2016-05-03T10:05:53Z</time>
      </trkpt>
      <trkpt lat="45.43554" lon="5.10254">
        <ele>488.49</ele>
        <time>2016-05-03T10:06:02Z</time>
      </trkpt>
      <trkpt lat="45.4355" lon="5.10241">
        <ele>489.45</ele>
        <time>2016-05-03T10:06:19Z</time>
      </trkpt>
      <trkpt lat="45.43541" lon="5.10234">
        <ele>489.93</ele>
        <time>2016-05-03T10:06:47Z</time>
      </trkpt>
      <trkpt lat="45.4354" lon="5.10232">
        <ele>489.93</ele>
        <time>2016-05-03T10:06:52Z</time>
      </trkpt>
      <trkpt lat="45.43532" lon="5.1022">
        <ele>490.41</ele>
        <time>2016-05-03T10:07:04Z</time>
      </trkpt>
      <trkpt lat="45.43527" lon="5.10212">
        <ele>490.89</ele>
        <time>2016-05-03T10:07:13Z</time>
      </trkpt>
      <trkpt lat="45.43523" lon="5.10211">
        <ele>491.85</ele>
        <time>2016-05-03T10:07:18Z</time>
      </trkpt>
      <trkpt lat="45.43509" lon="5.10192">
        <ele>491.37</ele>
        <time>2016-05-03T10:07:35Z</time>
      </trkpt>
      <trkpt lat="45.43492" lon="5.10176">
        <ele>492.81</ele>
        <time>2016-05-03T10:07:54Z</time>
      </trkpt>
      <trkpt lat="45.43484" lon="5.10164">
        <ele>493.77</ele>
        <time>2016-05-03T10:08:02Z</time>
      </trkpt>
      <trkpt lat="45.43481" lon="5.10156">
        <ele>493.77</ele>
        <time>2016-05-03T10:08:07Z</time>
      </trkpt>
      <trkpt lat="45.43478" lon="5.10151">
        <ele>493.77</ele>
        <time>2016-05-03T10:08:11Z</time>
      </trkpt>
      <trkpt lat="45.4348" lon="5.1015">
        <ele>494.26</ele>
        <time>2016-05-03T10:08:17Z</time>
      </trkpt>
      <trkpt lat="45.43472" lon="5.10135">
        <ele>494.74</ele>
        <time>2016-05-03T10:08:29Z</time>
      </trkpt>
      <trkpt lat="45.43469" lon="5.10118">
        <ele>494.74</ele>
        <time>2016-05-03T10:08:42Z</time>
      </trkpt>
      <trkpt lat="45.43465" lon="5.10109">
        <ele>494.74</ele>
        <time>2016-05-03T10:08:52Z</time>
      </trkpt>
      <trkpt lat="45.4346" lon="5.10092">
        <ele>494.26</ele>
        <time>2016-05-03T10:09:02Z</time>
      </trkpt>
      <trkpt lat="45.43458" lon="5.10085">
        <ele>494.74</ele>
        <time>2016-05-03T10:09:06Z</time>
      </trkpt>
      <trkpt lat="45.43451" lon="5.10068">
        <ele>493.77</ele>
        <time>2016-05-03T10:09:16Z</time>
      </trkpt>
      <trkpt lat="45.4345" lon="5.10061">
        <ele>493.77</ele>
        <time>2016-05-03T10:09:21Z</time>
      </trkpt>
      <trkpt lat="45.43447" lon="5.10037">
        <ele>494.26</ele>
        <time>2016-05-03T10:09:38Z</time>
      </trkpt>
      <trkpt lat="45.43443" lon="5.10034">
        <ele>493.77</ele>
        <time>2016-05-03T10:09:48Z</time>
      </trkpt>
      <trkpt lat="45.43439" lon="5.10015">
        <ele>493.29</ele>
        <time>2016-05-03T10:10:02Z</time>
      </trkpt>
      <trkpt lat="45.43433" lon="5.10008">
        <ele>493.77</ele>
        <time>2016-05-03T10:10:09Z</time>
      </trkpt>
      <trkpt lat="45.43426" lon="5.10008">
        <ele>493.77</ele>
        <time>2016-05-03T10:10:14Z</time>
      </trkpt>
      <trkpt lat="45.43414" lon="5.0999">
        <ele>493.29</ele>
        <time>2016-05-03T10:10:29Z</time>
      </trkpt>
      <trkpt lat="45.43408" lon="5.0998">
        <ele>493.29</ele>
        <time>2016-05-03T10:10:35Z</time>
      </trkpt>
      <trkpt lat="45.43405" lon="5.09979">
        <ele>493.29</ele>
        <time>2016-05-03T10:10:37Z</time>
      </trkpt>
      <trkpt lat="45.43392" lon="5.09956">
        <ele>493.77</ele>
        <time>2016-05-03T10:10:52Z</time>
      </trkpt>
      <trkpt lat="45.43385" lon="5.0995">
        <ele>493.29</ele>
        <time>2016-05-03T10:10:58Z</time>
      </trkpt>
      <trkpt lat="45.43376" lon="5.09941">
        <ele>493.29</ele>
        <time>2016-05-03T10:11:08Z</time>
      </trkpt>
      <trkpt lat="45.43367" lon="5.09936">
        <ele>493.29</ele>
        <time>2016-05-03T10:11:13Z</time>
      </trkpt>
      <trkpt lat="45.43364" lon="5.09934">
        <ele>493.29</ele>
        <time>2016-05-03T10:11:15Z</time>
      </trkpt>
      <trkpt lat="45.43353" lon="5.09923">
        <ele>493.29</ele>
        <time>2016-05-03T10:11:29Z</time>
      </trkpt>
      <trkpt lat="45.4335" lon="5.09924">
        <ele>492.81</ele>
        <time>2016-05-03T10:11:31Z</time>
      </trkpt>
      <trkpt lat="45.43349" lon="5.09922">
        <ele>493.77</ele>
        <time>2016-05-03T10:11:33Z</time>
      </trkpt>
      <trkpt lat="45.43341" lon="5.09906">
        <ele>492.81</ele>
        <time>2016-05-03T10:11:43Z</time>
      </trkpt>
      <trkpt lat="45.43343" lon="5.0989">
        <ele>492.33</ele>
        <time>2016-05-03T10:11:54Z</time>
      </trkpt>
      <trkpt lat="45.43344" lon="5.09886">
        <ele>492.33</ele>
        <time>2016-05-03T10:11:56Z</time>
      </trkpt>
      <trkpt lat="45.43354" lon="5.09853">
        <ele>490.89</ele>
        <time>2016-05-03T10:12:14Z</time>
      </trkpt>
      <trkpt lat="45.43354" lon="5.0985">
        <ele>490.89</ele>
        <time>2016-05-03T10:12:16Z</time>
      </trkpt>
      <trkpt lat="45.4336" lon="5.09843">
        <ele>490.41</ele>
        <time>2016-05-03T10:12:22Z</time>
      </trkpt>
      <trkpt lat="45.4336" lon="5.09831">
        <ele>490.89</ele>
        <time>2016-05-03T10:12:39Z</time>
      </trkpt>
      <trkpt lat="45.43359" lon="5.09829">
        <ele>491.85</ele>
        <time>2016-05-03T10:13:11Z</time>
      </trkpt>
      <trkpt lat="45.43349" lon="5.09821">
        <ele>492.33</ele>
        <time>2016-05-03T10:13:28Z</time>
      </trkpt>
      <trkpt lat="45.43347" lon="5.09819">
        <ele>492.33</ele>
        <time>2016-05-03T10:13:41Z</time>
      </trkpt>
      <trkpt lat="45.43334" lon="5.09809">
        <ele>491.85</ele>
        <time>2016-05-03T10:13:50Z</time>
      </trkpt>
      <trkpt lat="45.43327" lon="5.09799">
        <ele>491.85</ele>
        <time>2016-05-03T10:14:03Z</time>
      </trkpt>
      <trkpt lat="45.43317" lon="5.0979">
        <ele>492.33</ele>
        <time>2016-05-03T10:14:15Z</time>
      </trkpt>
      <trkpt lat="45.43312" lon="5.09784">
        <ele>492.33</ele>
        <time>2016-05-03T10:14:21Z</time>
      </trkpt>
      <trkpt lat="45.43299" lon="5.09769">
        <ele>493.29</ele>
        <time>2016-05-03T10:14:40Z</time>
      </trkpt>
      <trkpt lat="45.4328" lon="5.09749">
        <ele>491.37</ele>
        <time>2016-05-03T10:15:03Z</time>
      </trkpt>
      <trkpt lat="45.43272" lon="5.0973">
        <ele>489.93</ele>
        <time>2016-05-03T10:15:18Z</time>
      </trkpt>
      <trkpt lat="45.43271" lon="5.09726">
        <ele>489.93</ele>
        <time>2016-05-03T10:15:20Z</time>
      </trkpt>
      <trkpt lat="45.43269" lon="5.09723">
        <ele>489.93</ele>
        <time>2016-05-03T10:15:23Z</time>
      </trkpt>
      <trkpt lat="45.43262" lon="5.09714">
        <ele>488.97</ele>
        <time>2016-05-03T10:15:29Z</time>
      </trkpt>
      <trkpt lat="45.43254" lon="5.09711">
        <ele>487.53</ele>
        <time>2016-05-03T10:15:40Z</time>
      </trkpt>
      <trkpt lat="45.43236" lon="5.09706">
        <ele>486.56</ele>
        <time>2016-05-03T10:15:55Z</time>
      </trkpt>
      <trkpt lat="45.43235" lon="5.09703">
        <ele>486.56</ele>
        <time>2016-05-03T10:15:56Z</time>
      </trkpt>
      <trkpt lat="45.43228" lon="5.09699">
        <ele>486.08</ele>
        <time>2016-05-03T10:16:01Z</time>
      </trkpt>
      <trkpt lat="45.43222" lon="5.09697">
        <ele>485.12</ele>
        <time>2016-05-03T10:16:07Z</time>
      </trkpt>
      <trkpt lat="45.4322" lon="5.09692">
        <ele>484.64</ele>
        <time>2016-05-03T10:16:28Z</time>
      </trkpt>
      <trkpt lat="45.43208" lon="5.09687">
        <ele>483.2</ele>
        <time>2016-05-03T10:16:56Z</time>
      </trkpt>
      <trkpt lat="45.43202" lon="5.09679">
        <ele>482.24</ele>
        <time>2016-05-03T10:17:09Z</time>
      </trkpt>
      <trkpt lat="45.43203" lon="5.09658">
        <ele>479.35</ele>
        <time>2016-05-03T10:17:28Z</time>
      </trkpt>
      <trkpt lat="45.43209" lon="5.09619">
        <ele>478.39</ele>
        <time>2016-05-03T10:17:54Z</time>
      </trkpt>
      <trkpt lat="45.43217" lon="5.09592">
        <ele>477.43</ele>
        <time>2016-05-03T10:18:13Z</time>
      </trkpt>
      <trkpt lat="45.43218" lon="5.09543">
        <ele>475.99</ele>
        <time>2016-05-03T10:18:38Z</time>
      </trkpt>
      <trkpt lat="45.43217" lon="5.09519">
        <ele>475.51</ele>
        <time>2016-05-03T10:18:52Z</time>
      </trkpt>
      <trkpt lat="45.43218" lon="5.09501">
        <ele>475.51</ele>
        <time>2016-05-03T10:19:16Z</time>
      </trkpt>
      <trkpt lat="45.43217" lon="5.09504">
        <ele>474.55</ele>
        <time>2016-05-03T10:19:31Z</time>
      </trkpt>
      <trkpt lat="45.43204" lon="5.09482">
        <ele>472.63</ele>
        <time>2016-05-03T10:19:49Z</time>
      </trkpt>
      <trkpt lat="45.43199" lon="5.09478">
        <ele>472.14</ele>
        <time>2016-05-03T10:19:52Z</time>
      </trkpt>
      <trkpt lat="45.43198" lon="5.09443">
        <ele>471.66</ele>
        <time>2016-05-03T10:20:12Z</time>
      </trkpt>
      <trkpt lat="45.43201" lon="5.09427">
        <ele>472.63</ele>
        <time>2016-05-03T10:20:42Z</time>
      </trkpt>
      <trkpt lat="45.43211" lon="5.09401">
        <ele>473.11</ele>
        <time>2016-05-03T10:21:09Z</time>
      </trkpt>
      <trkpt lat="45.43215" lon="5.09395">
        <ele>474.55</ele>
        <time>2016-05-03T10:21:15Z</time>
      </trkpt>
      <trkpt lat="45.43226" lon="5.09373">
        <ele>475.99</ele>
        <time>2016-05-03T10:21:37Z</time>
      </trkpt>
      <trkpt lat="45.43224" lon="5.09368">
        <ele>476.47</ele>
        <time>2016-05-03T10:21:42Z</time>
      </trkpt>
      <trkpt lat="45.43222" lon="5.09361">
        <ele>475.51</ele>
        <time>2016-05-03T10:21:47Z</time>
      </trkpt>
      <trkpt lat="45.43227" lon="5.09354">
        <ele>475.51</ele>
        <time>2016-05-03T10:22:13Z</time>
      </trkpt>
      <trkpt lat="45.43225" lon="5.09351">
        <ele>475.03</ele>
        <time>2016-05-03T10:23:00Z</time>
      </trkpt>
      <trkpt lat="45.43225" lon="5.0935">
        <ele>474.55</ele>
        <time>2016-05-03T10:23:18Z</time>
      </trkpt>
      <trkpt lat="45.43225" lon="5.09352">
        <ele>474.55</ele>
        <time>2016-05-03T10:23:44Z</time>
      </trkpt>
      <trkpt lat="45.43221" lon="5.09358">
        <ele>475.03</ele>
        <time>2016-05-03T10:24:24Z</time>
      </trkpt>
      <trkpt lat="45.43223" lon="5.09364">
        <ele>475.51</ele>
        <time>2016-05-03T10:25:45Z</time>
      </trkpt>
      <trkpt lat="45.43233" lon="5.09377">
        <ele>476.47</ele>
        <time>2016-05-03T10:26:14Z</time>
      </trkpt>
      <trkpt lat="45.43232" lon="5.09363">
        <ele>476.47</ele>
        <time>2016-05-03T10:27:41Z</time>
      </trkpt>
      <trkpt lat="45.4323" lon="5.0936">
        <ele>475.03</ele>
        <time>2016-05-03T10:27:49Z</time>
      </trkpt>
      <trkpt lat="45.43224" lon="5.0936">
        <ele>474.07</ele>
        <time>2016-05-03T10:28:06Z</time>
      </trkpt>
      <trkpt lat="45.43229" lon="5.09351">
        <ele>474.07</ele>
        <time>2016-05-03T10:28:30Z</time>
      </trkpt>
      <trkpt lat="45.43228" lon="5.09349">
        <ele>473.11</ele>
        <time>2016-05-03T10:29:22Z</time>
      </trkpt>
      <trkpt lat="45.43224" lon="5.09352">
        <ele>473.59</ele>
        <time>2016-05-03T10:29:47Z</time>
      </trkpt>
      <trkpt lat="45.43217" lon="5.0936">
        <ele>473.59</ele>
        <time>2016-05-03T10:30:19Z</time>
      </trkpt>
      <trkpt lat="45.43218" lon="5.09358">
        <ele>472.14</ele>
        <time>2016-05-03T10:53:14Z</time>
      </trkpt>
      <trkpt lat="45.4322" lon="5.0936">
        <ele>472.63</ele>
        <time>2016-05-03T10:56:10Z</time>
      </trkpt>
      <trkpt lat="45.43217" lon="5.09363">
        <ele>472.14</ele>
        <time>2016-05-03T10:56:48Z</time>
      </trkpt>
      <trkpt lat="45.43217" lon="5.09363">
        <ele>472.14</ele>
        <time>2016-05-03T11:06:05Z</time>
      </trkpt>
      <trkpt lat="45.43225" lon="5.09352">
        <ele>471.18</ele>
        <time>2016-05-03T11:13:08Z</time>
      </trkpt>
      <trkpt lat="45.43224" lon="5.0935">
        <ele>471.18</ele>
        <time>2016-05-03T11:15:35Z</time>
      </trkpt>
      <trkpt lat="45.43224" lon="5.09351">
        <ele>470.7</ele>
        <time>2016-05-03T11:19:32Z</time>
      </trkpt>
      <trkpt lat="45.43224" lon="5.09352">
        <ele>470.22</ele>
        <time>2016-05-03T11:21:58Z</time>
      </trkpt>
      <trkpt lat="45.43225" lon="5.0935">
        <ele>469.74</ele>
        <time>2016-05-03T11:24:13Z</time>
      </trkpt>
      <trkpt lat="45.43224" lon="5.09346">
        <ele>470.22</ele>
        <time>2016-05-03T11:26:55Z</time>
      </trkpt>
      <trkpt lat="45.43231" lon="5.09353">
        <ele>470.7</ele>
        <time>2016-05-03T11:27:52Z</time>
      </trkpt>
      <trkpt lat="45.4323" lon="5.09352">
        <ele>470.22</ele>
        <time>2016-05-03T11:28:13Z</time>
      </trkpt>
      <trkpt lat="45.43232" lon="5.09352">
        <ele>470.22</ele>
        <time>2016-05-03T11:28:33Z</time>
      </trkpt>
      <trkpt lat="45.4323" lon="5.0935">
        <ele>471.18</ele>
        <time>2016-05-03T11:30:51Z</time>
      </trkpt>
      <trkpt lat="45.43228" lon="5.09354">
        <ele>471.18</ele>
        <time>2016-05-03T11:32:22Z</time>
      </trkpt>
      <trkpt lat="45.43226" lon="5.09353">
        <ele>470.7</ele>
        <time>2016-05-03T11:34:27Z</time>
      </trkpt>
      <trkpt lat="45.43227" lon="5.09351">
        <ele>470.7</ele>
        <time>2016-05-03T11:35:52Z</time>
      </trkpt>
      <trkpt lat="45.43227" lon="5.09354">
        <ele>470.7</ele>
        <time>2016-05-03T11:36:04Z</time>
      </trkpt>
      <trkpt lat="45.4323" lon="5.09355">
        <ele>470.7</ele>
        <time>2016-05-03T11:36:07Z</time>
      </trkpt>
      <trkpt lat="45.43232" lon="5.09351">
        <ele>470.7</ele>
        <time>2016-05-03T11:36:11Z</time>
      </trkpt>
      <trkpt lat="45.43234" lon="5.09352">
        <ele>471.66</ele>
        <time>2016-05-03T11:36:13Z</time>
      </trkpt>
      <trkpt lat="45.43252" lon="5.0934">
        <ele>471.18</ele>
        <time>2016-05-03T11:36:31Z</time>
      </trkpt>
      <trkpt lat="45.43259" lon="5.09333">
        <ele>470.7</ele>
        <time>2016-05-03T11:36:39Z</time>
      </trkpt>
      <trkpt lat="45.43283" lon="5.09318">
        <ele>470.22</ele>
        <time>2016-05-03T11:37:01Z</time>
      </trkpt>
      <trkpt lat="45.43298" lon="5.09304">
        <ele>470.7</ele>
        <time>2016-05-03T11:37:20Z</time>
      </trkpt>
      <trkpt lat="45.43314" lon="5.09293">
        <ele>470.7</ele>
        <time>2016-05-03T11:37:35Z</time>
      </trkpt>
      <trkpt lat="45.43331" lon="5.09282">
        <ele>470.7</ele>
        <time>2016-05-03T11:37:52Z</time>
      </trkpt>
      <trkpt lat="45.43341" lon="5.09273">
        <ele>471.18</ele>
        <time>2016-05-03T11:38:02Z</time>
      </trkpt>
      <trkpt lat="45.43347" lon="5.09269">
        <ele>471.18</ele>
        <time>2016-05-03T11:38:09Z</time>
      </trkpt>
      <trkpt lat="45.43348" lon="5.09268">
        <ele>471.66</ele>
        <time>2016-05-03T11:38:11Z</time>
      </trkpt>
      <trkpt lat="45.43362" lon="5.09256">
        <ele>472.63</ele>
        <time>2016-05-03T11:38:26Z</time>
      </trkpt>
      <trkpt lat="45.43369" lon="5.09253">
        <ele>472.63</ele>
        <time>2016-05-03T11:38:33Z</time>
      </trkpt>
      <trkpt lat="45.43371" lon="5.09251">
        <ele>473.11</ele>
        <time>2016-05-03T11:38:36Z</time>
      </trkpt>
      <trkpt lat="45.43387" lon="5.09252">
        <ele>473.59</ele>
        <time>2016-05-03T11:38:54Z</time>
      </trkpt>
      <trkpt lat="45.43393" lon="5.09253">
        <ele>474.07</ele>
        <time>2016-05-03T11:38:59Z</time>
      </trkpt>
      <trkpt lat="45.434" lon="5.09255">
        <ele>474.55</ele>
        <time>2016-05-03T11:39:05Z</time>
      </trkpt>
      <trkpt lat="45.43415" lon="5.09262">
        <ele>475.99</ele>
        <time>2016-05-03T11:39:23Z</time>
      </trkpt>
      <trkpt lat="45.43426" lon="5.0926">
        <ele>476.95</ele>
        <time>2016-05-03T11:39:37Z</time>
      </trkpt>
      <trkpt lat="45.43436" lon="5.09252">
        <ele>476.47</ele>
        <time>2016-05-03T11:39:45Z</time>
      </trkpt>
      <trkpt lat="45.43442" lon="5.09241">
        <ele>477.91</ele>
        <time>2016-05-03T11:39:54Z</time>
      </trkpt>
      <trkpt lat="45.43452" lon="5.09224">
        <ele>477.91</ele>
        <time>2016-05-03T11:40:10Z</time>
      </trkpt>
      <trkpt lat="45.43455" lon="5.09221">
        <ele>478.39</ele>
        <time>2016-05-03T11:40:13Z</time>
      </trkpt>
      <trkpt lat="45.43463" lon="5.09207">
        <ele>478.87</ele>
        <time>2016-05-03T11:40:26Z</time>
      </trkpt>
      <trkpt lat="45.43465" lon="5.09195">
        <ele>478.87</ele>
        <time>2016-05-03T11:40:34Z</time>
      </trkpt>
      <trkpt lat="45.43471" lon="5.09181">
        <ele>478.87</ele>
        <time>2016-05-03T11:40:44Z</time>
      </trkpt>
      <trkpt lat="45.43472" lon="5.09178">
        <ele>478.87</ele>
        <time>2016-05-03T11:40:46Z</time>
      </trkpt>
      <trkpt lat="45.43478" lon="5.09162">
        <ele>478.87</ele>
        <time>2016-05-03T11:41:01Z</time>
      </trkpt>
      <trkpt lat="45.43479" lon="5.09156">
        <ele>478.39</ele>
        <time>2016-05-03T11:41:05Z</time>
      </trkpt>
      <trkpt lat="45.43489" lon="5.09138">
        <ele>478.87</ele>
        <time>2016-05-03T11:41:21Z</time>
      </trkpt>
      <trkpt lat="45.43493" lon="5.09127">
        <ele>478.87</ele>
        <time>2016-05-03T11:41:27Z</time>
      </trkpt>
      <trkpt lat="45.43496" lon="5.09115">
        <ele>478.87</ele>
        <time>2016-05-03T11:41:37Z</time>
      </trkpt>
      <trkpt lat="45.43509" lon="5.09091">
        <ele>478.39</ele>
        <time>2016-05-03T11:41:55Z</time>
      </trkpt>
      <trkpt lat="45.43524" lon="5.09077">
        <ele>478.39</ele>
        <time>2016-05-03T11:42:11Z</time>
      </trkpt>
      <trkpt lat="45.43536" lon="5.09059">
        <ele>477.91</ele>
        <time>2016-05-03T11:42:26Z</time>
      </trkpt>
      <trkpt lat="45.43544" lon="5.0905">
        <ele>478.39</ele>
        <time>2016-05-03T11:42:36Z</time>
      </trkpt>
      <trkpt lat="45.43546" lon="5.09046">
        <ele>478.39</ele>
        <time>2016-05-03T11:42:41Z</time>
      </trkpt>
      <trkpt lat="45.43559" lon="5.0902">
        <ele>477.91</ele>
        <time>2016-05-03T11:43:00Z</time>
      </trkpt>
      <trkpt lat="45.4357" lon="5.09001">
        <ele>477.43</ele>
        <time>2016-05-03T11:43:15Z</time>
      </trkpt>
      <trkpt lat="45.43585" lon="5.08973">
        <ele>476.95</ele>
        <time>2016-05-03T11:43:39Z</time>
      </trkpt>
      <trkpt lat="45.43587" lon="5.08964">
        <ele>476.95</ele>
        <time>2016-05-03T11:43:46Z</time>
      </trkpt>
      <trkpt lat="45.4359" lon="5.08925">
        <ele>477.43</ele>
        <time>2016-05-03T11:44:10Z</time>
      </trkpt>
      <trkpt lat="45.4359" lon="5.08916">
        <ele>476.95</ele>
        <time>2016-05-03T11:44:16Z</time>
      </trkpt>
      <trkpt lat="45.43594" lon="5.08902">
        <ele>476.47</ele>
        <time>2016-05-03T11:44:26Z</time>
      </trkpt>
      <trkpt lat="45.43607" lon="5.08877">
        <ele>475.99</ele>
        <time>2016-05-03T11:44:43Z</time>
      </trkpt>
      <trkpt lat="45.43614" lon="5.0886">
        <ele>475.51</ele>
        <time>2016-05-03T11:44:58Z</time>
      </trkpt>
      <trkpt lat="45.43623" lon="5.08838">
        <ele>475.03</ele>
        <time>2016-05-03T11:45:15Z</time>
      </trkpt>
      <trkpt lat="45.43628" lon="5.08836">
        <ele>475.03</ele>
        <time>2016-05-03T11:45:19Z</time>
      </trkpt>
      <trkpt lat="45.43631" lon="5.08831">
        <ele>474.55</ele>
        <time>2016-05-03T11:45:22Z</time>
      </trkpt>
      <trkpt lat="45.43644" lon="5.08816">
        <ele>473.59</ele>
        <time>2016-05-03T11:45:36Z</time>
      </trkpt>
      <trkpt lat="45.43657" lon="5.08802">
        <ele>473.59</ele>
        <time>2016-05-03T11:45:52Z</time>
      </trkpt>
      <trkpt lat="45.43674" lon="5.08793">
        <ele>472.63</ele>
        <time>2016-05-03T11:46:11Z</time>
      </trkpt>
      <trkpt lat="45.43679" lon="5.08789">
        <ele>472.63</ele>
        <time>2016-05-03T11:46:15Z</time>
      </trkpt>
      <trkpt lat="45.43691" lon="5.08779">
        <ele>472.14</ele>
        <time>2016-05-03T11:46:30Z</time>
      </trkpt>
      <trkpt lat="45.43703" lon="5.08769">
        <ele>471.66</ele>
        <time>2016-05-03T11:46:42Z</time>
      </trkpt>
      <trkpt lat="45.43708" lon="5.08766">
        <ele>471.18</ele>
        <time>2016-05-03T11:46:49Z</time>
      </trkpt>
      <trkpt lat="45.43717" lon="5.08758">
        <ele>471.18</ele>
        <time>2016-05-03T11:46:57Z</time>
      </trkpt>
      <trkpt lat="45.4372" lon="5.08754">
        <ele>470.7</ele>
        <time>2016-05-03T11:47:00Z</time>
      </trkpt>
      <trkpt lat="45.43736" lon="5.08739">
        <ele>470.22</ele>
        <time>2016-05-03T11:47:21Z</time>
      </trkpt>
      <trkpt lat="45.43757" lon="5.08724">
        <ele>469.26</ele>
        <time>2016-05-03T11:47:39Z</time>
      </trkpt>
      <trkpt lat="45.43774" lon="5.08705">
        <ele>468.3</ele>
        <time>2016-05-03T11:47:56Z</time>
      </trkpt>
      <trkpt lat="45.43776" lon="5.087">
        <ele>467.82</ele>
        <time>2016-05-03T11:48:01Z</time>
      </trkpt>
      <trkpt lat="45.43782" lon="5.08696">
        <ele>467.82</ele>
        <time>2016-05-03T11:48:08Z</time>
      </trkpt>
      <trkpt lat="45.43791" lon="5.08682">
        <ele>466.86</ele>
        <time>2016-05-03T11:48:20Z</time>
      </trkpt>
      <trkpt lat="45.43794" lon="5.08679">
        <ele>466.38</ele>
        <time>2016-05-03T11:48:24Z</time>
      </trkpt>
      <trkpt lat="45.43811" lon="5.08661">
        <ele>464.45</ele>
        <time>2016-05-03T11:48:42Z</time>
      </trkpt>
      <trkpt lat="45.43827" lon="5.08643">
        <ele>463.97</ele>
        <time>2016-05-03T11:48:59Z</time>
      </trkpt>
      <trkpt lat="45.43836" lon="5.08639">
        <ele>463.01</ele>
        <time>2016-05-03T11:49:10Z</time>
      </trkpt>
      <trkpt lat="45.43849" lon="5.08634">
        <ele>462.05</ele>
        <time>2016-05-03T11:49:22Z</time>
      </trkpt>
      <trkpt lat="45.43869" lon="5.08614">
        <ele>459.65</ele>
        <time>2016-05-03T11:49:43Z</time>
      </trkpt>
      <trkpt lat="45.4387" lon="5.08612">
        <ele>459.65</ele>
        <time>2016-05-03T11:49:45Z</time>
      </trkpt>
      <trkpt lat="45.43879" lon="5.08606">
        <ele>458.69</ele>
        <time>2016-05-03T11:49:55Z</time>
      </trkpt>
      <trkpt lat="45.43896" lon="5.08591">
        <ele>457.24</ele>
        <time>2016-05-03T11:50:12Z</time>
      </trkpt>
      <trkpt lat="45.43902" lon="5.08586">
        <ele>456.76</ele>
        <time>2016-05-03T11:50:18Z</time>
      </trkpt>
      <trkpt lat="45.43906" lon="5.08581">
        <ele>456.76</ele>
        <time>2016-05-03T11:50:22Z</time>
      </trkpt>
      <trkpt lat="45.43918" lon="5.08571">
        <ele>455.8</ele>
        <time>2016-05-03T11:50:36Z</time>
      </trkpt>
      <trkpt lat="45.43937" lon="5.08559">
        <ele>453.88</ele>
        <time>2016-05-03T11:50:55Z</time>
      </trkpt>
      <trkpt lat="45.43961" lon="5.0855">
        <ele>453.88</ele>
        <time>2016-05-03T11:51:17Z</time>
      </trkpt>
      <trkpt lat="45.4398" lon="5.08536">
        <ele>452.44</ele>
        <time>2016-05-03T11:51:34Z</time>
      </trkpt>
      <trkpt lat="45.4399" lon="5.08527">
        <ele>451</ele>
        <time>2016-05-03T11:51:47Z</time>
      </trkpt>
      <trkpt lat="45.43992" lon="5.08527">
        <ele>450.52</ele>
        <time>2016-05-03T11:51:50Z</time>
      </trkpt>
      <trkpt lat="45.43997" lon="5.08521">
        <ele>451</ele>
        <time>2016-05-03T11:51:53Z</time>
      </trkpt>
      <trkpt lat="45.44" lon="5.08518">
        <ele>449.55</ele>
        <time>2016-05-03T11:51:57Z</time>
      </trkpt>
      <trkpt lat="45.44015" lon="5.08499">
        <ele>448.59</ele>
        <time>2016-05-03T11:52:12Z</time>
      </trkpt>
      <trkpt lat="45.44017" lon="5.08496">
        <ele>447.63</ele>
        <time>2016-05-03T11:52:14Z</time>
      </trkpt>
      <trkpt lat="45.44024" lon="5.08489">
        <ele>446.67</ele>
        <time>2016-05-03T11:52:22Z</time>
      </trkpt>
      <trkpt lat="45.44027" lon="5.08487">
        <ele>446.19</ele>
        <time>2016-05-03T11:52:25Z</time>
      </trkpt>
      <trkpt lat="45.44043" lon="5.08471">
        <ele>444.27</ele>
        <time>2016-05-03T11:52:41Z</time>
      </trkpt>
      <trkpt lat="45.44045" lon="5.08469">
        <ele>443.79</ele>
        <time>2016-05-03T11:52:45Z</time>
      </trkpt>
      <trkpt lat="45.44048" lon="5.08467">
        <ele>443.79</ele>
        <time>2016-05-03T11:52:48Z</time>
      </trkpt>
      <trkpt lat="45.44057" lon="5.08457">
        <ele>442.34</ele>
        <time>2016-05-03T11:52:56Z</time>
      </trkpt>
      <trkpt lat="45.44059" lon="5.08448">
        <ele>440.9</ele>
        <time>2016-05-03T11:53:04Z</time>
      </trkpt>
      <trkpt lat="45.44058" lon="5.08426">
        <ele>438.02</ele>
        <time>2016-05-03T11:53:17Z</time>
      </trkpt>
      <trkpt lat="45.44057" lon="5.08407">
        <ele>435.61</ele>
        <time>2016-05-03T11:53:32Z</time>
      </trkpt>
      <trkpt lat="45.44055" lon="5.08385">
        <ele>432.25</ele>
        <time>2016-05-03T11:53:47Z</time>
      </trkpt>
      <trkpt lat="45.44051" lon="5.08372">
        <ele>430.81</ele>
        <time>2016-05-03T11:53:55Z</time>
      </trkpt>
      <trkpt lat="45.4405" lon="5.08361">
        <ele>429.37</ele>
        <time>2016-05-03T11:54:01Z</time>
      </trkpt>
      <trkpt lat="45.44049" lon="5.0835">
        <ele>428.4</ele>
        <time>2016-05-03T11:54:09Z</time>
      </trkpt>
      <trkpt lat="45.44046" lon="5.08328">
        <ele>426.48</ele>
        <time>2016-05-03T11:54:22Z</time>
      </trkpt>
      <trkpt lat="45.44045" lon="5.08324">
        <ele>426</ele>
        <time>2016-05-03T11:54:26Z</time>
      </trkpt>
      <trkpt lat="45.44042" lon="5.08291">
        <ele>424.08</ele>
        <time>2016-05-03T11:54:44Z</time>
      </trkpt>
      <trkpt lat="45.44042" lon="5.08286">
        <ele>424.56</ele>
        <time>2016-05-03T11:54:46Z</time>
      </trkpt>
      <trkpt lat="45.44041" lon="5.08269">
        <ele>423.6</ele>
        <time>2016-05-03T11:54:56Z</time>
      </trkpt>
      <trkpt lat="45.4404" lon="5.08257">
        <ele>423.12</ele>
        <time>2016-05-03T11:55:04Z</time>
      </trkpt>
      <trkpt lat="45.44045" lon="5.0823">
        <ele>425.04</ele>
        <time>2016-05-03T11:55:22Z</time>
      </trkpt>
      <trkpt lat="45.44051" lon="5.08211">
        <ele>426</ele>
        <time>2016-05-03T11:55:37Z</time>
      </trkpt>
      <trkpt lat="45.44064" lon="5.0819">
        <ele>427.92</ele>
        <time>2016-05-03T11:55:58Z</time>
      </trkpt>
      <trkpt lat="45.44068" lon="5.08187">
        <ele>427.92</ele>
        <time>2016-05-03T11:56:22Z</time>
      </trkpt>
      <trkpt lat="45.44071" lon="5.08171">
        <ele>429.37</ele>
        <time>2016-05-03T11:56:47Z</time>
      </trkpt>
      <trkpt lat="45.44073" lon="5.08162">
        <ele>429.85</ele>
        <time>2016-05-03T11:57:00Z</time>
      </trkpt>
      <trkpt lat="45.44078" lon="5.08145">
        <ele>431.77</ele>
        <time>2016-05-03T11:57:20Z</time>
      </trkpt>
      <trkpt lat="45.44078" lon="5.08145">
        <ele>431.77</ele>
        <time>2016-05-03T11:57:28Z</time>
      </trkpt>
      <trkpt lat="45.4408" lon="5.08136">
        <ele>432.73</ele>
        <time>2016-05-03T11:57:34Z</time>
      </trkpt>
      <trkpt lat="45.4408" lon="5.0813">
        <ele>433.21</ele>
        <time>2016-05-03T11:57:38Z</time>
      </trkpt>
      <trkpt lat="45.44083" lon="5.08111">
        <ele>436.1</ele>
        <time>2016-05-03T11:57:56Z</time>
      </trkpt>
      <trkpt lat="45.44083" lon="5.08105">
        <ele>437.06</ele>
        <time>2016-05-03T11:58:08Z</time>
      </trkpt>
      <trkpt lat="45.44086" lon="5.08079">
        <ele>437.54</ele>
        <time>2016-05-03T11:58:31Z</time>
      </trkpt>
      <trkpt lat="45.44085" lon="5.08074">
        <ele>437.06</ele>
        <time>2016-05-03T11:58:36Z</time>
      </trkpt>
      <trkpt lat="45.44085" lon="5.08071">
        <ele>438.02</ele>
        <time>2016-05-03T11:58:39Z</time>
      </trkpt>
      <trkpt lat="45.44087" lon="5.08072">
        <ele>437.06</ele>
        <time>2016-05-03T11:58:53Z</time>
      </trkpt>
      <trkpt lat="45.44087" lon="5.08068">
        <ele>437.54</ele>
        <time>2016-05-03T11:59:18Z</time>
      </trkpt>
      <trkpt lat="45.44088" lon="5.08063">
        <ele>437.06</ele>
        <time>2016-05-03T11:59:29Z</time>
      </trkpt>
      <trkpt lat="45.44088" lon="5.08056">
        <ele>437.54</ele>
        <time>2016-05-03T11:59:36Z</time>
      </trkpt>
      <trkpt lat="45.44089" lon="5.08045">
        <ele>438.02</ele>
        <time>2016-05-03T11:59:44Z</time>
      </trkpt>
      <trkpt lat="45.4409" lon="5.08041">
        <ele>438.5</ele>
        <time>2016-05-03T11:59:46Z</time>
      </trkpt>
      <trkpt lat="45.44092" lon="5.08009">
        <ele>437.54</ele>
        <time>2016-05-03T12:00:09Z</time>
      </trkpt>
      <trkpt lat="45.44093" lon="5.07995">
        <ele>437.54</ele>
        <time>2016-05-03T12:00:17Z</time>
      </trkpt>
      <trkpt lat="45.44093" lon="5.07984">
        <ele>437.06</ele>
        <time>2016-05-03T12:00:26Z</time>
      </trkpt>
      <trkpt lat="45.44093" lon="5.07977">
        <ele>436.58</ele>
        <time>2016-05-03T12:00:30Z</time>
      </trkpt>
      <trkpt lat="45.44094" lon="5.07971">
        <ele>436.58</ele>
        <time>2016-05-03T12:00:34Z</time>
      </trkpt>
      <trkpt lat="45.44091" lon="5.07964">
        <ele>434.65</ele>
        <time>2016-05-03T12:00:37Z</time>
      </trkpt>
      <trkpt lat="45.44089" lon="5.07953">
        <ele>435.61</ele>
        <time>2016-05-03T12:00:45Z</time>
      </trkpt>
      <trkpt lat="45.44088" lon="5.07947">
        <ele>436.1</ele>
        <time>2016-05-03T12:00:48Z</time>
      </trkpt>
      <trkpt lat="45.44083" lon="5.07931">
        <ele>435.61</ele>
        <time>2016-05-03T12:01:01Z</time>
      </trkpt>
      <trkpt lat="45.44079" lon="5.07923">
        <ele>436.1</ele>
        <time>2016-05-03T12:01:05Z</time>
      </trkpt>
      <trkpt lat="45.44073" lon="5.07913">
        <ele>435.13</ele>
        <time>2016-05-03T12:01:15Z</time>
      </trkpt>
      <trkpt lat="45.4407" lon="5.07907">
        <ele>434.65</ele>
        <time>2016-05-03T12:01:20Z</time>
      </trkpt>
      <trkpt lat="45.44063" lon="5.07887">
        <ele>435.13</ele>
        <time>2016-05-03T12:01:33Z</time>
      </trkpt>
      <trkpt lat="45.44063" lon="5.07881">
        <ele>435.13</ele>
        <time>2016-05-03T12:01:37Z</time>
      </trkpt>
      <trkpt lat="45.44066" lon="5.07872">
        <ele>435.61</ele>
        <time>2016-05-03T12:01:56Z</time>
      </trkpt>
      <trkpt lat="45.44075" lon="5.0785">
        <ele>434.17</ele>
        <time>2016-05-03T12:02:17Z</time>
      </trkpt>
      <trkpt lat="45.44078" lon="5.07842">
        <ele>434.65</ele>
        <time>2016-05-03T12:02:23Z</time>
      </trkpt>
      <trkpt lat="45.4408" lon="5.07832">
        <ele>435.13</ele>
        <time>2016-05-03T12:02:30Z</time>
      </trkpt>
      <trkpt lat="45.44083" lon="5.07803">
        <ele>433.69</ele>
        <time>2016-05-03T12:02:45Z</time>
      </trkpt>
      <trkpt lat="45.44084" lon="5.07801">
        <ele>433.69</ele>
        <time>2016-05-03T12:02:47Z</time>
      </trkpt>
      <trkpt lat="45.44083" lon="5.07797">
        <ele>433.69</ele>
        <time>2016-05-03T12:02:51Z</time>
      </trkpt>
      <trkpt lat="45.44083" lon="5.07781">
        <ele>433.21</ele>
        <time>2016-05-03T12:03:01Z</time>
      </trkpt>
      <trkpt lat="45.44084" lon="5.07776">
        <ele>433.21</ele>
        <time>2016-05-03T12:03:04Z</time>
      </trkpt>
      <trkpt lat="45.44083" lon="5.07771">
        <ele>432.25</ele>
        <time>2016-05-03T12:03:09Z</time>
      </trkpt>
      <trkpt lat="45.44084" lon="5.07765">
        <ele>432.25</ele>
        <time>2016-05-03T12:03:12Z</time>
      </trkpt>
      <trkpt lat="45.44083" lon="5.0776">
        <ele>431.77</ele>
        <time>2016-05-03T12:03:15Z</time>
      </trkpt>
      <trkpt lat="45.44085" lon="5.07751">
        <ele>430.33</ele>
        <time>2016-05-03T12:03:21Z</time>
      </trkpt>
      <trkpt lat="45.4409" lon="5.07739">
        <ele>430.33</ele>
        <time>2016-05-03T12:03:27Z</time>
      </trkpt>
      <trkpt lat="45.44091" lon="5.07732">
        <ele>430.33</ele>
        <time>2016-05-03T12:03:32Z</time>
      </trkpt>
      <trkpt lat="45.44092" lon="5.07726">
        <ele>430.81</ele>
        <time>2016-05-03T12:03:35Z</time>
      </trkpt>
      <trkpt lat="45.44095" lon="5.07719">
        <ele>429.85</ele>
        <time>2016-05-03T12:03:39Z</time>
      </trkpt>
      <trkpt lat="45.44093" lon="5.07708">
        <ele>428.89</ele>
        <time>2016-05-03T12:03:44Z</time>
      </trkpt>
      <trkpt lat="45.44095" lon="5.07699">
        <ele>428.4</ele>
        <time>2016-05-03T12:03:48Z</time>
      </trkpt>
      <trkpt lat="45.44094" lon="5.07694">
        <ele>428.4</ele>
        <time>2016-05-03T12:03:52Z</time>
      </trkpt>
      <trkpt lat="45.44092" lon="5.07691">
        <ele>427.44</ele>
        <time>2016-05-03T12:03:55Z</time>
      </trkpt>
      <trkpt lat="45.44097" lon="5.07674">
        <ele>427.92</ele>
        <time>2016-05-03T12:04:05Z</time>
      </trkpt>
      <trkpt lat="45.44098" lon="5.07655">
        <ele>426.96</ele>
        <time>2016-05-03T12:04:12Z</time>
      </trkpt>
      <trkpt lat="45.44101" lon="5.07647">
        <ele>426.48</ele>
        <time>2016-05-03T12:04:19Z</time>
      </trkpt>
      <trkpt lat="45.441" lon="5.07644">
        <ele>426.48</ele>
        <time>2016-05-03T12:04:21Z</time>
      </trkpt>
      <trkpt lat="45.44105" lon="5.07624">
        <ele>426</ele>
        <time>2016-05-03T12:04:30Z</time>
      </trkpt>
      <trkpt lat="45.44108" lon="5.07615">
        <ele>425.52</ele>
        <time>2016-05-03T12:04:39Z</time>
      </trkpt>
      <trkpt lat="45.4411" lon="5.07605">
        <ele>426</ele>
        <time>2016-05-03T12:04:43Z</time>
      </trkpt>
      <trkpt lat="45.44115" lon="5.07586">
        <ele>424.56</ele>
        <time>2016-05-03T12:04:54Z</time>
      </trkpt>
      <trkpt lat="45.44115" lon="5.07583">
        <ele>424.56</ele>
        <time>2016-05-03T12:04:56Z</time>
      </trkpt>
      <trkpt lat="45.44116" lon="5.07572">
        <ele>425.04</ele>
        <time>2016-05-03T12:05:00Z</time>
      </trkpt>
      <trkpt lat="45.44115" lon="5.07568">
        <ele>425.04</ele>
        <time>2016-05-03T12:05:03Z</time>
      </trkpt>
      <trkpt lat="45.44116" lon="5.07566">
        <ele>425.04</ele>
        <time>2016-05-03T12:05:05Z</time>
      </trkpt>
      <trkpt lat="45.44118" lon="5.07557">
        <ele>424.56</ele>
        <time>2016-05-03T12:05:11Z</time>
      </trkpt>
      <trkpt lat="45.44118" lon="5.07552">
        <ele>424.08</ele>
        <time>2016-05-03T12:05:13Z</time>
      </trkpt>
      <trkpt lat="45.44119" lon="5.07546">
        <ele>424.08</ele>
        <time>2016-05-03T12:05:19Z</time>
      </trkpt>
      <trkpt lat="45.4412" lon="5.07532">
        <ele>424.56</ele>
        <time>2016-05-03T12:05:33Z</time>
      </trkpt>
      <trkpt lat="45.44121" lon="5.0753">
        <ele>423.12</ele>
        <time>2016-05-03T12:05:36Z</time>
      </trkpt>
      <trkpt lat="45.44122" lon="5.0752">
        <ele>424.56</ele>
        <time>2016-05-03T12:05:42Z</time>
      </trkpt>
      <trkpt lat="45.44121" lon="5.07517">
        <ele>424.08</ele>
        <time>2016-05-03T12:05:44Z</time>
      </trkpt>
      <trkpt lat="45.44122" lon="5.07504">
        <ele>424.08</ele>
        <time>2016-05-03T12:05:53Z</time>
      </trkpt>
      <trkpt lat="45.44123" lon="5.07498">
        <ele>423.6</ele>
        <time>2016-05-03T12:05:56Z</time>
      </trkpt>
      <trkpt lat="45.44124" lon="5.07492">
        <ele>423.12</ele>
        <time>2016-05-03T12:05:59Z</time>
      </trkpt>
      <trkpt lat="45.44125" lon="5.07488">
        <ele>422.16</ele>
        <time>2016-05-03T12:06:02Z</time>
      </trkpt>
      <trkpt lat="45.44126" lon="5.07487">
        <ele>422.16</ele>
        <time>2016-05-03T12:06:21Z</time>
      </trkpt>
      <trkpt lat="45.44125" lon="5.07485">
        <ele>422.64</ele>
        <time>2016-05-03T12:06:58Z</time>
      </trkpt>
      <trkpt lat="45.44125" lon="5.07486">
        <ele>422.16</ele>
        <time>2016-05-03T12:07:30Z</time>
      </trkpt>
      <trkpt lat="45.44124" lon="5.07482">
        <ele>422.64</ele>
        <time>2016-05-03T12:07:36Z</time>
      </trkpt>
      <trkpt lat="45.44124" lon="5.07478">
        <ele>422.16</ele>
        <time>2016-05-03T12:07:39Z</time>
      </trkpt>
      <trkpt lat="45.44127" lon="5.07468">
        <ele>422.16</ele>
        <time>2016-05-03T12:08:15Z</time>
      </trkpt>
      <trkpt lat="45.44128" lon="5.07463">
        <ele>422.16</ele>
        <time>2016-05-03T12:08:18Z</time>
      </trkpt>
      <trkpt lat="45.44128" lon="5.07455">
        <ele>421.68</ele>
        <time>2016-05-03T12:08:22Z</time>
      </trkpt>
      <trkpt lat="45.4413" lon="5.07445">
        <ele>420.71</ele>
        <time>2016-05-03T12:08:29Z</time>
      </trkpt>
      <trkpt lat="45.4413" lon="5.0743">
        <ele>419.27</ele>
        <time>2016-05-03T12:08:38Z</time>
      </trkpt>
      <trkpt lat="45.4413" lon="5.07423">
        <ele>419.75</ele>
        <time>2016-05-03T12:08:41Z</time>
      </trkpt>
      <trkpt lat="45.44134" lon="5.07412">
        <ele>418.79</ele>
        <time>2016-05-03T12:08:48Z</time>
      </trkpt>
      <trkpt lat="45.44134" lon="5.07409">
        <ele>418.79</ele>
        <time>2016-05-03T12:08:50Z</time>
      </trkpt>
      <trkpt lat="45.44135" lon="5.07401">
        <ele>417.83</ele>
        <time>2016-05-03T12:08:56Z</time>
      </trkpt>
      <trkpt lat="45.44133" lon="5.07393">
        <ele>416.87</ele>
        <time>2016-05-03T12:09:00Z</time>
      </trkpt>
      <trkpt lat="45.44139" lon="5.07364">
        <ele>415.91</ele>
        <time>2016-05-03T12:09:18Z</time>
      </trkpt>
      <trkpt lat="45.44138" lon="5.07354">
        <ele>414.95</ele>
        <time>2016-05-03T12:09:22Z</time>
      </trkpt>
      <trkpt lat="45.44139" lon="5.07343">
        <ele>414.95</ele>
        <time>2016-05-03T12:09:26Z</time>
      </trkpt>
      <trkpt lat="45.44137" lon="5.07324">
        <ele>414.95</ele>
        <time>2016-05-03T12:09:38Z</time>
      </trkpt>
      <trkpt lat="45.44134" lon="5.07307">
        <ele>413.98</ele>
        <time>2016-05-03T12:09:47Z</time>
      </trkpt>
      <trkpt lat="45.44134" lon="5.07299">
        <ele>413.98</ele>
        <time>2016-05-03T12:09:53Z</time>
      </trkpt>
      <trkpt lat="45.44127" lon="5.07274">
        <ele>413.02</ele>
        <time>2016-05-03T12:10:08Z</time>
      </trkpt>
      <trkpt lat="45.44127" lon="5.07266">
        <ele>413.02</ele>
        <time>2016-05-03T12:10:12Z</time>
      </trkpt>
      <trkpt lat="45.44123" lon="5.07257">
        <ele>412.54</ele>
        <time>2016-05-03T12:10:20Z</time>
      </trkpt>
      <trkpt lat="45.44113" lon="5.07237">
        <ele>411.58</ele>
        <time>2016-05-03T12:10:34Z</time>
      </trkpt>
      <trkpt lat="45.4411" lon="5.07236">
        <ele>411.1</ele>
        <time>2016-05-03T12:10:47Z</time>
      </trkpt>
      <trkpt lat="45.44116" lon="5.07238">
        <ele>410.14</ele>
        <time>2016-05-03T12:10:53Z</time>
      </trkpt>
      <trkpt lat="45.44121" lon="5.07234">
        <ele>410.62</ele>
        <time>2016-05-03T12:11:10Z</time>
      </trkpt>
      <trkpt lat="45.44124" lon="5.07223">
        <ele>410.14</ele>
        <time>2016-05-03T12:11:16Z</time>
      </trkpt>
      <trkpt lat="45.44141" lon="5.07196">
        <ele>410.62</ele>
        <time>2016-05-03T12:11:37Z</time>
      </trkpt>
      <trkpt lat="45.44146" lon="5.07188">
        <ele>411.1</ele>
        <time>2016-05-03T12:11:46Z</time>
      </trkpt>
      <trkpt lat="45.4416" lon="5.07167">
        <ele>411.1</ele>
        <time>2016-05-03T12:12:01Z</time>
      </trkpt>
      <trkpt lat="45.44164" lon="5.07151">
        <ele>410.62</ele>
        <time>2016-05-03T12:12:11Z</time>
      </trkpt>
      <trkpt lat="45.44163" lon="5.07127">
        <ele>409.66</ele>
        <time>2016-05-03T12:12:26Z</time>
      </trkpt>
      <trkpt lat="45.44158" lon="5.07098">
        <ele>407.74</ele>
        <time>2016-05-03T12:12:45Z</time>
      </trkpt>
      <trkpt lat="45.4416" lon="5.07068">
        <ele>408.22</ele>
        <time>2016-05-03T12:13:02Z</time>
      </trkpt>
      <trkpt lat="45.44155" lon="5.07055">
        <ele>407.26</ele>
        <time>2016-05-03T12:13:11Z</time>
      </trkpt>
      <trkpt lat="45.44155" lon="5.07025">
        <ele>406.77</ele>
        <time>2016-05-03T12:13:31Z</time>
      </trkpt>
      <trkpt lat="45.44153" lon="5.0701">
        <ele>406.77</ele>
        <time>2016-05-03T12:13:42Z</time>
      </trkpt>
      <trkpt lat="45.44154" lon="5.06978">
        <ele>406.29</ele>
        <time>2016-05-03T12:14:03Z</time>
      </trkpt>
      <trkpt lat="45.44154" lon="5.06937">
        <ele>406.29</ele>
        <time>2016-05-03T12:14:27Z</time>
      </trkpt>
      <trkpt lat="45.44151" lon="5.06898">
        <ele>405.81</ele>
        <time>2016-05-03T12:14:47Z</time>
      </trkpt>
      <trkpt lat="45.44153" lon="5.06877">
        <ele>405.33</ele>
        <time>2016-05-03T12:15:00Z</time>
      </trkpt>
      <trkpt lat="45.44157" lon="5.06848">
        <ele>405.33</ele>
        <time>2016-05-03T12:15:17Z</time>
      </trkpt>
      <trkpt lat="45.44155" lon="5.06829">
        <ele>404.37</ele>
        <time>2016-05-03T12:15:28Z</time>
      </trkpt>
      <trkpt lat="45.44155" lon="5.06826">
        <ele>404.37</ele>
        <time>2016-05-03T12:15:30Z</time>
      </trkpt>
      <trkpt lat="45.44152" lon="5.0681">
        <ele>404.37</ele>
        <time>2016-05-03T12:15:40Z</time>
      </trkpt>
      <trkpt lat="45.44152" lon="5.06802">
        <ele>404.37</ele>
        <time>2016-05-03T12:15:44Z</time>
      </trkpt>
      <trkpt lat="45.44143" lon="5.06779">
        <ele>401.97</ele>
        <time>2016-05-03T12:15:58Z</time>
      </trkpt>
      <trkpt lat="45.44151" lon="5.06756">
        <ele>401.97</ele>
        <time>2016-05-03T12:16:14Z</time>
      </trkpt>
      <trkpt lat="45.44152" lon="5.06749">
        <ele>402.45</ele>
        <time>2016-05-03T12:16:20Z</time>
      </trkpt>
      <trkpt lat="45.44152" lon="5.06744">
        <ele>402.45</ele>
        <time>2016-05-03T12:16:22Z</time>
      </trkpt>
      <trkpt lat="45.44141" lon="5.06718">
        <ele>401.97</ele>
        <time>2016-05-03T12:16:41Z</time>
      </trkpt>
      <trkpt lat="45.4414" lon="5.06686">
        <ele>399.57</ele>
        <time>2016-05-03T12:17:01Z</time>
      </trkpt>
      <trkpt lat="45.4414" lon="5.06681">
        <ele>400.05</ele>
        <time>2016-05-03T12:17:03Z</time>
      </trkpt>
      <trkpt lat="45.44141" lon="5.06663">
        <ele>398.6</ele>
        <time>2016-05-03T12:17:12Z</time>
      </trkpt>
      <trkpt lat="45.44129" lon="5.06631">
        <ele>398.6</ele>
        <time>2016-05-03T12:17:33Z</time>
      </trkpt>
      <trkpt lat="45.44122" lon="5.06615">
        <ele>398.12</ele>
        <time>2016-05-03T12:17:43Z</time>
      </trkpt>
      <trkpt lat="45.44118" lon="5.06606">
        <ele>398.12</ele>
        <time>2016-05-03T12:17:50Z</time>
      </trkpt>
      <trkpt lat="45.44119" lon="5.06594">
        <ele>398.12</ele>
        <time>2016-05-03T12:17:58Z</time>
      </trkpt>
      <trkpt lat="45.44116" lon="5.06583">
        <ele>397.64</ele>
        <time>2016-05-03T12:18:05Z</time>
      </trkpt>
      <trkpt lat="45.44112" lon="5.06555">
        <ele>397.16</ele>
        <time>2016-05-03T12:18:28Z</time>
      </trkpt>
      <trkpt lat="45.44111" lon="5.06547">
        <ele>397.16</ele>
        <time>2016-05-03T12:18:33Z</time>
      </trkpt>
      <trkpt lat="45.44111" lon="5.06541">
        <ele>396.68</ele>
        <time>2016-05-03T12:18:37Z</time>
      </trkpt>
      <trkpt lat="45.44108" lon="5.06514">
        <ele>396.2</ele>
        <time>2016-05-03T12:18:55Z</time>
      </trkpt>
      <trkpt lat="45.44103" lon="5.06486">
        <ele>396.68</ele>
        <time>2016-05-03T12:19:11Z</time>
      </trkpt>
      <trkpt lat="45.441" lon="5.06473">
        <ele>396.68</ele>
        <time>2016-05-03T12:19:17Z</time>
      </trkpt>
      <trkpt lat="45.44098" lon="5.06444">
        <ele>397.16</ele>
        <time>2016-05-03T12:19:39Z</time>
      </trkpt>
      <trkpt lat="45.44084" lon="5.06411">
        <ele>398.12</ele>
        <time>2016-05-03T12:20:02Z</time>
      </trkpt>
      <trkpt lat="45.44079" lon="5.06385">
        <ele>398.12</ele>
        <time>2016-05-03T12:20:18Z</time>
      </trkpt>
      <trkpt lat="45.44079" lon="5.0637">
        <ele>397.64</ele>
        <time>2016-05-03T12:20:28Z</time>
      </trkpt>
      <trkpt lat="45.44076" lon="5.06349">
        <ele>397.64</ele>
        <time>2016-05-03T12:20:39Z</time>
      </trkpt>
      <trkpt lat="45.44076" lon="5.06326">
        <ele>397.64</ele>
        <time>2016-05-03T12:20:51Z</time>
      </trkpt>
      <trkpt lat="45.44075" lon="5.06319">
        <ele>397.64</ele>
        <time>2016-05-03T12:20:57Z</time>
      </trkpt>
      <trkpt lat="45.44073" lon="5.06312">
        <ele>397.64</ele>
        <time>2016-05-03T12:21:01Z</time>
      </trkpt>
      <trkpt lat="45.44072" lon="5.06302">
        <ele>397.16</ele>
        <time>2016-05-03T12:21:08Z</time>
      </trkpt>
      <trkpt lat="45.44075" lon="5.06286">
        <ele>396.2</ele>
        <time>2016-05-03T12:21:18Z</time>
      </trkpt>
      <trkpt lat="45.44073" lon="5.06283">
        <ele>396.2</ele>
        <time>2016-05-03T12:21:20Z</time>
      </trkpt>
      <trkpt lat="45.44071" lon="5.06253">
        <ele>394.76</ele>
        <time>2016-05-03T12:21:35Z</time>
      </trkpt>
      <trkpt lat="45.44068" lon="5.06243">
        <ele>394.76</ele>
        <time>2016-05-03T12:21:39Z</time>
      </trkpt>
      <trkpt lat="45.44062" lon="5.06229">
        <ele>394.28</ele>
        <time>2016-05-03T12:21:48Z</time>
      </trkpt>
      <trkpt lat="45.44065" lon="5.06215">
        <ele>394.76</ele>
        <time>2016-05-03T12:21:56Z</time>
      </trkpt>
      <trkpt lat="45.44066" lon="5.06213">
        <ele>394.76</ele>
        <time>2016-05-03T12:21:58Z</time>
      </trkpt>
      <trkpt lat="45.44064" lon="5.06198">
        <ele>394.28</ele>
        <time>2016-05-03T12:22:07Z</time>
      </trkpt>
      <trkpt lat="45.44064" lon="5.06193">
        <ele>393.8</ele>
        <time>2016-05-03T12:22:10Z</time>
      </trkpt>
      <trkpt lat="45.44059" lon="5.06173">
        <ele>393.32</ele>
        <time>2016-05-03T12:22:23Z</time>
      </trkpt>
      <trkpt lat="45.4406" lon="5.06165">
        <ele>393.32</ele>
        <time>2016-05-03T12:22:27Z</time>
      </trkpt>
      <trkpt lat="45.44058" lon="5.06152">
        <ele>392.84</ele>
        <time>2016-05-03T12:22:37Z</time>
      </trkpt>
      <trkpt lat="45.44059" lon="5.06124">
        <ele>392.36</ele>
        <time>2016-05-03T12:22:55Z</time>
      </trkpt>
      <trkpt lat="45.4406" lon="5.06109">
        <ele>392.36</ele>
        <time>2016-05-03T12:23:03Z</time>
      </trkpt>
      <trkpt lat="45.4406" lon="5.06102">
        <ele>392.36</ele>
        <time>2016-05-03T12:23:07Z</time>
      </trkpt>
      <trkpt lat="45.4406" lon="5.06095">
        <ele>391.87</ele>
        <time>2016-05-03T12:23:11Z</time>
      </trkpt>
      <trkpt lat="45.4406" lon="5.0609">
        <ele>391.87</ele>
        <time>2016-05-03T12:23:14Z</time>
      </trkpt>
      <trkpt lat="45.44062" lon="5.06066">
        <ele>391.87</ele>
        <time>2016-05-03T12:23:28Z</time>
      </trkpt>
      <trkpt lat="45.44062" lon="5.06051">
        <ele>391.39</ele>
        <time>2016-05-03T12:23:37Z</time>
      </trkpt>
      <trkpt lat="45.44058" lon="5.06029">
        <ele>390.43</ele>
        <time>2016-05-03T12:23:55Z</time>
      </trkpt>
      <trkpt lat="45.44057" lon="5.06027">
        <ele>390.43</ele>
        <time>2016-05-03T12:23:56Z</time>
      </trkpt>
      <trkpt lat="45.44056" lon="5.06016">
        <ele>390.43</ele>
        <time>2016-05-03T12:24:03Z</time>
      </trkpt>
      <trkpt lat="45.44062" lon="5.06007">
        <ele>389.95</ele>
        <time>2016-05-03T12:24:09Z</time>
      </trkpt>
      <trkpt lat="45.44061" lon="5.06007">
        <ele>389.47</ele>
        <time>2016-05-03T12:24:12Z</time>
      </trkpt>
      <trkpt lat="45.44066" lon="5.06005">
        <ele>388.51</ele>
        <time>2016-05-03T12:24:25Z</time>
      </trkpt>
      <trkpt lat="45.44086" lon="5.05999">
        <ele>386.11</ele>
        <time>2016-05-03T12:24:42Z</time>
      </trkpt>
      <trkpt lat="45.44105" lon="5.05993">
        <ele>385.15</ele>
        <time>2016-05-03T12:24:57Z</time>
      </trkpt>
      <trkpt lat="45.44106" lon="5.05994">
        <ele>384.66</ele>
        <time>2016-05-03T12:24:59Z</time>
      </trkpt>
      <trkpt lat="45.44109" lon="5.05992">
        <ele>384.66</ele>
        <time>2016-05-03T12:25:04Z</time>
      </trkpt>
      <trkpt lat="45.44129" lon="5.05984">
        <ele>383.7</ele>
        <time>2016-05-03T12:25:18Z</time>
      </trkpt>
      <trkpt lat="45.44132" lon="5.05983">
        <ele>383.22</ele>
        <time>2016-05-03T12:25:21Z</time>
      </trkpt>
      <trkpt lat="45.44132" lon="5.05979">
        <ele>383.7</ele>
        <time>2016-05-03T12:25:25Z</time>
      </trkpt>
      <trkpt lat="45.44151" lon="5.05972">
        <ele>382.74</ele>
        <time>2016-05-03T12:25:39Z</time>
      </trkpt>
      <trkpt lat="45.44163" lon="5.05969">
        <ele>382.26</ele>
        <time>2016-05-03T12:25:53Z</time>
      </trkpt>
      <trkpt lat="45.44172" lon="5.0596">
        <ele>382.26</ele>
        <time>2016-05-03T12:26:08Z</time>
      </trkpt>
      <trkpt lat="45.44189" lon="5.05947">
        <ele>382.74</ele>
        <time>2016-05-03T12:26:28Z</time>
      </trkpt>
      <trkpt lat="45.44196" lon="5.05943">
        <ele>382.74</ele>
        <time>2016-05-03T12:26:35Z</time>
      </trkpt>
      <trkpt lat="45.44202" lon="5.0594">
        <ele>383.22</ele>
        <time>2016-05-03T12:26:54Z</time>
      </trkpt>
      <trkpt lat="45.44204" lon="5.05939">
        <ele>383.22</ele>
        <time>2016-05-03T12:27:05Z</time>
      </trkpt>
      <trkpt lat="45.44208" lon="5.05937">
        <ele>383.22</ele>
        <time>2016-05-03T12:27:09Z</time>
      </trkpt>
      <trkpt lat="45.44233" lon="5.05922">
        <ele>383.7</ele>
        <time>2016-05-03T12:27:36Z</time>
      </trkpt>
      <trkpt lat="45.44257" lon="5.05908">
        <ele>385.63</ele>
        <time>2016-05-03T12:28:00Z</time>
      </trkpt>
      <trkpt lat="45.44268" lon="5.0589">
        <ele>386.11</ele>
        <time>2016-05-03T12:28:15Z</time>
      </trkpt>
      <trkpt lat="45.44269" lon="5.05867">
        <ele>386.11</ele>
        <time>2016-05-03T12:28:31Z</time>
      </trkpt>
      <trkpt lat="45.44274" lon="5.05838">
        <ele>387.55</ele>
        <time>2016-05-03T12:28:48Z</time>
      </trkpt>
      <trkpt lat="45.44277" lon="5.05823">
        <ele>388.99</ele>
        <time>2016-05-03T12:29:03Z</time>
      </trkpt>
      <trkpt lat="45.44291" lon="5.058">
        <ele>390.91</ele>
        <time>2016-05-03T12:29:24Z</time>
      </trkpt>
      <trkpt lat="45.44301" lon="5.05776">
        <ele>392.36</ele>
        <time>2016-05-03T12:29:40Z</time>
      </trkpt>
      <trkpt lat="45.44304" lon="5.05744">
        <ele>393.32</ele>
        <time>2016-05-03T12:30:02Z</time>
      </trkpt>
      <trkpt lat="45.44305" lon="5.05741">
        <ele>393.32</ele>
        <time>2016-05-03T12:30:04Z</time>
      </trkpt>
      <trkpt lat="45.44316" lon="5.05702">
        <ele>394.76</ele>
        <time>2016-05-03T12:30:30Z</time>
      </trkpt>
      <trkpt lat="45.44322" lon="5.05661">
        <ele>396.2</ele>
        <time>2016-05-03T12:30:58Z</time>
      </trkpt>
      <trkpt lat="45.44324" lon="5.05649">
        <ele>395.72</ele>
        <time>2016-05-03T12:31:06Z</time>
      </trkpt>
      <trkpt lat="45.44327" lon="5.05612">
        <ele>396.68</ele>
        <time>2016-05-03T12:31:27Z</time>
      </trkpt>
      <trkpt lat="45.44333" lon="5.05585">
        <ele>397.64</ele>
        <time>2016-05-03T12:31:46Z</time>
      </trkpt>
      <trkpt lat="45.44334" lon="5.05577">
        <ele>398.12</ele>
        <time>2016-05-03T12:31:52Z</time>
      </trkpt>
      <trkpt lat="45.44336" lon="5.05558">
        <ele>398.6</ele>
        <time>2016-05-03T12:32:03Z</time>
      </trkpt>
      <trkpt lat="45.44336" lon="5.05527">
        <ele>399.57</ele>
        <time>2016-05-03T12:32:23Z</time>
      </trkpt>
      <trkpt lat="45.44341" lon="5.05517">
        <ele>400.05</ele>
        <time>2016-05-03T12:32:32Z</time>
      </trkpt>
      <trkpt lat="45.44347" lon="5.05502">
        <ele>400.53</ele>
        <time>2016-05-03T12:32:42Z</time>
      </trkpt>
      <trkpt lat="45.44348" lon="5.05494">
        <ele>401.01</ele>
        <time>2016-05-03T12:32:48Z</time>
      </trkpt>
      <trkpt lat="45.4435" lon="5.05487">
        <ele>401.01</ele>
        <time>2016-05-03T12:32:51Z</time>
      </trkpt>
      <trkpt lat="45.44355" lon="5.05476">
        <ele>401.49</ele>
        <time>2016-05-03T12:32:57Z</time>
      </trkpt>
      <trkpt lat="45.44357" lon="5.05451">
        <ele>402.45</ele>
        <time>2016-05-03T12:33:15Z</time>
      </trkpt>
      <trkpt lat="45.44376" lon="5.05424">
        <ele>404.37</ele>
        <time>2016-05-03T12:33:42Z</time>
      </trkpt>
      <trkpt lat="45.4438" lon="5.05419">
        <ele>404.37</ele>
        <time>2016-05-03T12:33:46Z</time>
      </trkpt>
      <trkpt lat="45.44403" lon="5.05409">
        <ele>405.33</ele>
        <time>2016-05-03T12:34:07Z</time>
      </trkpt>
      <trkpt lat="45.44421" lon="5.05401">
        <ele>405.81</ele>
        <time>2016-05-03T12:34:28Z</time>
      </trkpt>
      <trkpt lat="45.44442" lon="5.05412">
        <ele>407.26</ele>
        <time>2016-05-03T12:34:52Z</time>
      </trkpt>
      <trkpt lat="45.44465" lon="5.05404">
        <ele>408.7</ele>
        <time>2016-05-03T12:35:11Z</time>
      </trkpt>
      <trkpt lat="45.44468" lon="5.054">
        <ele>407.74</ele>
        <time>2016-05-03T12:35:12Z</time>
      </trkpt>
      <trkpt lat="45.44468" lon="5.05396">
        <ele>408.22</ele>
        <time>2016-05-03T12:35:18Z</time>
      </trkpt>
      <trkpt lat="45.44467" lon="5.05391">
        <ele>408.22</ele>
        <time>2016-05-03T12:35:21Z</time>
      </trkpt>
      <trkpt lat="45.44461" lon="5.05372">
        <ele>408.7</ele>
        <time>2016-05-03T12:35:41Z</time>
      </trkpt>
      <trkpt lat="45.44457" lon="5.05356">
        <ele>410.14</ele>
        <time>2016-05-03T12:35:52Z</time>
      </trkpt>
      <trkpt lat="45.44447" lon="5.05328">
        <ele>411.58</ele>
        <time>2016-05-03T12:36:10Z</time>
      </trkpt>
      <trkpt lat="45.44447" lon="5.05309">
        <ele>413.02</ele>
        <time>2016-05-03T12:36:27Z</time>
      </trkpt>
      <trkpt lat="45.44444" lon="5.05299">
        <ele>413.5</ele>
        <time>2016-05-03T12:36:34Z</time>
      </trkpt>
      <trkpt lat="45.44442" lon="5.05292">
        <ele>413.98</ele>
        <time>2016-05-03T12:36:37Z</time>
      </trkpt>
      <trkpt lat="45.44445" lon="5.05283">
        <ele>414.47</ele>
        <time>2016-05-03T12:36:42Z</time>
      </trkpt>
      <trkpt lat="45.44445" lon="5.05277">
        <ele>414.95</ele>
        <time>2016-05-03T12:36:47Z</time>
      </trkpt>
      <trkpt lat="45.44444" lon="5.05269">
        <ele>414.95</ele>
        <time>2016-05-03T12:36:50Z</time>
      </trkpt>
      <trkpt lat="45.44443" lon="5.05248">
        <ele>417.35</ele>
        <time>2016-05-03T12:37:08Z</time>
      </trkpt>
      <trkpt lat="45.44443" lon="5.05239">
        <ele>416.87</ele>
        <time>2016-05-03T12:38:03Z</time>
      </trkpt>
      <trkpt lat="45.44461" lon="5.05241">
        <ele>418.31</ele>
        <time>2016-05-03T12:39:02Z</time>
      </trkpt>
      <trkpt lat="45.44478" lon="5.05238">
        <ele>420.23</ele>
        <time>2016-05-03T12:39:18Z</time>
      </trkpt>
      <trkpt lat="45.44495" lon="5.05233">
        <ele>422.16</ele>
        <time>2016-05-03T12:39:35Z</time>
      </trkpt>
      <trkpt lat="45.44496" lon="5.05233">
        <ele>422.16</ele>
        <time>2016-05-03T12:39:36Z</time>
      </trkpt>
      <trkpt lat="45.44501" lon="5.05228">
        <ele>422.64</ele>
        <time>2016-05-03T12:39:50Z</time>
      </trkpt>
      <trkpt lat="45.44519" lon="5.05234">
        <ele>425.04</ele>
        <time>2016-05-03T12:40:08Z</time>
      </trkpt>
      <trkpt lat="45.44534" lon="5.05231">
        <ele>426</ele>
        <time>2016-05-03T12:40:31Z</time>
      </trkpt>
      <trkpt lat="45.44551" lon="5.05229">
        <ele>427.92</ele>
        <time>2016-05-03T12:40:50Z</time>
      </trkpt>
      <trkpt lat="45.44556" lon="5.05226">
        <ele>428.4</ele>
        <time>2016-05-03T12:40:56Z</time>
      </trkpt>
      <trkpt lat="45.44573" lon="5.05219">
        <ele>428.89</ele>
        <time>2016-05-03T12:41:11Z</time>
      </trkpt>
      <trkpt lat="45.44593" lon="5.05214">
        <ele>432.25</ele>
        <time>2016-05-03T12:41:27Z</time>
      </trkpt>
      <trkpt lat="45.44604" lon="5.05203">
        <ele>433.69</ele>
        <time>2016-05-03T12:41:47Z</time>
      </trkpt>
      <trkpt lat="45.44609" lon="5.052">
        <ele>434.17</ele>
        <time>2016-05-03T12:42:00Z</time>
      </trkpt>
      <trkpt lat="45.44615" lon="5.0519">
        <ele>436.58</ele>
        <time>2016-05-03T12:42:21Z</time>
      </trkpt>
      <trkpt lat="45.44617" lon="5.05181">
        <ele>436.58</ele>
        <time>2016-05-03T12:42:39Z</time>
      </trkpt>
      <trkpt lat="45.4462" lon="5.05171">
        <ele>438.02</ele>
        <time>2016-05-03T12:42:57Z</time>
      </trkpt>
      <trkpt lat="45.4462" lon="5.05164">
        <ele>438.5</ele>
        <time>2016-05-03T12:43:02Z</time>
      </trkpt>
      <trkpt lat="45.44625" lon="5.05157">
        <ele>439.94</ele>
        <time>2016-05-03T12:43:14Z</time>
      </trkpt>
      <trkpt lat="45.44642" lon="5.0514">
        <ele>442.34</ele>
        <time>2016-05-03T12:43:35Z</time>
      </trkpt>
      <trkpt lat="45.4466" lon="5.05127">
        <ele>446.19</ele>
        <time>2016-05-03T12:43:55Z</time>
      </trkpt>
      <trkpt lat="45.44672" lon="5.05121">
        <ele>446.67</ele>
        <time>2016-05-03T12:44:17Z</time>
      </trkpt>
      <trkpt lat="45.44675" lon="5.0512">
        <ele>448.11</ele>
        <time>2016-05-03T12:44:28Z</time>
      </trkpt>
      <trkpt lat="45.44677" lon="5.05119">
        <ele>448.11</ele>
        <time>2016-05-03T12:44:30Z</time>
      </trkpt>
      <trkpt lat="45.44678" lon="5.0512">
        <ele>449.07</ele>
        <time>2016-05-03T12:44:34Z</time>
      </trkpt>
      <trkpt lat="45.44709" lon="5.0511">
        <ele>448.11</ele>
        <time>2016-05-03T12:45:00Z</time>
      </trkpt>
      <trkpt lat="45.44724" lon="5.05104">
        <ele>451</ele>
        <time>2016-05-03T12:45:15Z</time>
      </trkpt>
      <trkpt lat="45.44747" lon="5.05099">
        <ele>450.52</ele>
        <time>2016-05-03T12:45:35Z</time>
      </trkpt>
      <trkpt lat="45.4475" lon="5.05095">
        <ele>450.03</ele>
        <time>2016-05-03T12:45:39Z</time>
      </trkpt>
      <trkpt lat="45.44752" lon="5.05091">
        <ele>450.03</ele>
        <time>2016-05-03T12:45:56Z</time>
      </trkpt>
      <trkpt lat="45.44751" lon="5.05092">
        <ele>449.55</ele>
        <time>2016-05-03T12:46:19Z</time>
      </trkpt>
      <trkpt lat="45.44751" lon="5.0509">
        <ele>449.55</ele>
        <time>2016-05-03T12:46:50Z</time>
      </trkpt>
      <trkpt lat="45.44752" lon="5.05091">
        <ele>449.55</ele>
        <time>2016-05-03T12:47:30Z</time>
      </trkpt>
      <trkpt lat="45.44751" lon="5.05092">
        <ele>449.07</ele>
        <time>2016-05-03T12:48:09Z</time>
      </trkpt>
      <trkpt lat="45.44751" lon="5.05092">
        <ele>450.03</ele>
        <time>2016-05-03T12:48:47Z</time>
      </trkpt>
      <trkpt lat="45.4475" lon="5.05091">
        <ele>450.03</ele>
        <time>2016-05-03T12:48:49Z</time>
      </trkpt>
      <trkpt lat="45.4475" lon="5.05088">
        <ele>449.55</ele>
        <time>2016-05-03T12:48:52Z</time>
      </trkpt>
      <trkpt lat="45.44756" lon="5.05081">
        <ele>449.07</ele>
        <time>2016-05-03T12:48:58Z</time>
      </trkpt>
      <trkpt lat="45.44759" lon="5.05071">
        <ele>448.59</ele>
        <time>2016-05-03T12:49:06Z</time>
      </trkpt>
      <trkpt lat="45.44764" lon="5.05064">
        <ele>448.59</ele>
        <time>2016-05-03T12:49:11Z</time>
      </trkpt>
      <trkpt lat="45.44768" lon="5.05059">
        <ele>448.59</ele>
        <time>2016-05-03T12:49:16Z</time>
      </trkpt>
      <trkpt lat="45.44774" lon="5.05054">
        <ele>448.11</ele>
        <time>2016-05-03T12:49:21Z</time>
      </trkpt>
      <trkpt lat="45.4478" lon="5.05049">
        <ele>448.11</ele>
        <time>2016-05-03T12:49:30Z</time>
      </trkpt>
      <trkpt lat="45.44793" lon="5.0503">
        <ele>448.11</ele>
        <time>2016-05-03T12:49:48Z</time>
      </trkpt>
      <trkpt lat="45.44819" lon="5.05003">
        <ele>448.59</ele>
        <time>2016-05-03T12:50:18Z</time>
      </trkpt>
      <trkpt lat="45.44831" lon="5.04974">
        <ele>448.59</ele>
        <time>2016-05-03T12:50:39Z</time>
      </trkpt>
      <trkpt lat="45.44852" lon="5.04947">
        <ele>450.03</ele>
        <time>2016-05-03T12:51:01Z</time>
      </trkpt>
      <trkpt lat="45.44861" lon="5.04936">
        <ele>450.03</ele>
        <time>2016-05-03T12:51:10Z</time>
      </trkpt>
      <trkpt lat="45.44861" lon="5.04931">
        <ele>450.03</ele>
        <time>2016-05-03T12:51:12Z</time>
      </trkpt>
      <trkpt lat="45.44863" lon="5.04925">
        <ele>449.07</ele>
        <time>2016-05-03T12:51:15Z</time>
      </trkpt>
      <trkpt lat="45.44869" lon="5.04906">
        <ele>450.52</ele>
        <time>2016-05-03T12:51:31Z</time>
      </trkpt>
      <trkpt lat="45.44882" lon="5.04881">
        <ele>451</ele>
        <time>2016-05-03T12:51:51Z</time>
      </trkpt>
      <trkpt lat="45.44893" lon="5.04863">
        <ele>451</ele>
        <time>2016-05-03T12:52:41Z</time>
      </trkpt>
      <trkpt lat="45.44901" lon="5.04842">
        <ele>450.52</ele>
        <time>2016-05-03T12:52:58Z</time>
      </trkpt>
      <trkpt lat="45.44922" lon="5.04809">
        <ele>450.03</ele>
        <time>2016-05-03T12:53:19Z</time>
      </trkpt>
      <trkpt lat="45.44933" lon="5.04792">
        <ele>449.55</ele>
        <time>2016-05-03T12:53:33Z</time>
      </trkpt>
      <trkpt lat="45.44941" lon="5.0478">
        <ele>450.03</ele>
        <time>2016-05-03T12:53:43Z</time>
      </trkpt>
      <trkpt lat="45.44944" lon="5.04745">
        <ele>450.03</ele>
        <time>2016-05-03T12:54:05Z</time>
      </trkpt>
      <trkpt lat="45.44948" lon="5.04734">
        <ele>450.52</ele>
        <time>2016-05-03T12:54:10Z</time>
      </trkpt>
      <trkpt lat="45.44952" lon="5.04723">
        <ele>450.52</ele>
        <time>2016-05-03T12:54:17Z</time>
      </trkpt>
      <trkpt lat="45.44959" lon="5.04711">
        <ele>450.03</ele>
        <time>2016-05-03T12:54:27Z</time>
      </trkpt>
      <trkpt lat="45.4496" lon="5.04704">
        <ele>451</ele>
        <time>2016-05-03T12:54:30Z</time>
      </trkpt>
      <trkpt lat="45.44962" lon="5.04698">
        <ele>451</ele>
        <time>2016-05-03T12:54:32Z</time>
      </trkpt>
      <trkpt lat="45.44976" lon="5.04679">
        <ele>451</ele>
        <time>2016-05-03T12:54:51Z</time>
      </trkpt>
      <trkpt lat="45.44998" lon="5.04646">
        <ele>451</ele>
        <time>2016-05-03T12:55:20Z</time>
      </trkpt>
      <trkpt lat="45.45011" lon="5.04626">
        <ele>451</ele>
        <time>2016-05-03T12:55:37Z</time>
      </trkpt>
      <trkpt lat="45.45033" lon="5.04593">
        <ele>451</ele>
        <time>2016-05-03T12:56:02Z</time>
      </trkpt>
      <trkpt lat="45.45038" lon="5.04587">
        <ele>450.03</ele>
        <time>2016-05-03T12:56:07Z</time>
      </trkpt>
      <trkpt lat="45.45059" lon="5.04567">
        <ele>449.07</ele>
        <time>2016-05-03T12:56:27Z</time>
      </trkpt>
      <trkpt lat="45.45061" lon="5.0456">
        <ele>450.03</ele>
        <time>2016-05-03T12:56:32Z</time>
      </trkpt>
      <trkpt lat="45.45062" lon="5.04557">
        <ele>450.03</ele>
        <time>2016-05-03T12:56:56Z</time>
      </trkpt>
      <trkpt lat="45.4506" lon="5.04556">
        <ele>493.77</ele>
        <time>2016-05-03T12:57:36Z</time>
      </trkpt>
      <trkpt lat="45.45062" lon="5.0455">
        <ele>448.11</ele>
        <time>2016-05-03T12:57:42Z</time>
      </trkpt>
      <trkpt lat="45.45058" lon="5.04554">
        <ele>451</ele>
        <time>2016-05-03T12:58:29Z</time>
      </trkpt>
      <trkpt lat="45.45059" lon="5.04558">
        <ele>453.4</ele>
        <time>2016-05-03T12:59:46Z</time>
      </trkpt>
      <trkpt lat="45.45063" lon="5.0456">
        <ele>453.88</ele>
        <time>2016-05-03T12:59:55Z</time>
      </trkpt>
      <trkpt lat="45.45073" lon="5.04548">
        <ele>452.92</ele>
        <time>2016-05-03T13:00:06Z</time>
      </trkpt>
      <trkpt lat="45.45078" lon="5.04538">
        <ele>452.92</ele>
        <time>2016-05-03T13:00:14Z</time>
      </trkpt>
      <trkpt lat="45.4509" lon="5.04523">
        <ele>451.96</ele>
        <time>2016-05-03T13:00:26Z</time>
      </trkpt>
      <trkpt lat="45.45095" lon="5.04514">
        <ele>451.96</ele>
        <time>2016-05-03T13:00:34Z</time>
      </trkpt>
      <trkpt lat="45.45103" lon="5.04502">
        <ele>451.96</ele>
        <time>2016-05-03T13:00:43Z</time>
      </trkpt>
      <trkpt lat="45.45103" lon="5.04498">
        <ele>451.96</ele>
        <time>2016-05-03T13:00:45Z</time>
      </trkpt>
      <trkpt lat="45.45119" lon="5.04472">
        <ele>451.48</ele>
        <time>2016-05-03T13:01:03Z</time>
      </trkpt>
      <trkpt lat="45.4512" lon="5.04469">
        <ele>451</ele>
        <time>2016-05-03T13:01:05Z</time>
      </trkpt>
      <trkpt lat="45.45117" lon="5.04467">
        <ele>451</ele>
        <time>2016-05-03T13:01:09Z</time>
      </trkpt>
      <trkpt lat="45.45124" lon="5.04442">
        <ele>451</ele>
        <time>2016-05-03T13:01:20Z</time>
      </trkpt>
      <trkpt lat="45.45125" lon="5.04433">
        <ele>450.52</ele>
        <time>2016-05-03T13:01:28Z</time>
      </trkpt>
      <trkpt lat="45.45126" lon="5.04423">
        <ele>450.52</ele>
        <time>2016-05-03T13:01:33Z</time>
      </trkpt>
      <trkpt lat="45.45127" lon="5.04417">
        <ele>450.52</ele>
        <time>2016-05-03T13:01:36Z</time>
      </trkpt>
      <trkpt lat="45.45135" lon="5.04391">
        <ele>450.03</ele>
        <time>2016-05-03T13:01:50Z</time>
      </trkpt>
      <trkpt lat="45.45135" lon="5.0439">
        <ele>449.55</ele>
        <time>2016-05-03T13:01:51Z</time>
      </trkpt>
      <trkpt lat="45.45142" lon="5.04368">
        <ele>449.55</ele>
        <time>2016-05-03T13:02:05Z</time>
      </trkpt>
      <trkpt lat="45.45144" lon="5.04356">
        <ele>450.03</ele>
        <time>2016-05-03T13:02:14Z</time>
      </trkpt>
      <trkpt lat="45.45146" lon="5.04342">
        <ele>448.11</ele>
        <time>2016-05-03T13:02:21Z</time>
      </trkpt>
      <trkpt lat="45.45149" lon="5.04338">
        <ele>449.07</ele>
        <time>2016-05-03T13:02:26Z</time>
      </trkpt>
      <trkpt lat="45.45137" lon="5.04381">
        <ele>510.12</ele>
        <time>2016-05-03T13:05:23Z</time>
      </trkpt>
      <trkpt lat="45.45144" lon="5.04209">
        <ele>448.11</ele>
        <time>2016-05-03T13:05:29Z</time>
      </trkpt>
      <trkpt lat="45.45153" lon="5.04207">
        <ele>451.48</ele>
        <time>2016-05-03T13:06:01Z</time>
      </trkpt>
      <trkpt lat="45.45152" lon="5.04206">
        <ele>454.84</ele>
        <time>2016-05-03T13:06:25Z</time>
      </trkpt>
      <trkpt lat="45.4515" lon="5.04202">
        <ele>457.72</ele>
        <time>2016-05-03T13:07:01Z</time>
      </trkpt>
      <trkpt lat="45.45148" lon="5.04195">
        <ele>457.24</ele>
        <time>2016-05-03T13:07:08Z</time>
      </trkpt>
      <trkpt lat="45.45143" lon="5.04183">
        <ele>456.76</ele>
        <time>2016-05-03T13:07:16Z</time>
      </trkpt>
      <trkpt lat="45.45141" lon="5.04171">
        <ele>456.76</ele>
        <time>2016-05-03T13:07:23Z</time>
      </trkpt>
      <trkpt lat="45.45142" lon="5.04161">
        <ele>456.76</ele>
        <time>2016-05-03T13:07:27Z</time>
      </trkpt>
      <trkpt lat="45.45141" lon="5.04154">
        <ele>456.76</ele>
        <time>2016-05-03T13:07:31Z</time>
      </trkpt>
      <trkpt lat="45.45141" lon="5.04152">
        <ele>457.24</ele>
        <time>2016-05-03T13:07:33Z</time>
      </trkpt>
      <trkpt lat="45.45138" lon="5.04127">
        <ele>457.24</ele>
        <time>2016-05-03T13:07:50Z</time>
      </trkpt>
      <trkpt lat="45.45141" lon="5.04124">
        <ele>457.72</ele>
        <time>2016-05-03T13:08:08Z</time>
      </trkpt>
      <trkpt lat="45.4514" lon="5.04109">
        <ele>458.21</ele>
        <time>2016-05-03T13:08:18Z</time>
      </trkpt>
      <trkpt lat="45.45134" lon="5.04083">
        <ele>459.17</ele>
        <time>2016-05-03T13:08:35Z</time>
      </trkpt>
      <trkpt lat="45.45128" lon="5.04051">
        <ele>459.65</ele>
        <time>2016-05-03T13:08:47Z</time>
      </trkpt>
      <trkpt lat="45.45128" lon="5.04044">
        <ele>459.65</ele>
        <time>2016-05-03T13:08:55Z</time>
      </trkpt>
      <trkpt lat="45.45132" lon="5.0403">
        <ele>460.13</ele>
        <time>2016-05-03T13:09:05Z</time>
      </trkpt>
      <trkpt lat="45.45131" lon="5.04027">
        <ele>460.61</ele>
        <time>2016-05-03T13:09:07Z</time>
      </trkpt>
      <trkpt lat="45.45132" lon="5.04002">
        <ele>460.61</ele>
        <time>2016-05-03T13:09:22Z</time>
      </trkpt>
      <trkpt lat="45.4513" lon="5.03989">
        <ele>462.05</ele>
        <time>2016-05-03T13:09:31Z</time>
      </trkpt>
      <trkpt lat="45.45133" lon="5.03979">
        <ele>462.05</ele>
        <time>2016-05-03T13:09:36Z</time>
      </trkpt>
      <trkpt lat="45.45132" lon="5.0397">
        <ele>462.05</ele>
        <time>2016-05-03T13:09:40Z</time>
      </trkpt>
      <trkpt lat="45.45142" lon="5.03939">
        <ele>462.05</ele>
        <time>2016-05-03T13:09:59Z</time>
      </trkpt>
      <trkpt lat="45.45146" lon="5.03929">
        <ele>462.53</ele>
        <time>2016-05-03T13:10:08Z</time>
      </trkpt>
      <trkpt lat="45.45148" lon="5.0392">
        <ele>462.05</ele>
        <time>2016-05-03T13:10:12Z</time>
      </trkpt>
      <trkpt lat="45.45155" lon="5.03909">
        <ele>462.05</ele>
        <time>2016-05-03T13:10:22Z</time>
      </trkpt>
      <trkpt lat="45.45159" lon="5.039">
        <ele>461.09</ele>
        <time>2016-05-03T13:10:27Z</time>
      </trkpt>
      <trkpt lat="45.45161" lon="5.03899">
        <ele>460.13</ele>
        <time>2016-05-03T13:10:29Z</time>
      </trkpt>
      <trkpt lat="45.45164" lon="5.03897">
        <ele>459.65</ele>
        <time>2016-05-03T13:10:32Z</time>
      </trkpt>
      <trkpt lat="45.45171" lon="5.03885">
        <ele>459.65</ele>
        <time>2016-05-03T13:10:40Z</time>
      </trkpt>
      <trkpt lat="45.45173" lon="5.03881">
        <ele>458.69</ele>
        <time>2016-05-03T13:10:43Z</time>
      </trkpt>
      <trkpt lat="45.45177" lon="5.0387">
        <ele>457.72</ele>
        <time>2016-05-03T13:10:53Z</time>
      </trkpt>
      <trkpt lat="45.45179" lon="5.03858">
        <ele>457.24</ele>
        <time>2016-05-03T13:10:58Z</time>
      </trkpt>
      <trkpt lat="45.45185" lon="5.03841">
        <ele>456.28</ele>
        <time>2016-05-03T13:11:06Z</time>
      </trkpt>
      <trkpt lat="45.45195" lon="5.03809">
        <ele>454.84</ele>
        <time>2016-05-03T13:11:27Z</time>
      </trkpt>
      <trkpt lat="45.45196" lon="5.03804">
        <ele>454.36</ele>
        <time>2016-05-03T13:11:30Z</time>
      </trkpt>
      <trkpt lat="45.45197" lon="5.03801">
        <ele>454.84</ele>
        <time>2016-05-03T13:11:33Z</time>
      </trkpt>
      <trkpt lat="45.45199" lon="5.03792">
        <ele>453.88</ele>
        <time>2016-05-03T13:11:40Z</time>
      </trkpt>
      <trkpt lat="45.45213" lon="5.03763">
        <ele>454.36</ele>
        <time>2016-05-03T13:11:59Z</time>
      </trkpt>
      <trkpt lat="45.45236" lon="5.03738">
        <ele>454.36</ele>
        <time>2016-05-03T13:12:26Z</time>
      </trkpt>
      <trkpt lat="45.45238" lon="5.03733">
        <ele>453.88</ele>
        <time>2016-05-03T13:12:30Z</time>
      </trkpt>
      <trkpt lat="45.45239" lon="5.03725">
        <ele>454.36</ele>
        <time>2016-05-03T13:12:36Z</time>
      </trkpt>
      <trkpt lat="45.45254" lon="5.03693">
        <ele>454.36</ele>
        <time>2016-05-03T13:12:52Z</time>
      </trkpt>
      <trkpt lat="45.45257" lon="5.03679">
        <ele>453.88</ele>
        <time>2016-05-03T13:12:59Z</time>
      </trkpt>
      <trkpt lat="45.45262" lon="5.03649">
        <ele>454.36</ele>
        <time>2016-05-03T13:13:18Z</time>
      </trkpt>
      <trkpt lat="45.45265" lon="5.03644">
        <ele>454.36</ele>
        <time>2016-05-03T13:13:22Z</time>
      </trkpt>
      <trkpt lat="45.45266" lon="5.03634">
        <ele>454.36</ele>
        <time>2016-05-03T13:13:26Z</time>
      </trkpt>
      <trkpt lat="45.45266" lon="5.03622">
        <ele>454.84</ele>
        <time>2016-05-03T13:13:34Z</time>
      </trkpt>
      <trkpt lat="45.45265" lon="5.03617">
        <ele>454.84</ele>
        <time>2016-05-03T13:13:37Z</time>
      </trkpt>
      <trkpt lat="45.45262" lon="5.0361">
        <ele>454.84</ele>
        <time>2016-05-03T13:13:43Z</time>
      </trkpt>
      <trkpt lat="45.45263" lon="5.03567">
        <ele>455.32</ele>
        <time>2016-05-03T13:14:07Z</time>
      </trkpt>
      <trkpt lat="45.45264" lon="5.03562">
        <ele>455.32</ele>
        <time>2016-05-03T13:14:09Z</time>
      </trkpt>
      <trkpt lat="45.45258" lon="5.03539">
        <ele>453.4</ele>
        <time>2016-05-03T13:14:23Z</time>
      </trkpt>
      <trkpt lat="45.45251" lon="5.03522">
        <ele>453.4</ele>
        <time>2016-05-03T13:14:34Z</time>
      </trkpt>
      <trkpt lat="45.45252" lon="5.03514">
        <ele>453.4</ele>
        <time>2016-05-03T13:14:40Z</time>
      </trkpt>
      <trkpt lat="45.45252" lon="5.03506">
        <ele>453.4</ele>
        <time>2016-05-03T13:14:44Z</time>
      </trkpt>
      <trkpt lat="45.45246" lon="5.0349">
        <ele>452.92</ele>
        <time>2016-05-03T13:15:02Z</time>
      </trkpt>
      <trkpt lat="45.45242" lon="5.03472">
        <ele>453.88</ele>
        <time>2016-05-03T13:15:14Z</time>
      </trkpt>
      <trkpt lat="45.45241" lon="5.03466">
        <ele>453.88</ele>
        <time>2016-05-03T13:15:18Z</time>
      </trkpt>
      <trkpt lat="45.4524" lon="5.03461">
        <ele>454.36</ele>
        <time>2016-05-03T13:15:23Z</time>
      </trkpt>
      <trkpt lat="45.45232" lon="5.03437">
        <ele>454.84</ele>
        <time>2016-05-03T13:15:39Z</time>
      </trkpt>
      <trkpt lat="45.45226" lon="5.03421">
        <ele>455.32</ele>
        <time>2016-05-03T13:15:52Z</time>
      </trkpt>
      <trkpt lat="45.45218" lon="5.03399">
        <ele>455.32</ele>
        <time>2016-05-03T13:16:07Z</time>
      </trkpt>
      <trkpt lat="45.45212" lon="5.03386">
        <ele>456.28</ele>
        <time>2016-05-03T13:16:16Z</time>
      </trkpt>
      <trkpt lat="45.45212" lon="5.03375">
        <ele>456.28</ele>
        <time>2016-05-03T13:16:22Z</time>
      </trkpt>
      <trkpt lat="45.4521" lon="5.03353">
        <ele>456.76</ele>
        <time>2016-05-03T13:16:36Z</time>
      </trkpt>
      <trkpt lat="45.45202" lon="5.03327">
        <ele>457.24</ele>
        <time>2016-05-03T13:16:52Z</time>
      </trkpt>
      <trkpt lat="45.45201" lon="5.03326">
        <ele>457.24</ele>
        <time>2016-05-03T13:16:53Z</time>
      </trkpt>
      <trkpt lat="45.45197" lon="5.0331">
        <ele>456.76</ele>
        <time>2016-05-03T13:17:04Z</time>
      </trkpt>
      <trkpt lat="45.45198" lon="5.03296">
        <ele>456.76</ele>
        <time>2016-05-03T13:17:12Z</time>
      </trkpt>
      <trkpt lat="45.45194" lon="5.03276">
        <ele>456.76</ele>
        <time>2016-05-03T13:17:25Z</time>
      </trkpt>
      <trkpt lat="45.45192" lon="5.03269">
        <ele>456.76</ele>
        <time>2016-05-03T13:17:32Z</time>
      </trkpt>
      <trkpt lat="45.45188" lon="5.03259">
        <ele>456.28</ele>
        <time>2016-05-03T13:17:38Z</time>
      </trkpt>
      <trkpt lat="45.45179" lon="5.03235">
        <ele>455.8</ele>
        <time>2016-05-03T13:17:55Z</time>
      </trkpt>
      <trkpt lat="45.45178" lon="5.03228">
        <ele>455.32</ele>
        <time>2016-05-03T13:17:59Z</time>
      </trkpt>
      <trkpt lat="45.45172" lon="5.03205">
        <ele>453.88</ele>
        <time>2016-05-03T13:18:16Z</time>
      </trkpt>
      <trkpt lat="45.45174" lon="5.03174">
        <ele>453.4</ele>
        <time>2016-05-03T13:18:33Z</time>
      </trkpt>
      <trkpt lat="45.45177" lon="5.03151">
        <ele>453.88</ele>
        <time>2016-05-03T13:18:48Z</time>
      </trkpt>
      <trkpt lat="45.45184" lon="5.03125">
        <ele>453.4</ele>
        <time>2016-05-03T13:19:04Z</time>
      </trkpt>
      <trkpt lat="45.45184" lon="5.0312">
        <ele>453.4</ele>
        <time>2016-05-03T13:19:07Z</time>
      </trkpt>
      <trkpt lat="45.45186" lon="5.03111">
        <ele>453.4</ele>
        <time>2016-05-03T13:19:13Z</time>
      </trkpt>
      <trkpt lat="45.45193" lon="5.03093">
        <ele>453.4</ele>
        <time>2016-05-03T13:19:28Z</time>
      </trkpt>
      <trkpt lat="45.45192" lon="5.03085">
        <ele>453.4</ele>
        <time>2016-05-03T13:19:32Z</time>
      </trkpt>
      <trkpt lat="45.45187" lon="5.03077">
        <ele>453.4</ele>
        <time>2016-05-03T13:19:47Z</time>
      </trkpt>
      <trkpt lat="45.4519" lon="5.03066">
        <ele>452.44</ele>
        <time>2016-05-03T13:20:02Z</time>
      </trkpt>
      <trkpt lat="45.45196" lon="5.0305">
        <ele>453.4</ele>
        <time>2016-05-03T13:20:13Z</time>
      </trkpt>
      <trkpt lat="45.45199" lon="5.03044">
        <ele>453.4</ele>
        <time>2016-05-03T13:20:17Z</time>
      </trkpt>
      <trkpt lat="45.45205" lon="5.03027">
        <ele>452.92</ele>
        <time>2016-05-03T13:20:27Z</time>
      </trkpt>
      <trkpt lat="45.45213" lon="5.03013">
        <ele>452.92</ele>
        <time>2016-05-03T13:20:37Z</time>
      </trkpt>
      <trkpt lat="45.45216" lon="5.03006">
        <ele>452.92</ele>
        <time>2016-05-03T13:20:41Z</time>
      </trkpt>
      <trkpt lat="45.45217" lon="5.03002">
        <ele>452.92</ele>
        <time>2016-05-03T13:20:43Z</time>
      </trkpt>
      <trkpt lat="45.45217" lon="5.02999">
        <ele>452.44</ele>
        <time>2016-05-03T13:20:46Z</time>
      </trkpt>
      <trkpt lat="45.45222" lon="5.0299">
        <ele>451.96</ele>
        <time>2016-05-03T13:20:52Z</time>
      </trkpt>
      <trkpt lat="45.45225" lon="5.02985">
        <ele>452.44</ele>
        <time>2016-05-03T13:20:56Z</time>
      </trkpt>
      <trkpt lat="45.45225" lon="5.02981">
        <ele>452.44</ele>
        <time>2016-05-03T13:20:58Z</time>
      </trkpt>
      <trkpt lat="45.45231" lon="5.02971">
        <ele>452.44</ele>
        <time>2016-05-03T13:21:03Z</time>
      </trkpt>
      <trkpt lat="45.45232" lon="5.02968">
        <ele>451.96</ele>
        <time>2016-05-03T13:21:05Z</time>
      </trkpt>
      <trkpt lat="45.45236" lon="5.02962">
        <ele>451.96</ele>
        <time>2016-05-03T13:21:10Z</time>
      </trkpt>
      <trkpt lat="45.45245" lon="5.02942">
        <ele>451.96</ele>
        <time>2016-05-03T13:21:23Z</time>
      </trkpt>
      <trkpt lat="45.45246" lon="5.02936">
        <ele>451.96</ele>
        <time>2016-05-03T13:21:27Z</time>
      </trkpt>
      <trkpt lat="45.45247" lon="5.02933">
        <ele>451.96</ele>
        <time>2016-05-03T13:21:29Z</time>
      </trkpt>
      <trkpt lat="45.45251" lon="5.02926">
        <ele>451.96</ele>
        <time>2016-05-03T13:21:33Z</time>
      </trkpt>
      <trkpt lat="45.45254" lon="5.02921">
        <ele>451.96</ele>
        <time>2016-05-03T13:21:37Z</time>
      </trkpt>
      <trkpt lat="45.45257" lon="5.02916">
        <ele>451.48</ele>
        <time>2016-05-03T13:21:41Z</time>
      </trkpt>
      <trkpt lat="45.45262" lon="5.02904">
        <ele>451</ele>
        <time>2016-05-03T13:21:51Z</time>
      </trkpt>
      <trkpt lat="45.45265" lon="5.02901">
        <ele>451.48</ele>
        <time>2016-05-03T13:21:55Z</time>
      </trkpt>
      <trkpt lat="45.45268" lon="5.02886">
        <ele>451.48</ele>
        <time>2016-05-03T13:22:05Z</time>
      </trkpt>
      <trkpt lat="45.45271" lon="5.02884">
        <ele>451.96</ele>
        <time>2016-05-03T13:22:08Z</time>
      </trkpt>
      <trkpt lat="45.45274" lon="5.02879">
        <ele>451.48</ele>
        <time>2016-05-03T13:22:11Z</time>
      </trkpt>
      <trkpt lat="45.45279" lon="5.02876">
        <ele>451.96</ele>
        <time>2016-05-03T13:22:15Z</time>
      </trkpt>
      <trkpt lat="45.45279" lon="5.02867">
        <ele>451.48</ele>
        <time>2016-05-03T13:22:20Z</time>
      </trkpt>
      <trkpt lat="45.45289" lon="5.02858">
        <ele>451</ele>
        <time>2016-05-03T13:22:29Z</time>
      </trkpt>
      <trkpt lat="45.4529" lon="5.02855">
        <ele>451</ele>
        <time>2016-05-03T13:22:31Z</time>
      </trkpt>
      <trkpt lat="45.45292" lon="5.02851">
        <ele>451.48</ele>
        <time>2016-05-03T13:22:33Z</time>
      </trkpt>
      <trkpt lat="45.45296" lon="5.02842">
        <ele>451</ele>
        <time>2016-05-03T13:22:41Z</time>
      </trkpt>
      <trkpt lat="45.45301" lon="5.02833">
        <ele>450.52</ele>
        <time>2016-05-03T13:22:46Z</time>
      </trkpt>
      <trkpt lat="45.45305" lon="5.02824">
        <ele>451.48</ele>
        <time>2016-05-03T13:22:53Z</time>
      </trkpt>
      <trkpt lat="45.45312" lon="5.02817">
        <ele>451</ele>
        <time>2016-05-03T13:23:00Z</time>
      </trkpt>
      <trkpt lat="45.45315" lon="5.02813">
        <ele>450.52</ele>
        <time>2016-05-03T13:23:04Z</time>
      </trkpt>
      <trkpt lat="45.45316" lon="5.02809">
        <ele>451.48</ele>
        <time>2016-05-03T13:23:07Z</time>
      </trkpt>
      <trkpt lat="45.45318" lon="5.02804">
        <ele>451</ele>
        <time>2016-05-03T13:23:10Z</time>
      </trkpt>
      <trkpt lat="45.4532" lon="5.02798">
        <ele>451</ele>
        <time>2016-05-03T13:23:14Z</time>
      </trkpt>
      <trkpt lat="45.45321" lon="5.02794">
        <ele>451</ele>
        <time>2016-05-03T13:23:16Z</time>
      </trkpt>
      <trkpt lat="45.45327" lon="5.02781">
        <ele>450.52</ele>
        <time>2016-05-03T13:23:27Z</time>
      </trkpt>
      <trkpt lat="45.45331" lon="5.02763">
        <ele>451</ele>
        <time>2016-05-03T13:23:37Z</time>
      </trkpt>
      <trkpt lat="45.45331" lon="5.02742">
        <ele>450.52</ele>
        <time>2016-05-03T13:23:52Z</time>
      </trkpt>
      <trkpt lat="45.45333" lon="5.02734">
        <ele>449.55</ele>
        <time>2016-05-03T13:24:11Z</time>
      </trkpt>
      <trkpt lat="45.45333" lon="5.02735">
        <ele>450.03</ele>
        <time>2016-05-03T13:24:29Z</time>
      </trkpt>
      <trkpt lat="45.45336" lon="5.02729">
        <ele>449.55</ele>
        <time>2016-05-03T13:24:53Z</time>
      </trkpt>
      <trkpt lat="45.45339" lon="5.02724">
        <ele>449.07</ele>
        <time>2016-05-03T13:24:56Z</time>
      </trkpt>
      <trkpt lat="45.4534" lon="5.02719">
        <ele>449.07</ele>
        <time>2016-05-03T13:25:00Z</time>
      </trkpt>
      <trkpt lat="45.45345" lon="5.02694">
        <ele>448.59</ele>
        <time>2016-05-03T13:25:14Z</time>
      </trkpt>
      <trkpt lat="45.45346" lon="5.02689">
        <ele>448.59</ele>
        <time>2016-05-03T13:25:17Z</time>
      </trkpt>
      <trkpt lat="45.45348" lon="5.02686">
        <ele>448.11</ele>
        <time>2016-05-03T13:25:20Z</time>
      </trkpt>
      <trkpt lat="45.45351" lon="5.02671">
        <ele>448.59</ele>
        <time>2016-05-03T13:25:32Z</time>
      </trkpt>
      <trkpt lat="45.45352" lon="5.02662">
        <ele>447.15</ele>
        <time>2016-05-03T13:25:36Z</time>
      </trkpt>
      <trkpt lat="45.45354" lon="5.02656">
        <ele>447.63</ele>
        <time>2016-05-03T13:25:41Z</time>
      </trkpt>
      <trkpt lat="45.45355" lon="5.02647">
        <ele>447.63</ele>
        <time>2016-05-03T13:25:46Z</time>
      </trkpt>
      <trkpt lat="45.45359" lon="5.0263">
        <ele>447.63</ele>
        <time>2016-05-03T13:25:59Z</time>
      </trkpt>
      <trkpt lat="45.45367" lon="5.02601">
        <ele>447.15</ele>
        <time>2016-05-03T13:26:19Z</time>
      </trkpt>
      <trkpt lat="45.45372" lon="5.02575">
        <ele>446.67</ele>
        <time>2016-05-03T13:26:34Z</time>
      </trkpt>
      <trkpt lat="45.45376" lon="5.02555">
        <ele>446.19</ele>
        <time>2016-05-03T13:26:44Z</time>
      </trkpt>
      <trkpt lat="45.45375" lon="5.02547">
        <ele>446.67</ele>
        <time>2016-05-03T13:26:49Z</time>
      </trkpt>
      <trkpt lat="45.45376" lon="5.02542">
        <ele>446.19</ele>
        <time>2016-05-03T13:26:52Z</time>
      </trkpt>
      <trkpt lat="45.45374" lon="5.02535">
        <ele>445.71</ele>
        <time>2016-05-03T13:27:16Z</time>
      </trkpt>
      <trkpt lat="45.45374" lon="5.02533">
        <ele>445.71</ele>
        <time>2016-05-03T13:27:58Z</time>
      </trkpt>
      <trkpt lat="45.45374" lon="5.02536">
        <ele>445.71</ele>
        <time>2016-05-03T13:30:24Z</time>
      </trkpt>
      <trkpt lat="45.45375" lon="5.02536">
        <ele>445.71</ele>
        <time>2016-05-03T13:31:14Z</time>
      </trkpt>
      <trkpt lat="45.45376" lon="5.02535">
        <ele>445.71</ele>
        <time>2016-05-03T13:31:45Z</time>
      </trkpt>
      <trkpt lat="45.45378" lon="5.02529">
        <ele>446.19</ele>
        <time>2016-05-03T13:31:52Z</time>
      </trkpt>
      <trkpt lat="45.45383" lon="5.02497">
        <ele>445.71</ele>
        <time>2016-05-03T13:32:12Z</time>
      </trkpt>
      <trkpt lat="45.45384" lon="5.02482">
        <ele>445.71</ele>
        <time>2016-05-03T13:32:24Z</time>
      </trkpt>
      <trkpt lat="45.45387" lon="5.02475">
        <ele>446.19</ele>
        <time>2016-05-03T13:32:30Z</time>
      </trkpt>
      <trkpt lat="45.45389" lon="5.02466">
        <ele>445.71</ele>
        <time>2016-05-03T13:32:35Z</time>
      </trkpt>
      <trkpt lat="45.45389" lon="5.02459">
        <ele>445.71</ele>
        <time>2016-05-03T13:32:38Z</time>
      </trkpt>
      <trkpt lat="45.45391" lon="5.02449">
        <ele>445.23</ele>
        <time>2016-05-03T13:32:47Z</time>
      </trkpt>
      <trkpt lat="45.45392" lon="5.0242">
        <ele>445.23</ele>
        <time>2016-05-03T13:33:02Z</time>
      </trkpt>
      <trkpt lat="45.45393" lon="5.02419">
        <ele>445.71</ele>
        <time>2016-05-03T13:33:03Z</time>
      </trkpt>
      <trkpt lat="45.45393" lon="5.02416">
        <ele>445.71</ele>
        <time>2016-05-03T13:33:05Z</time>
      </trkpt>
      <trkpt lat="45.45394" lon="5.02413">
        <ele>445.71</ele>
        <time>2016-05-03T13:33:07Z</time>
      </trkpt>
      <trkpt lat="45.45393" lon="5.02411">
        <ele>446.19</ele>
        <time>2016-05-03T13:33:09Z</time>
      </trkpt>
      <trkpt lat="45.45396" lon="5.02395">
        <ele>445.71</ele>
        <time>2016-05-03T13:33:15Z</time>
      </trkpt>
      <trkpt lat="45.45395" lon="5.02384">
        <ele>446.19</ele>
        <time>2016-05-03T13:33:23Z</time>
      </trkpt>
      <trkpt lat="45.45393" lon="5.0238">
        <ele>445.71</ele>
        <time>2016-05-03T13:33:48Z</time>
      </trkpt>
      <trkpt lat="45.45395" lon="5.0238">
        <ele>446.19</ele>
        <time>2016-05-03T13:34:26Z</time>
      </trkpt>
      <trkpt lat="45.45394" lon="5.02371">
        <ele>446.19</ele>
        <time>2016-05-03T13:34:56Z</time>
      </trkpt>
      <trkpt lat="45.45395" lon="5.02365">
        <ele>446.19</ele>
        <time>2016-05-03T13:35:00Z</time>
      </trkpt>
      <trkpt lat="45.45393" lon="5.02349">
        <ele>445.71</ele>
        <time>2016-05-03T13:35:10Z</time>
      </trkpt>
      <trkpt lat="45.45395" lon="5.02345">
        <ele>446.19</ele>
        <time>2016-05-03T13:35:13Z</time>
      </trkpt>
      <trkpt lat="45.45399" lon="5.02316">
        <ele>446.67</ele>
        <time>2016-05-03T13:35:30Z</time>
      </trkpt>
      <trkpt lat="45.45403" lon="5.02303">
        <ele>446.19</ele>
        <time>2016-05-03T13:35:40Z</time>
      </trkpt>
      <trkpt lat="45.45402" lon="5.02295">
        <ele>446.19</ele>
        <time>2016-05-03T13:35:43Z</time>
      </trkpt>
      <trkpt lat="45.45401" lon="5.02292">
        <ele>445.71</ele>
        <time>2016-05-03T13:35:47Z</time>
      </trkpt>
      <trkpt lat="45.45402" lon="5.02278">
        <ele>446.67</ele>
        <time>2016-05-03T13:35:55Z</time>
      </trkpt>
      <trkpt lat="45.45403" lon="5.02268">
        <ele>446.19</ele>
        <time>2016-05-03T13:36:02Z</time>
      </trkpt>
      <trkpt lat="45.45402" lon="5.02257">
        <ele>445.23</ele>
        <time>2016-05-03T13:36:09Z</time>
      </trkpt>
      <trkpt lat="45.45401" lon="5.02248">
        <ele>445.71</ele>
        <time>2016-05-03T13:36:14Z</time>
      </trkpt>
      <trkpt lat="45.454" lon="5.02243">
        <ele>445.23</ele>
        <time>2016-05-03T13:36:18Z</time>
      </trkpt>
      <trkpt lat="45.45392" lon="5.02211">
        <ele>444.27</ele>
        <time>2016-05-03T13:36:35Z</time>
      </trkpt>
      <trkpt lat="45.4539" lon="5.02192">
        <ele>444.27</ele>
        <time>2016-05-03T13:36:47Z</time>
      </trkpt>
      <trkpt lat="45.45391" lon="5.02156">
        <ele>444.27</ele>
        <time>2016-05-03T13:37:07Z</time>
      </trkpt>
      <trkpt lat="45.45391" lon="5.02149">
        <ele>445.23</ele>
        <time>2016-05-03T13:37:10Z</time>
      </trkpt>
      <trkpt lat="45.45391" lon="5.02145">
        <ele>444.75</ele>
        <time>2016-05-03T13:37:12Z</time>
      </trkpt>
      <trkpt lat="45.45391" lon="5.02139">
        <ele>443.31</ele>
        <time>2016-05-03T13:37:15Z</time>
      </trkpt>
      <trkpt lat="45.45389" lon="5.02136">
        <ele>444.75</ele>
        <time>2016-05-03T13:37:18Z</time>
      </trkpt>
      <trkpt lat="45.45388" lon="5.02127">
        <ele>444.75</ele>
        <time>2016-05-03T13:37:25Z</time>
      </trkpt>
      <trkpt lat="45.45389" lon="5.0212">
        <ele>444.75</ele>
        <time>2016-05-03T13:37:28Z</time>
      </trkpt>
      <trkpt lat="45.45388" lon="5.02104">
        <ele>445.23</ele>
        <time>2016-05-03T13:37:37Z</time>
      </trkpt>
      <trkpt lat="45.45384" lon="5.02087">
        <ele>444.27</ele>
        <time>2016-05-03T13:37:45Z</time>
      </trkpt>
      <trkpt lat="45.45386" lon="5.02056">
        <ele>444.27</ele>
        <time>2016-05-03T13:38:04Z</time>
      </trkpt>
      <trkpt lat="45.45388" lon="5.02036">
        <ele>443.79</ele>
        <time>2016-05-03T13:38:17Z</time>
      </trkpt>
      <trkpt lat="45.45391" lon="5.02016">
        <ele>443.79</ele>
        <time>2016-05-03T13:38:29Z</time>
      </trkpt>
      <trkpt lat="45.45389" lon="5.02002">
        <ele>442.82</ele>
        <time>2016-05-03T13:38:35Z</time>
      </trkpt>
      <trkpt lat="45.45399" lon="5.01973">
        <ele>441.86</ele>
        <time>2016-05-03T13:38:50Z</time>
      </trkpt>
      <trkpt lat="45.45402" lon="5.01961">
        <ele>442.34</ele>
        <time>2016-05-03T13:38:57Z</time>
      </trkpt>
      <trkpt lat="45.45402" lon="5.01946">
        <ele>442.34</ele>
        <time>2016-05-03T13:39:07Z</time>
      </trkpt>
      <trkpt lat="45.45406" lon="5.01929">
        <ele>442.34</ele>
        <time>2016-05-03T13:39:21Z</time>
      </trkpt>
      <trkpt lat="45.45408" lon="5.01921">
        <ele>442.34</ele>
        <time>2016-05-03T13:39:24Z</time>
      </trkpt>
      <trkpt lat="45.45409" lon="5.01914">
        <ele>442.82</ele>
        <time>2016-05-03T13:39:28Z</time>
      </trkpt>
      <trkpt lat="45.4541" lon="5.01911">
        <ele>442.34</ele>
        <time>2016-05-03T13:39:30Z</time>
      </trkpt>
      <trkpt lat="45.45418" lon="5.01894">
        <ele>441.86</ele>
        <time>2016-05-03T13:39:44Z</time>
      </trkpt>
      <trkpt lat="45.45425" lon="5.01882">
        <ele>442.34</ele>
        <time>2016-05-03T13:39:52Z</time>
      </trkpt>
      <trkpt lat="45.4543" lon="5.01863">
        <ele>442.82</ele>
        <time>2016-05-03T13:40:05Z</time>
      </trkpt>
      <trkpt lat="45.45431" lon="5.01859">
        <ele>442.34</ele>
        <time>2016-05-03T13:40:08Z</time>
      </trkpt>
      <trkpt lat="45.45434" lon="5.01849">
        <ele>442.34</ele>
        <time>2016-05-03T13:40:14Z</time>
      </trkpt>
      <trkpt lat="45.45435" lon="5.01845">
        <ele>442.34</ele>
        <time>2016-05-03T13:40:18Z</time>
      </trkpt>
      <trkpt lat="45.45436" lon="5.01834">
        <ele>442.34</ele>
        <time>2016-05-03T13:40:23Z</time>
      </trkpt>
      <trkpt lat="45.4544" lon="5.01817">
        <ele>441.86</ele>
        <time>2016-05-03T13:40:36Z</time>
      </trkpt>
      <trkpt lat="45.45438" lon="5.01784">
        <ele>441.86</ele>
        <time>2016-05-03T13:40:52Z</time>
      </trkpt>
      <trkpt lat="45.45438" lon="5.0177">
        <ele>440.9</ele>
        <time>2016-05-03T13:40:59Z</time>
      </trkpt>
      <trkpt lat="45.45438" lon="5.01762">
        <ele>441.38</ele>
        <time>2016-05-03T13:41:04Z</time>
      </trkpt>
      <trkpt lat="45.45439" lon="5.01754">
        <ele>441.38</ele>
        <time>2016-05-03T13:41:09Z</time>
      </trkpt>
      <trkpt lat="45.45436" lon="5.01739">
        <ele>441.86</ele>
        <time>2016-05-03T13:41:17Z</time>
      </trkpt>
      <trkpt lat="45.45433" lon="5.01716">
        <ele>441.86</ele>
        <time>2016-05-03T13:41:35Z</time>
      </trkpt>
      <trkpt lat="45.45431" lon="5.01711">
        <ele>441.86</ele>
        <time>2016-05-03T13:41:42Z</time>
      </trkpt>
      <trkpt lat="45.45429" lon="5.01697">
        <ele>441.38</ele>
        <time>2016-05-03T13:41:51Z</time>
      </trkpt>
      <trkpt lat="45.45427" lon="5.01678">
        <ele>441.86</ele>
        <time>2016-05-03T13:42:06Z</time>
      </trkpt>
      <trkpt lat="45.45421" lon="5.0166">
        <ele>442.34</ele>
        <time>2016-05-03T13:42:20Z</time>
      </trkpt>
      <trkpt lat="45.45416" lon="5.01628">
        <ele>443.31</ele>
        <time>2016-05-03T13:42:44Z</time>
      </trkpt>
      <trkpt lat="45.45409" lon="5.01616">
        <ele>443.31</ele>
        <time>2016-05-03T13:42:59Z</time>
      </trkpt>
      <trkpt lat="45.4541" lon="5.01615">
        <ele>444.27</ele>
        <time>2016-05-03T13:43:02Z</time>
      </trkpt>
      <trkpt lat="45.4541" lon="5.01606">
        <ele>443.79</ele>
        <time>2016-05-03T13:43:20Z</time>
      </trkpt>
      <trkpt lat="45.45412" lon="5.01599">
        <ele>444.27</ele>
        <time>2016-05-03T13:43:41Z</time>
      </trkpt>
      <trkpt lat="45.45411" lon="5.0159">
        <ele>444.75</ele>
        <time>2016-05-03T13:43:53Z</time>
      </trkpt>
      <trkpt lat="45.45413" lon="5.01575">
        <ele>445.23</ele>
        <time>2016-05-03T13:43:59Z</time>
      </trkpt>
      <trkpt lat="45.45413" lon="5.01561">
        <ele>445.71</ele>
        <time>2016-05-03T13:44:10Z</time>
      </trkpt>
      <trkpt lat="45.45412" lon="5.01554">
        <ele>445.71</ele>
        <time>2016-05-03T13:44:12Z</time>
      </trkpt>
      <trkpt lat="45.45416" lon="5.0154">
        <ele>447.15</ele>
        <time>2016-05-03T13:44:23Z</time>
      </trkpt>
      <trkpt lat="45.45425" lon="5.01523">
        <ele>448.59</ele>
        <time>2016-05-03T13:44:39Z</time>
      </trkpt>
      <trkpt lat="45.45423" lon="5.0152">
        <ele>448.59</ele>
        <time>2016-05-03T13:44:41Z</time>
      </trkpt>
      <trkpt lat="45.45424" lon="5.0151">
        <ele>448.59</ele>
        <time>2016-05-03T13:44:59Z</time>
      </trkpt>
      <trkpt lat="45.4543" lon="5.01497">
        <ele>448.59</ele>
        <time>2016-05-03T13:45:33Z</time>
      </trkpt>
      <trkpt lat="45.45431" lon="5.01496">
        <ele>448.59</ele>
        <time>2016-05-03T13:45:35Z</time>
      </trkpt>
      <trkpt lat="45.45429" lon="5.01487">
        <ele>448.59</ele>
        <time>2016-05-03T13:45:42Z</time>
      </trkpt>
      <trkpt lat="45.45427" lon="5.01473">
        <ele>448.59</ele>
        <time>2016-05-03T13:45:51Z</time>
      </trkpt>
      <trkpt lat="45.45423" lon="5.01455">
        <ele>447.63</ele>
        <time>2016-05-03T13:45:59Z</time>
      </trkpt>
      <trkpt lat="45.45422" lon="5.01442">
        <ele>447.15</ele>
        <time>2016-05-03T13:46:07Z</time>
      </trkpt>
      <trkpt lat="45.45423" lon="5.01437">
        <ele>447.15</ele>
        <time>2016-05-03T13:46:11Z</time>
      </trkpt>
      <trkpt lat="45.45425" lon="5.01419">
        <ele>445.71</ele>
        <time>2016-05-03T13:46:27Z</time>
      </trkpt>
      <trkpt lat="45.45427" lon="5.01415">
        <ele>446.19</ele>
        <time>2016-05-03T13:46:29Z</time>
      </trkpt>
      <trkpt lat="45.45432" lon="5.01396">
        <ele>446.19</ele>
        <time>2016-05-03T13:46:39Z</time>
      </trkpt>
      <trkpt lat="45.45433" lon="5.01386">
        <ele>445.23</ele>
        <time>2016-05-03T13:46:44Z</time>
      </trkpt>
      <trkpt lat="45.45434" lon="5.01381">
        <ele>445.23</ele>
        <time>2016-05-03T13:46:46Z</time>
      </trkpt>
      <trkpt lat="45.45436" lon="5.01376">
        <ele>444.75</ele>
        <time>2016-05-03T13:46:50Z</time>
      </trkpt>
      <trkpt lat="45.45435" lon="5.01364">
        <ele>444.27</ele>
        <time>2016-05-03T13:46:57Z</time>
      </trkpt>
      <trkpt lat="45.45438" lon="5.01356">
        <ele>444.27</ele>
        <time>2016-05-03T13:47:00Z</time>
      </trkpt>
      <trkpt lat="45.45441" lon="5.01354">
        <ele>444.27</ele>
        <time>2016-05-03T13:47:03Z</time>
      </trkpt>
      <trkpt lat="45.45442" lon="5.01352">
        <ele>444.27</ele>
        <time>2016-05-03T13:47:05Z</time>
      </trkpt>
      <trkpt lat="45.45444" lon="5.01338">
        <ele>444.27</ele>
        <time>2016-05-03T13:47:20Z</time>
      </trkpt>
      <trkpt lat="45.45446" lon="5.01336">
        <ele>444.27</ele>
        <time>2016-05-03T13:47:26Z</time>
      </trkpt>
      <trkpt lat="45.45451" lon="5.01322">
        <ele>443.79</ele>
        <time>2016-05-03T13:47:36Z</time>
      </trkpt>
      <trkpt lat="45.45453" lon="5.01305">
        <ele>443.31</ele>
        <time>2016-05-03T13:47:45Z</time>
      </trkpt>
      <trkpt lat="45.45454" lon="5.01296">
        <ele>443.31</ele>
        <time>2016-05-03T13:47:49Z</time>
      </trkpt>
      <trkpt lat="45.45455" lon="5.01281">
        <ele>443.31</ele>
        <time>2016-05-03T13:48:00Z</time>
      </trkpt>
      <trkpt lat="45.45454" lon="5.01267">
        <ele>443.31</ele>
        <time>2016-05-03T13:48:05Z</time>
      </trkpt>
      <trkpt lat="45.45457" lon="5.01249">
        <ele>443.31</ele>
        <time>2016-05-03T13:48:14Z</time>
      </trkpt>
      <trkpt lat="45.45454" lon="5.01228">
        <ele>442.82</ele>
        <time>2016-05-03T13:48:26Z</time>
      </trkpt>
      <trkpt lat="45.45459" lon="5.01214">
        <ele>442.82</ele>
        <time>2016-05-03T13:48:37Z</time>
      </trkpt>
      <trkpt lat="45.45458" lon="5.012">
        <ele>442.82</ele>
        <time>2016-05-03T13:48:42Z</time>
      </trkpt>
      <trkpt lat="45.4546" lon="5.01193">
        <ele>442.82</ele>
        <time>2016-05-03T13:48:46Z</time>
      </trkpt>
      <trkpt lat="45.4546" lon="5.01185">
        <ele>442.82</ele>
        <time>2016-05-03T13:48:51Z</time>
      </trkpt>
      <trkpt lat="45.4546" lon="5.01168">
        <ele>442.82</ele>
        <time>2016-05-03T13:49:02Z</time>
      </trkpt>
      <trkpt lat="45.45459" lon="5.01157">
        <ele>442.82</ele>
        <time>2016-05-03T13:49:08Z</time>
      </trkpt>
      <trkpt lat="45.45459" lon="5.01154">
        <ele>442.82</ele>
        <time>2016-05-03T13:49:10Z</time>
      </trkpt>
      <trkpt lat="45.45465" lon="5.01139">
        <ele>442.82</ele>
        <time>2016-05-03T13:49:21Z</time>
      </trkpt>
      <trkpt lat="45.45457" lon="5.01117">
        <ele>441.86</ele>
        <time>2016-05-03T13:49:33Z</time>
      </trkpt>
      <trkpt lat="45.45458" lon="5.01088">
        <ele>441.38</ele>
        <time>2016-05-03T13:49:50Z</time>
      </trkpt>
      <trkpt lat="45.4546" lon="5.01084">
        <ele>440.9</ele>
        <time>2016-05-03T13:49:55Z</time>
      </trkpt>
      <trkpt lat="45.45466" lon="5.01059">
        <ele>440.9</ele>
        <time>2016-05-03T13:50:09Z</time>
      </trkpt>
      <trkpt lat="45.45476" lon="5.01035">
        <ele>440.42</ele>
        <time>2016-05-03T13:50:28Z</time>
      </trkpt>
      <trkpt lat="45.45475" lon="5.01028">
        <ele>440.42</ele>
        <time>2016-05-03T13:50:34Z</time>
      </trkpt>
      <trkpt lat="45.45478" lon="5.0102">
        <ele>440.42</ele>
        <time>2016-05-03T13:50:40Z</time>
      </trkpt>
      <trkpt lat="45.45479" lon="5.0101">
        <ele>440.42</ele>
        <time>2016-05-03T13:50:47Z</time>
      </trkpt>
      <trkpt lat="45.45485" lon="5.01003">
        <ele>440.42</ele>
        <time>2016-05-03T13:50:53Z</time>
      </trkpt>
      <trkpt lat="45.45487" lon="5.00994">
        <ele>440.42</ele>
        <time>2016-05-03T13:50:57Z</time>
      </trkpt>
      <trkpt lat="45.45489" lon="5.00991">
        <ele>439.94</ele>
        <time>2016-05-03T13:50:59Z</time>
      </trkpt>
      <trkpt lat="45.4549" lon="5.00984">
        <ele>439.94</ele>
        <time>2016-05-03T13:51:04Z</time>
      </trkpt>
      <trkpt lat="45.45496" lon="5.00951">
        <ele>440.42</ele>
        <time>2016-05-03T13:51:25Z</time>
      </trkpt>
      <trkpt lat="45.45498" lon="5.00946">
        <ele>440.42</ele>
        <time>2016-05-03T13:51:27Z</time>
      </trkpt>
      <trkpt lat="45.45505" lon="5.00928">
        <ele>440.42</ele>
        <time>2016-05-03T13:51:38Z</time>
      </trkpt>
      <trkpt lat="45.45509" lon="5.0092">
        <ele>440.42</ele>
        <time>2016-05-03T13:51:44Z</time>
      </trkpt>
      <trkpt lat="45.45509" lon="5.00912">
        <ele>440.42</ele>
        <time>2016-05-03T13:51:49Z</time>
      </trkpt>
      <trkpt lat="45.45509" lon="5.00907">
        <ele>440.9</ele>
        <time>2016-05-03T13:51:52Z</time>
      </trkpt>
      <trkpt lat="45.45514" lon="5.00892">
        <ele>440.42</ele>
        <time>2016-05-03T13:52:02Z</time>
      </trkpt>
      <trkpt lat="45.4552" lon="5.00871">
        <ele>441.38</ele>
        <time>2016-05-03T13:52:16Z</time>
      </trkpt>
      <trkpt lat="45.45523" lon="5.00858">
        <ele>441.38</ele>
        <time>2016-05-03T13:52:22Z</time>
      </trkpt>
      <trkpt lat="45.45524" lon="5.00848">
        <ele>440.9</ele>
        <time>2016-05-03T13:52:27Z</time>
      </trkpt>
      <trkpt lat="45.45533" lon="5.00828">
        <ele>440.9</ele>
        <time>2016-05-03T13:52:42Z</time>
      </trkpt>
      <trkpt lat="45.45533" lon="5.00827">
        <ele>440.9</ele>
        <time>2016-05-03T13:52:43Z</time>
      </trkpt>
      <trkpt lat="45.45535" lon="5.00822">
        <ele>440.9</ele>
        <time>2016-05-03T13:52:47Z</time>
      </trkpt>
      <trkpt lat="45.45542" lon="5.00804">
        <ele>440.42</ele>
        <time>2016-05-03T13:53:02Z</time>
      </trkpt>
      <trkpt lat="45.45542" lon="5.00791">
        <ele>440.42</ele>
        <time>2016-05-03T13:53:10Z</time>
      </trkpt>
      <trkpt lat="45.45546" lon="5.0078">
        <ele>439.94</ele>
        <time>2016-05-03T13:53:16Z</time>
      </trkpt>
      <trkpt lat="45.45548" lon="5.00774">
        <ele>439.94</ele>
        <time>2016-05-03T13:53:19Z</time>
      </trkpt>
      <trkpt lat="45.45556" lon="5.00758">
        <ele>439.94</ele>
        <time>2016-05-03T13:53:29Z</time>
      </trkpt>
      <trkpt lat="45.45558" lon="5.00755">
        <ele>439.94</ele>
        <time>2016-05-03T13:53:32Z</time>
      </trkpt>
      <trkpt lat="45.45561" lon="5.00749">
        <ele>439.46</ele>
        <time>2016-05-03T13:53:36Z</time>
      </trkpt>
      <trkpt lat="45.45565" lon="5.00744">
        <ele>439.46</ele>
        <time>2016-05-03T13:53:41Z</time>
      </trkpt>
      <trkpt lat="45.45566" lon="5.00736">
        <ele>438.98</ele>
        <time>2016-05-03T13:53:46Z</time>
      </trkpt>
      <trkpt lat="45.45571" lon="5.00719">
        <ele>439.94</ele>
        <time>2016-05-03T13:53:56Z</time>
      </trkpt>
      <trkpt lat="45.45576" lon="5.00708">
        <ele>438.98</ele>
        <time>2016-05-03T13:54:02Z</time>
      </trkpt>
      <trkpt lat="45.45578" lon="5.00697">
        <ele>438.5</ele>
        <time>2016-05-03T13:54:09Z</time>
      </trkpt>
      <trkpt lat="45.45581" lon="5.00689">
        <ele>439.46</ele>
        <time>2016-05-03T13:54:14Z</time>
      </trkpt>
      <trkpt lat="45.45585" lon="5.00679">
        <ele>438.5</ele>
        <time>2016-05-03T13:54:21Z</time>
      </trkpt>
      <trkpt lat="45.45586" lon="5.00676">
        <ele>438.5</ele>
        <time>2016-05-03T13:54:24Z</time>
      </trkpt>
      <trkpt lat="45.45591" lon="5.0066">
        <ele>438.02</ele>
        <time>2016-05-03T13:54:37Z</time>
      </trkpt>
      <trkpt lat="45.45593" lon="5.00652">
        <ele>438.02</ele>
        <time>2016-05-03T13:54:41Z</time>
      </trkpt>
      <trkpt lat="45.45599" lon="5.00642">
        <ele>437.54</ele>
        <time>2016-05-03T13:54:49Z</time>
      </trkpt>
      <trkpt lat="45.45605" lon="5.00634">
        <ele>436.58</ele>
        <time>2016-05-03T13:54:55Z</time>
      </trkpt>
      <trkpt lat="45.45611" lon="5.00618">
        <ele>437.06</ele>
        <time>2016-05-03T13:55:15Z</time>
      </trkpt>
      <trkpt lat="45.45622" lon="5.00601">
        <ele>435.61</ele>
        <time>2016-05-03T13:55:31Z</time>
      </trkpt>
      <trkpt lat="45.4562" lon="5.00597">
        <ele>435.61</ele>
        <time>2016-05-03T13:55:36Z</time>
      </trkpt>
      <trkpt lat="45.45634" lon="5.00575">
        <ele>434.17</ele>
        <time>2016-05-03T13:55:51Z</time>
      </trkpt>
      <trkpt lat="45.45643" lon="5.00559">
        <ele>433.21</ele>
        <time>2016-05-03T13:56:05Z</time>
      </trkpt>
      <trkpt lat="45.45657" lon="5.0054">
        <ele>432.25</ele>
        <time>2016-05-03T13:56:19Z</time>
      </trkpt>
      <trkpt lat="45.45674" lon="5.00515">
        <ele>431.77</ele>
        <time>2016-05-03T13:56:39Z</time>
      </trkpt>
      <trkpt lat="45.45677" lon="5.00514">
        <ele>431.29</ele>
        <time>2016-05-03T13:56:43Z</time>
      </trkpt>
      <trkpt lat="45.45694" lon="5.00497">
        <ele>431.29</ele>
        <time>2016-05-03T13:56:58Z</time>
      </trkpt>
      <trkpt lat="45.45711" lon="5.00485">
        <ele>430.81</ele>
        <time>2016-05-03T13:57:18Z</time>
      </trkpt>
      <trkpt lat="45.45728" lon="5.00469">
        <ele>430.33</ele>
        <time>2016-05-03T13:57:34Z</time>
      </trkpt>
      <trkpt lat="45.45743" lon="5.00456">
        <ele>430.33</ele>
        <time>2016-05-03T13:57:45Z</time>
      </trkpt>
      <trkpt lat="45.45744" lon="5.00451">
        <ele>430.33</ele>
        <time>2016-05-03T13:57:48Z</time>
      </trkpt>
      <trkpt lat="45.45743" lon="5.0044">
        <ele>430.81</ele>
        <time>2016-05-03T13:57:55Z</time>
      </trkpt>
      <trkpt lat="45.45747" lon="5.00434">
        <ele>430.81</ele>
        <time>2016-05-03T13:58:02Z</time>
      </trkpt>
      <trkpt lat="45.45748" lon="5.00432">
        <ele>431.29</ele>
        <time>2016-05-03T13:58:09Z</time>
      </trkpt>
      <trkpt lat="45.45747" lon="5.00432">
        <ele>430.81</ele>
        <time>2016-05-03T13:58:35Z</time>
      </trkpt>
      <trkpt lat="45.45749" lon="5.00431">
        <ele>431.29</ele>
        <time>2016-05-03T13:58:55Z</time>
      </trkpt>
      <trkpt lat="45.45749" lon="5.0043">
        <ele>429.85</ele>
        <time>2016-05-03T13:59:16Z</time>
      </trkpt>
      <trkpt lat="45.45748" lon="5.00425">
        <ele>430.81</ele>
        <time>2016-05-03T13:59:19Z</time>
      </trkpt>
      <trkpt lat="45.4576" lon="5.00416">
        <ele>431.77</ele>
        <time>2016-05-03T13:59:32Z</time>
      </trkpt>
      <trkpt lat="45.45762" lon="5.00413">
        <ele>431.77</ele>
        <time>2016-05-03T13:59:36Z</time>
      </trkpt>
      <trkpt lat="45.45766" lon="5.00405">
        <ele>432.73</ele>
        <time>2016-05-03T13:59:47Z</time>
      </trkpt>
      <trkpt lat="45.45767" lon="5.00404">
        <ele>432.73</ele>
        <time>2016-05-03T13:59:49Z</time>
      </trkpt>
      <trkpt lat="45.45779" lon="5.00386">
        <ele>434.17</ele>
        <time>2016-05-03T14:00:01Z</time>
      </trkpt>
      <trkpt lat="45.4578" lon="5.00385">
        <ele>434.17</ele>
        <time>2016-05-03T14:00:02Z</time>
      </trkpt>
      <trkpt lat="45.45784" lon="5.00357">
        <ele>434.65</ele>
        <time>2016-05-03T14:00:18Z</time>
      </trkpt>
      <trkpt lat="45.45784" lon="5.00354">
        <ele>435.13</ele>
        <time>2016-05-03T14:00:20Z</time>
      </trkpt>
      <trkpt lat="45.45794" lon="5.00339">
        <ele>435.61</ele>
        <time>2016-05-03T14:00:33Z</time>
      </trkpt>
      <trkpt lat="45.45805" lon="5.00322">
        <ele>435.61</ele>
        <time>2016-05-03T14:00:46Z</time>
      </trkpt>
      <trkpt lat="45.45809" lon="5.00316">
        <ele>435.61</ele>
        <time>2016-05-03T14:00:52Z</time>
      </trkpt>
      <trkpt lat="45.4581" lon="5.00316">
        <ele>436.58</ele>
        <time>2016-05-03T14:00:54Z</time>
      </trkpt>
      <trkpt lat="45.45824" lon="5.00291">
        <ele>436.1</ele>
        <time>2016-05-03T14:01:13Z</time>
      </trkpt>
      <trkpt lat="45.4583" lon="5.00275">
        <ele>435.61</ele>
        <time>2016-05-03T14:01:24Z</time>
      </trkpt>
      <trkpt lat="45.45849" lon="5.00228">
        <ele>434.65</ele>
        <time>2016-05-03T14:01:54Z</time>
      </trkpt>
      <trkpt lat="45.45855" lon="5.00208">
        <ele>434.17</ele>
        <time>2016-05-03T14:02:12Z</time>
      </trkpt>
      <trkpt lat="45.45857" lon="5.00192">
        <ele>434.17</ele>
        <time>2016-05-03T14:02:22Z</time>
      </trkpt>
      <trkpt lat="45.45862" lon="5.00172">
        <ele>433.69</ele>
        <time>2016-05-03T14:02:37Z</time>
      </trkpt>
      <trkpt lat="45.4587" lon="5.0016">
        <ele>434.17</ele>
        <time>2016-05-03T14:02:44Z</time>
      </trkpt>
      <trkpt lat="45.45882" lon="5.00139">
        <ele>432.73</ele>
        <time>2016-05-03T14:03:00Z</time>
      </trkpt>
      <trkpt lat="45.45884" lon="5.00137">
        <ele>432.73</ele>
        <time>2016-05-03T14:03:02Z</time>
      </trkpt>
      <trkpt lat="45.45898" lon="5.00121">
        <ele>430.81</ele>
        <time>2016-05-03T14:03:21Z</time>
      </trkpt>
      <trkpt lat="45.45901" lon="5.00119">
        <ele>430.81</ele>
        <time>2016-05-03T14:03:24Z</time>
      </trkpt>
      <trkpt lat="45.45923" lon="5.00107">
        <ele>427.92</ele>
        <time>2016-05-03T14:03:41Z</time>
      </trkpt>
      <trkpt lat="45.45941" lon="5.00102">
        <ele>427.44</ele>
        <time>2016-05-03T14:03:55Z</time>
      </trkpt>
      <trkpt lat="45.45951" lon="5.00099">
        <ele>426</ele>
        <time>2016-05-03T14:04:12Z</time>
      </trkpt>
      <trkpt lat="45.4596" lon="5.00096">
        <ele>425.52</ele>
        <time>2016-05-03T14:04:29Z</time>
      </trkpt>
      <trkpt lat="45.45959" lon="5.00095">
        <ele>425.04</ele>
        <time>2016-05-03T14:05:00Z</time>
      </trkpt>
      <trkpt lat="45.45969" lon="5.00095">
        <ele>424.56</ele>
        <time>2016-05-03T14:05:24Z</time>
      </trkpt>
      <trkpt lat="45.45981" lon="5.00093">
        <ele>424.56</ele>
        <time>2016-05-03T14:05:34Z</time>
      </trkpt>
      <trkpt lat="45.45983" lon="5.00092">
        <ele>423.6</ele>
        <time>2016-05-03T14:05:37Z</time>
      </trkpt>
      <trkpt lat="45.45976" lon="5.0008">
        <ele>421.19</ele>
        <time>2016-05-03T14:13:15Z</time>
      </trkpt>
      <trkpt lat="45.45964" lon="5.00066">
        <ele>423.12</ele>
        <time>2016-05-03T14:13:37Z</time>
      </trkpt>
      <trkpt lat="45.45954" lon="5.00053">
        <ele>424.08</ele>
        <time>2016-05-03T14:13:58Z</time>
      </trkpt>
      <trkpt lat="45.45948" lon="5.00044">
        <ele>424.56</ele>
        <time>2016-05-03T14:14:14Z</time>
      </trkpt>
      <trkpt lat="45.45934" lon="5.00032">
        <ele>426</ele>
        <time>2016-05-03T14:14:32Z</time>
      </trkpt>
      <trkpt lat="45.45926" lon="5.0002">
        <ele>426.48</ele>
        <time>2016-05-03T14:14:48Z</time>
      </trkpt>
      <trkpt lat="45.45924" lon="5.00019">
        <ele>426</ele>
        <time>2016-05-03T14:14:51Z</time>
      </trkpt>
      <trkpt lat="45.45915" lon="5.00016">
        <ele>425.04</ele>
        <time>2016-05-03T14:15:13Z</time>
      </trkpt>
      <trkpt lat="45.4591" lon="5.00012">
        <ele>426</ele>
        <time>2016-05-03T14:15:28Z</time>
      </trkpt>
      <trkpt lat="45.45888" lon="4.99992">
        <ele>425.04</ele>
        <time>2016-05-03T14:15:52Z</time>
      </trkpt>
      <trkpt lat="45.4588" lon="4.99987">
        <ele>425.04</ele>
        <time>2016-05-03T14:16:00Z</time>
      </trkpt>
      <trkpt lat="45.45877" lon="4.99984">
        <ele>425.04</ele>
        <time>2016-05-03T14:16:04Z</time>
      </trkpt>
      <trkpt lat="45.45873" lon="4.99982">
        <ele>424.56</ele>
        <time>2016-05-03T14:16:08Z</time>
      </trkpt>
      <trkpt lat="45.45858" lon="4.99975">
        <ele>425.04</ele>
        <time>2016-05-03T14:16:23Z</time>
      </trkpt>
      <trkpt lat="45.45857" lon="4.99971">
        <ele>424.56</ele>
        <time>2016-05-03T14:16:25Z</time>
      </trkpt>
      <trkpt lat="45.45854" lon="4.99968">
        <ele>426</ele>
        <time>2016-05-03T14:16:28Z</time>
      </trkpt>
      <trkpt lat="45.45849" lon="4.99963">
        <ele>424.56</ele>
        <time>2016-05-03T14:16:33Z</time>
      </trkpt>
      <trkpt lat="45.45845" lon="4.99961">
        <ele>425.04</ele>
        <time>2016-05-03T14:16:37Z</time>
      </trkpt>
      <trkpt lat="45.45818" lon="4.99949">
        <ele>427.92</ele>
        <time>2016-05-03T14:17:04Z</time>
      </trkpt>
      <trkpt lat="45.45802" lon="4.99937">
        <ele>428.4</ele>
        <time>2016-05-03T14:17:21Z</time>
      </trkpt>
      <trkpt lat="45.45799" lon="4.99934">
        <ele>428.4</ele>
        <time>2016-05-03T14:17:25Z</time>
      </trkpt>
      <trkpt lat="45.45778" lon="4.99907">
        <ele>429.85</ele>
        <time>2016-05-03T14:17:49Z</time>
      </trkpt>
      <trkpt lat="45.45771" lon="4.99883">
        <ele>430.33</ele>
        <time>2016-05-03T14:18:05Z</time>
      </trkpt>
      <trkpt lat="45.45767" lon="4.99865">
        <ele>430.33</ele>
        <time>2016-05-03T14:18:20Z</time>
      </trkpt>
      <trkpt lat="45.45765" lon="4.99837">
        <ele>430.33</ele>
        <time>2016-05-03T14:18:38Z</time>
      </trkpt>
      <trkpt lat="45.45762" lon="4.99828">
        <ele>430.81</ele>
        <time>2016-05-03T14:18:42Z</time>
      </trkpt>
      <trkpt lat="45.45755" lon="4.99797">
        <ele>430.33</ele>
        <time>2016-05-03T14:19:01Z</time>
      </trkpt>
      <trkpt lat="45.45755" lon="4.99791">
        <ele>430.33</ele>
        <time>2016-05-03T14:19:05Z</time>
      </trkpt>
      <trkpt lat="45.45754" lon="4.99784">
        <ele>430.33</ele>
        <time>2016-05-03T14:19:10Z</time>
      </trkpt>
      <trkpt lat="45.45751" lon="4.99776">
        <ele>430.33</ele>
        <time>2016-05-03T14:19:32Z</time>
      </trkpt>
      <trkpt lat="45.45751" lon="4.99756">
        <ele>430.33</ele>
        <time>2016-05-03T14:19:51Z</time>
      </trkpt>
      <trkpt lat="45.45752" lon="4.99725">
        <ele>430.33</ele>
        <time>2016-05-03T14:20:09Z</time>
      </trkpt>
      <trkpt lat="45.45752" lon="4.99717">
        <ele>430.33</ele>
        <time>2016-05-03T14:20:29Z</time>
      </trkpt>
      <trkpt lat="45.45752" lon="4.99711">
        <ele>429.85</ele>
        <time>2016-05-03T14:20:44Z</time>
      </trkpt>
      <trkpt lat="45.45752" lon="4.99703">
        <ele>429.85</ele>
        <time>2016-05-03T14:20:48Z</time>
      </trkpt>
      <trkpt lat="45.45755" lon="4.99699">
        <ele>429.85</ele>
        <time>2016-05-03T14:20:51Z</time>
      </trkpt>
      <trkpt lat="45.45753" lon="4.99663">
        <ele>429.37</ele>
        <time>2016-05-03T14:21:13Z</time>
      </trkpt>
      <trkpt lat="45.45752" lon="4.99657">
        <ele>429.37</ele>
        <time>2016-05-03T14:21:18Z</time>
      </trkpt>
      <trkpt lat="45.45749" lon="4.99646">
        <ele>429.85</ele>
        <time>2016-05-03T14:21:27Z</time>
      </trkpt>
      <trkpt lat="45.4575" lon="4.99643">
        <ele>429.37</ele>
        <time>2016-05-03T14:21:29Z</time>
      </trkpt>
      <trkpt lat="45.45753" lon="4.99638">
        <ele>429.85</ele>
        <time>2016-05-03T14:21:31Z</time>
      </trkpt>
      <trkpt lat="45.45753" lon="4.99615">
        <ele>429.85</ele>
        <time>2016-05-03T14:21:45Z</time>
      </trkpt>
      <trkpt lat="45.45753" lon="4.99608">
        <ele>429.85</ele>
        <time>2016-05-03T14:21:49Z</time>
      </trkpt>
      <trkpt lat="45.45755" lon="4.99587">
        <ele>429.85</ele>
        <time>2016-05-03T14:22:04Z</time>
      </trkpt>
      <trkpt lat="45.45746" lon="4.99572">
        <ele>429.37</ele>
        <time>2016-05-03T14:22:13Z</time>
      </trkpt>
      <trkpt lat="45.45746" lon="4.99568">
        <ele>429.85</ele>
        <time>2016-05-03T14:22:15Z</time>
      </trkpt>
      <trkpt lat="45.45738" lon="4.99554">
        <ele>430.33</ele>
        <time>2016-05-03T14:22:24Z</time>
      </trkpt>
      <trkpt lat="45.45736" lon="4.99552">
        <ele>430.33</ele>
        <time>2016-05-03T14:22:26Z</time>
      </trkpt>
      <trkpt lat="45.45725" lon="4.99524">
        <ele>430.81</ele>
        <time>2016-05-03T14:22:44Z</time>
      </trkpt>
      <trkpt lat="45.4572" lon="4.99516">
        <ele>430.81</ele>
        <time>2016-05-03T14:22:51Z</time>
      </trkpt>
      <trkpt lat="45.45719" lon="4.99495">
        <ele>430.81</ele>
        <time>2016-05-03T14:23:09Z</time>
      </trkpt>
      <trkpt lat="45.45718" lon="4.99485">
        <ele>430.81</ele>
        <time>2016-05-03T14:23:21Z</time>
      </trkpt>
      <trkpt lat="45.45711" lon="4.99469">
        <ele>430.81</ele>
        <time>2016-05-03T14:23:34Z</time>
      </trkpt>
      <trkpt lat="45.45711" lon="4.99463">
        <ele>430.33</ele>
        <time>2016-05-03T14:23:38Z</time>
      </trkpt>
      <trkpt lat="45.4571" lon="4.9944">
        <ele>430.81</ele>
        <time>2016-05-03T14:23:53Z</time>
      </trkpt>
      <trkpt lat="45.45708" lon="4.99424">
        <ele>430.33</ele>
        <time>2016-05-03T14:24:04Z</time>
      </trkpt>
      <trkpt lat="45.45718" lon="4.99397">
        <ele>429.85</ele>
        <time>2016-05-03T14:24:25Z</time>
      </trkpt>
      <trkpt lat="45.45716" lon="4.99383">
        <ele>430.33</ele>
        <time>2016-05-03T14:24:34Z</time>
      </trkpt>
      <trkpt lat="45.4572" lon="4.99352">
        <ele>429.85</ele>
        <time>2016-05-03T14:24:55Z</time>
      </trkpt>
      <trkpt lat="45.4572" lon="4.99332">
        <ele>430.33</ele>
        <time>2016-05-03T14:25:08Z</time>
      </trkpt>
      <trkpt lat="45.45721" lon="4.99328">
        <ele>430.33</ele>
        <time>2016-05-03T14:25:10Z</time>
      </trkpt>
      <trkpt lat="45.45718" lon="4.99316">
        <ele>430.81</ele>
        <time>2016-05-03T14:25:29Z</time>
      </trkpt>
      <trkpt lat="45.45714" lon="4.99311">
        <ele>429.85</ele>
        <time>2016-05-03T14:25:35Z</time>
      </trkpt>
      <trkpt lat="45.45717" lon="4.99258">
        <ele>428.9375</ele>
        <time>2016-05-03T14:36:09Z</time>
      </trkpt>
      <trkpt lat="45.4572" lon="4.99234">
        <ele>428.637512</ele>
        <time>2016-05-03T14:36:10Z</time>
      </trkpt>
      <trkpt lat="45.45721" lon="4.99216">
        <ele>428.362518</ele>
        <time>2016-05-03T14:36:17Z</time>
      </trkpt>
      <trkpt lat="45.45724" lon="4.99191">
        <ele>428.196381</ele>
        <time>2016-05-03T14:36:32Z</time>
      </trkpt>
      <trkpt lat="45.45724" lon="4.99172">
        <ele>431.77</ele>
        <time>2016-05-03T14:36:38Z</time>
      </trkpt>
      <trkpt lat="45.45716" lon="4.99151">
        <ele>432.25</ele>
        <time>2016-05-03T14:36:49Z</time>
      </trkpt>
      <trkpt lat="45.45706" lon="4.99142">
        <ele>431.77</ele>
        <time>2016-05-03T14:37:03Z</time>
      </trkpt>
      <trkpt lat="45.45704" lon="4.9914">
        <ele>431.29</ele>
        <time>2016-05-03T14:37:07Z</time>
      </trkpt>
      <trkpt lat="45.45703" lon="4.99133">
        <ele>431.77</ele>
        <time>2016-05-03T14:37:11Z</time>
      </trkpt>
      <trkpt lat="45.45701" lon="4.9913">
        <ele>431.77</ele>
        <time>2016-05-03T14:37:28Z</time>
      </trkpt>
      <trkpt lat="45.45701" lon="4.99128">
        <ele>431.77</ele>
        <time>2016-05-03T14:37:30Z</time>
      </trkpt>
      <trkpt lat="45.45694" lon="4.99113">
        <ele>431.77</ele>
        <time>2016-05-03T14:37:40Z</time>
      </trkpt>
      <trkpt lat="45.45672" lon="4.99097">
        <ele>431.77</ele>
        <time>2016-05-03T14:37:59Z</time>
      </trkpt>
      <trkpt lat="45.45653" lon="4.99085">
        <ele>431.29</ele>
        <time>2016-05-03T14:38:19Z</time>
      </trkpt>
      <trkpt lat="45.45635" lon="4.99066">
        <ele>431.29</ele>
        <time>2016-05-03T14:38:41Z</time>
      </trkpt>
      <trkpt lat="45.45633" lon="4.99047">
        <ele>429.37</ele>
        <time>2016-05-03T14:39:05Z</time>
      </trkpt>
      <trkpt lat="45.45628" lon="4.99029">
        <ele>429.37</ele>
        <time>2016-05-03T14:39:19Z</time>
      </trkpt>
      <trkpt lat="45.45626" lon="4.9901">
        <ele>427.92</ele>
        <time>2016-05-03T14:39:30Z</time>
      </trkpt>
      <trkpt lat="45.45618" lon="4.9898">
        <ele>426.96</ele>
        <time>2016-05-03T14:39:47Z</time>
      </trkpt>
      <trkpt lat="45.45618" lon="4.98956">
        <ele>426.96</ele>
        <time>2016-05-03T14:39:58Z</time>
      </trkpt>
      <trkpt lat="45.45619" lon="4.98947">
        <ele>426</ele>
        <time>2016-05-03T14:40:04Z</time>
      </trkpt>
      <trkpt lat="45.45616" lon="4.98922">
        <ele>424.08</ele>
        <time>2016-05-03T14:40:19Z</time>
      </trkpt>
      <trkpt lat="45.45616" lon="4.98919">
        <ele>424.56</ele>
        <time>2016-05-03T14:40:21Z</time>
      </trkpt>
      <trkpt lat="45.45617" lon="4.98895">
        <ele>422.64</ele>
        <time>2016-05-03T14:40:46Z</time>
      </trkpt>
      <trkpt lat="45.45621" lon="4.98888">
        <ele>422.64</ele>
        <time>2016-05-03T14:40:53Z</time>
      </trkpt>
      <trkpt lat="45.45621" lon="4.98884">
        <ele>422.16</ele>
        <time>2016-05-03T14:40:55Z</time>
      </trkpt>
      <trkpt lat="45.45624" lon="4.9887">
        <ele>422.16</ele>
        <time>2016-05-03T14:41:04Z</time>
      </trkpt>
      <trkpt lat="45.45627" lon="4.98863">
        <ele>422.16</ele>
        <time>2016-05-03T14:41:08Z</time>
      </trkpt>
      <trkpt lat="45.45628" lon="4.9886">
        <ele>421.68</ele>
        <time>2016-05-03T14:41:10Z</time>
      </trkpt>
      <trkpt lat="45.4563" lon="4.98819">
        <ele>420.71</ele>
        <time>2016-05-03T14:41:34Z</time>
      </trkpt>
      <trkpt lat="45.45636" lon="4.98799">
        <ele>420.23</ele>
        <time>2016-05-03T14:41:45Z</time>
      </trkpt>
      <trkpt lat="45.45641" lon="4.98784">
        <ele>419.27</ele>
        <time>2016-05-03T14:41:56Z</time>
      </trkpt>
      <trkpt lat="45.45643" lon="4.98769">
        <ele>420.71</ele>
        <time>2016-05-03T14:42:08Z</time>
      </trkpt>
      <trkpt lat="45.45647" lon="4.98758">
        <ele>419.75</ele>
        <time>2016-05-03T14:42:15Z</time>
      </trkpt>
      <trkpt lat="45.45648" lon="4.98754">
        <ele>420.23</ele>
        <time>2016-05-03T14:42:18Z</time>
      </trkpt>
      <trkpt lat="45.45652" lon="4.98724">
        <ele>419.75</ele>
        <time>2016-05-03T14:42:37Z</time>
      </trkpt>
      <trkpt lat="45.45653" lon="4.98722">
        <ele>419.75</ele>
        <time>2016-05-03T14:42:38Z</time>
      </trkpt>
      <trkpt lat="45.45656" lon="4.98707">
        <ele>419.75</ele>
        <time>2016-05-03T14:42:47Z</time>
      </trkpt>
      <trkpt lat="45.45663" lon="4.98677">
        <ele>420.23</ele>
        <time>2016-05-03T14:43:06Z</time>
      </trkpt>
      <trkpt lat="45.45664" lon="4.98674">
        <ele>420.23</ele>
        <time>2016-05-03T14:43:08Z</time>
      </trkpt>
      <trkpt lat="45.45665" lon="4.98669">
        <ele>420.23</ele>
        <time>2016-05-03T14:43:11Z</time>
      </trkpt>
      <trkpt lat="45.45669" lon="4.98662">
        <ele>420.71</ele>
        <time>2016-05-03T14:43:16Z</time>
      </trkpt>
      <trkpt lat="45.45688" lon="4.98635">
        <ele>423.6</ele>
        <time>2016-05-03T14:43:41Z</time>
      </trkpt>
      <trkpt lat="45.45703" lon="4.98619">
        <ele>425.04</ele>
        <time>2016-05-03T14:43:58Z</time>
      </trkpt>
      <trkpt lat="45.45706" lon="4.98615">
        <ele>425.04</ele>
        <time>2016-05-03T14:44:02Z</time>
      </trkpt>
      <trkpt lat="45.45708" lon="4.9861">
        <ele>425.04</ele>
        <time>2016-05-03T14:44:06Z</time>
      </trkpt>
      <trkpt lat="45.45715" lon="4.98597">
        <ele>426.48</ele>
        <time>2016-05-03T14:44:16Z</time>
      </trkpt>
      <trkpt lat="45.4572" lon="4.98592">
        <ele>426.96</ele>
        <time>2016-05-03T14:44:22Z</time>
      </trkpt>
      <trkpt lat="45.45736" lon="4.98564">
        <ele>427.92</ele>
        <time>2016-05-03T14:44:44Z</time>
      </trkpt>
      <trkpt lat="45.45741" lon="4.98544">
        <ele>429.85</ele>
        <time>2016-05-03T14:44:57Z</time>
      </trkpt>
      <trkpt lat="45.45742" lon="4.98539">
        <ele>430.81</ele>
        <time>2016-05-03T14:45:01Z</time>
      </trkpt>
      <trkpt lat="45.45744" lon="4.98531">
        <ele>429.85</ele>
        <time>2016-05-03T14:45:11Z</time>
      </trkpt>
      <trkpt lat="45.45746" lon="4.98524">
        <ele>429.85</ele>
        <time>2016-05-03T14:45:16Z</time>
      </trkpt>
      <trkpt lat="45.45752" lon="4.98518">
        <ele>429.85</ele>
        <time>2016-05-03T14:45:21Z</time>
      </trkpt>
      <trkpt lat="45.45755" lon="4.98513">
        <ele>429.85</ele>
        <time>2016-05-03T14:45:24Z</time>
      </trkpt>
      <trkpt lat="45.45764" lon="4.98498">
        <ele>430.33</ele>
        <time>2016-05-03T14:45:35Z</time>
      </trkpt>
      <trkpt lat="45.45766" lon="4.98492">
        <ele>430.33</ele>
        <time>2016-05-03T14:45:41Z</time>
      </trkpt>
      <trkpt lat="45.45768" lon="4.98484">
        <ele>430.33</ele>
        <time>2016-05-03T14:45:47Z</time>
      </trkpt>
      <trkpt lat="45.45769" lon="4.9846">
        <ele>430.81</ele>
        <time>2016-05-03T14:46:04Z</time>
      </trkpt>
      <trkpt lat="45.45777" lon="4.98427">
        <ele>430.33</ele>
        <time>2016-05-03T14:46:24Z</time>
      </trkpt>
      <trkpt lat="45.45783" lon="4.98399">
        <ele>430.33</ele>
        <time>2016-05-03T14:46:44Z</time>
      </trkpt>
      <trkpt lat="45.45784" lon="4.98365">
        <ele>429.85</ele>
        <time>2016-05-03T14:47:06Z</time>
      </trkpt>
      <trkpt lat="45.45789" lon="4.98339">
        <ele>437.98645</ele>
        <time>2016-05-04T08:34:18Z</time>
      </trkpt>
      <trkpt lat="45.4577" lon="4.9833">
        <ele>438.497894</ele>
        <time>2016-05-04T08:34:23Z</time>
      </trkpt>
      <trkpt lat="45.4575" lon="4.98321">
        <ele>424.08</ele>
        <time>2016-05-04T08:34:26Z</time>
      </trkpt>
      <trkpt lat="45.45749" lon="4.98321">
        <ele>424.56</ele>
        <time>2016-05-04T08:34:28Z</time>
      </trkpt>
      <trkpt lat="45.4574" lon="4.98316">
        <ele>428.4</ele>
        <time>2016-05-04T08:34:36Z</time>
      </trkpt>
      <trkpt lat="45.45732" lon="4.98311">
        <ele>431.77</ele>
        <time>2016-05-04T08:34:45Z</time>
      </trkpt>
      <trkpt lat="45.45718" lon="4.98304">
        <ele>434.65</ele>
        <time>2016-05-04T08:34:57Z</time>
      </trkpt>
      <trkpt lat="45.45696" lon="4.98286">
        <ele>436.58</ele>
        <time>2016-05-04T08:35:23Z</time>
      </trkpt>
      <trkpt lat="45.45684" lon="4.9827">
        <ele>439.94</ele>
        <time>2016-05-04T08:35:40Z</time>
      </trkpt>
      <trkpt lat="45.45674" lon="4.98253">
        <ele>441.86</ele>
        <time>2016-05-04T08:35:58Z</time>
      </trkpt>
      <trkpt lat="45.45663" lon="4.98231">
        <ele>443.31</ele>
        <time>2016-05-04T08:36:31Z</time>
      </trkpt>
      <trkpt lat="45.45655" lon="4.98215">
        <ele>443.31</ele>
        <time>2016-05-04T08:36:44Z</time>
      </trkpt>
      <trkpt lat="45.45652" lon="4.98199">
        <ele>443.31</ele>
        <time>2016-05-04T08:36:53Z</time>
      </trkpt>
      <trkpt lat="45.45651" lon="4.98197">
        <ele>443.31</ele>
        <time>2016-05-04T08:36:55Z</time>
      </trkpt>
      <trkpt lat="45.45633" lon="4.98157">
        <ele>443.31</ele>
        <time>2016-05-04T08:37:21Z</time>
      </trkpt>
      <trkpt lat="45.45611" lon="4.98116">
        <ele>442.34</ele>
        <time>2016-05-04T08:37:51Z</time>
      </trkpt>
      <trkpt lat="45.45599" lon="4.98096">
        <ele>441.86</ele>
        <time>2016-05-04T08:38:07Z</time>
      </trkpt>
      <trkpt lat="45.45593" lon="4.98086">
        <ele>441.38</ele>
        <time>2016-05-04T08:38:15Z</time>
      </trkpt>
      <trkpt lat="45.45612" lon="4.98082">
        <ele>440.9</ele>
        <time>2016-05-04T08:38:36Z</time>
      </trkpt>
      <trkpt lat="45.45632" lon="4.98089">
        <ele>441.38</ele>
        <time>2016-05-04T08:38:55Z</time>
      </trkpt>
      <trkpt lat="45.45635" lon="4.98091">
        <ele>441.38</ele>
        <time>2016-05-04T08:39:01Z</time>
      </trkpt>
      <trkpt lat="45.45662" lon="4.98093">
        <ele>441.86</ele>
        <time>2016-05-04T08:39:23Z</time>
      </trkpt>
      <trkpt lat="45.45674" lon="4.98086">
        <ele>440.9</ele>
        <time>2016-05-04T08:39:33Z</time>
      </trkpt>
      <trkpt lat="45.45678" lon="4.98084">
        <ele>440.9</ele>
        <time>2016-05-04T08:39:36Z</time>
      </trkpt>
      <trkpt lat="45.45684" lon="4.98077">
        <ele>441.38</ele>
        <time>2016-05-04T08:39:42Z</time>
      </trkpt>
      <trkpt lat="45.45707" lon="4.98045">
        <ele>441.86</ele>
        <time>2016-05-04T08:40:08Z</time>
      </trkpt>
      <trkpt lat="45.45736" lon="4.98006">
        <ele>442.82</ele>
        <time>2016-05-04T08:40:40Z</time>
      </trkpt>
      <trkpt lat="45.45759" lon="4.97982">
        <ele>442.82</ele>
        <time>2016-05-04T08:41:03Z</time>
      </trkpt>
      <trkpt lat="45.45786" lon="4.9797">
        <ele>442.82</ele>
        <time>2016-05-04T08:41:28Z</time>
      </trkpt>
      <trkpt lat="45.4579" lon="4.97967">
        <ele>442.82</ele>
        <time>2016-05-04T08:41:32Z</time>
      </trkpt>
      <trkpt lat="45.45809" lon="4.97958">
        <ele>441.86</ele>
        <time>2016-05-04T08:41:45Z</time>
      </trkpt>
      <trkpt lat="45.45839" lon="4.97943">
        <ele>441.86</ele>
        <time>2016-05-04T08:42:12Z</time>
      </trkpt>
      <trkpt lat="45.45875" lon="4.97927">
        <ele>441.38</ele>
        <time>2016-05-04T08:42:43Z</time>
      </trkpt>
      <trkpt lat="45.45905" lon="4.97915">
        <ele>440.42</ele>
        <time>2016-05-04T08:43:09Z</time>
      </trkpt>
      <trkpt lat="45.45919" lon="4.9791">
        <ele>439.46</ele>
        <time>2016-05-04T08:43:37Z</time>
      </trkpt>
      <trkpt lat="45.4592" lon="4.97909">
        <ele>440.42</ele>
        <time>2016-05-04T08:43:38Z</time>
      </trkpt>
      <trkpt lat="45.45944" lon="4.979">
        <ele>440.42</ele>
        <time>2016-05-04T08:43:56Z</time>
      </trkpt>
      <trkpt lat="45.45961" lon="4.97884">
        <ele>440.9</ele>
        <time>2016-05-04T08:44:15Z</time>
      </trkpt>
      <trkpt lat="45.45963" lon="4.97881">
        <ele>440.42</ele>
        <time>2016-05-04T08:44:17Z</time>
      </trkpt>
      <trkpt lat="45.45979" lon="4.97871">
        <ele>439.46</ele>
        <time>2016-05-04T08:44:32Z</time>
      </trkpt>
      <trkpt lat="45.45982" lon="4.9787">
        <ele>438.98</ele>
        <time>2016-05-04T08:44:34Z</time>
      </trkpt>
      <trkpt lat="45.45991" lon="4.97862">
        <ele>439.94</ele>
        <time>2016-05-04T08:44:42Z</time>
      </trkpt>
      <trkpt lat="45.45995" lon="4.97859">
        <ele>439.94</ele>
        <time>2016-05-04T08:44:46Z</time>
      </trkpt>
      <trkpt lat="45.46004" lon="4.97852">
        <ele>439.94</ele>
        <time>2016-05-04T08:44:54Z</time>
      </trkpt>
      <trkpt lat="45.46006" lon="4.97848">
        <ele>440.42</ele>
        <time>2016-05-04T08:44:58Z</time>
      </trkpt>
      <trkpt lat="45.46007" lon="4.97844">
        <ele>440.9</ele>
        <time>2016-05-04T08:45:02Z</time>
      </trkpt>
      <trkpt lat="45.46024" lon="4.97826">
        <ele>439.94</ele>
        <time>2016-05-04T08:45:15Z</time>
      </trkpt>
      <trkpt lat="45.46024" lon="4.97825">
        <ele>440.42</ele>
        <time>2016-05-04T08:45:18Z</time>
      </trkpt>
      <trkpt lat="45.46042" lon="4.9781">
        <ele>440.42</ele>
        <time>2016-05-04T08:45:34Z</time>
      </trkpt>
      <trkpt lat="45.46048" lon="4.97807">
        <ele>439.46</ele>
        <time>2016-05-04T08:45:37Z</time>
      </trkpt>
      <trkpt lat="45.46059" lon="4.97804">
        <ele>439.46</ele>
        <time>2016-05-04T08:45:44Z</time>
      </trkpt>
      <trkpt lat="45.46063" lon="4.97802">
        <ele>438.98</ele>
        <time>2016-05-04T08:45:48Z</time>
      </trkpt>
      <trkpt lat="45.46069" lon="4.97798">
        <ele>438.5</ele>
        <time>2016-05-04T08:45:53Z</time>
      </trkpt>
      <trkpt lat="45.46081" lon="4.97796">
        <ele>438.02</ele>
        <time>2016-05-04T08:46:01Z</time>
      </trkpt>
      <trkpt lat="45.46089" lon="4.97794">
        <ele>437.06</ele>
        <time>2016-05-04T08:46:08Z</time>
      </trkpt>
      <trkpt lat="45.46094" lon="4.97792">
        <ele>436.58</ele>
        <time>2016-05-04T08:46:12Z</time>
      </trkpt>
      <trkpt lat="45.46097" lon="4.9779">
        <ele>437.06</ele>
        <time>2016-05-04T08:46:15Z</time>
      </trkpt>
      <trkpt lat="45.46104" lon="4.97787">
        <ele>436.1</ele>
        <time>2016-05-04T08:46:19Z</time>
      </trkpt>
      <trkpt lat="45.46106" lon="4.97785">
        <ele>436.58</ele>
        <time>2016-05-04T08:46:21Z</time>
      </trkpt>
      <trkpt lat="45.46125" lon="4.97789">
        <ele>436.1</ele>
        <time>2016-05-04T08:46:35Z</time>
      </trkpt>
      <trkpt lat="45.46131" lon="4.97791">
        <ele>436.1</ele>
        <time>2016-05-04T08:46:41Z</time>
      </trkpt>
      <trkpt lat="45.46134" lon="4.97792">
        <ele>435.61</ele>
        <time>2016-05-04T08:46:44Z</time>
      </trkpt>
      <trkpt lat="45.46143" lon="4.97787">
        <ele>435.13</ele>
        <time>2016-05-04T08:47:02Z</time>
      </trkpt>
      <trkpt lat="45.46143" lon="4.97791">
        <ele>435.13</ele>
        <time>2016-05-04T08:47:46Z</time>
      </trkpt>
      <trkpt lat="45.46144" lon="4.97798">
        <ele>435.13</ele>
        <time>2016-05-04T08:48:12Z</time>
      </trkpt>
      <trkpt lat="45.4615" lon="4.97799">
        <ele>435.13</ele>
        <time>2016-05-04T08:48:48Z</time>
      </trkpt>
      <trkpt lat="45.46174" lon="4.97796">
        <ele>434.65</ele>
        <time>2016-05-04T08:49:12Z</time>
      </trkpt>
      <trkpt lat="45.46202" lon="4.97806">
        <ele>434.17</ele>
        <time>2016-05-04T08:49:39Z</time>
      </trkpt>
      <trkpt lat="45.46213" lon="4.97804">
        <ele>434.17</ele>
        <time>2016-05-04T08:49:51Z</time>
      </trkpt>
      <trkpt lat="45.46236" lon="4.9781">
        <ele>433.69</ele>
        <time>2016-05-04T08:50:09Z</time>
      </trkpt>
      <trkpt lat="45.46242" lon="4.97812">
        <ele>433.69</ele>
        <time>2016-05-04T08:50:15Z</time>
      </trkpt>
      <trkpt lat="45.46242" lon="4.97808">
        <ele>433.21</ele>
        <time>2016-05-04T08:50:18Z</time>
      </trkpt>
      <trkpt lat="45.46251" lon="4.97812">
        <ele>432.73</ele>
        <time>2016-05-04T08:50:25Z</time>
      </trkpt>
      <trkpt lat="45.46256" lon="4.97814">
        <ele>432.25</ele>
        <time>2016-05-04T08:50:31Z</time>
      </trkpt>
      <trkpt lat="45.46263" lon="4.97815">
        <ele>432.25</ele>
        <time>2016-05-04T08:50:36Z</time>
      </trkpt>
      <trkpt lat="45.46271" lon="4.97815">
        <ele>432.25</ele>
        <time>2016-05-04T08:50:40Z</time>
      </trkpt>
      <trkpt lat="45.46272" lon="4.97814">
        <ele>431.77</ele>
        <time>2016-05-04T08:50:42Z</time>
      </trkpt>
      <trkpt lat="45.46294" lon="4.97811">
        <ele>431.29</ele>
        <time>2016-05-04T08:51:00Z</time>
      </trkpt>
      <trkpt lat="45.46308" lon="4.97803">
        <ele>430.81</ele>
        <time>2016-05-04T08:51:12Z</time>
      </trkpt>
      <trkpt lat="45.46313" lon="4.97797">
        <ele>430.33</ele>
        <time>2016-05-04T08:51:22Z</time>
      </trkpt>
      <trkpt lat="45.46319" lon="4.97786">
        <ele>430.81</ele>
        <time>2016-05-04T08:51:37Z</time>
      </trkpt>
      <trkpt lat="45.46319" lon="4.97786">
        <ele>430.33</ele>
        <time>2016-05-04T08:51:38Z</time>
      </trkpt>
      <trkpt lat="45.46328" lon="4.97778">
        <ele>429.85</ele>
        <time>2016-05-04T08:51:46Z</time>
      </trkpt>
      <trkpt lat="45.46333" lon="4.97773">
        <ele>428.89</ele>
        <time>2016-05-04T08:51:50Z</time>
      </trkpt>
      <trkpt lat="45.46337" lon="4.97766">
        <ele>428.4</ele>
        <time>2016-05-04T08:51:55Z</time>
      </trkpt>
      <trkpt lat="45.46351" lon="4.97761">
        <ele>426.96</ele>
        <time>2016-05-04T08:52:08Z</time>
      </trkpt>
      <trkpt lat="45.46352" lon="4.9776">
        <ele>426.96</ele>
        <time>2016-05-04T08:52:09Z</time>
      </trkpt>
      <trkpt lat="45.46354" lon="4.97759">
        <ele>426.48</ele>
        <time>2016-05-04T08:52:11Z</time>
      </trkpt>
      <trkpt lat="45.46372" lon="4.97757">
        <ele>425.04</ele>
        <time>2016-05-04T08:52:26Z</time>
      </trkpt>
      <trkpt lat="45.46382" lon="4.97744">
        <ele>423.12</ele>
        <time>2016-05-04T08:52:37Z</time>
      </trkpt>
      <trkpt lat="45.46395" lon="4.97741">
        <ele>420.71</ele>
        <time>2016-05-04T08:52:50Z</time>
      </trkpt>
      <trkpt lat="45.46406" lon="4.97735">
        <ele>419.27</ele>
        <time>2016-05-04T08:52:58Z</time>
      </trkpt>
      <trkpt lat="45.46408" lon="4.97734">
        <ele>418.79</ele>
        <time>2016-05-04T08:53:01Z</time>
      </trkpt>
      <trkpt lat="45.46412" lon="4.97725">
        <ele>417.83</ele>
        <time>2016-05-04T08:53:07Z</time>
      </trkpt>
      <trkpt lat="45.46412" lon="4.97719">
        <ele>417.83</ele>
        <time>2016-05-04T08:53:11Z</time>
      </trkpt>
      <trkpt lat="45.46406" lon="4.97712">
        <ele>417.83</ele>
        <time>2016-05-04T08:53:18Z</time>
      </trkpt>
      <trkpt lat="45.46395" lon="4.97705">
        <ele>419.27</ele>
        <time>2016-05-04T08:53:28Z</time>
      </trkpt>
      <trkpt lat="45.46379" lon="4.97685">
        <ele>420.23</ele>
        <time>2016-05-04T08:53:48Z</time>
      </trkpt>
      <trkpt lat="45.46364" lon="4.97667">
        <ele>421.19</ele>
        <time>2016-05-04T08:54:03Z</time>
      </trkpt>
      <trkpt lat="45.46355" lon="4.97657">
        <ele>422.16</ele>
        <time>2016-05-04T08:54:14Z</time>
      </trkpt>
      <trkpt lat="45.46354" lon="4.97654">
        <ele>422.16</ele>
        <time>2016-05-04T08:54:16Z</time>
      </trkpt>
      <trkpt lat="45.46338" lon="4.97636">
        <ele>423.12</ele>
        <time>2016-05-04T08:54:37Z</time>
      </trkpt>
      <trkpt lat="45.46332" lon="4.97626">
        <ele>424.08</ele>
        <time>2016-05-04T08:54:46Z</time>
      </trkpt>
      <trkpt lat="45.46323" lon="4.97601">
        <ele>424.08</ele>
        <time>2016-05-04T08:55:03Z</time>
      </trkpt>
      <trkpt lat="45.46311" lon="4.9757">
        <ele>423.6</ele>
        <time>2016-05-04T08:55:23Z</time>
      </trkpt>
      <trkpt lat="45.46311" lon="4.97568">
        <ele>424.08</ele>
        <time>2016-05-04T08:55:25Z</time>
      </trkpt>
      <trkpt lat="45.46308" lon="4.97541">
        <ele>424.08</ele>
        <time>2016-05-04T08:55:40Z</time>
      </trkpt>
      <trkpt lat="45.46308" lon="4.97538">
        <ele>423.6</ele>
        <time>2016-05-04T08:55:43Z</time>
      </trkpt>
      <trkpt lat="45.46309" lon="4.97534">
        <ele>423.6</ele>
        <time>2016-05-04T08:55:46Z</time>
      </trkpt>
      <trkpt lat="45.4631" lon="4.97525">
        <ele>423.12</ele>
        <time>2016-05-04T08:55:51Z</time>
      </trkpt>
      <trkpt lat="45.46312" lon="4.97517">
        <ele>424.08</ele>
        <time>2016-05-04T08:55:56Z</time>
      </trkpt>
      <trkpt lat="45.46305" lon="4.97492">
        <ele>424.56</ele>
        <time>2016-05-04T08:56:14Z</time>
      </trkpt>
      <trkpt lat="45.46306" lon="4.97489">
        <ele>424.56</ele>
        <time>2016-05-04T08:56:16Z</time>
      </trkpt>
      <trkpt lat="45.46304" lon="4.97464">
        <ele>425.04</ele>
        <time>2016-05-04T08:56:34Z</time>
      </trkpt>
      <trkpt lat="45.46304" lon="4.97462">
        <ele>423.6</ele>
        <time>2016-05-04T08:56:36Z</time>
      </trkpt>
      <trkpt lat="45.46305" lon="4.97426">
        <ele>424.56</ele>
        <time>2016-05-04T08:56:55Z</time>
      </trkpt>
      <trkpt lat="45.46305" lon="4.97422">
        <ele>424.56</ele>
        <time>2016-05-04T08:56:58Z</time>
      </trkpt>
      <trkpt lat="45.46301" lon="4.97394">
        <ele>424.08</ele>
        <time>2016-05-04T08:57:16Z</time>
      </trkpt>
      <trkpt lat="45.46304" lon="4.97365">
        <ele>424.08</ele>
        <time>2016-05-04T08:57:34Z</time>
      </trkpt>
      <trkpt lat="45.46294" lon="4.9735">
        <ele>424.56</ele>
        <time>2016-05-04T08:57:42Z</time>
      </trkpt>
      <trkpt lat="45.46296" lon="4.9733">
        <ele>424.56</ele>
        <time>2016-05-04T08:57:54Z</time>
      </trkpt>
      <trkpt lat="45.46299" lon="4.97329">
        <ele>424.56</ele>
        <time>2016-05-04T08:57:56Z</time>
      </trkpt>
      <trkpt lat="45.46302" lon="4.97321">
        <ele>425.04</ele>
        <time>2016-05-04T08:58:00Z</time>
      </trkpt>
      <trkpt lat="45.46305" lon="4.97302">
        <ele>425.04</ele>
        <time>2016-05-04T08:58:10Z</time>
      </trkpt>
      <trkpt lat="45.4631" lon="4.97291">
        <ele>425.04</ele>
        <time>2016-05-04T08:58:16Z</time>
      </trkpt>
      <trkpt lat="45.46311" lon="4.97277">
        <ele>425.04</ele>
        <time>2016-05-04T08:58:29Z</time>
      </trkpt>
      <trkpt lat="45.46317" lon="4.97269">
        <ele>424.56</ele>
        <time>2016-05-04T08:58:35Z</time>
      </trkpt>
      <trkpt lat="45.46319" lon="4.97256">
        <ele>424.56</ele>
        <time>2016-05-04T08:58:41Z</time>
      </trkpt>
      <trkpt lat="45.46325" lon="4.9724">
        <ele>424.56</ele>
        <time>2016-05-04T08:58:56Z</time>
      </trkpt>
      <trkpt lat="45.46327" lon="4.97237">
        <ele>425.52</ele>
        <time>2016-05-04T08:58:59Z</time>
      </trkpt>
      <trkpt lat="45.46349" lon="4.97212">
        <ele>425.52</ele>
        <time>2016-05-04T08:59:18Z</time>
      </trkpt>
      <trkpt lat="45.46355" lon="4.97203">
        <ele>425.52</ele>
        <time>2016-05-04T08:59:25Z</time>
      </trkpt>
      <trkpt lat="45.46356" lon="4.97202">
        <ele>426</ele>
        <time>2016-05-04T08:59:27Z</time>
      </trkpt>
      <trkpt lat="45.46357" lon="4.97196">
        <ele>426</ele>
        <time>2016-05-04T08:59:30Z</time>
      </trkpt>
      <trkpt lat="45.46358" lon="4.97188">
        <ele>426</ele>
        <time>2016-05-04T08:59:37Z</time>
      </trkpt>
      <trkpt lat="45.46359" lon="4.97184">
        <ele>425.52</ele>
        <time>2016-05-04T08:59:39Z</time>
      </trkpt>
      <trkpt lat="45.46359" lon="4.97169">
        <ele>426</ele>
        <time>2016-05-04T08:59:47Z</time>
      </trkpt>
      <trkpt lat="45.46362" lon="4.97164">
        <ele>426.48</ele>
        <time>2016-05-04T08:59:51Z</time>
      </trkpt>
      <trkpt lat="45.46367" lon="4.97153">
        <ele>426.48</ele>
        <time>2016-05-04T08:59:59Z</time>
      </trkpt>
      <trkpt lat="45.46377" lon="4.97129">
        <ele>425.52</ele>
        <time>2016-05-04T09:00:17Z</time>
      </trkpt>
      <trkpt lat="45.4637" lon="4.9712">
        <ele>426</ele>
        <time>2016-05-04T09:00:37Z</time>
      </trkpt>
      <trkpt lat="45.46361" lon="4.97104">
        <ele>426</ele>
        <time>2016-05-04T09:00:48Z</time>
      </trkpt>
      <trkpt lat="45.46345" lon="4.97068">
        <ele>425.04</ele>
        <time>2016-05-04T09:01:10Z</time>
      </trkpt>
      <trkpt lat="45.46339" lon="4.97053">
        <ele>425.04</ele>
        <time>2016-05-04T09:01:20Z</time>
      </trkpt>
      <trkpt lat="45.46336" lon="4.97051">
        <ele>425.04</ele>
        <time>2016-05-04T09:01:22Z</time>
      </trkpt>
      <trkpt lat="45.46334" lon="4.97047">
        <ele>424.56</ele>
        <time>2016-05-04T09:01:26Z</time>
      </trkpt>
      <trkpt lat="45.4633" lon="4.9704">
        <ele>425.04</ele>
        <time>2016-05-04T09:01:30Z</time>
      </trkpt>
      <trkpt lat="45.46316" lon="4.97018">
        <ele>424.08</ele>
        <time>2016-05-04T09:01:45Z</time>
      </trkpt>
      <trkpt lat="45.46315" lon="4.97017">
        <ele>424.08</ele>
        <time>2016-05-04T09:01:46Z</time>
      </trkpt>
      <trkpt lat="45.46304" lon="4.96993">
        <ele>423.6</ele>
        <time>2016-05-04T09:02:02Z</time>
      </trkpt>
      <trkpt lat="45.46292" lon="4.96968">
        <ele>423.12</ele>
        <time>2016-05-04T09:02:19Z</time>
      </trkpt>
      <trkpt lat="45.4629" lon="4.96965">
        <ele>423.12</ele>
        <time>2016-05-04T09:02:21Z</time>
      </trkpt>
      <trkpt lat="45.46284" lon="4.9696">
        <ele>422.64</ele>
        <time>2016-05-04T09:02:26Z</time>
      </trkpt>
      <trkpt lat="45.46278" lon="4.96951">
        <ele>422.64</ele>
        <time>2016-05-04T09:02:32Z</time>
      </trkpt>
      <trkpt lat="45.46269" lon="4.9693">
        <ele>421.68</ele>
        <time>2016-05-04T09:02:49Z</time>
      </trkpt>
      <trkpt lat="45.46261" lon="4.96917">
        <ele>420.71</ele>
        <time>2016-05-04T09:02:57Z</time>
      </trkpt>
      <trkpt lat="45.46261" lon="4.96909">
        <ele>421.19</ele>
        <time>2016-05-04T09:03:01Z</time>
      </trkpt>
      <trkpt lat="45.46259" lon="4.96908">
        <ele>421.68</ele>
        <time>2016-05-04T09:03:03Z</time>
      </trkpt>
      <trkpt lat="45.46254" lon="4.96896">
        <ele>420.71</ele>
        <time>2016-05-04T09:03:20Z</time>
      </trkpt>
      <trkpt lat="45.46248" lon="4.9689">
        <ele>421.19</ele>
        <time>2016-05-04T09:03:27Z</time>
      </trkpt>
      <trkpt lat="45.46241" lon="4.96878">
        <ele>420.23</ele>
        <time>2016-05-04T09:03:37Z</time>
      </trkpt>
      <trkpt lat="45.46239" lon="4.96874">
        <ele>420.23</ele>
        <time>2016-05-04T09:03:39Z</time>
      </trkpt>
      <trkpt lat="45.46236" lon="4.96867">
        <ele>420.23</ele>
        <time>2016-05-04T09:03:43Z</time>
      </trkpt>
      <trkpt lat="45.46228" lon="4.96851">
        <ele>419.75</ele>
        <time>2016-05-04T09:03:54Z</time>
      </trkpt>
      <trkpt lat="45.46227" lon="4.96848">
        <ele>419.75</ele>
        <time>2016-05-04T09:03:57Z</time>
      </trkpt>
      <trkpt lat="45.46224" lon="4.9684">
        <ele>419.27</ele>
        <time>2016-05-04T09:04:03Z</time>
      </trkpt>
      <trkpt lat="45.46214" lon="4.96826">
        <ele>418.79</ele>
        <time>2016-05-04T09:04:13Z</time>
      </trkpt>
      <trkpt lat="45.46213" lon="4.96819">
        <ele>418.79</ele>
        <time>2016-05-04T09:04:17Z</time>
      </trkpt>
      <trkpt lat="45.46212" lon="4.96809">
        <ele>418.79</ele>
        <time>2016-05-04T09:04:22Z</time>
      </trkpt>
      <trkpt lat="45.46202" lon="4.96788">
        <ele>418.79</ele>
        <time>2016-05-04T09:04:38Z</time>
      </trkpt>
      <trkpt lat="45.46198" lon="4.96774">
        <ele>418.79</ele>
        <time>2016-05-04T09:04:50Z</time>
      </trkpt>
      <trkpt lat="45.46198" lon="4.96771">
        <ele>418.79</ele>
        <time>2016-05-04T09:04:52Z</time>
      </trkpt>
      <trkpt lat="45.46191" lon="4.9675">
        <ele>418.79</ele>
        <time>2016-05-04T09:05:06Z</time>
      </trkpt>
      <trkpt lat="45.46187" lon="4.96742">
        <ele>419.27</ele>
        <time>2016-05-04T09:05:11Z</time>
      </trkpt>
      <trkpt lat="45.46188" lon="4.96732">
        <ele>419.27</ele>
        <time>2016-05-04T09:05:17Z</time>
      </trkpt>
      <trkpt lat="45.46185" lon="4.96726">
        <ele>418.79</ele>
        <time>2016-05-04T09:05:21Z</time>
      </trkpt>
      <trkpt lat="45.46175" lon="4.96693">
        <ele>418.31</ele>
        <time>2016-05-04T09:05:40Z</time>
      </trkpt>
      <trkpt lat="45.46178" lon="4.96686">
        <ele>418.31</ele>
        <time>2016-05-04T09:05:47Z</time>
      </trkpt>
      <trkpt lat="45.46175" lon="4.96673">
        <ele>418.31</ele>
        <time>2016-05-04T09:05:56Z</time>
      </trkpt>
      <trkpt lat="45.46175" lon="4.96656">
        <ele>418.31</ele>
        <time>2016-05-04T09:06:06Z</time>
      </trkpt>
      <trkpt lat="45.46177" lon="4.96634">
        <ele>418.31</ele>
        <time>2016-05-04T09:06:17Z</time>
      </trkpt>
      <trkpt lat="45.46178" lon="4.96603">
        <ele>418.31</ele>
        <time>2016-05-04T09:06:36Z</time>
      </trkpt>
      <trkpt lat="45.46176" lon="4.96596">
        <ele>418.79</ele>
        <time>2016-05-04T09:06:40Z</time>
      </trkpt>
      <trkpt lat="45.46176" lon="4.96591">
        <ele>418.79</ele>
        <time>2016-05-04T09:06:43Z</time>
      </trkpt>
      <trkpt lat="45.46176" lon="4.96587">
        <ele>419.75</ele>
        <time>2016-05-04T09:06:46Z</time>
      </trkpt>
      <trkpt lat="45.46177" lon="4.96582">
        <ele>419.75</ele>
        <time>2016-05-04T09:06:49Z</time>
      </trkpt>
      <trkpt lat="45.46174" lon="4.96574">
        <ele>419.27</ele>
        <time>2016-05-04T09:06:54Z</time>
      </trkpt>
      <trkpt lat="45.46173" lon="4.96568">
        <ele>419.27</ele>
        <time>2016-05-04T09:06:59Z</time>
      </trkpt>
      <trkpt lat="45.46169" lon="4.9655">
        <ele>420.23</ele>
        <time>2016-05-04T09:07:09Z</time>
      </trkpt>
      <trkpt lat="45.46171" lon="4.96543">
        <ele>420.71</ele>
        <time>2016-05-04T09:07:14Z</time>
      </trkpt>
      <trkpt lat="45.46172" lon="4.96532">
        <ele>420.23</ele>
        <time>2016-05-04T09:07:21Z</time>
      </trkpt>
      <trkpt lat="45.46171" lon="4.96525">
        <ele>420.71</ele>
        <time>2016-05-04T09:07:25Z</time>
      </trkpt>
      <trkpt lat="45.46167" lon="4.96499">
        <ele>421.19</ele>
        <time>2016-05-04T09:07:43Z</time>
      </trkpt>
      <trkpt lat="45.46167" lon="4.96492">
        <ele>422.16</ele>
        <time>2016-05-04T09:07:56Z</time>
      </trkpt>
      <trkpt lat="45.46167" lon="4.96486">
        <ele>421.68</ele>
        <time>2016-05-04T09:08:02Z</time>
      </trkpt>
      <trkpt lat="45.46162" lon="4.96482">
        <ele>422.16</ele>
        <time>2016-05-04T09:08:07Z</time>
      </trkpt>
      <trkpt lat="45.46153" lon="4.96448">
        <ele>425.04</ele>
        <time>2016-05-04T09:08:27Z</time>
      </trkpt>
      <trkpt lat="45.46139" lon="4.96425">
        <ele>426</ele>
        <time>2016-05-04T09:08:46Z</time>
      </trkpt>
      <trkpt lat="45.46137" lon="4.96423">
        <ele>426.48</ele>
        <time>2016-05-04T09:08:48Z</time>
      </trkpt>
      <trkpt lat="45.46125" lon="4.96385">
        <ele>428.4</ele>
        <time>2016-05-04T09:09:12Z</time>
      </trkpt>
      <trkpt lat="45.46115" lon="4.9635">
        <ele>429.37</ele>
        <time>2016-05-04T09:09:34Z</time>
      </trkpt>
      <trkpt lat="45.46114" lon="4.96335">
        <ele>428.89</ele>
        <time>2016-05-04T09:09:43Z</time>
      </trkpt>
      <trkpt lat="45.46113" lon="4.96327">
        <ele>428.89</ele>
        <time>2016-05-04T09:09:47Z</time>
      </trkpt>
      <trkpt lat="45.46115" lon="4.96315">
        <ele>428.89</ele>
        <time>2016-05-04T09:09:53Z</time>
      </trkpt>
      <trkpt lat="45.46119" lon="4.96305">
        <ele>429.37</ele>
        <time>2016-05-04T09:09:58Z</time>
      </trkpt>
      <trkpt lat="45.46134" lon="4.96277">
        <ele>428.89</ele>
        <time>2016-05-04T09:10:14Z</time>
      </trkpt>
      <trkpt lat="45.46134" lon="4.96273">
        <ele>429.37</ele>
        <time>2016-05-04T09:10:18Z</time>
      </trkpt>
      <trkpt lat="45.46134" lon="4.96269">
        <ele>428.89</ele>
        <time>2016-05-04T09:10:21Z</time>
      </trkpt>
      <trkpt lat="45.46135" lon="4.96262">
        <ele>428.89</ele>
        <time>2016-05-04T09:10:28Z</time>
      </trkpt>
      <trkpt lat="45.46134" lon="4.9625">
        <ele>428.89</ele>
        <time>2016-05-04T09:10:33Z</time>
      </trkpt>
      <trkpt lat="45.46141" lon="4.9623">
        <ele>429.37</ele>
        <time>2016-05-04T09:10:46Z</time>
      </trkpt>
      <trkpt lat="45.46138" lon="4.96221">
        <ele>428.89</ele>
        <time>2016-05-04T09:10:51Z</time>
      </trkpt>
      <trkpt lat="45.46143" lon="4.96215">
        <ele>429.37</ele>
        <time>2016-05-04T09:10:56Z</time>
      </trkpt>
      <trkpt lat="45.46146" lon="4.96178">
        <ele>428.4</ele>
        <time>2016-05-04T09:11:14Z</time>
      </trkpt>
      <trkpt lat="45.46148" lon="4.96179">
        <ele>428.4</ele>
        <time>2016-05-04T09:11:16Z</time>
      </trkpt>
      <trkpt lat="45.46154" lon="4.96174">
        <ele>428.4</ele>
        <time>2016-05-04T09:11:20Z</time>
      </trkpt>
      <trkpt lat="45.46155" lon="4.96157">
        <ele>428.4</ele>
        <time>2016-05-04T09:11:27Z</time>
      </trkpt>
      <trkpt lat="45.46156" lon="4.96139">
        <ele>428.4</ele>
        <time>2016-05-04T09:11:37Z</time>
      </trkpt>
      <trkpt lat="45.4616" lon="4.96115">
        <ele>428.4</ele>
        <time>2016-05-04T09:11:52Z</time>
      </trkpt>
      <trkpt lat="45.4616" lon="4.96111">
        <ele>428.4</ele>
        <time>2016-05-04T09:11:54Z</time>
      </trkpt>
      <trkpt lat="45.46162" lon="4.9608">
        <ele>427.92</ele>
        <time>2016-05-04T09:12:10Z</time>
      </trkpt>
      <trkpt lat="45.46164" lon="4.96073">
        <ele>427.92</ele>
        <time>2016-05-04T09:12:13Z</time>
      </trkpt>
      <trkpt lat="45.46169" lon="4.96068">
        <ele>427.92</ele>
        <time>2016-05-04T09:12:20Z</time>
      </trkpt>
      <trkpt lat="45.46172" lon="4.96052">
        <ele>427.92</ele>
        <time>2016-05-04T09:12:25Z</time>
      </trkpt>
      <trkpt lat="45.46174" lon="4.96049">
        <ele>427.44</ele>
        <time>2016-05-04T09:12:29Z</time>
      </trkpt>
      <trkpt lat="45.46175" lon="4.96043">
        <ele>427.44</ele>
        <time>2016-05-04T09:12:33Z</time>
      </trkpt>
      <trkpt lat="45.46175" lon="4.96038">
        <ele>427.92</ele>
        <time>2016-05-04T09:12:35Z</time>
      </trkpt>
      <trkpt lat="45.46174" lon="4.96032">
        <ele>427.92</ele>
        <time>2016-05-04T09:12:38Z</time>
      </trkpt>
      <trkpt lat="45.46174" lon="4.96029">
        <ele>427.92</ele>
        <time>2016-05-04T09:12:43Z</time>
      </trkpt>
      <trkpt lat="45.46171" lon="4.95996">
        <ele>427.44</ele>
        <time>2016-05-04T09:13:03Z</time>
      </trkpt>
      <trkpt lat="45.4617" lon="4.95991">
        <ele>427.92</ele>
        <time>2016-05-04T09:13:06Z</time>
      </trkpt>
      <trkpt lat="45.46171" lon="4.95982">
        <ele>427.92</ele>
        <time>2016-05-04T09:13:18Z</time>
      </trkpt>
      <trkpt lat="45.4617" lon="4.95977">
        <ele>427.92</ele>
        <time>2016-05-04T09:13:29Z</time>
      </trkpt>
      <trkpt lat="45.46168" lon="4.95958">
        <ele>427.44</ele>
        <time>2016-05-04T09:13:42Z</time>
      </trkpt>
      <trkpt lat="45.46169" lon="4.95951">
        <ele>427.44</ele>
        <time>2016-05-04T09:13:47Z</time>
      </trkpt>
      <trkpt lat="45.46166" lon="4.95945">
        <ele>427.44</ele>
        <time>2016-05-04T09:13:50Z</time>
      </trkpt>
      <trkpt lat="45.46165" lon="4.95937">
        <ele>426.96</ele>
        <time>2016-05-04T09:13:54Z</time>
      </trkpt>
      <trkpt lat="45.46164" lon="4.95911">
        <ele>427.44</ele>
        <time>2016-05-04T09:14:09Z</time>
      </trkpt>
      <trkpt lat="45.46164" lon="4.95899">
        <ele>426.96</ele>
        <time>2016-05-04T09:14:15Z</time>
      </trkpt>
      <trkpt lat="45.46165" lon="4.95892">
        <ele>426.96</ele>
        <time>2016-05-04T09:14:18Z</time>
      </trkpt>
      <trkpt lat="45.46164" lon="4.95882">
        <ele>426.48</ele>
        <time>2016-05-04T09:14:24Z</time>
      </trkpt>
      <trkpt lat="45.46163" lon="4.95879">
        <ele>426.96</ele>
        <time>2016-05-04T09:14:26Z</time>
      </trkpt>
      <trkpt lat="45.4616" lon="4.95864">
        <ele>426.96</ele>
        <time>2016-05-04T09:14:32Z</time>
      </trkpt>
      <trkpt lat="45.4616" lon="4.95854">
        <ele>426.96</ele>
        <time>2016-05-04T09:14:37Z</time>
      </trkpt>
      <trkpt lat="45.46161" lon="4.95841">
        <ele>426.48</ele>
        <time>2016-05-04T09:14:45Z</time>
      </trkpt>
      <trkpt lat="45.46158" lon="4.95806">
        <ele>426.48</ele>
        <time>2016-05-04T09:15:10Z</time>
      </trkpt>
      <trkpt lat="45.46158" lon="4.95765">
        <ele>426</ele>
        <time>2016-05-04T09:15:34Z</time>
      </trkpt>
      <trkpt lat="45.46158" lon="4.95743">
        <ele>426</ele>
        <time>2016-05-04T09:15:47Z</time>
      </trkpt>
      <trkpt lat="45.46165" lon="4.95708">
        <ele>426</ele>
        <time>2016-05-04T09:16:06Z</time>
      </trkpt>
      <trkpt lat="45.46165" lon="4.95673">
        <ele>425.52</ele>
        <time>2016-05-04T09:16:28Z</time>
      </trkpt>
      <trkpt lat="45.46169" lon="4.9563">
        <ele>426</ele>
        <time>2016-05-04T09:16:52Z</time>
      </trkpt>
      <trkpt lat="45.46174" lon="4.95627">
        <ele>426</ele>
        <time>2016-05-04T09:16:56Z</time>
      </trkpt>
      <trkpt lat="45.46174" lon="4.95595">
        <ele>425.52</ele>
        <time>2016-05-04T09:17:13Z</time>
      </trkpt>
      <trkpt lat="45.46169" lon="4.95569">
        <ele>425.04</ele>
        <time>2016-05-04T09:17:32Z</time>
      </trkpt>
      <trkpt lat="45.4617" lon="4.9553">
        <ele>426</ele>
        <time>2016-05-04T09:18:00Z</time>
      </trkpt>
      <trkpt lat="45.46166" lon="4.95491">
        <ele>425.04</ele>
        <time>2016-05-04T09:18:27Z</time>
      </trkpt>
      <trkpt lat="45.46175" lon="4.95442">
        <ele>425.04</ele>
        <time>2016-05-04T09:18:54Z</time>
      </trkpt>
      <trkpt lat="45.46171" lon="4.95391">
        <ele>425.04</ele>
        <time>2016-05-04T09:19:21Z</time>
      </trkpt>
      <trkpt lat="45.46169" lon="4.95364">
        <ele>424.08</ele>
        <time>2016-05-04T09:19:38Z</time>
      </trkpt>
      <trkpt lat="45.46172" lon="4.95342">
        <ele>423.6</ele>
        <time>2016-05-04T09:19:51Z</time>
      </trkpt>
      <trkpt lat="45.46172" lon="4.95314">
        <ele>423.12</ele>
        <time>2016-05-04T09:20:09Z</time>
      </trkpt>
      <trkpt lat="45.46172" lon="4.95308">
        <ele>423.12</ele>
        <time>2016-05-04T09:20:11Z</time>
      </trkpt>
      <trkpt lat="45.46169" lon="4.95298">
        <ele>423.12</ele>
        <time>2016-05-04T09:20:31Z</time>
      </trkpt>
      <trkpt lat="45.46171" lon="4.95291">
        <ele>422.64</ele>
        <time>2016-05-04T09:20:51Z</time>
      </trkpt>
      <trkpt lat="45.46173" lon="4.9528">
        <ele>422.16</ele>
        <time>2016-05-04T09:20:58Z</time>
      </trkpt>
      <trkpt lat="45.46177" lon="4.95261">
        <ele>421.68</ele>
        <time>2016-05-04T09:21:09Z</time>
      </trkpt>
      <trkpt lat="45.46178" lon="4.95245">
        <ele>421.19</ele>
        <time>2016-05-04T09:21:19Z</time>
      </trkpt>
      <trkpt lat="45.4619" lon="4.95208">
        <ele>419.75</ele>
        <time>2016-05-04T09:21:37Z</time>
      </trkpt>
      <trkpt lat="45.46187" lon="4.95195">
        <ele>418.79</ele>
        <time>2016-05-04T09:21:46Z</time>
      </trkpt>
      <trkpt lat="45.46188" lon="4.9518">
        <ele>418.79</ele>
        <time>2016-05-04T09:21:52Z</time>
      </trkpt>
      <trkpt lat="45.46184" lon="4.95146">
        <ele>417.83</ele>
        <time>2016-05-04T09:22:13Z</time>
      </trkpt>
      <trkpt lat="45.46186" lon="4.95142">
        <ele>417.35</ele>
        <time>2016-05-04T09:22:16Z</time>
      </trkpt>
      <trkpt lat="45.46176" lon="4.95134">
        <ele>417.83</ele>
        <time>2016-05-04T09:22:36Z</time>
      </trkpt>
      <trkpt lat="45.46177" lon="4.95133">
        <ele>417.35</ele>
        <time>2016-05-04T09:22:51Z</time>
      </trkpt>
      <trkpt lat="45.46175" lon="4.95143">
        <ele>417.83</ele>
        <time>2016-05-04T09:23:19Z</time>
      </trkpt>
      <trkpt lat="45.46179" lon="4.95128">
        <ele>417.83</ele>
        <time>2016-05-04T09:23:44Z</time>
      </trkpt>
      <trkpt lat="45.4618" lon="4.9513">
        <ele>416.87</ele>
        <time>2016-05-04T09:24:06Z</time>
      </trkpt>
      <trkpt lat="45.4618" lon="4.95136">
        <ele>417.35</ele>
        <time>2016-05-04T09:24:36Z</time>
      </trkpt>
      <trkpt lat="45.4618" lon="4.9514">
        <ele>416.87</ele>
        <time>2016-05-04T09:25:04Z</time>
      </trkpt>
      <trkpt lat="45.46182" lon="4.95137">
        <ele>416.87</ele>
        <time>2016-05-04T09:25:33Z</time>
      </trkpt>
      <trkpt lat="45.46184" lon="4.95124">
        <ele>416.87</ele>
        <time>2016-05-04T09:25:40Z</time>
      </trkpt>
      <trkpt lat="45.46183" lon="4.95116">
        <ele>416.39</ele>
        <time>2016-05-04T09:25:44Z</time>
      </trkpt>
      <trkpt lat="45.46182" lon="4.95106">
        <ele>415.91</ele>
        <time>2016-05-04T09:25:50Z</time>
      </trkpt>
      <trkpt lat="45.46183" lon="4.95101">
        <ele>416.39</ele>
        <time>2016-05-04T09:25:52Z</time>
      </trkpt>
      <trkpt lat="45.46187" lon="4.95092">
        <ele>415.91</ele>
        <time>2016-05-04T09:25:58Z</time>
      </trkpt>
      <trkpt lat="45.46185" lon="4.95071">
        <ele>415.43</ele>
        <time>2016-05-04T09:26:11Z</time>
      </trkpt>
      <trkpt lat="45.46186" lon="4.95027">
        <ele>415.43</ele>
        <time>2016-05-04T09:26:34Z</time>
      </trkpt>
      <trkpt lat="45.46185" lon="4.95019">
        <ele>414.95</ele>
        <time>2016-05-04T09:26:40Z</time>
      </trkpt>
      <trkpt lat="45.46178" lon="4.95005">
        <ele>415.43</ele>
        <time>2016-05-04T09:26:48Z</time>
      </trkpt>
      <trkpt lat="45.46176" lon="4.94994">
        <ele>415.43</ele>
        <time>2016-05-04T09:26:54Z</time>
      </trkpt>
      <trkpt lat="45.46175" lon="4.94991">
        <ele>415.43</ele>
        <time>2016-05-04T09:26:56Z</time>
      </trkpt>
      <trkpt lat="45.46176" lon="4.9498">
        <ele>414.95</ele>
        <time>2016-05-04T09:27:01Z</time>
      </trkpt>
      <trkpt lat="45.46177" lon="4.9497">
        <ele>415.43</ele>
        <time>2016-05-04T09:27:09Z</time>
      </trkpt>
      <trkpt lat="45.46173" lon="4.94948">
        <ele>415.91</ele>
        <time>2016-05-04T09:27:19Z</time>
      </trkpt>
      <trkpt lat="45.46168" lon="4.94934">
        <ele>416.39</ele>
        <time>2016-05-04T09:27:29Z</time>
      </trkpt>
      <trkpt lat="45.46159" lon="4.94909">
        <ele>416.39</ele>
        <time>2016-05-04T09:27:45Z</time>
      </trkpt>
      <trkpt lat="45.46156" lon="4.94906">
        <ele>416.87</ele>
        <time>2016-05-04T09:27:48Z</time>
      </trkpt>
      <trkpt lat="45.46153" lon="4.94894">
        <ele>416.39</ele>
        <time>2016-05-04T09:27:55Z</time>
      </trkpt>
      <trkpt lat="45.46155" lon="4.9489">
        <ele>416.87</ele>
        <time>2016-05-04T09:27:58Z</time>
      </trkpt>
      <trkpt lat="45.46153" lon="4.94884">
        <ele>416.87</ele>
        <time>2016-05-04T09:28:01Z</time>
      </trkpt>
      <trkpt lat="45.46154" lon="4.94878">
        <ele>416.87</ele>
        <time>2016-05-04T09:28:06Z</time>
      </trkpt>
      <trkpt lat="45.46153" lon="4.9485">
        <ele>416.87</ele>
        <time>2016-05-04T09:28:24Z</time>
      </trkpt>
      <trkpt lat="45.46153" lon="4.94831">
        <ele>417.35</ele>
        <time>2016-05-04T09:28:35Z</time>
      </trkpt>
      <trkpt lat="45.46152" lon="4.94821">
        <ele>417.35</ele>
        <time>2016-05-04T09:28:40Z</time>
      </trkpt>
      <trkpt lat="45.4615" lon="4.94816">
        <ele>417.35</ele>
        <time>2016-05-04T09:28:43Z</time>
      </trkpt>
      <trkpt lat="45.4615" lon="4.94805">
        <ele>417.35</ele>
        <time>2016-05-04T09:28:51Z</time>
      </trkpt>
      <trkpt lat="45.4615" lon="4.94797">
        <ele>417.35</ele>
        <time>2016-05-04T09:28:55Z</time>
      </trkpt>
      <trkpt lat="45.46148" lon="4.94794">
        <ele>417.83</ele>
        <time>2016-05-04T09:28:57Z</time>
      </trkpt>
      <trkpt lat="45.46147" lon="4.94789">
        <ele>417.83</ele>
        <time>2016-05-04T09:29:00Z</time>
      </trkpt>
      <trkpt lat="45.46141" lon="4.94779">
        <ele>417.35</ele>
        <time>2016-05-04T09:29:08Z</time>
      </trkpt>
      <trkpt lat="45.46142" lon="4.94768">
        <ele>417.83</ele>
        <time>2016-05-04T09:29:15Z</time>
      </trkpt>
      <trkpt lat="45.46141" lon="4.94761">
        <ele>418.79</ele>
        <time>2016-05-04T09:29:20Z</time>
      </trkpt>
      <trkpt lat="45.4614" lon="4.94753">
        <ele>418.31</ele>
        <time>2016-05-04T09:29:24Z</time>
      </trkpt>
      <trkpt lat="45.46138" lon="4.9474">
        <ele>418.31</ele>
        <time>2016-05-04T09:29:32Z</time>
      </trkpt>
      <trkpt lat="45.46138" lon="4.94738">
        <ele>418.31</ele>
        <time>2016-05-04T09:29:34Z</time>
      </trkpt>
      <trkpt lat="45.46138" lon="4.94726">
        <ele>417.83</ele>
        <time>2016-05-04T09:29:40Z</time>
      </trkpt>
      <trkpt lat="45.46138" lon="4.94717">
        <ele>418.79</ele>
        <time>2016-05-04T09:29:46Z</time>
      </trkpt>
      <trkpt lat="45.46135" lon="4.94692">
        <ele>418.31</ele>
        <time>2016-05-04T09:30:03Z</time>
      </trkpt>
      <trkpt lat="45.46137" lon="4.94649">
        <ele>418.79</ele>
        <time>2016-05-04T09:30:30Z</time>
      </trkpt>
      <trkpt lat="45.46143" lon="4.94642">
        <ele>418.79</ele>
        <time>2016-05-04T09:30:45Z</time>
      </trkpt>
      <trkpt lat="45.4615" lon="4.9463">
        <ele>419.27</ele>
        <time>2016-05-04T09:30:53Z</time>
      </trkpt>
      <trkpt lat="45.4615" lon="4.94622">
        <ele>419.27</ele>
        <time>2016-05-04T09:30:57Z</time>
      </trkpt>
      <trkpt lat="45.46153" lon="4.94605">
        <ele>419.27</ele>
        <time>2016-05-04T09:31:07Z</time>
      </trkpt>
      <trkpt lat="45.4616" lon="4.94597">
        <ele>419.27</ele>
        <time>2016-05-04T09:31:12Z</time>
      </trkpt>
      <trkpt lat="45.46163" lon="4.94592">
        <ele>419.75</ele>
        <time>2016-05-04T09:31:18Z</time>
      </trkpt>
      <trkpt lat="45.46165" lon="4.94588">
        <ele>419.75</ele>
        <time>2016-05-04T09:31:21Z</time>
      </trkpt>
      <trkpt lat="45.46172" lon="4.94568">
        <ele>419.27</ele>
        <time>2016-05-04T09:31:35Z</time>
      </trkpt>
      <trkpt lat="45.46173" lon="4.94564">
        <ele>419.27</ele>
        <time>2016-05-04T09:31:38Z</time>
      </trkpt>
      <trkpt lat="45.46175" lon="4.94558">
        <ele>419.75</ele>
        <time>2016-05-04T09:31:41Z</time>
      </trkpt>
      <trkpt lat="45.46173" lon="4.94547">
        <ele>419.75</ele>
        <time>2016-05-04T09:31:46Z</time>
      </trkpt>
      <trkpt lat="45.46177" lon="4.94538">
        <ele>419.27</ele>
        <time>2016-05-04T09:31:55Z</time>
      </trkpt>
      <trkpt lat="45.4618" lon="4.94527">
        <ele>419.27</ele>
        <time>2016-05-04T09:32:01Z</time>
      </trkpt>
      <trkpt lat="45.46192" lon="4.94513">
        <ele>418.79</ele>
        <time>2016-05-04T09:32:13Z</time>
      </trkpt>
      <trkpt lat="45.46192" lon="4.94503">
        <ele>419.75</ele>
        <time>2016-05-04T09:32:18Z</time>
      </trkpt>
      <trkpt lat="45.46192" lon="4.94497">
        <ele>419.27</ele>
        <time>2016-05-04T09:32:24Z</time>
      </trkpt>
      <trkpt lat="45.46193" lon="4.94492">
        <ele>419.75</ele>
        <time>2016-05-04T09:32:26Z</time>
      </trkpt>
      <trkpt lat="45.46187" lon="4.94465">
        <ele>419.75</ele>
        <time>2016-05-04T09:32:48Z</time>
      </trkpt>
      <trkpt lat="45.46191" lon="4.94443">
        <ele>419.27</ele>
        <time>2016-05-04T09:33:01Z</time>
      </trkpt>
      <trkpt lat="45.46192" lon="4.94441">
        <ele>419.75</ele>
        <time>2016-05-04T09:33:04Z</time>
      </trkpt>
      <trkpt lat="45.46196" lon="4.94437">
        <ele>419.75</ele>
        <time>2016-05-04T09:33:08Z</time>
      </trkpt>
      <trkpt lat="45.46205" lon="4.9441">
        <ele>419.27</ele>
        <time>2016-05-04T09:33:29Z</time>
      </trkpt>
      <trkpt lat="45.46222" lon="4.94385">
        <ele>417.83</ele>
        <time>2016-05-04T09:33:55Z</time>
      </trkpt>
      <trkpt lat="45.46235" lon="4.94383">
        <ele>418.31</ele>
        <time>2016-05-04T09:34:05Z</time>
      </trkpt>
      <trkpt lat="45.46247" lon="4.94364">
        <ele>417.83</ele>
        <time>2016-05-04T09:34:23Z</time>
      </trkpt>
      <trkpt lat="45.46271" lon="4.94332">
        <ele>417.83</ele>
        <time>2016-05-04T09:34:45Z</time>
      </trkpt>
      <trkpt lat="45.46274" lon="4.94312">
        <ele>417.83</ele>
        <time>2016-05-04T09:35:06Z</time>
      </trkpt>
      <trkpt lat="45.46275" lon="4.94306">
        <ele>418.31</ele>
        <time>2016-05-04T09:35:11Z</time>
      </trkpt>
      <trkpt lat="45.46282" lon="4.94285">
        <ele>418.31</ele>
        <time>2016-05-04T09:35:23Z</time>
      </trkpt>
      <trkpt lat="45.46284" lon="4.94283">
        <ele>418.31</ele>
        <time>2016-05-04T09:35:24Z</time>
      </trkpt>
      <trkpt lat="45.46289" lon="4.94247">
        <ele>418.79</ele>
        <time>2016-05-04T09:35:46Z</time>
      </trkpt>
      <trkpt lat="45.46288" lon="4.94243">
        <ele>418.31</ele>
        <time>2016-05-04T09:35:48Z</time>
      </trkpt>
      <trkpt lat="45.46286" lon="4.94225">
        <ele>418.31</ele>
        <time>2016-05-04T09:36:04Z</time>
      </trkpt>
      <trkpt lat="45.46283" lon="4.94207">
        <ele>417.35</ele>
        <time>2016-05-04T09:36:12Z</time>
      </trkpt>
      <trkpt lat="45.46279" lon="4.94196">
        <ele>417.35</ele>
        <time>2016-05-04T09:36:20Z</time>
      </trkpt>
      <trkpt lat="45.46274" lon="4.94179">
        <ele>416.87</ele>
        <time>2016-05-04T09:36:30Z</time>
      </trkpt>
      <trkpt lat="45.4627" lon="4.94169">
        <ele>416.39</ele>
        <time>2016-05-04T09:36:34Z</time>
      </trkpt>
      <trkpt lat="45.46269" lon="4.94166">
        <ele>416.39</ele>
        <time>2016-05-04T09:36:37Z</time>
      </trkpt>
      <trkpt lat="45.46265" lon="4.94159">
        <ele>416.39</ele>
        <time>2016-05-04T09:36:42Z</time>
      </trkpt>
      <trkpt lat="45.46261" lon="4.94148">
        <ele>415.91</ele>
        <time>2016-05-04T09:36:50Z</time>
      </trkpt>
      <trkpt lat="45.46254" lon="4.94133">
        <ele>415.91</ele>
        <time>2016-05-04T09:36:59Z</time>
      </trkpt>
      <trkpt lat="45.46248" lon="4.94121">
        <ele>414.95</ele>
        <time>2016-05-04T09:37:06Z</time>
      </trkpt>
      <trkpt lat="45.4624" lon="4.94107">
        <ele>414.95</ele>
        <time>2016-05-04T09:37:19Z</time>
      </trkpt>
      <trkpt lat="45.46223" lon="4.94046">
        <ele>405.338531</ele>
        <time>2016-05-04T09:50:02Z</time>
      </trkpt>
      <trkpt lat="45.4621" lon="4.94026">
        <ele>414.47</ele>
        <time>2016-05-04T09:50:19Z</time>
      </trkpt>
      <trkpt lat="45.46209" lon="4.94023">
        <ele>414.95</ele>
        <time>2016-05-04T09:50:22Z</time>
      </trkpt>
      <trkpt lat="45.46206" lon="4.94015">
        <ele>414.47</ele>
        <time>2016-05-04T09:50:25Z</time>
      </trkpt>
      <trkpt lat="45.46189" lon="4.94005">
        <ele>413.98</ele>
        <time>2016-05-04T09:50:37Z</time>
      </trkpt>
      <trkpt lat="45.46189" lon="4.94002">
        <ele>413.98</ele>
        <time>2016-05-04T09:50:39Z</time>
      </trkpt>
      <trkpt lat="45.46187" lon="4.94">
        <ele>414.47</ele>
        <time>2016-05-04T09:50:43Z</time>
      </trkpt>
      <trkpt lat="45.46183" lon="4.93994">
        <ele>414.47</ele>
        <time>2016-05-04T09:50:48Z</time>
      </trkpt>
      <trkpt lat="45.46181" lon="4.93987">
        <ele>413.98</ele>
        <time>2016-05-04T09:50:52Z</time>
      </trkpt>
      <trkpt lat="45.4618" lon="4.93984">
        <ele>413.5</ele>
        <time>2016-05-04T09:50:54Z</time>
      </trkpt>
      <trkpt lat="45.46176" lon="4.93975">
        <ele>413.98</ele>
        <time>2016-05-04T09:50:59Z</time>
      </trkpt>
      <trkpt lat="45.46159" lon="4.93955">
        <ele>413.5</ele>
        <time>2016-05-04T09:51:21Z</time>
      </trkpt>
      <trkpt lat="45.46151" lon="4.93942">
        <ele>413.5</ele>
        <time>2016-05-04T09:51:33Z</time>
      </trkpt>
      <trkpt lat="45.46145" lon="4.93932">
        <ele>413.5</ele>
        <time>2016-05-04T09:51:40Z</time>
      </trkpt>
      <trkpt lat="45.4614" lon="4.93921">
        <ele>413.02</ele>
        <time>2016-05-04T09:51:48Z</time>
      </trkpt>
      <trkpt lat="45.46136" lon="4.93916">
        <ele>413.02</ele>
        <time>2016-05-04T09:51:52Z</time>
      </trkpt>
      <trkpt lat="45.46121" lon="4.93898">
        <ele>413.98</ele>
        <time>2016-05-04T09:52:06Z</time>
      </trkpt>
      <trkpt lat="45.46117" lon="4.93891">
        <ele>413.98</ele>
        <time>2016-05-04T09:52:10Z</time>
      </trkpt>
      <trkpt lat="45.46114" lon="4.93886">
        <ele>413.98</ele>
        <time>2016-05-04T09:52:15Z</time>
      </trkpt>
      <trkpt lat="45.46111" lon="4.93882">
        <ele>413.5</ele>
        <time>2016-05-04T09:52:19Z</time>
      </trkpt>
      <trkpt lat="45.46104" lon="4.93876">
        <ele>413.5</ele>
        <time>2016-05-04T09:52:24Z</time>
      </trkpt>
      <trkpt lat="45.46095" lon="4.93857">
        <ele>412.54</ele>
        <time>2016-05-04T09:52:39Z</time>
      </trkpt>
      <trkpt lat="45.46092" lon="4.93853">
        <ele>413.02</ele>
        <time>2016-05-04T09:52:43Z</time>
      </trkpt>
      <trkpt lat="45.46091" lon="4.9385">
        <ele>414.47</ele>
        <time>2016-05-04T09:52:46Z</time>
      </trkpt>
      <trkpt lat="45.46092" lon="4.93849">
        <ele>414.47</ele>
        <time>2016-05-04T09:52:51Z</time>
      </trkpt>
      <trkpt lat="45.46087" lon="4.93847">
        <ele>413.98</ele>
        <time>2016-05-04T09:52:55Z</time>
      </trkpt>
      <trkpt lat="45.46074" lon="4.93831">
        <ele>413.98</ele>
        <time>2016-05-04T09:53:10Z</time>
      </trkpt>
      <trkpt lat="45.46064" lon="4.9382">
        <ele>413.98</ele>
        <time>2016-05-04T09:53:26Z</time>
      </trkpt>
      <trkpt lat="45.46058" lon="4.93815">
        <ele>413.98</ele>
        <time>2016-05-04T09:53:30Z</time>
      </trkpt>
      <trkpt lat="45.46047" lon="4.93803">
        <ele>413.98</ele>
        <time>2016-05-04T09:53:40Z</time>
      </trkpt>
      <trkpt lat="45.4604" lon="4.93791">
        <ele>414.47</ele>
        <time>2016-05-04T09:53:47Z</time>
      </trkpt>
      <trkpt lat="45.46031" lon="4.9377">
        <ele>414.47</ele>
        <time>2016-05-04T09:53:55Z</time>
      </trkpt>
      <trkpt lat="45.46041" lon="4.93758">
        <ele>414.47</ele>
        <time>2016-05-04T09:54:05Z</time>
      </trkpt>
      <trkpt lat="45.46056" lon="4.93743">
        <ele>415.43</ele>
        <time>2016-05-04T09:54:17Z</time>
      </trkpt>
      <trkpt lat="45.46061" lon="4.93736">
        <ele>415.43</ele>
        <time>2016-05-04T09:54:29Z</time>
      </trkpt>
      <trkpt lat="45.46071" lon="4.9372">
        <ele>414.47</ele>
        <time>2016-05-04T09:54:45Z</time>
      </trkpt>
      <trkpt lat="45.46074" lon="4.93714">
        <ele>414.95</ele>
        <time>2016-05-04T09:54:47Z</time>
      </trkpt>
      <trkpt lat="45.4608" lon="4.93707">
        <ele>414.47</ele>
        <time>2016-05-04T09:54:52Z</time>
      </trkpt>
      <trkpt lat="45.46083" lon="4.93699">
        <ele>413.98</ele>
        <time>2016-05-04T09:54:58Z</time>
      </trkpt>
      <trkpt lat="45.46089" lon="4.93694">
        <ele>413.5</ele>
        <time>2016-05-04T09:55:04Z</time>
      </trkpt>
      <trkpt lat="45.46096" lon="4.93679">
        <ele>413.5</ele>
        <time>2016-05-04T09:55:13Z</time>
      </trkpt>
      <trkpt lat="45.461" lon="4.93667">
        <ele>413.5</ele>
        <time>2016-05-04T09:55:22Z</time>
      </trkpt>
      <trkpt lat="45.46099" lon="4.93662">
        <ele>413.02</ele>
        <time>2016-05-04T09:55:26Z</time>
      </trkpt>
      <trkpt lat="45.46103" lon="4.9364">
        <ele>413.02</ele>
        <time>2016-05-04T09:55:38Z</time>
      </trkpt>
      <trkpt lat="45.46104" lon="4.93636">
        <ele>412.54</ele>
        <time>2016-05-04T09:55:40Z</time>
      </trkpt>
      <trkpt lat="45.46105" lon="4.93624">
        <ele>412.54</ele>
        <time>2016-05-04T09:55:45Z</time>
      </trkpt>
      <trkpt lat="45.46108" lon="4.93622">
        <ele>412.54</ele>
        <time>2016-05-04T09:55:48Z</time>
      </trkpt>
      <trkpt lat="45.46107" lon="4.93623">
        <ele>412.54</ele>
        <time>2016-05-04T09:56:10Z</time>
      </trkpt>
      <trkpt lat="45.46106" lon="4.93623">
        <ele>412.54</ele>
        <time>2016-05-04T09:56:33Z</time>
      </trkpt>
      <trkpt lat="45.46106" lon="4.9362">
        <ele>412.06</ele>
        <time>2016-05-04T09:56:56Z</time>
      </trkpt>
      <trkpt lat="45.46107" lon="4.93618">
        <ele>412.54</ele>
        <time>2016-05-04T09:56:58Z</time>
      </trkpt>
      <trkpt lat="45.46111" lon="4.9361">
        <ele>412.54</ele>
        <time>2016-05-04T09:57:03Z</time>
      </trkpt>
      <trkpt lat="45.46112" lon="4.93606">
        <ele>412.54</ele>
        <time>2016-05-04T09:57:07Z</time>
      </trkpt>
      <trkpt lat="45.46117" lon="4.93598">
        <ele>412.54</ele>
        <time>2016-05-04T09:57:13Z</time>
      </trkpt>
      <trkpt lat="45.4612" lon="4.93593">
        <ele>412.54</ele>
        <time>2016-05-04T09:57:17Z</time>
      </trkpt>
      <trkpt lat="45.46125" lon="4.93583">
        <ele>412.54</ele>
        <time>2016-05-04T09:57:23Z</time>
      </trkpt>
      <trkpt lat="45.46131" lon="4.93579">
        <ele>412.54</ele>
        <time>2016-05-04T09:57:28Z</time>
      </trkpt>
      <trkpt lat="45.46136" lon="4.93568">
        <ele>412.54</ele>
        <time>2016-05-04T09:57:34Z</time>
      </trkpt>
      <trkpt lat="45.46146" lon="4.93561">
        <ele>412.06</ele>
        <time>2016-05-04T09:57:45Z</time>
      </trkpt>
      <trkpt lat="45.46148" lon="4.9356">
        <ele>411.58</ele>
        <time>2016-05-04T09:57:47Z</time>
      </trkpt>
      <trkpt lat="45.46155" lon="4.93551">
        <ele>412.06</ele>
        <time>2016-05-04T09:57:58Z</time>
      </trkpt>
      <trkpt lat="45.46159" lon="4.93549">
        <ele>411.58</ele>
        <time>2016-05-04T09:58:00Z</time>
      </trkpt>
      <trkpt lat="45.46168" lon="4.93541">
        <ele>411.1</ele>
        <time>2016-05-04T09:58:10Z</time>
      </trkpt>
      <trkpt lat="45.46169" lon="4.93539">
        <ele>410.62</ele>
        <time>2016-05-04T09:58:12Z</time>
      </trkpt>
      <trkpt lat="45.46177" lon="4.93536">
        <ele>411.1</ele>
        <time>2016-05-04T09:58:16Z</time>
      </trkpt>
      <trkpt lat="45.46176" lon="4.93539">
        <ele>411.1</ele>
        <time>2016-05-04T09:58:28Z</time>
      </trkpt>
      <trkpt lat="45.46177" lon="4.93542">
        <ele>411.1</ele>
        <time>2016-05-04T09:58:54Z</time>
      </trkpt>
      <trkpt lat="45.4618" lon="4.93541">
        <ele>411.58</ele>
        <time>2016-05-04T09:59:12Z</time>
      </trkpt>
      <trkpt lat="45.46183" lon="4.93539">
        <ele>411.58</ele>
        <time>2016-05-04T09:59:16Z</time>
      </trkpt>
      <trkpt lat="45.46185" lon="4.93538">
        <ele>411.1</ele>
        <time>2016-05-04T09:59:18Z</time>
      </trkpt>
      <trkpt lat="45.46193" lon="4.93531">
        <ele>410.14</ele>
        <time>2016-05-04T09:59:24Z</time>
      </trkpt>
      <trkpt lat="45.46194" lon="4.93528">
        <ele>410.62</ele>
        <time>2016-05-04T09:59:28Z</time>
      </trkpt>
      <trkpt lat="45.46207" lon="4.93519">
        <ele>409.66</ele>
        <time>2016-05-04T09:59:41Z</time>
      </trkpt>
      <trkpt lat="45.46222" lon="4.93509">
        <ele>410.14</ele>
        <time>2016-05-04T09:59:53Z</time>
      </trkpt>
      <trkpt lat="45.46229" lon="4.93507">
        <ele>409.66</ele>
        <time>2016-05-04T09:59:59Z</time>
      </trkpt>
      <trkpt lat="45.46238" lon="4.93503">
        <ele>409.18</ele>
        <time>2016-05-04T10:00:06Z</time>
      </trkpt>
      <trkpt lat="45.46239" lon="4.935">
        <ele>409.18</ele>
        <time>2016-05-04T10:00:08Z</time>
      </trkpt>
      <trkpt lat="45.46248" lon="4.93497">
        <ele>408.7</ele>
        <time>2016-05-04T10:00:18Z</time>
      </trkpt>
      <trkpt lat="45.46261" lon="4.93492">
        <ele>408.7</ele>
        <time>2016-05-04T10:00:34Z</time>
      </trkpt>
      <trkpt lat="45.46282" lon="4.93477">
        <ele>409.18</ele>
        <time>2016-05-04T10:00:53Z</time>
      </trkpt>
      <trkpt lat="45.46309" lon="4.93457">
        <ele>409.18</ele>
        <time>2016-05-04T10:01:19Z</time>
      </trkpt>
      <trkpt lat="45.4634" lon="4.93442">
        <ele>410.14</ele>
        <time>2016-05-04T10:01:37Z</time>
      </trkpt>
      <trkpt lat="45.46356" lon="4.93437">
        <ele>410.14</ele>
        <time>2016-05-04T10:01:51Z</time>
      </trkpt>
      <trkpt lat="45.46371" lon="4.93425">
        <ele>410.62</ele>
        <time>2016-05-04T10:02:08Z</time>
      </trkpt>
      <trkpt lat="45.46387" lon="4.93407">
        <ele>411.58</ele>
        <time>2016-05-04T10:02:25Z</time>
      </trkpt>
      <trkpt lat="45.46393" lon="4.93397">
        <ele>411.58</ele>
        <time>2016-05-04T10:02:34Z</time>
      </trkpt>
      <trkpt lat="45.46427" lon="4.93372">
        <ele>412.54</ele>
        <time>2016-05-04T10:03:48Z</time>
      </trkpt>
      <trkpt lat="45.46455" lon="4.93381">
        <ele>411.58</ele>
        <time>2016-05-04T10:04:12Z</time>
      </trkpt>
      <trkpt lat="45.46457" lon="4.93381">
        <ele>411.58</ele>
        <time>2016-05-04T10:04:15Z</time>
      </trkpt>
      <trkpt lat="45.46473" lon="4.93364">
        <ele>409.66</ele>
        <time>2016-05-04T10:04:33Z</time>
      </trkpt>
      <trkpt lat="45.46473" lon="4.93364">
        <ele>410.14</ele>
        <time>2016-05-04T10:04:34Z</time>
      </trkpt>
      <trkpt lat="45.46479" lon="4.93366">
        <ele>409.66</ele>
        <time>2016-05-04T10:04:36Z</time>
      </trkpt>
      <trkpt lat="45.46506" lon="4.93353">
        <ele>406.77</ele>
        <time>2016-05-04T10:04:57Z</time>
      </trkpt>
      <trkpt lat="45.46508" lon="4.93348">
        <ele>405.81</ele>
        <time>2016-05-04T10:05:04Z</time>
      </trkpt>
      <trkpt lat="45.46522" lon="4.93351">
        <ele>403.41</ele>
        <time>2016-05-04T10:05:22Z</time>
      </trkpt>
      <trkpt lat="45.46529" lon="4.93346">
        <ele>402.45</ele>
        <time>2016-05-04T10:05:27Z</time>
      </trkpt>
      <trkpt lat="45.46548" lon="4.93352">
        <ele>401.49</ele>
        <time>2016-05-04T10:05:44Z</time>
      </trkpt>
      <trkpt lat="45.46558" lon="4.93355">
        <ele>400.53</ele>
        <time>2016-05-04T10:05:52Z</time>
      </trkpt>
      <trkpt lat="45.46562" lon="4.93354">
        <ele>400.53</ele>
        <time>2016-05-04T10:05:56Z</time>
      </trkpt>
      <trkpt lat="45.46571" lon="4.93359">
        <ele>399.57</ele>
        <time>2016-05-04T10:06:03Z</time>
      </trkpt>
      <trkpt lat="45.46585" lon="4.93362">
        <ele>398.12</ele>
        <time>2016-05-04T10:06:17Z</time>
      </trkpt>
      <trkpt lat="45.46591" lon="4.93361">
        <ele>397.64</ele>
        <time>2016-05-04T10:06:21Z</time>
      </trkpt>
      <trkpt lat="45.46614" lon="4.93358">
        <ele>395.72</ele>
        <time>2016-05-04T10:06:37Z</time>
      </trkpt>
      <trkpt lat="45.46622" lon="4.93356">
        <ele>395.24</ele>
        <time>2016-05-04T10:06:42Z</time>
      </trkpt>
      <trkpt lat="45.46624" lon="4.93354">
        <ele>394.76</ele>
        <time>2016-05-04T10:06:46Z</time>
      </trkpt>
      <trkpt lat="45.46633" lon="4.93346">
        <ele>393.32</ele>
        <time>2016-05-04T10:06:59Z</time>
      </trkpt>
      <trkpt lat="45.46639" lon="4.93342">
        <ele>392.84</ele>
        <time>2016-05-04T10:07:04Z</time>
      </trkpt>
      <trkpt lat="45.46649" lon="4.93343">
        <ele>391.39</ele>
        <time>2016-05-04T10:07:20Z</time>
      </trkpt>
      <trkpt lat="45.46663" lon="4.93359">
        <ele>389.95</ele>
        <time>2016-05-04T10:07:39Z</time>
      </trkpt>
      <trkpt lat="45.46672" lon="4.93364">
        <ele>388.99</ele>
        <time>2016-05-04T10:07:48Z</time>
      </trkpt>
      <trkpt lat="45.46693" lon="4.93387">
        <ele>385.63</ele>
        <time>2016-05-04T10:08:07Z</time>
      </trkpt>
      <trkpt lat="45.467" lon="4.93393">
        <ele>384.66</ele>
        <time>2016-05-04T10:08:14Z</time>
      </trkpt>
      <trkpt lat="45.4672" lon="4.93422">
        <ele>382.26</ele>
        <time>2016-05-04T10:08:38Z</time>
      </trkpt>
      <trkpt lat="45.46735" lon="4.93446">
        <ele>380.34</ele>
        <time>2016-05-04T10:08:55Z</time>
      </trkpt>
      <trkpt lat="45.46745" lon="4.93462">
        <ele>378.42</ele>
        <time>2016-05-04T10:09:06Z</time>
      </trkpt>
      <trkpt lat="45.46752" lon="4.9348">
        <ele>376.01</ele>
        <time>2016-05-04T10:09:18Z</time>
      </trkpt>
      <trkpt lat="45.46759" lon="4.9347">
        <ele>376.49</ele>
        <time>2016-05-04T10:09:34Z</time>
      </trkpt>
      <trkpt lat="45.46762" lon="4.93462">
        <ele>376.97</ele>
        <time>2016-05-04T10:09:52Z</time>
      </trkpt>
      <trkpt lat="45.4676" lon="4.93461">
        <ele>376.97</ele>
        <time>2016-05-04T10:10:21Z</time>
      </trkpt>
      <trkpt lat="45.46765" lon="4.93441">
        <ele>376.49</ele>
        <time>2016-05-04T10:10:37Z</time>
      </trkpt>
      <trkpt lat="45.46766" lon="4.93434">
        <ele>376.01</ele>
        <time>2016-05-04T10:10:41Z</time>
      </trkpt>
      <trkpt lat="45.46768" lon="4.93421">
        <ele>375.05</ele>
        <time>2016-05-04T10:10:48Z</time>
      </trkpt>
      <trkpt lat="45.4677" lon="4.93398">
        <ele>374.57</ele>
        <time>2016-05-04T10:11:00Z</time>
      </trkpt>
      <trkpt lat="45.46773" lon="4.93388">
        <ele>374.09</ele>
        <time>2016-05-04T10:11:12Z</time>
      </trkpt>
      <trkpt lat="45.46773" lon="4.93365">
        <ele>373.61</ele>
        <time>2016-05-04T10:11:21Z</time>
      </trkpt>
      <trkpt lat="45.46775" lon="4.93344">
        <ele>373.13</ele>
        <time>2016-05-04T10:11:34Z</time>
      </trkpt>
      <trkpt lat="45.46772" lon="4.93322">
        <ele>373.13</ele>
        <time>2016-05-04T10:11:46Z</time>
      </trkpt>
      <trkpt lat="45.4677" lon="4.93313">
        <ele>371.69</ele>
        <time>2016-05-04T10:11:50Z</time>
      </trkpt>
      <trkpt lat="45.46766" lon="4.93305">
        <ele>372.17</ele>
        <time>2016-05-04T10:11:57Z</time>
      </trkpt>
      <trkpt lat="45.46765" lon="4.93304">
        <ele>372.17</ele>
        <time>2016-05-04T10:11:59Z</time>
      </trkpt>
      <trkpt lat="45.46753" lon="4.933">
        <ele>373.13</ele>
        <time>2016-05-04T10:12:10Z</time>
      </trkpt>
      <trkpt lat="45.46747" lon="4.93294">
        <ele>373.13</ele>
        <time>2016-05-04T10:12:17Z</time>
      </trkpt>
      <trkpt lat="45.46743" lon="4.93293">
        <ele>374.09</ele>
        <time>2016-05-04T10:12:21Z</time>
      </trkpt>
      <trkpt lat="45.46738" lon="4.93291">
        <ele>373.13</ele>
        <time>2016-05-04T10:12:26Z</time>
      </trkpt>
      <trkpt lat="45.4673" lon="4.93285">
        <ele>374.09</ele>
        <time>2016-05-04T10:12:34Z</time>
      </trkpt>
      <trkpt lat="45.46728" lon="4.93281">
        <ele>374.09</ele>
        <time>2016-05-04T10:12:38Z</time>
      </trkpt>
      <trkpt lat="45.4672" lon="4.93277">
        <ele>373.61</ele>
        <time>2016-05-04T10:12:43Z</time>
      </trkpt>
      <trkpt lat="45.46715" lon="4.93272">
        <ele>374.09</ele>
        <time>2016-05-04T10:12:55Z</time>
      </trkpt>
      <trkpt lat="45.46713" lon="4.93272">
        <ele>374.09</ele>
        <time>2016-05-04T10:12:59Z</time>
      </trkpt>
      <trkpt lat="45.46711" lon="4.9327">
        <ele>374.09</ele>
        <time>2016-05-04T10:13:02Z</time>
      </trkpt>
      <trkpt lat="45.46705" lon="4.9326">
        <ele>373.61</ele>
        <time>2016-05-04T10:13:08Z</time>
      </trkpt>
      <trkpt lat="45.46699" lon="4.9326">
        <ele>373.61</ele>
        <time>2016-05-04T10:13:14Z</time>
      </trkpt>
      <trkpt lat="45.46692" lon="4.93249">
        <ele>374.09</ele>
        <time>2016-05-04T10:13:26Z</time>
      </trkpt>
      <trkpt lat="45.46692" lon="4.9325">
        <ele>374.09</ele>
        <time>2016-05-04T10:14:12Z</time>
      </trkpt>
      <trkpt lat="45.46691" lon="4.93248">
        <ele>373.61</ele>
        <time>2016-05-04T10:14:39Z</time>
      </trkpt>
      <trkpt lat="45.46691" lon="4.93244">
        <ele>373.61</ele>
        <time>2016-05-04T10:14:57Z</time>
      </trkpt>
      <trkpt lat="45.46691" lon="4.93242">
        <ele>374.09</ele>
        <time>2016-05-04T10:15:01Z</time>
      </trkpt>
      <trkpt lat="45.46677" lon="4.93236">
        <ele>373.61</ele>
        <time>2016-05-04T10:15:17Z</time>
      </trkpt>
      <trkpt lat="45.46655" lon="4.93236">
        <ele>376.49</ele>
        <time>2016-05-04T10:15:39Z</time>
      </trkpt>
      <trkpt lat="45.46625" lon="4.93231">
        <ele>376.97</ele>
        <time>2016-05-04T10:16:01Z</time>
      </trkpt>
      <trkpt lat="45.46599" lon="4.93227">
        <ele>378.9</ele>
        <time>2016-05-04T10:16:26Z</time>
      </trkpt>
      <trkpt lat="45.4658" lon="4.93199">
        <ele>377.45</ele>
        <time>2016-05-04T10:16:55Z</time>
      </trkpt>
      <trkpt lat="45.46582" lon="4.93187">
        <ele>376.01</ele>
        <time>2016-05-04T10:17:01Z</time>
      </trkpt>
      <trkpt lat="45.46585" lon="4.93166">
        <ele>372.65</ele>
        <time>2016-05-04T10:17:19Z</time>
      </trkpt>
      <trkpt lat="45.46591" lon="4.93155">
        <ele>370.24</ele>
        <time>2016-05-04T10:17:26Z</time>
      </trkpt>
      <trkpt lat="45.46596" lon="4.93133">
        <ele>366.88</ele>
        <time>2016-05-04T10:17:42Z</time>
      </trkpt>
      <trkpt lat="45.4659" lon="4.93122">
        <ele>367.36</ele>
        <time>2016-05-04T10:17:48Z</time>
      </trkpt>
      <trkpt lat="45.46588" lon="4.93127">
        <ele>367.84</ele>
        <time>2016-05-04T10:18:14Z</time>
      </trkpt>
      <trkpt lat="45.46588" lon="4.93122">
        <ele>368.32</ele>
        <time>2016-05-04T10:18:37Z</time>
      </trkpt>
      <trkpt lat="45.46589" lon="4.93112">
        <ele>368.8</ele>
        <time>2016-05-04T10:19:01Z</time>
      </trkpt>
      <trkpt lat="45.46583" lon="4.93104">
        <ele>367.84</ele>
        <time>2016-05-04T10:19:52Z</time>
      </trkpt>
      <trkpt lat="45.46569" lon="4.93096">
        <ele>366.4</ele>
        <time>2016-05-04T10:20:12Z</time>
      </trkpt>
      <trkpt lat="45.46552" lon="4.93077">
        <ele>367.36</ele>
        <time>2016-05-04T10:20:34Z</time>
      </trkpt>
      <trkpt lat="45.46552" lon="4.93041">
        <ele>367.84</ele>
        <time>2016-05-04T10:20:56Z</time>
      </trkpt>
      <trkpt lat="45.46575" lon="4.93032">
        <ele>367.36</ele>
        <time>2016-05-04T10:21:20Z</time>
      </trkpt>
      <trkpt lat="45.46591" lon="4.9302">
        <ele>370.24</ele>
        <time>2016-05-04T10:21:45Z</time>
      </trkpt>
      <trkpt lat="45.46598" lon="4.9301">
        <ele>371.69</ele>
        <time>2016-05-04T10:22:04Z</time>
      </trkpt>
      <trkpt lat="45.466" lon="4.93006">
        <ele>371.69</ele>
        <time>2016-05-04T10:22:48Z</time>
      </trkpt>
      <trkpt lat="45.46603" lon="4.93">
        <ele>371.21</ele>
        <time>2016-05-04T10:22:54Z</time>
      </trkpt>
      <trkpt lat="45.46604" lon="4.92995">
        <ele>371.21</ele>
        <time>2016-05-04T10:23:19Z</time>
      </trkpt>
      <trkpt lat="45.46603" lon="4.92991">
        <ele>371.21</ele>
        <time>2016-05-04T10:23:49Z</time>
      </trkpt>
      <trkpt lat="45.46605" lon="4.92988">
        <ele>371.69</ele>
        <time>2016-05-04T10:24:07Z</time>
      </trkpt>
      <trkpt lat="45.46607" lon="4.92984">
        <ele>371.21</ele>
        <time>2016-05-04T10:24:10Z</time>
      </trkpt>
      <trkpt lat="45.4661" lon="4.92979">
        <ele>370.73</ele>
        <time>2016-05-04T10:24:14Z</time>
      </trkpt>
      <trkpt lat="45.46613" lon="4.92972">
        <ele>370.24</ele>
        <time>2016-05-04T10:24:18Z</time>
      </trkpt>
      <trkpt lat="45.46627" lon="4.92957">
        <ele>367.84</ele>
        <time>2016-05-04T10:24:36Z</time>
      </trkpt>
      <trkpt lat="45.46633" lon="4.92951">
        <ele>368.32</ele>
        <time>2016-05-04T10:24:43Z</time>
      </trkpt>
      <trkpt lat="45.46639" lon="4.92945">
        <ele>368.8</ele>
        <time>2016-05-04T10:24:50Z</time>
      </trkpt>
      <trkpt lat="45.46643" lon="4.9294">
        <ele>367.84</ele>
        <time>2016-05-04T10:24:53Z</time>
      </trkpt>
      <trkpt lat="45.46644" lon="4.92922">
        <ele>369.76</ele>
        <time>2016-05-04T10:25:08Z</time>
      </trkpt>
      <trkpt lat="45.46643" lon="4.92915">
        <ele>370.73</ele>
        <time>2016-05-04T10:25:13Z</time>
      </trkpt>
      <trkpt lat="45.46644" lon="4.92903">
        <ele>371.69</ele>
        <time>2016-05-04T10:25:31Z</time>
      </trkpt>
      <trkpt lat="45.46645" lon="4.92899">
        <ele>371.69</ele>
        <time>2016-05-04T10:25:34Z</time>
      </trkpt>
      <trkpt lat="45.46656" lon="4.92863">
        <ele>373.61</ele>
        <time>2016-05-04T10:25:58Z</time>
      </trkpt>
      <trkpt lat="45.46656" lon="4.92833">
        <ele>376.01</ele>
        <time>2016-05-04T10:26:21Z</time>
      </trkpt>
      <trkpt lat="45.46654" lon="4.92828">
        <ele>376.49</ele>
        <time>2016-05-04T10:26:38Z</time>
      </trkpt>
      <trkpt lat="45.46653" lon="4.92821">
        <ele>376.97</ele>
        <time>2016-05-04T10:26:55Z</time>
      </trkpt>
      <trkpt lat="45.46651" lon="4.92816">
        <ele>376.97</ele>
        <time>2016-05-04T10:27:06Z</time>
      </trkpt>
      <trkpt lat="45.46649" lon="4.92813">
        <ele>376.97</ele>
        <time>2016-05-04T10:27:27Z</time>
      </trkpt>
      <trkpt lat="45.46649" lon="4.92814">
        <ele>376.01</ele>
        <time>2016-05-04T10:27:46Z</time>
      </trkpt>
      <trkpt lat="45.46649" lon="4.92814">
        <ele>376.01</ele>
        <time>2016-05-04T10:27:47Z</time>
      </trkpt>
      <trkpt lat="45.4665" lon="4.92817">
        <ele>377.45</ele>
        <time>2016-05-04T10:28:48Z</time>
      </trkpt>
      <trkpt lat="45.46651" lon="4.92819">
        <ele>377.45</ele>
        <time>2016-05-04T10:29:02Z</time>
      </trkpt>
      <trkpt lat="45.46652" lon="4.92817">
        <ele>377.45</ele>
        <time>2016-05-04T10:30:56Z</time>
      </trkpt>
      <trkpt lat="45.4665" lon="4.92815">
        <ele>378.42</ele>
        <time>2016-05-04T10:33:10Z</time>
      </trkpt>
      <trkpt lat="45.46647" lon="4.92814">
        <ele>378.42</ele>
        <time>2016-05-04T10:33:40Z</time>
      </trkpt>
      <trkpt lat="45.46649" lon="4.92812">
        <ele>378.42</ele>
        <time>2016-05-04T10:33:51Z</time>
      </trkpt>
      <trkpt lat="45.46652" lon="4.92797">
        <ele>379.38</ele>
        <time>2016-05-04T10:34:07Z</time>
      </trkpt>
      <trkpt lat="45.46659" lon="4.92796">
        <ele>378.9</ele>
        <time>2016-05-04T10:34:19Z</time>
      </trkpt>
      <trkpt lat="45.4668" lon="4.92799">
        <ele>377.45</ele>
        <time>2016-05-04T10:34:42Z</time>
      </trkpt>
      <trkpt lat="45.46713" lon="4.92786">
        <ele>376.97</ele>
        <time>2016-05-04T10:35:07Z</time>
      </trkpt>
      <trkpt lat="45.4674" lon="4.92764">
        <ele>376.97</ele>
        <time>2016-05-04T10:35:32Z</time>
      </trkpt>
      <trkpt lat="45.46762" lon="4.92754">
        <ele>376.97</ele>
        <time>2016-05-04T10:35:53Z</time>
      </trkpt>
      <trkpt lat="45.46769" lon="4.92752">
        <ele>377.45</ele>
        <time>2016-05-04T10:35:57Z</time>
      </trkpt>
      <trkpt lat="45.46796" lon="4.92741">
        <ele>377.94</ele>
        <time>2016-05-04T10:36:21Z</time>
      </trkpt>
      <trkpt lat="45.46809" lon="4.92733">
        <ele>377.94</ele>
        <time>2016-05-04T10:36:39Z</time>
      </trkpt>
      <trkpt lat="45.4684" lon="4.92721">
        <ele>377.94</ele>
        <time>2016-05-04T10:37:03Z</time>
      </trkpt>
      <trkpt lat="45.46855" lon="4.92719">
        <ele>377.94</ele>
        <time>2016-05-04T10:37:31Z</time>
      </trkpt>
      <trkpt lat="45.46861" lon="4.92721">
        <ele>378.42</ele>
        <time>2016-05-04T10:37:44Z</time>
      </trkpt>
      <trkpt lat="45.46861" lon="4.92721">
        <ele>378.42</ele>
        <time>2016-05-04T10:38:28Z</time>
      </trkpt>
      <trkpt lat="45.46868" lon="4.92718">
        <ele>377.94</ele>
        <time>2016-05-04T10:38:49Z</time>
      </trkpt>
      <trkpt lat="45.46873" lon="4.92719">
        <ele>377.94</ele>
        <time>2016-05-04T10:38:55Z</time>
      </trkpt>
      <trkpt lat="45.46891" lon="4.92714">
        <ele>377.45</ele>
        <time>2016-05-04T10:39:09Z</time>
      </trkpt>
      <trkpt lat="45.46904" lon="4.92712">
        <ele>377.45</ele>
        <time>2016-05-04T10:39:20Z</time>
      </trkpt>
      <trkpt lat="45.4691" lon="4.92712">
        <ele>376.97</ele>
        <time>2016-05-04T10:39:24Z</time>
      </trkpt>
      <trkpt lat="45.46931" lon="4.9271">
        <ele>376.49</ele>
        <time>2016-05-04T10:39:41Z</time>
      </trkpt>
      <trkpt lat="45.4695" lon="4.92709">
        <ele>376.01</ele>
        <time>2016-05-04T10:39:58Z</time>
      </trkpt>
      <trkpt lat="45.46971" lon="4.92701">
        <ele>376.49</ele>
        <time>2016-05-04T10:40:17Z</time>
      </trkpt>
      <trkpt lat="45.46989" lon="4.92695">
        <ele>375.53</ele>
        <time>2016-05-04T10:40:34Z</time>
      </trkpt>
      <trkpt lat="45.47002" lon="4.92692">
        <ele>376.01</ele>
        <time>2016-05-04T10:40:47Z</time>
      </trkpt>
      <trkpt lat="45.47016" lon="4.92689">
        <ele>376.97</ele>
        <time>2016-05-04T10:40:57Z</time>
      </trkpt>
      <trkpt lat="45.47024" lon="4.92683">
        <ele>377.45</ele>
        <time>2016-05-04T10:41:05Z</time>
      </trkpt>
      <trkpt lat="45.47025" lon="4.92679">
        <ele>377.94</ele>
        <time>2016-05-04T10:41:08Z</time>
      </trkpt>
      <trkpt lat="45.47027" lon="4.92674">
        <ele>377.45</ele>
        <time>2016-05-04T10:41:12Z</time>
      </trkpt>
      <trkpt lat="45.4703" lon="4.92662">
        <ele>379.38</ele>
        <time>2016-05-04T10:41:27Z</time>
      </trkpt>
      <trkpt lat="45.47038" lon="4.92656">
        <ele>379.86</ele>
        <time>2016-05-04T10:41:32Z</time>
      </trkpt>
      <trkpt lat="45.4704" lon="4.92655">
        <ele>380.34</ele>
        <time>2016-05-04T10:41:34Z</time>
      </trkpt>
      <trkpt lat="45.47043" lon="4.92652">
        <ele>380.34</ele>
        <time>2016-05-04T10:41:37Z</time>
      </trkpt>
      <trkpt lat="45.47059" lon="4.9264">
        <ele>381.3</ele>
        <time>2016-05-04T10:41:54Z</time>
      </trkpt>
      <trkpt lat="45.47061" lon="4.92638">
        <ele>381.3</ele>
        <time>2016-05-04T10:41:56Z</time>
      </trkpt>
      <trkpt lat="45.47067" lon="4.92638">
        <ele>381.3</ele>
        <time>2016-05-04T10:42:00Z</time>
      </trkpt>
      <trkpt lat="45.47074" lon="4.92636">
        <ele>381.3</ele>
        <time>2016-05-04T10:42:05Z</time>
      </trkpt>
      <trkpt lat="45.47077" lon="4.92638">
        <ele>381.78</ele>
        <time>2016-05-04T10:42:07Z</time>
      </trkpt>
      <trkpt lat="45.47093" lon="4.92639">
        <ele>381.78</ele>
        <time>2016-05-04T10:42:22Z</time>
      </trkpt>
      <trkpt lat="45.47094" lon="4.92639">
        <ele>381.3</ele>
        <time>2016-05-04T10:42:24Z</time>
      </trkpt>
      <trkpt lat="45.47103" lon="4.92641">
        <ele>381.3</ele>
        <time>2016-05-04T10:42:31Z</time>
      </trkpt>
      <trkpt lat="45.47114" lon="4.92639">
        <ele>381.78</ele>
        <time>2016-05-04T10:42:40Z</time>
      </trkpt>
      <trkpt lat="45.47119" lon="4.9264">
        <ele>381.78</ele>
        <time>2016-05-04T10:42:44Z</time>
      </trkpt>
      <trkpt lat="45.47125" lon="4.92641">
        <ele>381.78</ele>
        <time>2016-05-04T10:42:48Z</time>
      </trkpt>
      <trkpt lat="45.47132" lon="4.92642">
        <ele>381.78</ele>
        <time>2016-05-04T10:42:53Z</time>
      </trkpt>
      <trkpt lat="45.47136" lon="4.92641">
        <ele>381.78</ele>
        <time>2016-05-04T10:42:56Z</time>
      </trkpt>
      <trkpt lat="45.47138" lon="4.92641">
        <ele>381.78</ele>
        <time>2016-05-04T10:42:59Z</time>
      </trkpt>
      <trkpt lat="45.4715" lon="4.92639">
        <ele>381.3</ele>
        <time>2016-05-04T10:43:11Z</time>
      </trkpt>
      <trkpt lat="45.47157" lon="4.92636">
        <ele>381.78</ele>
        <time>2016-05-04T10:43:16Z</time>
      </trkpt>
      <trkpt lat="45.47161" lon="4.92635">
        <ele>381.78</ele>
        <time>2016-05-04T10:43:20Z</time>
      </trkpt>
      <trkpt lat="45.47167" lon="4.92631">
        <ele>381.3</ele>
        <time>2016-05-04T10:43:26Z</time>
      </trkpt>
      <trkpt lat="45.47173" lon="4.92627">
        <ele>381.3</ele>
        <time>2016-05-04T10:43:33Z</time>
      </trkpt>
      <trkpt lat="45.47181" lon="4.92621">
        <ele>382.26</ele>
        <time>2016-05-04T10:43:51Z</time>
      </trkpt>
      <trkpt lat="45.4718" lon="4.92621">
        <ele>381.78</ele>
        <time>2016-05-04T10:44:18Z</time>
      </trkpt>
      <trkpt lat="45.47194" lon="4.92612">
        <ele>382.26</ele>
        <time>2016-05-04T10:44:36Z</time>
      </trkpt>
      <trkpt lat="45.4721" lon="4.926">
        <ele>382.74</ele>
        <time>2016-05-04T10:44:52Z</time>
      </trkpt>
      <trkpt lat="45.47212" lon="4.92595">
        <ele>383.22</ele>
        <time>2016-05-04T10:44:59Z</time>
      </trkpt>
      <trkpt lat="45.47219" lon="4.92587">
        <ele>383.7</ele>
        <time>2016-05-04T10:45:05Z</time>
      </trkpt>
      <trkpt lat="45.47224" lon="4.92582">
        <ele>383.22</ele>
        <time>2016-05-04T10:45:12Z</time>
      </trkpt>
      <trkpt lat="45.47237" lon="4.92567">
        <ele>383.7</ele>
        <time>2016-05-04T10:45:28Z</time>
      </trkpt>
      <trkpt lat="45.4724" lon="4.92566">
        <ele>384.18</ele>
        <time>2016-05-04T10:45:32Z</time>
      </trkpt>
      <trkpt lat="45.47257" lon="4.92542">
        <ele>384.18</ele>
        <time>2016-05-04T10:45:57Z</time>
      </trkpt>
      <trkpt lat="45.47282" lon="4.92517">
        <ele>384.18</ele>
        <time>2016-05-04T10:46:26Z</time>
      </trkpt>
      <trkpt lat="45.47307" lon="4.92509">
        <ele>384.18</ele>
        <time>2016-05-04T10:46:46Z</time>
      </trkpt>
      <trkpt lat="45.47332" lon="4.92496">
        <ele>385.15</ele>
        <time>2016-05-04T10:47:11Z</time>
      </trkpt>
      <trkpt lat="45.47364" lon="4.92478">
        <ele>383.7</ele>
        <time>2016-05-04T10:47:38Z</time>
      </trkpt>
      <trkpt lat="45.47376" lon="4.92467">
        <ele>382.26</ele>
        <time>2016-05-04T10:47:49Z</time>
      </trkpt>
      <trkpt lat="45.47384" lon="4.92461">
        <ele>382.26</ele>
        <time>2016-05-04T10:47:54Z</time>
      </trkpt>
      <trkpt lat="45.47391" lon="4.92455">
        <ele>381.78</ele>
        <time>2016-05-04T10:47:58Z</time>
      </trkpt>
      <trkpt lat="45.474" lon="4.92449">
        <ele>381.3</ele>
        <time>2016-05-04T10:48:10Z</time>
      </trkpt>
      <trkpt lat="45.47401" lon="4.92448">
        <ele>381.3</ele>
        <time>2016-05-04T10:48:24Z</time>
      </trkpt>
      <trkpt lat="45.47406" lon="4.92447">
        <ele>380.34</ele>
        <time>2016-05-04T10:48:28Z</time>
      </trkpt>
      <trkpt lat="45.47412" lon="4.92442">
        <ele>381.3</ele>
        <time>2016-05-04T10:48:33Z</time>
      </trkpt>
      <trkpt lat="45.47415" lon="4.92436">
        <ele>380.34</ele>
        <time>2016-05-04T10:48:37Z</time>
      </trkpt>
      <trkpt lat="45.47423" lon="4.92428">
        <ele>379.86</ele>
        <time>2016-05-04T10:48:49Z</time>
      </trkpt>
      <trkpt lat="45.47432" lon="4.92411">
        <ele>379.86</ele>
        <time>2016-05-04T10:49:01Z</time>
      </trkpt>
      <trkpt lat="45.47433" lon="4.92408">
        <ele>379.86</ele>
        <time>2016-05-04T10:49:03Z</time>
      </trkpt>
      <trkpt lat="45.47437" lon="4.92409">
        <ele>379.86</ele>
        <time>2016-05-04T10:49:07Z</time>
      </trkpt>
      <trkpt lat="45.47437" lon="4.92407">
        <ele>379.38</ele>
        <time>2016-05-04T10:49:09Z</time>
      </trkpt>
      <trkpt lat="45.47446" lon="4.92395">
        <ele>378.9</ele>
        <time>2016-05-04T10:49:17Z</time>
      </trkpt>
      <trkpt lat="45.47448" lon="4.9239">
        <ele>379.38</ele>
        <time>2016-05-04T10:49:20Z</time>
      </trkpt>
      <trkpt lat="45.47451" lon="4.92382">
        <ele>379.38</ele>
        <time>2016-05-04T10:49:24Z</time>
      </trkpt>
      <trkpt lat="45.47454" lon="4.92382">
        <ele>378.9</ele>
        <time>2016-05-04T10:49:28Z</time>
      </trkpt>
      <trkpt lat="45.4746" lon="4.92373">
        <ele>379.38</ele>
        <time>2016-05-04T10:49:36Z</time>
      </trkpt>
      <trkpt lat="45.4747" lon="4.92373">
        <ele>379.38</ele>
        <time>2016-05-04T10:49:45Z</time>
      </trkpt>
      <trkpt lat="45.47474" lon="4.92371">
        <ele>379.38</ele>
        <time>2016-05-04T10:49:50Z</time>
      </trkpt>
      <trkpt lat="45.47479" lon="4.9237">
        <ele>379.38</ele>
        <time>2016-05-04T10:49:55Z</time>
      </trkpt>
      <trkpt lat="45.47482" lon="4.92369">
        <ele>379.86</ele>
        <time>2016-05-04T10:50:00Z</time>
      </trkpt>
      <trkpt lat="45.47494" lon="4.92366">
        <ele>380.34</ele>
        <time>2016-05-04T10:50:07Z</time>
      </trkpt>
      <trkpt lat="45.4751" lon="4.92354">
        <ele>380.34</ele>
        <time>2016-05-04T10:50:22Z</time>
      </trkpt>
      <trkpt lat="45.47513" lon="4.92351">
        <ele>380.34</ele>
        <time>2016-05-04T10:50:27Z</time>
      </trkpt>
      <trkpt lat="45.47516" lon="4.92349">
        <ele>380.82</ele>
        <time>2016-05-04T10:50:31Z</time>
      </trkpt>
      <trkpt lat="45.47525" lon="4.92346">
        <ele>380.34</ele>
        <time>2016-05-04T10:50:35Z</time>
      </trkpt>
      <trkpt lat="45.47534" lon="4.92343">
        <ele>379.86</ele>
        <time>2016-05-04T10:50:45Z</time>
      </trkpt>
      <trkpt lat="45.47552" lon="4.9234">
        <ele>380.34</ele>
        <time>2016-05-04T10:51:00Z</time>
      </trkpt>
      <trkpt lat="45.47562" lon="4.92329">
        <ele>379.38</ele>
        <time>2016-05-04T10:51:14Z</time>
      </trkpt>
      <trkpt lat="45.47567" lon="4.92322">
        <ele>379.38</ele>
        <time>2016-05-04T10:51:19Z</time>
      </trkpt>
      <trkpt lat="45.47582" lon="4.92314">
        <ele>380.34</ele>
        <time>2016-05-04T10:51:33Z</time>
      </trkpt>
      <trkpt lat="45.47586" lon="4.92313">
        <ele>380.82</ele>
        <time>2016-05-04T10:51:38Z</time>
      </trkpt>
      <trkpt lat="45.4759" lon="4.92311">
        <ele>380.82</ele>
        <time>2016-05-04T10:51:41Z</time>
      </trkpt>
      <trkpt lat="45.47596" lon="4.92308">
        <ele>381.3</ele>
        <time>2016-05-04T10:51:47Z</time>
      </trkpt>
      <trkpt lat="45.47613" lon="4.92298">
        <ele>380.82</ele>
        <time>2016-05-04T10:52:02Z</time>
      </trkpt>
      <trkpt lat="45.47628" lon="4.92293">
        <ele>381.3</ele>
        <time>2016-05-04T10:52:14Z</time>
      </trkpt>
      <trkpt lat="45.47632" lon="4.9229">
        <ele>381.3</ele>
        <time>2016-05-04T10:52:18Z</time>
      </trkpt>
      <trkpt lat="45.47643" lon="4.92276">
        <ele>381.78</ele>
        <time>2016-05-04T10:52:28Z</time>
      </trkpt>
      <trkpt lat="45.4765" lon="4.92269">
        <ele>381.3</ele>
        <time>2016-05-04T10:52:37Z</time>
      </trkpt>
      <trkpt lat="45.47657" lon="4.92261">
        <ele>381.3</ele>
        <time>2016-05-04T10:52:43Z</time>
      </trkpt>
      <trkpt lat="45.47662" lon="4.92253">
        <ele>380.82</ele>
        <time>2016-05-04T10:52:55Z</time>
      </trkpt>
      <trkpt lat="45.47672" lon="4.92236">
        <ele>379.86</ele>
        <time>2016-05-04T10:53:09Z</time>
      </trkpt>
      <trkpt lat="45.47681" lon="4.92219">
        <ele>378.9</ele>
        <time>2016-05-04T10:53:21Z</time>
      </trkpt>
      <trkpt lat="45.47695" lon="4.92203">
        <ele>377.94</ele>
        <time>2016-05-04T10:53:34Z</time>
      </trkpt>
      <trkpt lat="45.477" lon="4.92197">
        <ele>377.94</ele>
        <time>2016-05-04T10:53:40Z</time>
      </trkpt>
      <trkpt lat="45.47703" lon="4.92193">
        <ele>377.94</ele>
        <time>2016-05-04T10:53:43Z</time>
      </trkpt>
      <trkpt lat="45.47707" lon="4.92187">
        <ele>377.45</ele>
        <time>2016-05-04T10:53:48Z</time>
      </trkpt>
      <trkpt lat="45.47717" lon="4.9217">
        <ele>377.94</ele>
        <time>2016-05-04T10:54:03Z</time>
      </trkpt>
      <trkpt lat="45.47707" lon="4.92155">
        <ele>380.34</ele>
        <time>2016-05-04T10:54:27Z</time>
      </trkpt>
      <trkpt lat="45.47702" lon="4.92149">
        <ele>380.34</ele>
        <time>2016-05-04T10:54:45Z</time>
      </trkpt>
      <trkpt lat="45.47699" lon="4.92147">
        <ele>380.82</ele>
        <time>2016-05-04T10:54:49Z</time>
      </trkpt>
      <trkpt lat="45.47692" lon="4.92141">
        <ele>381.78</ele>
        <time>2016-05-04T10:54:56Z</time>
      </trkpt>
      <trkpt lat="45.47689" lon="4.9214">
        <ele>382.74</ele>
        <time>2016-05-04T10:55:01Z</time>
      </trkpt>
      <trkpt lat="45.47686" lon="4.92137">
        <ele>383.22</ele>
        <time>2016-05-04T10:55:04Z</time>
      </trkpt>
      <trkpt lat="45.4768" lon="4.92125">
        <ele>384.18</ele>
        <time>2016-05-04T10:55:14Z</time>
      </trkpt>
      <trkpt lat="45.4767" lon="4.92092">
        <ele>387.07</ele>
        <time>2016-05-04T10:55:37Z</time>
      </trkpt>
      <trkpt lat="45.4767" lon="4.92072">
        <ele>390.43</ele>
        <time>2016-05-04T10:55:56Z</time>
      </trkpt>
      <trkpt lat="45.47668" lon="4.92049">
        <ele>393.32</ele>
        <time>2016-05-04T10:56:18Z</time>
      </trkpt>
      <trkpt lat="45.47669" lon="4.92027">
        <ele>396.2</ele>
        <time>2016-05-04T10:56:36Z</time>
      </trkpt>
      <trkpt lat="45.47672" lon="4.91995">
        <ele>398.12</ele>
        <time>2016-05-04T10:57:03Z</time>
      </trkpt>
      <trkpt lat="45.47674" lon="4.91953">
        <ele>398.6</ele>
        <time>2016-05-04T10:57:30Z</time>
      </trkpt>
      <trkpt lat="45.47675" lon="4.91927">
        <ele>399.08</ele>
        <time>2016-05-04T10:57:47Z</time>
      </trkpt>
      <trkpt lat="45.47685" lon="4.91906">
        <ele>397.16</ele>
        <time>2016-05-04T10:58:08Z</time>
      </trkpt>
      <trkpt lat="45.47692" lon="4.919">
        <ele>396.68</ele>
        <time>2016-05-04T10:58:12Z</time>
      </trkpt>
      <trkpt lat="45.47706" lon="4.91891">
        <ele>395.72</ele>
        <time>2016-05-04T10:58:23Z</time>
      </trkpt>
      <trkpt lat="45.47716" lon="4.91873">
        <ele>393.8</ele>
        <time>2016-05-04T10:58:39Z</time>
      </trkpt>
      <trkpt lat="45.47724" lon="4.91867">
        <ele>393.32</ele>
        <time>2016-05-04T10:58:45Z</time>
      </trkpt>
      <trkpt lat="45.47727" lon="4.91861">
        <ele>392.84</ele>
        <time>2016-05-04T10:58:48Z</time>
      </trkpt>
      <trkpt lat="45.47731" lon="4.91857">
        <ele>392.36</ele>
        <time>2016-05-04T10:58:50Z</time>
      </trkpt>
      <trkpt lat="45.4773" lon="4.91852">
        <ele>391.39</ele>
        <time>2016-05-04T10:58:57Z</time>
      </trkpt>
      <trkpt lat="45.47724" lon="4.91836">
        <ele>391.87</ele>
        <time>2016-05-04T10:59:09Z</time>
      </trkpt>
      <trkpt lat="45.4772" lon="4.91826">
        <ele>391.39</ele>
        <time>2016-05-04T10:59:14Z</time>
      </trkpt>
      <trkpt lat="45.47715" lon="4.91816">
        <ele>391.87</ele>
        <time>2016-05-04T10:59:26Z</time>
      </trkpt>
      <trkpt lat="45.47705" lon="4.91795">
        <ele>391.87</ele>
        <time>2016-05-04T10:59:44Z</time>
      </trkpt>
      <trkpt lat="45.47694" lon="4.9178">
        <ele>391.87</ele>
        <time>2016-05-04T10:59:56Z</time>
      </trkpt>
      <trkpt lat="45.47683" lon="4.91743">
        <ele>393.8</ele>
        <time>2016-05-04T11:00:23Z</time>
      </trkpt>
      <trkpt lat="45.47668" lon="4.91716">
        <ele>394.28</ele>
        <time>2016-05-04T11:00:51Z</time>
      </trkpt>
      <trkpt lat="45.47663" lon="4.91705">
        <ele>395.24</ele>
        <time>2016-05-04T11:00:58Z</time>
      </trkpt>
      <trkpt lat="45.47649" lon="4.91677">
        <ele>397.16</ele>
        <time>2016-05-04T11:01:20Z</time>
      </trkpt>
      <trkpt lat="45.47642" lon="4.91657">
        <ele>397.64</ele>
        <time>2016-05-04T11:01:38Z</time>
      </trkpt>
      <trkpt lat="45.47634" lon="4.91631">
        <ele>399.08</ele>
        <time>2016-05-04T11:01:57Z</time>
      </trkpt>
      <trkpt lat="45.47633" lon="4.91629">
        <ele>399.08</ele>
        <time>2016-05-04T11:01:58Z</time>
      </trkpt>
      <trkpt lat="45.4762" lon="4.91611">
        <ele>400.53</ele>
        <time>2016-05-04T11:02:18Z</time>
      </trkpt>
      <trkpt lat="45.47622" lon="4.91598">
        <ele>400.53</ele>
        <time>2016-05-04T11:02:29Z</time>
      </trkpt>
      <trkpt lat="45.47623" lon="4.91592">
        <ele>400.53</ele>
        <time>2016-05-04T11:02:33Z</time>
      </trkpt>
      <trkpt lat="45.47626" lon="4.91569">
        <ele>400.53</ele>
        <time>2016-05-04T11:02:49Z</time>
      </trkpt>
      <trkpt lat="45.47629" lon="4.91563">
        <ele>401.49</ele>
        <time>2016-05-04T11:02:54Z</time>
      </trkpt>
      <trkpt lat="45.47631" lon="4.91557">
        <ele>401.49</ele>
        <time>2016-05-04T11:02:58Z</time>
      </trkpt>
      <trkpt lat="45.47633" lon="4.91537">
        <ele>401.49</ele>
        <time>2016-05-04T11:03:16Z</time>
      </trkpt>
      <trkpt lat="45.47638" lon="4.91524">
        <ele>401.49</ele>
        <time>2016-05-04T11:03:24Z</time>
      </trkpt>
      <trkpt lat="45.47644" lon="4.91508">
        <ele>401.97</ele>
        <time>2016-05-04T11:03:37Z</time>
      </trkpt>
      <trkpt lat="45.47644" lon="4.91493">
        <ele>401.49</ele>
        <time>2016-05-04T11:03:45Z</time>
      </trkpt>
      <trkpt lat="45.47647" lon="4.91487">
        <ele>401.49</ele>
        <time>2016-05-04T11:03:49Z</time>
      </trkpt>
      <trkpt lat="45.47647" lon="4.91478">
        <ele>401.49</ele>
        <time>2016-05-04T11:03:56Z</time>
      </trkpt>
      <trkpt lat="45.47648" lon="4.91466">
        <ele>401.97</ele>
        <time>2016-05-04T11:04:05Z</time>
      </trkpt>
      <trkpt lat="45.47649" lon="4.91459">
        <ele>402.45</ele>
        <time>2016-05-04T11:04:09Z</time>
      </trkpt>
      <trkpt lat="45.47655" lon="4.91432">
        <ele>402.93</ele>
        <time>2016-05-04T11:04:26Z</time>
      </trkpt>
      <trkpt lat="45.47662" lon="4.91396">
        <ele>403.89</ele>
        <time>2016-05-04T11:04:51Z</time>
      </trkpt>
      <trkpt lat="45.47663" lon="4.91394">
        <ele>403.89</ele>
        <time>2016-05-04T11:05:14Z</time>
      </trkpt>
      <trkpt lat="45.47671" lon="4.91363">
        <ele>404.85</ele>
        <time>2016-05-04T11:05:36Z</time>
      </trkpt>
      <trkpt lat="45.47672" lon="4.91352">
        <ele>402.057892</ele>
        <time>2016-05-04T11:05:49Z</time>
      </trkpt>
      <trkpt lat="45.47681" lon="4.91304">
        <ele>403.89</ele>
        <time>2016-05-04T11:09:11Z</time>
      </trkpt>
      <trkpt lat="45.47684" lon="4.91292">
        <ele>403.41</ele>
        <time>2016-05-04T11:09:18Z</time>
      </trkpt>
      <trkpt lat="45.47691" lon="4.9129">
        <ele>402.93</ele>
        <time>2016-05-04T11:09:27Z</time>
      </trkpt>
      <trkpt lat="45.47695" lon="4.91287">
        <ele>402.93</ele>
        <time>2016-05-04T11:09:32Z</time>
      </trkpt>
      <trkpt lat="45.47699" lon="4.91286">
        <ele>402.93</ele>
        <time>2016-05-04T11:09:35Z</time>
      </trkpt>
      <trkpt lat="45.47702" lon="4.91283">
        <ele>402.93</ele>
        <time>2016-05-04T11:09:37Z</time>
      </trkpt>
      <trkpt lat="45.4771" lon="4.91266">
        <ele>402.45</ele>
        <time>2016-05-04T11:09:48Z</time>
      </trkpt>
      <trkpt lat="45.47713" lon="4.91253">
        <ele>401.97</ele>
        <time>2016-05-04T11:09:58Z</time>
      </trkpt>
      <trkpt lat="45.47727" lon="4.91227">
        <ele>401.49</ele>
        <time>2016-05-04T11:10:17Z</time>
      </trkpt>
      <trkpt lat="45.4773" lon="4.91221">
        <ele>401.97</ele>
        <time>2016-05-04T11:10:20Z</time>
      </trkpt>
      <trkpt lat="45.47737" lon="4.91211">
        <ele>401.49</ele>
        <time>2016-05-04T11:10:29Z</time>
      </trkpt>
      <trkpt lat="45.47747" lon="4.9118">
        <ele>400.53</ele>
        <time>2016-05-04T11:10:51Z</time>
      </trkpt>
      <trkpt lat="45.47758" lon="4.91148">
        <ele>399.08</ele>
        <time>2016-05-04T11:11:14Z</time>
      </trkpt>
      <trkpt lat="45.47758" lon="4.91145">
        <ele>399.57</ele>
        <time>2016-05-04T11:11:17Z</time>
      </trkpt>
      <trkpt lat="45.47763" lon="4.91138">
        <ele>399.08</ele>
        <time>2016-05-04T11:11:22Z</time>
      </trkpt>
      <trkpt lat="45.47779" lon="4.91119">
        <ele>397.64</ele>
        <time>2016-05-04T11:11:41Z</time>
      </trkpt>
      <trkpt lat="45.47799" lon="4.91099">
        <ele>395.24</ele>
        <time>2016-05-04T11:12:04Z</time>
      </trkpt>
      <trkpt lat="45.47818" lon="4.9108">
        <ele>393.32</ele>
        <time>2016-05-04T11:12:23Z</time>
      </trkpt>
      <trkpt lat="45.47832" lon="4.91071">
        <ele>393.32</ele>
        <time>2016-05-04T11:12:51Z</time>
      </trkpt>
      <trkpt lat="45.47833" lon="4.91071">
        <ele>392.84</ele>
        <time>2016-05-04T11:12:52Z</time>
      </trkpt>
      <trkpt lat="45.47844" lon="4.91069">
        <ele>392.36</ele>
        <time>2016-05-04T11:13:10Z</time>
      </trkpt>
      <trkpt lat="45.47844" lon="4.91073">
        <ele>391.87</ele>
        <time>2016-05-04T11:13:33Z</time>
      </trkpt>
      <trkpt lat="45.47844" lon="4.91072">
        <ele>392.84</ele>
        <time>2016-05-04T11:14:06Z</time>
      </trkpt>
      <trkpt lat="45.47844" lon="4.91072">
        <ele>393.32</ele>
        <time>2016-05-04T11:14:45Z</time>
      </trkpt>
      <trkpt lat="45.47844" lon="4.91072">
        <ele>391.87</ele>
        <time>2016-05-04T11:44:01Z</time>
      </trkpt>
      <trkpt lat="45.47834" lon="4.91068">
        <ele>392.36</ele>
        <time>2016-05-04T11:44:10Z</time>
      </trkpt>
      <trkpt lat="45.47838" lon="4.9107">
        <ele>395.24</ele>
        <time>2016-05-04T11:45:36Z</time>
      </trkpt>
      <trkpt lat="45.47838" lon="4.9107">
        <ele>398.12</ele>
        <time>2016-05-04T11:46:01Z</time>
      </trkpt>
      <trkpt lat="45.47832" lon="4.91068">
        <ele>401.49</ele>
        <time>2016-05-04T11:52:10Z</time>
      </trkpt>
      <trkpt lat="45.47832" lon="4.91068">
        <ele>401.49</ele>
        <time>2016-05-04T11:52:11Z</time>
      </trkpt>
      <trkpt lat="45.47853" lon="4.91079">
        <ele>399.08</ele>
        <time>2016-05-04T11:53:02Z</time>
      </trkpt>
      <trkpt lat="45.47846" lon="4.9108">
        <ele>400.05</ele>
        <time>2016-05-04T11:56:19Z</time>
      </trkpt>
      <trkpt lat="45.47846" lon="4.91079">
        <ele>401.49</ele>
        <time>2016-05-04T12:01:22Z</time>
      </trkpt>
      <trkpt lat="45.47842" lon="4.91071">
        <ele>401.49</ele>
        <time>2016-05-04T12:01:49Z</time>
      </trkpt>
      <trkpt lat="45.47836" lon="4.91064">
        <ele>402.45</ele>
        <time>2016-05-04T12:02:34Z</time>
      </trkpt>
      <trkpt lat="45.47838" lon="4.91063">
        <ele>401.97</ele>
        <time>2016-05-04T12:02:36Z</time>
      </trkpt>
      <trkpt lat="45.47848" lon="4.91042">
        <ele>401.49</ele>
        <time>2016-05-04T12:02:55Z</time>
      </trkpt>
      <trkpt lat="45.47858" lon="4.91026">
        <ele>401.97</ele>
        <time>2016-05-04T12:03:09Z</time>
      </trkpt>
      <trkpt lat="45.47861" lon="4.91024">
        <ele>401.49</ele>
        <time>2016-05-04T12:03:12Z</time>
      </trkpt>
      <trkpt lat="45.47865" lon="4.91019">
        <ele>401.49</ele>
        <time>2016-05-04T12:03:15Z</time>
      </trkpt>
      <trkpt lat="45.47877" lon="4.91012">
        <ele>400.53</ele>
        <time>2016-05-04T12:03:27Z</time>
      </trkpt>
      <trkpt lat="45.47893" lon="4.91002">
        <ele>400.05</ele>
        <time>2016-05-04T12:03:40Z</time>
      </trkpt>
      <trkpt lat="45.47906" lon="4.90994">
        <ele>400.05</ele>
        <time>2016-05-04T12:03:53Z</time>
      </trkpt>
      <trkpt lat="45.47912" lon="4.9099">
        <ele>400.05</ele>
        <time>2016-05-04T12:03:56Z</time>
      </trkpt>
      <trkpt lat="45.47931" lon="4.90978">
        <ele>399.57</ele>
        <time>2016-05-04T12:04:15Z</time>
      </trkpt>
      <trkpt lat="45.47935" lon="4.90977">
        <ele>400.05</ele>
        <time>2016-05-04T12:04:18Z</time>
      </trkpt>
      <trkpt lat="45.47946" lon="4.90968">
        <ele>399.08</ele>
        <time>2016-05-04T12:04:41Z</time>
      </trkpt>
      <trkpt lat="45.47947" lon="4.90968">
        <ele>399.08</ele>
        <time>2016-05-04T12:04:42Z</time>
      </trkpt>
      <trkpt lat="45.47948" lon="4.90971">
        <ele>398.6</ele>
        <time>2016-05-04T12:04:44Z</time>
      </trkpt>
      <trkpt lat="45.47967" lon="4.9098">
        <ele>396.2</ele>
        <time>2016-05-04T12:05:00Z</time>
      </trkpt>
      <trkpt lat="45.4797" lon="4.9098">
        <ele>395.72</ele>
        <time>2016-05-04T12:05:02Z</time>
      </trkpt>
      <trkpt lat="45.4798" lon="4.90981">
        <ele>394.28</ele>
        <time>2016-05-04T12:05:10Z</time>
      </trkpt>
      <trkpt lat="45.47988" lon="4.90984">
        <ele>392.36</ele>
        <time>2016-05-04T12:05:16Z</time>
      </trkpt>
      <trkpt lat="45.47992" lon="4.90986">
        <ele>391.87</ele>
        <time>2016-05-04T12:05:20Z</time>
      </trkpt>
      <trkpt lat="45.47999" lon="4.90984">
        <ele>389.47</ele>
        <time>2016-05-04T12:05:26Z</time>
      </trkpt>
      <trkpt lat="45.48008" lon="4.90985">
        <ele>388.03</ele>
        <time>2016-05-04T12:05:33Z</time>
      </trkpt>
      <trkpt lat="45.48011" lon="4.90983">
        <ele>387.55</ele>
        <time>2016-05-04T12:05:35Z</time>
      </trkpt>
      <trkpt lat="45.48014" lon="4.90984">
        <ele>387.07</ele>
        <time>2016-05-04T12:05:38Z</time>
      </trkpt>
      <trkpt lat="45.48026" lon="4.90983">
        <ele>384.18</ele>
        <time>2016-05-04T12:05:50Z</time>
      </trkpt>
      <trkpt lat="45.48035" lon="4.90984">
        <ele>382.26</ele>
        <time>2016-05-04T12:06:01Z</time>
      </trkpt>
      <trkpt lat="45.48067" lon="4.90986">
        <ele>381.3</ele>
        <time>2016-05-04T12:06:26Z</time>
      </trkpt>
      <trkpt lat="45.48072" lon="4.90988">
        <ele>380.82</ele>
        <time>2016-05-04T12:06:30Z</time>
      </trkpt>
      <trkpt lat="45.48092" lon="4.90989">
        <ele>378.42</ele>
        <time>2016-05-04T12:06:48Z</time>
      </trkpt>
      <trkpt lat="45.48106" lon="4.90991">
        <ele>377.94</ele>
        <time>2016-05-04T12:06:59Z</time>
      </trkpt>
      <trkpt lat="45.4811" lon="4.90991">
        <ele>376.97</ele>
        <time>2016-05-04T12:07:02Z</time>
      </trkpt>
      <trkpt lat="45.48119" lon="4.90987">
        <ele>376.49</ele>
        <time>2016-05-04T12:07:08Z</time>
      </trkpt>
      <trkpt lat="45.48133" lon="4.90986">
        <ele>373.13</ele>
        <time>2016-05-04T12:07:20Z</time>
      </trkpt>
      <trkpt lat="45.4815" lon="4.90984">
        <ele>369.76</ele>
        <time>2016-05-04T12:07:33Z</time>
      </trkpt>
      <trkpt lat="45.48156" lon="4.90983">
        <ele>368.8</ele>
        <time>2016-05-04T12:07:38Z</time>
      </trkpt>
      <trkpt lat="45.48165" lon="4.90963">
        <ele>366.88</ele>
        <time>2016-05-04T12:07:51Z</time>
      </trkpt>
      <trkpt lat="45.48167" lon="4.90954">
        <ele>366.4</ele>
        <time>2016-05-04T12:07:57Z</time>
      </trkpt>
      <trkpt lat="45.48167" lon="4.90945">
        <ele>366.4</ele>
        <time>2016-05-04T12:08:14Z</time>
      </trkpt>
      <trkpt lat="45.48176" lon="4.90939">
        <ele>364.48</ele>
        <time>2016-05-04T12:08:26Z</time>
      </trkpt>
      <trkpt lat="45.48185" lon="4.90947">
        <ele>363.04</ele>
        <time>2016-05-04T12:08:35Z</time>
      </trkpt>
      <trkpt lat="45.48194" lon="4.90953">
        <ele>361.59</ele>
        <time>2016-05-04T12:08:54Z</time>
      </trkpt>
      <trkpt lat="45.48203" lon="4.90962">
        <ele>360.63</ele>
        <time>2016-05-04T12:09:09Z</time>
      </trkpt>
      <trkpt lat="45.48205" lon="4.90964">
        <ele>360.15</ele>
        <time>2016-05-04T12:09:11Z</time>
      </trkpt>
      <trkpt lat="45.4821" lon="4.90971">
        <ele>359.19</ele>
        <time>2016-05-04T12:09:17Z</time>
      </trkpt>
      <trkpt lat="45.48212" lon="4.90973">
        <ele>359.19</ele>
        <time>2016-05-04T12:09:19Z</time>
      </trkpt>
      <trkpt lat="45.48217" lon="4.9098">
        <ele>358.23</ele>
        <time>2016-05-04T12:09:25Z</time>
      </trkpt>
      <trkpt lat="45.48219" lon="4.90985">
        <ele>357.75</ele>
        <time>2016-05-04T12:09:30Z</time>
      </trkpt>
      <trkpt lat="45.4823" lon="4.91011">
        <ele>355.34</ele>
        <time>2016-05-04T12:09:47Z</time>
      </trkpt>
      <trkpt lat="45.48229" lon="4.9103">
        <ele>354.38</ele>
        <time>2016-05-04T12:10:13Z</time>
      </trkpt>
      <trkpt lat="45.48224" lon="4.91041">
        <ele>352.94</ele>
        <time>2016-05-04T12:10:35Z</time>
      </trkpt>
      <trkpt lat="45.48217" lon="4.91059">
        <ele>351.5</ele>
        <time>2016-05-04T12:10:59Z</time>
      </trkpt>
      <trkpt lat="45.48208" lon="4.91083">
        <ele>350.06</ele>
        <time>2016-05-04T12:11:15Z</time>
      </trkpt>
      <trkpt lat="45.48202" lon="4.91096">
        <ele>349.58</ele>
        <time>2016-05-04T12:11:24Z</time>
      </trkpt>
      <trkpt lat="45.48202" lon="4.91104">
        <ele>348.62</ele>
        <time>2016-05-04T12:11:28Z</time>
      </trkpt>
      <trkpt lat="45.48192" lon="4.91127">
        <ele>346.69</ele>
        <time>2016-05-04T12:11:46Z</time>
      </trkpt>
      <trkpt lat="45.48195" lon="4.91152">
        <ele>345.25</ele>
        <time>2016-05-04T12:11:59Z</time>
      </trkpt>
      <trkpt lat="45.48206" lon="4.91164">
        <ele>343.81</ele>
        <time>2016-05-04T12:12:12Z</time>
      </trkpt>
      <trkpt lat="45.48218" lon="4.9117">
        <ele>341.89</ele>
        <time>2016-05-04T12:12:33Z</time>
      </trkpt>
      <trkpt lat="45.48218" lon="4.9117">
        <ele>342.37</ele>
        <time>2016-05-04T12:12:34Z</time>
      </trkpt>
      <trkpt lat="45.48221" lon="4.91171">
        <ele>341.89</ele>
        <time>2016-05-04T12:12:37Z</time>
      </trkpt>
      <trkpt lat="45.48232" lon="4.91177">
        <ele>340.44</ele>
        <time>2016-05-04T12:12:47Z</time>
      </trkpt>
      <trkpt lat="45.48235" lon="4.91179">
        <ele>339.96</ele>
        <time>2016-05-04T12:12:50Z</time>
      </trkpt>
      <trkpt lat="45.48244" lon="4.91182">
        <ele>338.52</ele>
        <time>2016-05-04T12:13:04Z</time>
      </trkpt>
      <trkpt lat="45.48251" lon="4.91183">
        <ele>337.08</ele>
        <time>2016-05-04T12:13:10Z</time>
      </trkpt>
      <trkpt lat="45.48267" lon="4.91187">
        <ele>337.08</ele>
        <time>2016-05-04T12:13:22Z</time>
      </trkpt>
      <trkpt lat="45.48271" lon="4.91188">
        <ele>336.6</ele>
        <time>2016-05-04T12:13:26Z</time>
      </trkpt>
      <trkpt lat="45.48282" lon="4.9119">
        <ele>334.68</ele>
        <time>2016-05-04T12:13:34Z</time>
      </trkpt>
      <trkpt lat="45.48298" lon="4.91192">
        <ele>330.83</ele>
        <time>2016-05-04T12:13:49Z</time>
      </trkpt>
      <trkpt lat="45.48299" lon="4.91192">
        <ele>330.83</ele>
        <time>2016-05-04T12:13:50Z</time>
      </trkpt>
      <trkpt lat="45.48305" lon="4.91194">
        <ele>331.79</ele>
        <time>2016-05-04T12:13:53Z</time>
      </trkpt>
      <trkpt lat="45.48308" lon="4.91195">
        <ele>331.31</ele>
        <time>2016-05-04T12:13:55Z</time>
      </trkpt>
      <trkpt lat="45.48326" lon="4.91202">
        <ele>327.95</ele>
        <time>2016-05-04T12:14:11Z</time>
      </trkpt>
      <trkpt lat="45.48341" lon="4.91213">
        <ele>327.95</ele>
        <time>2016-05-04T12:14:24Z</time>
      </trkpt>
      <trkpt lat="45.48345" lon="4.91215">
        <ele>326.5</ele>
        <time>2016-05-04T12:14:27Z</time>
      </trkpt>
      <trkpt lat="45.48347" lon="4.91216">
        <ele>326.02</ele>
        <time>2016-05-04T12:14:29Z</time>
      </trkpt>
      <trkpt lat="45.48366" lon="4.91226">
        <ele>324.58</ele>
        <time>2016-05-04T12:14:47Z</time>
      </trkpt>
      <trkpt lat="45.4837" lon="4.9123">
        <ele>324.1</ele>
        <time>2016-05-04T12:14:52Z</time>
      </trkpt>
      <trkpt lat="45.48379" lon="4.91238">
        <ele>322.18</ele>
        <time>2016-05-04T12:15:01Z</time>
      </trkpt>
      <trkpt lat="45.48386" lon="4.91226">
        <ele>321.7</ele>
        <time>2016-05-04T12:15:23Z</time>
      </trkpt>
      <trkpt lat="45.48388" lon="4.91224">
        <ele>322.18</ele>
        <time>2016-05-04T12:15:26Z</time>
      </trkpt>
      <trkpt lat="45.4839" lon="4.91222">
        <ele>320.74</ele>
        <time>2016-05-04T12:15:29Z</time>
      </trkpt>
      <trkpt lat="45.48399" lon="4.91207">
        <ele>319.3</ele>
        <time>2016-05-04T12:15:44Z</time>
      </trkpt>
      <trkpt lat="45.48403" lon="4.91198">
        <ele>320.26</ele>
        <time>2016-05-04T12:16:03Z</time>
      </trkpt>
      <trkpt lat="45.48418" lon="4.91175">
        <ele>320.26</ele>
        <time>2016-05-04T12:16:22Z</time>
      </trkpt>
      <trkpt lat="45.48424" lon="4.9116">
        <ele>319.78</ele>
        <time>2016-05-04T12:16:34Z</time>
      </trkpt>
      <trkpt lat="45.48431" lon="4.91151">
        <ele>320.74</ele>
        <time>2016-05-04T12:16:48Z</time>
      </trkpt>
      <trkpt lat="45.4843" lon="4.91154">
        <ele>319.78</ele>
        <time>2016-05-04T12:17:10Z</time>
      </trkpt>
      <trkpt lat="45.48439" lon="4.91144">
        <ele>319.3</ele>
        <time>2016-05-04T12:17:31Z</time>
      </trkpt>
      <trkpt lat="45.48441" lon="4.91137">
        <ele>319.78</ele>
        <time>2016-05-04T12:17:36Z</time>
      </trkpt>
      <trkpt lat="45.48445" lon="4.91131">
        <ele>319.78</ele>
        <time>2016-05-04T12:17:41Z</time>
      </trkpt>
      <trkpt lat="45.48455" lon="4.91109">
        <ele>319.3</ele>
        <time>2016-05-04T12:18:00Z</time>
      </trkpt>
      <trkpt lat="45.4846" lon="4.91101">
        <ele>319.3</ele>
        <time>2016-05-04T12:18:08Z</time>
      </trkpt>
      <trkpt lat="45.48462" lon="4.91091">
        <ele>318.81</ele>
        <time>2016-05-04T12:18:13Z</time>
      </trkpt>
      <trkpt lat="45.48464" lon="4.91082">
        <ele>319.3</ele>
        <time>2016-05-04T12:18:18Z</time>
      </trkpt>
      <trkpt lat="45.48453" lon="4.91066">
        <ele>319.78</ele>
        <time>2016-05-04T12:18:33Z</time>
      </trkpt>
      <trkpt lat="45.48452" lon="4.91063">
        <ele>320.26</ele>
        <time>2016-05-04T12:18:36Z</time>
      </trkpt>
      <trkpt lat="45.48444" lon="4.91048">
        <ele>321.22</ele>
        <time>2016-05-04T12:18:52Z</time>
      </trkpt>
      <trkpt lat="45.48443" lon="4.91046">
        <ele>321.22</ele>
        <time>2016-05-04T12:18:54Z</time>
      </trkpt>
      <trkpt lat="45.4844" lon="4.91036">
        <ele>322.66</ele>
        <time>2016-05-04T12:19:05Z</time>
      </trkpt>
      <trkpt lat="45.48431" lon="4.91019">
        <ele>324.58</ele>
        <time>2016-05-04T12:19:26Z</time>
      </trkpt>
      <trkpt lat="45.48423" lon="4.91006">
        <ele>325.54</ele>
        <time>2016-05-04T12:19:41Z</time>
      </trkpt>
      <trkpt lat="45.48415" lon="4.90987">
        <ele>326.5</ele>
        <time>2016-05-04T12:19:56Z</time>
      </trkpt>
      <trkpt lat="45.48409" lon="4.90969">
        <ele>326.5</ele>
        <time>2016-05-04T12:20:09Z</time>
      </trkpt>
      <trkpt lat="45.4841" lon="4.90963">
        <ele>326.02</ele>
        <time>2016-05-04T12:20:13Z</time>
      </trkpt>
      <trkpt lat="45.48414" lon="4.90949">
        <ele>325.54</ele>
        <time>2016-05-04T12:20:23Z</time>
      </trkpt>
      <trkpt lat="45.48421" lon="4.90933">
        <ele>325.54</ele>
        <time>2016-05-04T12:20:33Z</time>
      </trkpt>
      <trkpt lat="45.48424" lon="4.90928">
        <ele>325.54</ele>
        <time>2016-05-04T12:20:49Z</time>
      </trkpt>
      <trkpt lat="45.48424" lon="4.90925">
        <ele>325.54</ele>
        <time>2016-05-04T12:20:52Z</time>
      </trkpt>
      <trkpt lat="45.48425" lon="4.9092">
        <ele>325.54</ele>
        <time>2016-05-04T12:20:55Z</time>
      </trkpt>
      <trkpt lat="45.48428" lon="4.9091">
        <ele>326.5</ele>
        <time>2016-05-04T12:21:02Z</time>
      </trkpt>
      <trkpt lat="45.48429" lon="4.90903">
        <ele>326.5</ele>
        <time>2016-05-04T12:21:06Z</time>
      </trkpt>
      <trkpt lat="45.4843" lon="4.90888">
        <ele>327.95</ele>
        <time>2016-05-04T12:21:19Z</time>
      </trkpt>
      <trkpt lat="45.48429" lon="4.90881">
        <ele>327.47</ele>
        <time>2016-05-04T12:21:22Z</time>
      </trkpt>
      <trkpt lat="45.4843" lon="4.90874">
        <ele>328.43</ele>
        <time>2016-05-04T12:21:26Z</time>
      </trkpt>
      <trkpt lat="45.48432" lon="4.90872">
        <ele>328.43</ele>
        <time>2016-05-04T12:21:28Z</time>
      </trkpt>
      <trkpt lat="45.48433" lon="4.90863">
        <ele>330.35</ele>
        <time>2016-05-04T12:21:34Z</time>
      </trkpt>
      <trkpt lat="45.48433" lon="4.90862">
        <ele>328.43</ele>
        <time>2016-05-04T12:21:36Z</time>
      </trkpt>
      <trkpt lat="45.48433" lon="4.90861">
        <ele>329.39</ele>
        <time>2016-05-04T12:21:37Z</time>
      </trkpt>
      <trkpt lat="45.48433" lon="4.90846">
        <ele>330.35</ele>
        <time>2016-05-04T12:21:46Z</time>
      </trkpt>
      <trkpt lat="45.48433" lon="4.90845">
        <ele>330.83</ele>
        <time>2016-05-04T12:21:49Z</time>
      </trkpt>
      <trkpt lat="45.48431" lon="4.90834">
        <ele>331.31</ele>
        <time>2016-05-04T12:21:55Z</time>
      </trkpt>
      <trkpt lat="45.4843" lon="4.90831">
        <ele>332.75</ele>
        <time>2016-05-04T12:21:58Z</time>
      </trkpt>
      <trkpt lat="45.48432" lon="4.90823">
        <ele>333.23</ele>
        <time>2016-05-04T12:22:11Z</time>
      </trkpt>
      <trkpt lat="45.48434" lon="4.90822">
        <ele>332.75</ele>
        <time>2016-05-04T12:22:15Z</time>
      </trkpt>
      <trkpt lat="45.48439" lon="4.90825">
        <ele>333.23</ele>
        <time>2016-05-04T12:22:19Z</time>
      </trkpt>
      <trkpt lat="45.48442" lon="4.90829">
        <ele>332.75</ele>
        <time>2016-05-04T12:22:57Z</time>
      </trkpt>
      <trkpt lat="45.48446" lon="4.90835">
        <ele>331.79</ele>
        <time>2016-05-04T12:23:18Z</time>
      </trkpt>
      <trkpt lat="45.48466" lon="4.9085">
        <ele>330.35</ele>
        <time>2016-05-04T12:23:40Z</time>
      </trkpt>
      <trkpt lat="45.48497" lon="4.90865">
        <ele>328.91</ele>
        <time>2016-05-04T12:24:07Z</time>
      </trkpt>
      <trkpt lat="45.48519" lon="4.90877">
        <ele>327.47</ele>
        <time>2016-05-04T12:24:27Z</time>
      </trkpt>
      <trkpt lat="45.48531" lon="4.90883">
        <ele>326.99</ele>
        <time>2016-05-04T12:24:43Z</time>
      </trkpt>
      <trkpt lat="45.48559" lon="4.90898">
        <ele>325.06</ele>
        <time>2016-05-04T12:25:08Z</time>
      </trkpt>
      <trkpt lat="45.48564" lon="4.90901">
        <ele>324.58</ele>
        <time>2016-05-04T12:25:12Z</time>
      </trkpt>
      <trkpt lat="45.48589" lon="4.90911">
        <ele>324.1</ele>
        <time>2016-05-04T12:25:31Z</time>
      </trkpt>
      <trkpt lat="45.48592" lon="4.90914">
        <ele>324.1</ele>
        <time>2016-05-04T12:25:35Z</time>
      </trkpt>
      <trkpt lat="45.48595" lon="4.90913">
        <ele>324.1</ele>
        <time>2016-05-04T12:25:37Z</time>
      </trkpt>
      <trkpt lat="45.486" lon="4.90916">
        <ele>324.58</ele>
        <time>2016-05-04T12:25:43Z</time>
      </trkpt>
      <trkpt lat="45.48605" lon="4.90917">
        <ele>324.1</ele>
        <time>2016-05-04T12:25:46Z</time>
      </trkpt>
      <trkpt lat="45.48622" lon="4.90918">
        <ele>324.1</ele>
        <time>2016-05-04T12:26:01Z</time>
      </trkpt>
      <trkpt lat="45.4864" lon="4.90919">
        <ele>324.58</ele>
        <time>2016-05-04T12:26:20Z</time>
      </trkpt>
      <trkpt lat="45.48642" lon="4.90919">
        <ele>325.06</ele>
        <time>2016-05-04T12:26:22Z</time>
      </trkpt>
      <trkpt lat="45.4865" lon="4.90919">
        <ele>324.1</ele>
        <time>2016-05-04T12:26:29Z</time>
      </trkpt>
      <trkpt lat="45.48653" lon="4.90918">
        <ele>324.58</ele>
        <time>2016-05-04T12:26:31Z</time>
      </trkpt>
      <trkpt lat="45.48663" lon="4.90919">
        <ele>323.62</ele>
        <time>2016-05-04T12:26:42Z</time>
      </trkpt>
      <trkpt lat="45.4868" lon="4.90922">
        <ele>323.14</ele>
        <time>2016-05-04T12:26:59Z</time>
      </trkpt>
      <trkpt lat="45.48691" lon="4.90925">
        <ele>322.66</ele>
        <time>2016-05-04T12:27:14Z</time>
      </trkpt>
      <trkpt lat="45.48699" lon="4.90925">
        <ele>321.7</ele>
        <time>2016-05-04T12:27:35Z</time>
      </trkpt>
      <trkpt lat="45.48705" lon="4.90929">
        <ele>320.74</ele>
        <time>2016-05-04T12:27:42Z</time>
      </trkpt>
      <trkpt lat="45.48718" lon="4.90953">
        <ele>318.33</ele>
        <time>2016-05-04T12:28:00Z</time>
      </trkpt>
      <trkpt lat="45.4873" lon="4.90966">
        <ele>315.93</ele>
        <time>2016-05-04T12:28:13Z</time>
      </trkpt>
      <trkpt lat="45.48736" lon="4.90965">
        <ele>315.45</ele>
        <time>2016-05-04T12:28:18Z</time>
      </trkpt>
      <trkpt lat="45.48744" lon="4.90963">
        <ele>314.97</ele>
        <time>2016-05-04T12:28:24Z</time>
      </trkpt>
      <trkpt lat="45.48752" lon="4.9096">
        <ele>314.49</ele>
        <time>2016-05-04T12:28:32Z</time>
      </trkpt>
      <trkpt lat="45.48755" lon="4.9096">
        <ele>314.49</ele>
        <time>2016-05-04T12:28:36Z</time>
      </trkpt>
      <trkpt lat="45.48753" lon="4.90947">
        <ele>315.45</ele>
        <time>2016-05-04T12:28:47Z</time>
      </trkpt>
      <trkpt lat="45.48751" lon="4.90937">
        <ele>316.89</ele>
        <time>2016-05-04T12:28:57Z</time>
      </trkpt>
      <trkpt lat="45.48746" lon="4.90922">
        <ele>318.33</ele>
        <time>2016-05-04T12:29:08Z</time>
      </trkpt>
      <trkpt lat="45.48748" lon="4.90916">
        <ele>319.3</ele>
        <time>2016-05-04T12:29:12Z</time>
      </trkpt>
      <trkpt lat="45.48745" lon="4.90899">
        <ele>321.7</ele>
        <time>2016-05-04T12:29:27Z</time>
      </trkpt>
      <trkpt lat="45.48742" lon="4.90898">
        <ele>322.18</ele>
        <time>2016-05-04T12:29:56Z</time>
      </trkpt>
      <trkpt lat="45.48744" lon="4.90896">
        <ele>321.7</ele>
        <time>2016-05-04T12:30:05Z</time>
      </trkpt>
      <trkpt lat="45.48743" lon="4.90879">
        <ele>325.06</ele>
        <time>2016-05-04T12:30:18Z</time>
      </trkpt>
      <trkpt lat="45.48741" lon="4.90875">
        <ele>325.06</ele>
        <time>2016-05-04T12:30:51Z</time>
      </trkpt>
      <trkpt lat="45.48741" lon="4.90875">
        <ele>326.5</ele>
        <time>2016-05-04T12:31:08Z</time>
      </trkpt>
      <trkpt lat="45.48742" lon="4.90866">
        <ele>327.95</ele>
        <time>2016-05-04T12:31:14Z</time>
      </trkpt>
      <trkpt lat="45.48746" lon="4.90845">
        <ele>330.35</ele>
        <time>2016-05-04T12:31:29Z</time>
      </trkpt>
      <trkpt lat="45.48748" lon="4.9084">
        <ele>330.35</ele>
        <time>2016-05-04T12:31:37Z</time>
      </trkpt>
      <trkpt lat="45.48748" lon="4.90836">
        <ele>330.83</ele>
        <time>2016-05-04T12:31:40Z</time>
      </trkpt>
      <trkpt lat="45.48749" lon="4.90821">
        <ele>334.2</ele>
        <time>2016-05-04T12:31:54Z</time>
      </trkpt>
      <trkpt lat="45.4875" lon="4.9082">
        <ele>334.68</ele>
        <time>2016-05-04T12:31:56Z</time>
      </trkpt>
      <trkpt lat="45.4875" lon="4.9081">
        <ele>335.64</ele>
        <time>2016-05-04T12:32:03Z</time>
      </trkpt>
      <trkpt lat="45.4875" lon="4.908">
        <ele>337.08</ele>
        <time>2016-05-04T12:32:12Z</time>
      </trkpt>
      <trkpt lat="45.48744" lon="4.9078">
        <ele>339.48</ele>
        <time>2016-05-04T12:32:31Z</time>
      </trkpt>
      <trkpt lat="45.48741" lon="4.90768">
        <ele>341.89</ele>
        <time>2016-05-04T12:32:49Z</time>
      </trkpt>
      <trkpt lat="45.48744" lon="4.90757">
        <ele>339.48</ele>
        <time>2016-05-04T12:33:07Z</time>
      </trkpt>
      <trkpt lat="45.48747" lon="4.90757">
        <ele>340.44</ele>
        <time>2016-05-04T12:33:10Z</time>
      </trkpt>
      <trkpt lat="45.48765" lon="4.9075">
        <ele>339.48</ele>
        <time>2016-05-04T12:33:27Z</time>
      </trkpt>
      <trkpt lat="45.48778" lon="4.90746">
        <ele>337.56</ele>
        <time>2016-05-04T12:33:41Z</time>
      </trkpt>
      <trkpt lat="45.48781" lon="4.90747">
        <ele>336.6</ele>
        <time>2016-05-04T12:33:56Z</time>
      </trkpt>
      <trkpt lat="45.48784" lon="4.90746">
        <ele>336.6</ele>
        <time>2016-05-04T12:34:13Z</time>
      </trkpt>
      <trkpt lat="45.48788" lon="4.90746">
        <ele>336.6</ele>
        <time>2016-05-04T12:34:16Z</time>
      </trkpt>
      <trkpt lat="45.48791" lon="4.90746">
        <ele>336.12</ele>
        <time>2016-05-04T12:34:19Z</time>
      </trkpt>
      <trkpt lat="45.48795" lon="4.90745">
        <ele>335.64</ele>
        <time>2016-05-04T12:34:24Z</time>
      </trkpt>
      <trkpt lat="45.48798" lon="4.90745">
        <ele>335.16</ele>
        <time>2016-05-04T12:34:26Z</time>
      </trkpt>
      <trkpt lat="45.4881" lon="4.90738">
        <ele>334.2</ele>
        <time>2016-05-04T12:34:44Z</time>
      </trkpt>
      <trkpt lat="45.48812" lon="4.90737">
        <ele>333.71</ele>
        <time>2016-05-04T12:34:47Z</time>
      </trkpt>
      <trkpt lat="45.48816" lon="4.90728">
        <ele>332.27</ele>
        <time>2016-05-04T12:34:55Z</time>
      </trkpt>
      <trkpt lat="45.4882" lon="4.90722">
        <ele>331.79</ele>
        <time>2016-05-04T12:34:59Z</time>
      </trkpt>
      <trkpt lat="45.48822" lon="4.90715">
        <ele>331.31</ele>
        <time>2016-05-04T12:35:05Z</time>
      </trkpt>
      <trkpt lat="45.48825" lon="4.90705">
        <ele>329.87</ele>
        <time>2016-05-04T12:35:13Z</time>
      </trkpt>
      <trkpt lat="45.48827" lon="4.90704">
        <ele>329.87</ele>
        <time>2016-05-04T12:35:15Z</time>
      </trkpt>
      <trkpt lat="45.48831" lon="4.90702">
        <ele>329.39</ele>
        <time>2016-05-04T12:35:18Z</time>
      </trkpt>
      <trkpt lat="45.48837" lon="4.90689">
        <ele>328.43</ele>
        <time>2016-05-04T12:35:32Z</time>
      </trkpt>
      <trkpt lat="45.48838" lon="4.90688">
        <ele>328.43</ele>
        <time>2016-05-04T12:35:33Z</time>
      </trkpt>
      <trkpt lat="45.48849" lon="4.90675">
        <ele>327.47</ele>
        <time>2016-05-04T12:35:55Z</time>
      </trkpt>
      <trkpt lat="45.48848" lon="4.90674">
        <ele>327.47</ele>
        <time>2016-05-04T12:36:18Z</time>
      </trkpt>
      <trkpt lat="45.48848" lon="4.90674">
        <ele>326.99</ele>
        <time>2016-05-04T12:36:31Z</time>
      </trkpt>
      <trkpt lat="45.4885" lon="4.90671">
        <ele>326.5</ele>
        <time>2016-05-04T12:36:35Z</time>
      </trkpt>
      <trkpt lat="45.48854" lon="4.90655">
        <ele>325.06</ele>
        <time>2016-05-04T12:36:47Z</time>
      </trkpt>
      <trkpt lat="45.48853" lon="4.9065">
        <ele>325.54</ele>
        <time>2016-05-04T12:36:52Z</time>
      </trkpt>
      <trkpt lat="45.48856" lon="4.90645">
        <ele>323.62</ele>
        <time>2016-05-04T12:36:55Z</time>
      </trkpt>
      <trkpt lat="45.48854" lon="4.90642">
        <ele>323.14</ele>
        <time>2016-05-04T12:36:58Z</time>
      </trkpt>
      <trkpt lat="45.48858" lon="4.90632">
        <ele>322.66</ele>
        <time>2016-05-04T12:37:03Z</time>
      </trkpt>
      <trkpt lat="45.48857" lon="4.90626">
        <ele>321.7</ele>
        <time>2016-05-04T12:37:08Z</time>
      </trkpt>
      <trkpt lat="45.4886" lon="4.90621">
        <ele>321.7</ele>
        <time>2016-05-04T12:37:11Z</time>
      </trkpt>
      <trkpt lat="45.4886" lon="4.90616">
        <ele>321.22</ele>
        <time>2016-05-04T12:37:14Z</time>
      </trkpt>
      <trkpt lat="45.48861" lon="4.90608">
        <ele>321.7</ele>
        <time>2016-05-04T12:37:19Z</time>
      </trkpt>
      <trkpt lat="45.48863" lon="4.90607">
        <ele>320.74</ele>
        <time>2016-05-04T12:37:21Z</time>
      </trkpt>
      <trkpt lat="45.48866" lon="4.90594">
        <ele>320.26</ele>
        <time>2016-05-04T12:37:33Z</time>
      </trkpt>
      <trkpt lat="45.48866" lon="4.90584">
        <ele>318.81</ele>
        <time>2016-05-04T12:37:42Z</time>
      </trkpt>
      <trkpt lat="45.48873" lon="4.90565">
        <ele>316.89</ele>
        <time>2016-05-04T12:37:50Z</time>
      </trkpt>
      <trkpt lat="45.48881" lon="4.90555">
        <ele>315.93</ele>
        <time>2016-05-04T12:38:03Z</time>
      </trkpt>
      <trkpt lat="45.48881" lon="4.9055">
        <ele>315.45</ele>
        <time>2016-05-04T12:38:05Z</time>
      </trkpt>
      <trkpt lat="45.48889" lon="4.90542">
        <ele>313.53</ele>
        <time>2016-05-04T12:38:13Z</time>
      </trkpt>
      <trkpt lat="45.48892" lon="4.90539">
        <ele>313.05</ele>
        <time>2016-05-04T12:38:18Z</time>
      </trkpt>
      <trkpt lat="45.48907" lon="4.90521">
        <ele>310.16</ele>
        <time>2016-05-04T12:38:33Z</time>
      </trkpt>
      <trkpt lat="45.48906" lon="4.9052">
        <ele>310.16</ele>
        <time>2016-05-04T12:38:34Z</time>
      </trkpt>
      <trkpt lat="45.48904" lon="4.90519">
        <ele>310.16</ele>
        <time>2016-05-04T12:38:37Z</time>
      </trkpt>
      <trkpt lat="45.4891" lon="4.90508">
        <ele>310.16</ele>
        <time>2016-05-04T12:38:43Z</time>
      </trkpt>
      <trkpt lat="45.48911" lon="4.90506">
        <ele>309.68</ele>
        <time>2016-05-04T12:38:47Z</time>
      </trkpt>
      <trkpt lat="45.48916" lon="4.90493">
        <ele>308.72</ele>
        <time>2016-05-04T12:38:55Z</time>
      </trkpt>
      <trkpt lat="45.48914" lon="4.9049">
        <ele>309.68</ele>
        <time>2016-05-04T12:38:58Z</time>
      </trkpt>
      <trkpt lat="45.48916" lon="4.90483">
        <ele>308.72</ele>
        <time>2016-05-04T12:39:01Z</time>
      </trkpt>
      <trkpt lat="45.48919" lon="4.90479">
        <ele>308.24</ele>
        <time>2016-05-04T12:39:16Z</time>
      </trkpt>
      <trkpt lat="45.48919" lon="4.90479">
        <ele>350.06</ele>
        <time>2016-05-04T12:41:02Z</time>
      </trkpt>
      <trkpt lat="45.48919" lon="4.90479">
        <ele>314.49</ele>
        <time>2016-05-04T12:41:03Z</time>
      </trkpt>
      <trkpt lat="45.48949" lon="4.90373">
        <ele>315.45</ele>
        <time>2016-05-04T12:41:08Z</time>
      </trkpt>
      <trkpt lat="45.48949" lon="4.90372">
        <ele>314.97</ele>
        <time>2016-05-04T12:41:09Z</time>
      </trkpt>
      <trkpt lat="45.48961" lon="4.90339">
        <ele>314.97</ele>
        <time>2016-05-04T12:41:33Z</time>
      </trkpt>
      <trkpt lat="45.48956" lon="4.90337">
        <ele>314.97</ele>
        <time>2016-05-04T12:42:17Z</time>
      </trkpt>
      <trkpt lat="45.48953" lon="4.90334">
        <ele>314.49</ele>
        <time>2016-05-04T12:42:56Z</time>
      </trkpt>
      <trkpt lat="45.48955" lon="4.90337">
        <ele>314.97</ele>
        <time>2016-05-04T12:43:54Z</time>
      </trkpt>
      <trkpt lat="45.48959" lon="4.90338">
        <ele>314.49</ele>
        <time>2016-05-04T12:44:54Z</time>
      </trkpt>
      <trkpt lat="45.48961" lon="4.90338">
        <ele>314.01</ele>
        <time>2016-05-04T12:45:17Z</time>
      </trkpt>
      <trkpt lat="45.48961" lon="4.90338">
        <ele>314.49</ele>
        <time>2016-05-04T12:45:35Z</time>
      </trkpt>
      <trkpt lat="45.4896" lon="4.90334">
        <ele>314.97</ele>
        <time>2016-05-04T12:45:43Z</time>
      </trkpt>
      <trkpt lat="45.48959" lon="4.90326">
        <ele>314.49</ele>
        <time>2016-05-04T12:45:49Z</time>
      </trkpt>
      <trkpt lat="45.48959" lon="4.90318">
        <ele>314.49</ele>
        <time>2016-05-04T12:45:53Z</time>
      </trkpt>
      <trkpt lat="45.48956" lon="4.9031">
        <ele>314.97</ele>
        <time>2016-05-04T12:46:00Z</time>
      </trkpt>
      <trkpt lat="45.48956" lon="4.90298">
        <ele>315.93</ele>
        <time>2016-05-04T12:46:08Z</time>
      </trkpt>
      <trkpt lat="45.48955" lon="4.90289">
        <ele>316.89</ele>
        <time>2016-05-04T12:46:14Z</time>
      </trkpt>
      <trkpt lat="45.48954" lon="4.90288">
        <ele>316.89</ele>
        <time>2016-05-04T12:46:16Z</time>
      </trkpt>
      <trkpt lat="45.48952" lon="4.90254">
        <ele>319.3</ele>
        <time>2016-05-04T12:46:41Z</time>
      </trkpt>
      <trkpt lat="45.48953" lon="4.90247">
        <ele>319.78</ele>
        <time>2016-05-04T12:46:47Z</time>
      </trkpt>
      <trkpt lat="45.48954" lon="4.90224">
        <ele>320.26</ele>
        <time>2016-05-04T12:47:03Z</time>
      </trkpt>
      <trkpt lat="45.48954" lon="4.90222">
        <ele>320.74</ele>
        <time>2016-05-04T12:47:05Z</time>
      </trkpt>
      <trkpt lat="45.48955" lon="4.90213">
        <ele>321.22</ele>
        <time>2016-05-04T12:47:11Z</time>
      </trkpt>
      <trkpt lat="45.48954" lon="4.90209">
        <ele>321.7</ele>
        <time>2016-05-04T12:47:15Z</time>
      </trkpt>
      <trkpt lat="45.48954" lon="4.90206">
        <ele>321.7</ele>
        <time>2016-05-04T12:47:17Z</time>
      </trkpt>
      <trkpt lat="45.48958" lon="4.90196">
        <ele>322.18</ele>
        <time>2016-05-04T12:47:23Z</time>
      </trkpt>
      <trkpt lat="45.48961" lon="4.90191">
        <ele>323.14</ele>
        <time>2016-05-04T12:47:27Z</time>
      </trkpt>
      <trkpt lat="45.48971" lon="4.90177">
        <ele>323.62</ele>
        <time>2016-05-04T12:47:39Z</time>
      </trkpt>
      <trkpt lat="45.48972" lon="4.90175">
        <ele>323.62</ele>
        <time>2016-05-04T12:47:40Z</time>
      </trkpt>
      <trkpt lat="45.48983" lon="4.90164">
        <ele>324.58</ele>
        <time>2016-05-04T12:47:53Z</time>
      </trkpt>
      <trkpt lat="45.48984" lon="4.9016">
        <ele>324.58</ele>
        <time>2016-05-04T12:47:55Z</time>
      </trkpt>
      <trkpt lat="45.48987" lon="4.90151">
        <ele>325.06</ele>
        <time>2016-05-04T12:48:01Z</time>
      </trkpt>
      <trkpt lat="45.48986" lon="4.90142">
        <ele>324.58</ele>
        <time>2016-05-04T12:48:07Z</time>
      </trkpt>
      <trkpt lat="45.48984" lon="4.90138">
        <ele>324.58</ele>
        <time>2016-05-04T12:48:11Z</time>
      </trkpt>
      <trkpt lat="45.48963" lon="4.9012">
        <ele>327.47</ele>
        <time>2016-05-04T12:48:33Z</time>
      </trkpt>
      <trkpt lat="45.4895" lon="4.90107">
        <ele>329.39</ele>
        <time>2016-05-04T12:48:54Z</time>
      </trkpt>
      <trkpt lat="45.48931" lon="4.90091">
        <ele>332.27</ele>
        <time>2016-05-04T12:49:15Z</time>
      </trkpt>
      <trkpt lat="45.48913" lon="4.90077">
        <ele>335.16</ele>
        <time>2016-05-04T12:49:36Z</time>
      </trkpt>
      <trkpt lat="45.48896" lon="4.90063">
        <ele>338.52</ele>
        <time>2016-05-04T12:50:06Z</time>
      </trkpt>
      <trkpt lat="45.48886" lon="4.90057">
        <ele>339.96</ele>
        <time>2016-05-04T12:50:20Z</time>
      </trkpt>
      <trkpt lat="45.48874" lon="4.90054">
        <ele>341.41</ele>
        <time>2016-05-04T12:50:44Z</time>
      </trkpt>
      <trkpt lat="45.4886" lon="4.90053">
        <ele>343.33</ele>
        <time>2016-05-04T12:50:59Z</time>
      </trkpt>
      <trkpt lat="45.48858" lon="4.90053">
        <ele>343.33</ele>
        <time>2016-05-04T12:51:00Z</time>
      </trkpt>
      <trkpt lat="45.48833" lon="4.90043">
        <ele>346.21</ele>
        <time>2016-05-04T12:51:24Z</time>
      </trkpt>
      <trkpt lat="45.48804" lon="4.90049">
        <ele>349.58</ele>
        <time>2016-05-04T12:51:48Z</time>
      </trkpt>
      <trkpt lat="45.488" lon="4.90048">
        <ele>350.06</ele>
        <time>2016-05-04T12:51:52Z</time>
      </trkpt>
      <trkpt lat="45.48781" lon="4.90023">
        <ele>351.98</ele>
        <time>2016-05-04T12:52:16Z</time>
      </trkpt>
      <trkpt lat="45.48781" lon="4.90025">
        <ele>352.46</ele>
        <time>2016-05-04T12:52:43Z</time>
      </trkpt>
      <trkpt lat="45.4877" lon="4.90013">
        <ele>353.9</ele>
        <time>2016-05-04T12:53:03Z</time>
      </trkpt>
      <trkpt lat="45.48754" lon="4.89987">
        <ele>356.79</ele>
        <time>2016-05-04T12:53:26Z</time>
      </trkpt>
      <trkpt lat="45.48754" lon="4.89968">
        <ele>359.67</ele>
        <time>2016-05-04T12:53:49Z</time>
      </trkpt>
      <trkpt lat="45.4875" lon="4.89951">
        <ele>361.11</ele>
        <time>2016-05-04T12:54:16Z</time>
      </trkpt>
      <trkpt lat="45.48739" lon="4.8993">
        <ele>364.48</ele>
        <time>2016-05-04T12:54:33Z</time>
      </trkpt>
      <trkpt lat="45.48729" lon="4.89921">
        <ele>364.96</ele>
        <time>2016-05-04T12:54:48Z</time>
      </trkpt>
      <trkpt lat="45.4872" lon="4.89908">
        <ele>366.4</ele>
        <time>2016-05-04T12:54:59Z</time>
      </trkpt>
      <trkpt lat="45.48716" lon="4.89881">
        <ele>367.36</ele>
        <time>2016-05-04T12:55:17Z</time>
      </trkpt>
      <trkpt lat="45.48717" lon="4.89868">
        <ele>370.24</ele>
        <time>2016-05-04T12:55:26Z</time>
      </trkpt>
      <trkpt lat="45.48721" lon="4.89856">
        <ele>371.69</ele>
        <time>2016-05-04T12:55:49Z</time>
      </trkpt>
      <trkpt lat="45.48721" lon="4.89855">
        <ele>372.65</ele>
        <time>2016-05-04T12:57:15Z</time>
      </trkpt>
      <trkpt lat="45.48725" lon="4.8983">
        <ele>375.53</ele>
        <time>2016-05-04T12:57:56Z</time>
      </trkpt>
      <trkpt lat="45.48727" lon="4.89802">
        <ele>377.94</ele>
        <time>2016-05-04T12:58:16Z</time>
      </trkpt>
      <trkpt lat="45.48728" lon="4.89779">
        <ele>379.86</ele>
        <time>2016-05-04T12:58:40Z</time>
      </trkpt>
      <trkpt lat="45.48725" lon="4.89776">
        <ele>381.3</ele>
        <time>2016-05-04T12:58:48Z</time>
      </trkpt>
      <trkpt lat="45.48723" lon="4.89773">
        <ele>381.3</ele>
        <time>2016-05-04T12:59:05Z</time>
      </trkpt>
      <trkpt lat="45.48726" lon="4.89776">
        <ele>380.82</ele>
        <time>2016-05-04T12:59:32Z</time>
      </trkpt>
      <trkpt lat="45.48738" lon="4.89766">
        <ele>382.26</ele>
        <time>2016-05-04T13:05:22Z</time>
      </trkpt>
      <trkpt lat="45.48771" lon="4.89756">
        <ele>380.34</ele>
        <time>2016-05-04T13:05:58Z</time>
      </trkpt>
      <trkpt lat="45.48788" lon="4.89748">
        <ele>378.42</ele>
        <time>2016-05-04T13:06:20Z</time>
      </trkpt>
      <trkpt lat="45.48821" lon="4.89735">
        <ele>379.86</ele>
        <time>2016-05-04T13:06:55Z</time>
      </trkpt>
      <trkpt lat="45.4885" lon="4.89739">
        <ele>382.26</ele>
        <time>2016-05-04T13:07:22Z</time>
      </trkpt>
      <trkpt lat="45.4888" lon="4.89739">
        <ele>381.3</ele>
        <time>2016-05-04T13:07:49Z</time>
      </trkpt>
      <trkpt lat="45.48909" lon="4.89753">
        <ele>380.82</ele>
        <time>2016-05-04T13:08:14Z</time>
      </trkpt>
      <trkpt lat="45.48922" lon="4.89764">
        <ele>380.34</ele>
        <time>2016-05-04T13:08:32Z</time>
      </trkpt>
      <trkpt lat="45.48946" lon="4.89782">
        <ele>379.86</ele>
        <time>2016-05-04T13:08:59Z</time>
      </trkpt>
      <trkpt lat="45.48991" lon="4.89773">
        <ele>379.86</ele>
        <time>2016-05-04T13:09:42Z</time>
      </trkpt>
      <trkpt lat="45.49" lon="4.89779">
        <ele>379.38</ele>
        <time>2016-05-04T13:09:52Z</time>
      </trkpt>
      <trkpt lat="45.49019" lon="4.89777">
        <ele>380.34</ele>
        <time>2016-05-04T13:10:09Z</time>
      </trkpt>
      <trkpt lat="45.4904" lon="4.89788">
        <ele>378.9</ele>
        <time>2016-05-04T13:10:33Z</time>
      </trkpt>
      <trkpt lat="45.49061" lon="4.89798">
        <ele>380.34</ele>
        <time>2016-05-04T13:10:55Z</time>
      </trkpt>
      <trkpt lat="45.49079" lon="4.89799">
        <ele>379.38</ele>
        <time>2016-05-04T13:11:19Z</time>
      </trkpt>
      <trkpt lat="45.49105" lon="4.89801">
        <ele>381.3</ele>
        <time>2016-05-04T13:11:48Z</time>
      </trkpt>
      <trkpt lat="45.49133" lon="4.89808">
        <ele>380.82</ele>
        <time>2016-05-04T13:12:15Z</time>
      </trkpt>
      <trkpt lat="45.49153" lon="4.89789">
        <ele>383.7</ele>
        <time>2016-05-04T13:12:40Z</time>
      </trkpt>
      <trkpt lat="45.49155" lon="4.89784">
        <ele>383.7</ele>
        <time>2016-05-04T13:12:42Z</time>
      </trkpt>
      <trkpt lat="45.49156" lon="4.89779">
        <ele>384.18</ele>
        <time>2016-05-04T13:12:46Z</time>
      </trkpt>
      <trkpt lat="45.49162" lon="4.89766">
        <ele>385.63</ele>
        <time>2016-05-04T13:12:59Z</time>
      </trkpt>
      <trkpt lat="45.49173" lon="4.89751">
        <ele>388.99</ele>
        <time>2016-05-04T13:13:15Z</time>
      </trkpt>
      <trkpt lat="45.49184" lon="4.89735">
        <ele>389.95</ele>
        <time>2016-05-04T13:13:36Z</time>
      </trkpt>
      <trkpt lat="45.49202" lon="4.8972">
        <ele>392.84</ele>
        <time>2016-05-04T13:14:04Z</time>
      </trkpt>
      <trkpt lat="45.49224" lon="4.89711">
        <ele>394.28</ele>
        <time>2016-05-04T13:14:28Z</time>
      </trkpt>
      <trkpt lat="45.49243" lon="4.897">
        <ele>397.16</ele>
        <time>2016-05-04T13:14:48Z</time>
      </trkpt>
      <trkpt lat="45.49254" lon="4.89691">
        <ele>400.05</ele>
        <time>2016-05-04T13:15:12Z</time>
      </trkpt>
      <trkpt lat="45.4927" lon="4.8967">
        <ele>401.97</ele>
        <time>2016-05-04T13:15:34Z</time>
      </trkpt>
      <trkpt lat="45.49282" lon="4.89655">
        <ele>402.45</ele>
        <time>2016-05-04T13:15:50Z</time>
      </trkpt>
      <trkpt lat="45.49303" lon="4.89647">
        <ele>402.45</ele>
        <time>2016-05-04T13:16:09Z</time>
      </trkpt>
      <trkpt lat="45.49304" lon="4.89646">
        <ele>402.45</ele>
        <time>2016-05-04T13:16:10Z</time>
      </trkpt>
      <trkpt lat="45.49314" lon="4.8964">
        <ele>402.93</ele>
        <time>2016-05-04T13:16:20Z</time>
      </trkpt>
      <trkpt lat="45.49331" lon="4.89633">
        <ele>402.93</ele>
        <time>2016-05-04T13:16:38Z</time>
      </trkpt>
      <trkpt lat="45.49352" lon="4.89627">
        <ele>402.93</ele>
        <time>2016-05-04T13:17:05Z</time>
      </trkpt>
      <trkpt lat="45.49375" lon="4.89632">
        <ele>402.93</ele>
        <time>2016-05-04T13:17:28Z</time>
      </trkpt>
      <trkpt lat="45.49402" lon="4.89636">
        <ele>401.49</ele>
        <time>2016-05-04T13:17:55Z</time>
      </trkpt>
      <trkpt lat="45.49427" lon="4.89647">
        <ele>401.01</ele>
        <time>2016-05-04T13:18:19Z</time>
      </trkpt>
      <trkpt lat="45.49432" lon="4.8965">
        <ele>401.01</ele>
        <time>2016-05-04T13:18:23Z</time>
      </trkpt>
      <trkpt lat="45.49448" lon="4.89657">
        <ele>400.05</ele>
        <time>2016-05-04T13:18:38Z</time>
      </trkpt>
      <trkpt lat="45.49453" lon="4.89656">
        <ele>400.53</ele>
        <time>2016-05-04T13:18:42Z</time>
      </trkpt>
      <trkpt lat="45.49469" lon="4.89654">
        <ele>400.53</ele>
        <time>2016-05-04T13:18:58Z</time>
      </trkpt>
      <trkpt lat="45.49482" lon="4.89644">
        <ele>400.53</ele>
        <time>2016-05-04T13:19:13Z</time>
      </trkpt>
      <trkpt lat="45.49488" lon="4.89637">
        <ele>400.53</ele>
        <time>2016-05-04T13:19:20Z</time>
      </trkpt>
      <trkpt lat="45.49488" lon="4.89631">
        <ele>400.53</ele>
        <time>2016-05-04T13:19:23Z</time>
      </trkpt>
      <trkpt lat="45.4949" lon="4.8962">
        <ele>401.97</ele>
        <time>2016-05-04T13:19:30Z</time>
      </trkpt>
      <trkpt lat="45.49493" lon="4.89616">
        <ele>401.97</ele>
        <time>2016-05-04T13:19:34Z</time>
      </trkpt>
      <trkpt lat="45.49495" lon="4.89616">
        <ele>401.97</ele>
        <time>2016-05-04T13:19:37Z</time>
      </trkpt>
      <trkpt lat="45.49495" lon="4.89613">
        <ele>402.93</ele>
        <time>2016-05-04T13:19:56Z</time>
      </trkpt>
      <trkpt lat="45.49495" lon="4.89613">
        <ele>402.93</ele>
        <time>2016-05-04T13:19:58Z</time>
      </trkpt>
      <trkpt lat="45.49492" lon="4.89609">
        <ele>402.45</ele>
        <time>2016-05-04T13:20:03Z</time>
      </trkpt>
      <trkpt lat="45.4949" lon="4.89604">
        <ele>402.93</ele>
        <time>2016-05-04T13:20:06Z</time>
      </trkpt>
      <trkpt lat="45.49489" lon="4.89586">
        <ele>404.37</ele>
        <time>2016-05-04T13:20:19Z</time>
      </trkpt>
      <trkpt lat="45.49485" lon="4.8957">
        <ele>405.81</ele>
        <time>2016-05-04T13:20:30Z</time>
      </trkpt>
      <trkpt lat="45.49484" lon="4.89561">
        <ele>406.29</ele>
        <time>2016-05-04T13:20:37Z</time>
      </trkpt>
      <trkpt lat="45.49482" lon="4.89554">
        <ele>406.77</ele>
        <time>2016-05-04T13:20:55Z</time>
      </trkpt>
      <trkpt lat="45.49481" lon="4.89555">
        <ele>406.29</ele>
        <time>2016-05-04T13:21:22Z</time>
      </trkpt>
      <trkpt lat="45.49465" lon="4.89516">
        <ele>410.62</ele>
        <time>2016-05-04T13:21:51Z</time>
      </trkpt>
      <trkpt lat="45.49462" lon="4.89493">
        <ele>410.14</ele>
        <time>2016-05-04T13:22:05Z</time>
      </trkpt>
      <trkpt lat="45.49472" lon="4.89475">
        <ele>410.14</ele>
        <time>2016-05-04T13:22:18Z</time>
      </trkpt>
      <trkpt lat="45.49497" lon="4.89453">
        <ele>409.18</ele>
        <time>2016-05-04T13:22:41Z</time>
      </trkpt>
      <trkpt lat="45.49519" lon="4.89436">
        <ele>408.22</ele>
        <time>2016-05-04T13:23:04Z</time>
      </trkpt>
      <trkpt lat="45.49527" lon="4.89428">
        <ele>408.22</ele>
        <time>2016-05-04T13:23:13Z</time>
      </trkpt>
      <trkpt lat="45.4956" lon="4.89395">
        <ele>408.7</ele>
        <time>2016-05-04T13:23:46Z</time>
      </trkpt>
      <trkpt lat="45.49594" lon="4.89366">
        <ele>408.7</ele>
        <time>2016-05-04T13:24:21Z</time>
      </trkpt>
      <trkpt lat="45.49599" lon="4.89361">
        <ele>408.22</ele>
        <time>2016-05-04T13:24:27Z</time>
      </trkpt>
      <trkpt lat="45.49627" lon="4.89337">
        <ele>408.7</ele>
        <time>2016-05-04T13:24:58Z</time>
      </trkpt>
      <trkpt lat="45.49654" lon="4.89314">
        <ele>408.22</ele>
        <time>2016-05-04T13:25:27Z</time>
      </trkpt>
      <trkpt lat="45.49683" lon="4.89228">
        <ele>386.927094</ele>
      </trkpt>
      <trkpt lat="45.49852" lon="4.89137">
        <ele>364.047546</ele>
      </trkpt>
      <trkpt lat="45.49898" lon="4.88992">
        <ele>365.244812</ele>
      </trkpt>
      <trkpt lat="45.49991" lon="4.88874">
        <ele>368.568695</ele>
      </trkpt>
      <trkpt lat="45.50038" lon="4.88787">
        <ele>376.841644</ele>
      </trkpt>
      <trkpt lat="45.50122" lon="4.8882">
        <ele>370.16037</ele>
      </trkpt>
      <trkpt lat="45.50177" lon="4.88803">
        <ele>370.62146</ele>
      </trkpt>
      <trkpt lat="45.50275" lon="4.88644">
        <ele>371.894958</ele>
      </trkpt>
      <trkpt lat="45.5027" lon="4.88478">
        <ele>368.251312</ele>
      </trkpt>
      <trkpt lat="45.50258" lon="4.88311">
        <ele>375.685394</ele>
      </trkpt>
      <trkpt lat="45.50323" lon="4.88125">
        <ele>378.489471</ele>
      </trkpt>
      <trkpt lat="45.50306" lon="4.88063">
        <ele>381.401917</ele>
      </trkpt>
      <trkpt lat="45.50435" lon="4.88025">
        <ele>382.452942</ele>
      </trkpt>
      <trkpt lat="45.50611" lon="4.88026">
        <ele>380.278809</ele>
      </trkpt>
      <trkpt lat="45.50795" lon="4.88035">
        <ele>371.151855</ele>
      </trkpt>
      <trkpt lat="45.51014" lon="4.88013">
        <ele>337.83609</ele>
      </trkpt>
      <trkpt lat="45.51138" lon="4.88009">
        <ele>326.213867</ele>
      </trkpt>
      <trkpt lat="45.51278" lon="4.88054">
        <ele>309.844666</ele>
      </trkpt>
      <trkpt lat="45.51419" lon="4.88025">
        <ele>299.980957</ele>
      </trkpt>
      <trkpt lat="45.51768" lon="4.87897">
        <ele>273.598572</ele>
      </trkpt>
      <trkpt lat="45.51949" lon="4.87845">
        <ele>256.952087</ele>
      </trkpt>
      <trkpt lat="45.52099" lon="4.87784">
        <ele>250.989319</ele>
      </trkpt>
      <trkpt lat="45.5218" lon="4.87686">
        <ele>236.125259</ele>
      </trkpt>
      <trkpt lat="45.52221" lon="4.87649">
        <ele>226.23851</ele>
      </trkpt>
      <trkpt lat="45.52291" lon="4.87652">
        <ele>214.014465</ele>
      </trkpt>
      <trkpt lat="45.52382" lon="4.8773">
        <ele>204.669495</ele>
      </trkpt>
      <trkpt lat="45.52424" lon="4.87726">
        <ele>194.023865</ele>
      </trkpt>
      <trkpt lat="45.52406" lon="4.87837">
        <ele>196.381363</ele>
      </trkpt>
      <trkpt lat="45.5245" lon="4.87781">
        <ele>187.821487</ele>
      </trkpt>
      <trkpt lat="45.52446" lon="4.87672">
        <ele>190.174561</ele>
      </trkpt>
      <trkpt lat="45.52357" lon="4.87572">
        <ele>184.130981</ele>
      </trkpt>
      <trkpt lat="45.52164" lon="4.87365">
        <ele>152.837891</ele>
        <time>2016-05-04T13:25:54Z</time>
      </trkpt>
      <trkpt lat="45.52186" lon="4.87174">
        <ele>157.927689</ele>
        <time>2016-05-04T13:26:00Z</time>
      </trkpt>
    </trkseg>
  </trk>
</gpx>